<?xml version='1.0' encoding='UTF-8'?><gpx version="1.1" creator="JPX - https://github.com/jenetics/jpx" xmlns="http://www.topografix.com/GPX/1/1"><trk><trkseg><trkpt lat="42.6465052" lon="13.7096936"><ele>402.0</ele><time>2026-04-05T06:49:15.018Z</time></trkpt><trkpt lat="42.6464935" lon="13.7095928"><ele>402.0</ele><time>2026-04-05T06:49:18.019Z</time></trkpt><trkpt lat="42.6465173" lon="13.7094807"><ele>402.0</ele><time>2026-04-05T06:49:59.02Z</time></trkpt><trkpt lat="42.6465398" lon="13.7093824"><ele>402.0</ele><time>2026-04-05T06:50:02.02Z</time></trkpt><trkpt lat="42.6465536" lon="13.7092822"><ele>402.0</ele><time>2026-04-05T06:50:05.019Z</time></trkpt><trkpt lat="42.6465833" lon="13.7091875"><ele>402.0</ele><time>2026-04-05T06:50:08.018Z</time></trkpt><trkpt lat="42.6465827" lon="13.7091015"><ele>403.4285714285714</ele><time>2026-04-05T06:50:10.018Z</time></trkpt><trkpt lat="42.6465623" lon="13.7090088"><ele>404.8571428571429</ele><time>2026-04-05T06:50:12.02Z</time></trkpt><trkpt lat="42.6465295" lon="13.7089298"><ele>406.2857142857143</ele><time>2026-04-05T06:50:14.02Z</time></trkpt><trkpt lat="42.6465034" lon="13.7088278"><ele>407.71428571428567</ele><time>2026-04-05T06:50:17.019Z</time></trkpt><trkpt lat="42.6464938" lon="13.7087318"><ele>409.1428571428571</ele><time>2026-04-05T06:50:20.019Z</time></trkpt><trkpt lat="42.6464645" lon="13.7086166"><ele>410.57142857142856</ele><time>2026-04-05T06:50:23.019Z</time></trkpt><trkpt lat="42.6464402" lon="13.7085298"><ele>412.0</ele><time>2026-04-05T06:50:26.019Z</time></trkpt><trkpt lat="42.6464116" lon="13.7084496"><ele>413.83333333333337</ele><time>2026-04-05T06:50:29.019Z</time></trkpt><trkpt lat="42.6463782" lon="13.7083554"><ele>415.6666666666667</ele><time>2026-04-05T06:50:33.019Z</time></trkpt><trkpt lat="42.6463442" lon="13.7082544"><ele>417.5</ele><time>2026-04-05T06:50:37.019Z</time></trkpt><trkpt lat="42.646326" lon="13.7081428"><ele>419.33333333333337</ele><time>2026-04-05T06:50:41.02Z</time></trkpt><trkpt lat="42.6463203" lon="13.7080395"><ele>421.1666666666667</ele><time>2026-04-05T06:50:45.018Z</time></trkpt><trkpt lat="42.6463059" lon="13.70795"><ele>423.0</ele><time>2026-04-05T06:51:18.019Z</time></trkpt><trkpt lat="42.6462918" lon="13.7078572"><ele>423.0</ele><time>2026-04-05T06:51:32.017Z</time></trkpt><trkpt lat="42.6462842" lon="13.7077718"><ele>423.0</ele><time>2026-04-05T06:51:36.018Z</time></trkpt><trkpt lat="42.6462638" lon="13.7076819"><ele>423.0</ele><time>2026-04-05T06:51:40.019Z</time></trkpt><trkpt lat="42.6462415" lon="13.7075894"><ele>423.0</ele><time>2026-04-05T06:51:44.018Z</time></trkpt><trkpt lat="42.6462342" lon="13.7074902"><ele>423.0</ele><time>2026-04-05T06:51:48.018Z</time></trkpt><trkpt lat="42.6462377" lon="13.7073909"><ele>423.0</ele><time>2026-04-05T06:51:52.019Z</time></trkpt><trkpt lat="42.6462239" lon="13.7073006"><ele>423.0</ele><time>2026-04-05T06:51:56.018Z</time></trkpt><trkpt lat="42.646205" lon="13.7072045"><ele>424.4285714285714</ele><time>2026-04-05T06:52:00.018Z</time></trkpt><trkpt lat="42.6462012" lon="13.7071082"><ele>425.8571428571429</ele><time>2026-04-05T06:52:04.017Z</time></trkpt><trkpt lat="42.6461992" lon="13.7070161"><ele>427.2857142857143</ele><time>2026-04-05T06:52:07.018Z</time></trkpt><trkpt lat="42.6462042" lon="13.7069229"><ele>428.71428571428567</ele><time>2026-04-05T06:52:10.018Z</time></trkpt><trkpt lat="42.6462282" lon="13.7068331"><ele>430.1428571428571</ele><time>2026-04-05T06:52:13.018Z</time></trkpt><trkpt lat="42.6462414" lon="13.7067308"><ele>431.57142857142856</ele><time>2026-04-05T06:52:24.018Z</time></trkpt><trkpt lat="42.6462283" lon="13.7066219"><ele>433.0</ele><time>2026-04-05T06:52:27.019Z</time></trkpt><trkpt lat="42.6462109" lon="13.7065227"><ele>434.00000000000006</ele><time>2026-04-05T06:52:46.018Z</time></trkpt><trkpt lat="42.6461857" lon="13.7064097"><ele>435.0</ele><time>2026-04-05T06:52:49.017Z</time></trkpt><trkpt lat="42.6461616" lon="13.7062828"><ele>436.0</ele><time>2026-04-05T06:52:52.019Z</time></trkpt><trkpt lat="42.6461464" lon="13.7061851"><ele>437.0</ele><time>2026-04-05T06:52:54.018Z</time></trkpt><trkpt lat="42.6461331" lon="13.7060855"><ele>438.00000000000006</ele><time>2026-04-05T06:52:56.018Z</time></trkpt><trkpt lat="42.6461272" lon="13.7059832"><ele>439.0</ele><time>2026-04-05T06:52:58.018Z</time></trkpt><trkpt lat="42.6461188" lon="13.7058744"><ele>439.7142857142857</ele><time>2026-04-05T06:53:00.018Z</time></trkpt><trkpt lat="42.6461134" lon="13.7057828"><ele>440.42857142857144</ele><time>2026-04-05T06:53:02.018Z</time></trkpt><trkpt lat="42.646112" lon="13.7056931"><ele>441.1428571428571</ele><time>2026-04-05T06:53:05.017Z</time></trkpt><trkpt lat="42.6461092" lon="13.7055855"><ele>441.8571428571429</ele><time>2026-04-05T06:53:09.017Z</time></trkpt><trkpt lat="42.6461013" lon="13.705468"><ele>442.5714285714286</ele><time>2026-04-05T06:53:12.019Z</time></trkpt><trkpt lat="42.6460961" lon="13.7053804"><ele>443.2857142857143</ele><time>2026-04-05T06:53:14.018Z</time></trkpt><trkpt lat="42.6460953" lon="13.7052891"><ele>444.0</ele><time>2026-04-05T06:53:16.018Z</time></trkpt><trkpt lat="42.6460942" lon="13.7051975"><ele>445.0</ele><time>2026-04-05T06:53:20.017Z</time></trkpt><trkpt lat="42.6460775" lon="13.7050815"><ele>446.0</ele><time>2026-04-05T06:53:23.018Z</time></trkpt><trkpt lat="42.6460568" lon="13.7049793"><ele>447.0</ele><time>2026-04-05T06:53:25.018Z</time></trkpt><trkpt lat="42.6460372" lon="13.7048397"><ele>448.0</ele><time>2026-04-05T06:53:27.019Z</time></trkpt><trkpt lat="42.6460237" lon="13.7047561"><ele>449.0</ele><time>2026-04-05T06:53:28.018Z</time></trkpt><trkpt lat="42.6460158" lon="13.7046695"><ele>450.0</ele><time>2026-04-05T06:53:29.018Z</time></trkpt><trkpt lat="42.6460036" lon="13.704582"><ele>450.0</ele><time>2026-04-05T06:53:30.017Z</time></trkpt><trkpt lat="42.6459914" lon="13.7044214"><ele>450.0</ele><time>2026-04-05T06:53:32.018Z</time></trkpt><trkpt lat="42.6459742" lon="13.7042694"><ele>450.0</ele><time>2026-04-05T06:53:34.019Z</time></trkpt><trkpt lat="42.6459619" lon="13.7041435"><ele>450.0</ele><time>2026-04-05T06:53:36.018Z</time></trkpt><trkpt lat="42.6459539" lon="13.7040296"><ele>450.0</ele><time>2026-04-05T06:53:38.018Z</time></trkpt><trkpt lat="42.6459497" lon="13.7039201"><ele>450.28571428571433</ele><time>2026-04-05T06:53:40.017Z</time></trkpt><trkpt lat="42.645933" lon="13.7038325"><ele>450.57142857142856</ele><time>2026-04-05T06:53:42.018Z</time></trkpt><trkpt lat="42.6459213" lon="13.7037472"><ele>450.8571428571429</ele><time>2026-04-05T06:53:44.018Z</time></trkpt><trkpt lat="42.6459197" lon="13.7036215"><ele>451.14285714285717</ele><time>2026-04-05T06:53:47.018Z</time></trkpt><trkpt lat="42.6459034" lon="13.7035334"><ele>451.42857142857144</ele><time>2026-04-05T06:53:49.018Z</time></trkpt><trkpt lat="42.6458626" lon="13.7034614"><ele>451.7142857142857</ele><time>2026-04-05T06:53:51.019Z</time></trkpt><trkpt lat="42.6458001" lon="13.7034205"><ele>452.0</ele><time>2026-04-05T06:53:53.019Z</time></trkpt><trkpt lat="42.645722" lon="13.7033737"><ele>453.66666666666663</ele><time>2026-04-05T06:53:56.018Z</time></trkpt><trkpt lat="42.6456724" lon="13.7032959"><ele>455.3333333333333</ele><time>2026-04-05T06:53:59.018Z</time></trkpt><trkpt lat="42.6456606" lon="13.7031976"><ele>457.0</ele><time>2026-04-05T06:54:02.018Z</time></trkpt><trkpt lat="42.645662" lon="13.7030885"><ele>458.66666666666663</ele><time>2026-04-05T06:54:05.019Z</time></trkpt><trkpt lat="42.6456221" lon="13.7029972"><ele>460.3333333333333</ele><time>2026-04-05T06:54:08.017Z</time></trkpt><trkpt lat="42.6455687" lon="13.702921"><ele>462.0</ele><time>2026-04-05T06:54:11.019Z</time></trkpt><trkpt lat="42.6455166" lon="13.70284"><ele>462.0</ele><time>2026-04-05T06:54:14.018Z</time></trkpt><trkpt lat="42.645468" lon="13.7027512"><ele>462.0</ele><time>2026-04-05T06:54:17.019Z</time></trkpt><trkpt lat="42.6453995" lon="13.7026707"><ele>462.0</ele><time>2026-04-05T06:54:20.019Z</time></trkpt><trkpt lat="42.645353" lon="13.7026128"><ele>462.0</ele><time>2026-04-05T06:54:22.017Z</time></trkpt><trkpt lat="42.6452973" lon="13.7025389"><ele>462.0</ele><time>2026-04-05T06:54:24.019Z</time></trkpt><trkpt lat="42.6452386" lon="13.702454"><ele>462.0</ele><time>2026-04-05T06:54:26.019Z</time></trkpt><trkpt lat="42.6451695" lon="13.7023679"><ele>463.20000000000005</ele><time>2026-04-05T06:54:28.019Z</time></trkpt><trkpt lat="42.645093" lon="13.7022778"><ele>464.40000000000003</ele><time>2026-04-05T06:54:30.019Z</time></trkpt><trkpt lat="42.6450021" lon="13.7021813"><ele>465.59999999999997</ele><time>2026-04-05T06:54:32.017Z</time></trkpt><trkpt lat="42.6449423" lon="13.7020864"><ele>466.79999999999995</ele><time>2026-04-05T06:54:34.018Z</time></trkpt><trkpt lat="42.6448913" lon="13.7020105"><ele>468.0</ele><time>2026-04-05T06:54:36.019Z</time></trkpt><trkpt lat="42.6448378" lon="13.7019248"><ele>471.42857142857144</ele><time>2026-04-05T06:54:39.018Z</time></trkpt><trkpt lat="42.6447963" lon="13.7018158"><ele>474.8571428571429</ele><time>2026-04-05T06:54:43.019Z</time></trkpt><trkpt lat="42.6448078" lon="13.7017115"><ele>478.28571428571433</ele><time>2026-04-05T06:54:46.019Z</time></trkpt><trkpt lat="42.644824" lon="13.7016277"><ele>481.7142857142858</ele><time>2026-04-05T06:54:49.019Z</time></trkpt><trkpt lat="42.644845" lon="13.701536"><ele>485.14285714285717</ele><time>2026-04-05T06:54:52.055Z</time></trkpt><trkpt lat="42.6448271" lon="13.7014481"><ele>488.57142857142867</ele><time>2026-04-05T06:54:55.018Z</time></trkpt><trkpt lat="42.6448035" lon="13.7013684"><ele>492.00000000000006</ele><time>2026-04-05T06:54:58.018Z</time></trkpt><trkpt lat="42.6447564" lon="13.7012827"><ele>492.0</ele><time>2026-04-05T06:55:02.017Z</time></trkpt><trkpt lat="42.6447237" lon="13.7011756"><ele>492.0</ele><time>2026-04-05T06:55:06.018Z</time></trkpt><trkpt lat="42.6446888" lon="13.7011009"><ele>492.0</ele><time>2026-04-05T06:55:09.017Z</time></trkpt><trkpt lat="42.644665" lon="13.7010031"><ele>492.0</ele><time>2026-04-05T06:55:13.018Z</time></trkpt><trkpt lat="42.6446322" lon="13.7009071"><ele>492.0</ele><time>2026-04-05T06:55:17.017Z</time></trkpt><trkpt lat="42.6446101" lon="13.7008079"><ele>492.0</ele><time>2026-04-05T06:55:21.016Z</time></trkpt><trkpt lat="42.6445939" lon="13.7007081"><ele>494.57142857142867</ele><time>2026-04-05T06:55:25.017Z</time></trkpt><trkpt lat="42.6446204" lon="13.7006046"><ele>497.14285714285717</ele><time>2026-04-05T06:55:29.018Z</time></trkpt><trkpt lat="42.6446792" lon="13.7005234"><ele>499.7142857142858</ele><time>2026-04-05T06:55:33.016Z</time></trkpt><trkpt lat="42.6447191" lon="13.7004549"><ele>502.28571428571433</ele><time>2026-04-05T06:55:36.018Z</time></trkpt><trkpt lat="42.6447591" lon="13.7003788"><ele>504.8571428571429</ele><time>2026-04-05T06:55:39.017Z</time></trkpt><trkpt lat="42.6447941" lon="13.700297"><ele>507.42857142857144</ele><time>2026-04-05T06:55:42.017Z</time></trkpt><trkpt lat="42.6448458" lon="13.7002417"><ele>510.0</ele><time>2026-04-05T06:55:45.016Z</time></trkpt><trkpt lat="42.6448875" lon="13.7001638"><ele>510.14285714285717</ele><time>2026-04-05T06:55:48.017Z</time></trkpt><trkpt lat="42.6449208" lon="13.7000881"><ele>510.28571428571433</ele><time>2026-04-05T06:55:51.016Z</time></trkpt><trkpt lat="42.6449502" lon="13.7000116"><ele>510.42857142857144</ele><time>2026-04-05T06:55:54.018Z</time></trkpt><trkpt lat="42.6449739" lon="13.6999296"><ele>510.57142857142856</ele><time>2026-04-05T06:55:57.017Z</time></trkpt><trkpt lat="42.6449832" lon="13.6998413"><ele>510.7142857142857</ele><time>2026-04-05T06:56:00.017Z</time></trkpt><trkpt lat="42.6450053" lon="13.6997404"><ele>510.8571428571429</ele><time>2026-04-05T06:56:04.018Z</time></trkpt><trkpt lat="42.6450423" lon="13.6996449"><ele>511.0</ele><time>2026-04-05T06:56:08.017Z</time></trkpt><trkpt lat="42.645043" lon="13.699538"><ele>511.00000000000006</ele><time>2026-04-05T06:56:12.017Z</time></trkpt><trkpt lat="42.6450259" lon="13.6994447"><ele>511.0</ele><time>2026-04-05T06:56:14.018Z</time></trkpt><trkpt lat="42.6450187" lon="13.6993493"><ele>511.0</ele><time>2026-04-05T06:56:16.017Z</time></trkpt><trkpt lat="42.6449681" lon="13.6992636"><ele>511.0</ele><time>2026-04-05T06:56:18.016Z</time></trkpt><trkpt lat="42.6449344" lon="13.6991635"><ele>511.00000000000006</ele><time>2026-04-05T06:56:20.018Z</time></trkpt><trkpt lat="42.6448976" lon="13.6990314"><ele>511.0</ele><time>2026-04-05T06:56:22.017Z</time></trkpt><trkpt lat="42.6448416" lon="13.6988902"><ele>510.1666666666667</ele><time>2026-04-05T06:56:24.018Z</time></trkpt><trkpt lat="42.6447802" lon="13.6987455"><ele>509.33333333333337</ele><time>2026-04-05T06:56:26.016Z</time></trkpt><trkpt lat="42.6447509" lon="13.6986648"><ele>508.5</ele><time>2026-04-05T06:56:27.017Z</time></trkpt><trkpt lat="42.6447212" lon="13.6985876"><ele>507.66666666666663</ele><time>2026-04-05T06:56:28.017Z</time></trkpt><trkpt lat="42.6446875" lon="13.6985058"><ele>506.8333333333333</ele><time>2026-04-05T06:56:29.017Z</time></trkpt><trkpt lat="42.6446562" lon="13.698425"><ele>506.0</ele><time>2026-04-05T06:56:30.016Z</time></trkpt><trkpt lat="42.6446273" lon="13.6983392"><ele>505.3333333333333</ele><time>2026-04-05T06:56:31.016Z</time></trkpt><trkpt lat="42.6445915" lon="13.6982599"><ele>504.66666666666663</ele><time>2026-04-05T06:56:32.017Z</time></trkpt><trkpt lat="42.6445636" lon="13.6981811"><ele>504.0</ele><time>2026-04-05T06:56:33.017Z</time></trkpt><trkpt lat="42.6445456" lon="13.6980952"><ele>503.33333333333337</ele><time>2026-04-05T06:56:34.017Z</time></trkpt><trkpt lat="42.644522" lon="13.6979318"><ele>502.6666666666667</ele><time>2026-04-05T06:56:36.018Z</time></trkpt><trkpt lat="42.6444994" lon="13.6977727"><ele>502.0</ele><time>2026-04-05T06:56:38.016Z</time></trkpt><trkpt lat="42.6444462" lon="13.6976229"><ele>501.50000000000006</ele><time>2026-04-05T06:56:40.016Z</time></trkpt><trkpt lat="42.6444079" lon="13.6975428"><ele>501.0</ele><time>2026-04-05T06:56:41.017Z</time></trkpt><trkpt lat="42.6443644" lon="13.6974594"><ele>500.5</ele><time>2026-04-05T06:56:42.018Z</time></trkpt><trkpt lat="42.6443192" lon="13.6973776"><ele>500.0</ele><time>2026-04-05T06:56:43.018Z</time></trkpt><trkpt lat="42.6442686" lon="13.6972945"><ele>499.50000000000006</ele><time>2026-04-05T06:56:44.016Z</time></trkpt><trkpt lat="42.6442153" lon="13.6972145"><ele>499.0</ele><time>2026-04-05T06:56:45.016Z</time></trkpt><trkpt lat="42.6441568" lon="13.6971271"><ele>499.0</ele><time>2026-04-05T06:56:46.016Z</time></trkpt><trkpt lat="42.6441004" lon="13.6970351"><ele>499.0</ele><time>2026-04-05T06:56:47.016Z</time></trkpt><trkpt lat="42.6440418" lon="13.6969415"><ele>499.0</ele><time>2026-04-05T06:56:48.017Z</time></trkpt><trkpt lat="42.6439854" lon="13.6968455"><ele>499.0</ele><time>2026-04-05T06:56:49.017Z</time></trkpt><trkpt lat="42.6439245" lon="13.69675"><ele>499.0</ele><time>2026-04-05T06:56:50.016Z</time></trkpt><trkpt lat="42.643863" lon="13.6966579"><ele>498.0</ele><time>2026-04-05T06:56:51.016Z</time></trkpt><trkpt lat="42.6437989" lon="13.6965628"><ele>497.0</ele><time>2026-04-05T06:56:52.017Z</time></trkpt><trkpt lat="42.6437377" lon="13.6964692"><ele>496.0</ele><time>2026-04-05T06:56:53.016Z</time></trkpt><trkpt lat="42.6436768" lon="13.6963739"><ele>495.0</ele><time>2026-04-05T06:56:54.016Z</time></trkpt><trkpt lat="42.6436148" lon="13.6962795"><ele>494.0</ele><time>2026-04-05T06:56:55.016Z</time></trkpt><trkpt lat="42.6435461" lon="13.6961967"><ele>493.66666666666663</ele><time>2026-04-05T06:56:56.017Z</time></trkpt><trkpt lat="42.6434897" lon="13.6960995"><ele>493.3333333333333</ele><time>2026-04-05T06:56:57.016Z</time></trkpt><trkpt lat="42.6434474" lon="13.6960015"><ele>493.0</ele><time>2026-04-05T06:56:58.018Z</time></trkpt><trkpt lat="42.6434136" lon="13.6959129"><ele>492.66666666666663</ele><time>2026-04-05T06:56:59.018Z</time></trkpt><trkpt lat="42.6433868" lon="13.6958328"><ele>492.3333333333333</ele><time>2026-04-05T06:57:00.018Z</time></trkpt><trkpt lat="42.6433249" lon="13.6957047"><ele>492.0</ele><time>2026-04-05T06:57:02.017Z</time></trkpt><trkpt lat="42.6432574" lon="13.695608"><ele>493.40000000000003</ele><time>2026-04-05T06:57:04.017Z</time></trkpt><trkpt lat="42.6431882" lon="13.6954961"><ele>494.80000000000007</ele><time>2026-04-05T06:57:06.018Z</time></trkpt><trkpt lat="42.6431199" lon="13.6953837"><ele>496.2</ele><time>2026-04-05T06:57:08.017Z</time></trkpt><trkpt lat="42.6430505" lon="13.6952847"><ele>497.6</ele><time>2026-04-05T06:57:10.017Z</time></trkpt><trkpt lat="42.6429826" lon="13.6951955"><ele>499.0</ele><time>2026-04-05T06:57:12.017Z</time></trkpt><trkpt lat="42.6429066" lon="13.6951201"><ele>499.4285714285715</ele><time>2026-04-05T06:57:14.017Z</time></trkpt><trkpt lat="42.642844" lon="13.6950504"><ele>499.8571428571429</ele><time>2026-04-05T06:57:16.018Z</time></trkpt><trkpt lat="42.6428037" lon="13.6949667"><ele>500.2857142857143</ele><time>2026-04-05T06:57:18.018Z</time></trkpt><trkpt lat="42.6427725" lon="13.6948848"><ele>500.7142857142857</ele><time>2026-04-05T06:57:20.017Z</time></trkpt><trkpt lat="42.6427277" lon="13.6948164"><ele>501.1428571428571</ele><time>2026-04-05T06:57:22.017Z</time></trkpt><trkpt lat="42.6426859" lon="13.6947522"><ele>501.5714285714285</ele><time>2026-04-05T06:57:24.017Z</time></trkpt><trkpt lat="42.6426464" lon="13.6946842"><ele>501.99999999999994</ele><time>2026-04-05T06:57:26.017Z</time></trkpt><trkpt lat="42.6425925" lon="13.6945825"><ele>503.6666666666667</ele><time>2026-04-05T06:57:29.017Z</time></trkpt><trkpt lat="42.6425413" lon="13.6944841"><ele>505.33333333333337</ele><time>2026-04-05T06:57:32.017Z</time></trkpt><trkpt lat="42.6424912" lon="13.694395"><ele>507.0</ele><time>2026-04-05T06:57:35.018Z</time></trkpt><trkpt lat="42.6424494" lon="13.6942857"><ele>508.66666666666663</ele><time>2026-04-05T06:57:38.018Z</time></trkpt><trkpt lat="42.6423942" lon="13.6941967"><ele>510.3333333333333</ele><time>2026-04-05T06:57:41.016Z</time></trkpt><trkpt lat="42.642344" lon="13.6941357"><ele>512.0</ele><time>2026-04-05T06:57:43.017Z</time></trkpt><trkpt lat="42.6423074" lon="13.6940635"><ele>513.4285714285714</ele><time>2026-04-05T06:57:45.017Z</time></trkpt><trkpt lat="42.6422629" lon="13.6939949"><ele>514.8571428571428</ele><time>2026-04-05T06:57:47.017Z</time></trkpt><trkpt lat="42.6422158" lon="13.6939214"><ele>516.2857142857142</ele><time>2026-04-05T06:57:49.017Z</time></trkpt><trkpt lat="42.6421653" lon="13.6938534"><ele>517.7142857142857</ele><time>2026-04-05T06:57:51.017Z</time></trkpt><trkpt lat="42.6421179" lon="13.6937848"><ele>519.1428571428571</ele><time>2026-04-05T06:57:53.018Z</time></trkpt><trkpt lat="42.642072" lon="13.6937165"><ele>520.5714285714286</ele><time>2026-04-05T06:57:55.016Z</time></trkpt><trkpt lat="42.6420206" lon="13.6936471"><ele>522.0</ele><time>2026-04-05T06:57:57.016Z</time></trkpt><trkpt lat="42.6419497" lon="13.6935584"><ele>524.5</ele><time>2026-04-05T06:58:00.017Z</time></trkpt><trkpt lat="42.6418932" lon="13.6934978"><ele>527.0</ele><time>2026-04-05T06:58:02.017Z</time></trkpt><trkpt lat="42.6418385" lon="13.6934331"><ele>529.5</ele><time>2026-04-05T06:58:04.017Z</time></trkpt><trkpt lat="42.6417847" lon="13.6933588"><ele>532.0</ele><time>2026-04-05T06:58:06.018Z</time></trkpt><trkpt lat="42.6417286" lon="13.6932846"><ele>534.5</ele><time>2026-04-05T06:58:08.018Z</time></trkpt><trkpt lat="42.641665" lon="13.6932162"><ele>537.0</ele><time>2026-04-05T06:58:10.018Z</time></trkpt><trkpt lat="42.6415949" lon="13.693163"><ele>537.0</ele><time>2026-04-05T06:58:12.017Z</time></trkpt><trkpt lat="42.6415184" lon="13.6931225"><ele>537.0</ele><time>2026-04-05T06:58:14.016Z</time></trkpt><trkpt lat="42.6414435" lon="13.6930971"><ele>537.0</ele><time>2026-04-05T06:58:16.017Z</time></trkpt><trkpt lat="42.6413671" lon="13.6930823"><ele>537.0</ele><time>2026-04-05T06:58:18.017Z</time></trkpt><trkpt lat="42.6412893" lon="13.6930698"><ele>537.0</ele><time>2026-04-05T06:58:20.018Z</time></trkpt><trkpt lat="42.6412154" lon="13.6930583"><ele>537.0</ele><time>2026-04-05T06:58:22.018Z</time></trkpt><trkpt lat="42.6411457" lon="13.6930547"><ele>536.1428571428571</ele><time>2026-04-05T06:58:24.017Z</time></trkpt><trkpt lat="42.6410725" lon="13.6930572"><ele>535.2857142857142</ele><time>2026-04-05T06:58:26.017Z</time></trkpt><trkpt lat="42.6409979" lon="13.6930539"><ele>534.4285714285714</ele><time>2026-04-05T06:58:28.016Z</time></trkpt><trkpt lat="42.6409227" lon="13.6930581"><ele>533.5714285714286</ele><time>2026-04-05T06:58:30.016Z</time></trkpt><trkpt lat="42.640849" lon="13.6930802"><ele>532.7142857142858</ele><time>2026-04-05T06:58:32.016Z</time></trkpt><trkpt lat="42.6407804" lon="13.6930907"><ele>531.8571428571429</ele><time>2026-04-05T06:58:34.017Z</time></trkpt><trkpt lat="42.6407161" lon="13.6930832"><ele>531.0</ele><time>2026-04-05T06:58:36.017Z</time></trkpt><trkpt lat="42.6406396" lon="13.6930276"><ele>531.0</ele><time>2026-04-05T06:58:39.016Z</time></trkpt><trkpt lat="42.6405626" lon="13.6929483"><ele>531.0</ele><time>2026-04-05T06:58:42.017Z</time></trkpt><trkpt lat="42.6404967" lon="13.6929176"><ele>531.0</ele><time>2026-04-05T06:58:44.018Z</time></trkpt><trkpt lat="42.6404356" lon="13.6928819"><ele>531.0</ele><time>2026-04-05T06:58:46.018Z</time></trkpt><trkpt lat="42.6403668" lon="13.6928537"><ele>531.0</ele><time>2026-04-05T06:58:48.018Z</time></trkpt><trkpt lat="42.6403015" lon="13.6928329"><ele>531.0</ele><time>2026-04-05T06:58:50.017Z</time></trkpt><trkpt lat="42.6402219" lon="13.6927873"><ele>532.6666666666666</ele><time>2026-04-05T06:58:53.017Z</time></trkpt><trkpt lat="42.6401455" lon="13.6927325"><ele>534.3333333333334</ele><time>2026-04-05T06:58:56.017Z</time></trkpt><trkpt lat="42.6400685" lon="13.6927013"><ele>536.0</ele><time>2026-04-05T06:58:59.017Z</time></trkpt><trkpt lat="42.6399846" lon="13.6926921"><ele>537.6666666666667</ele><time>2026-04-05T06:59:02.016Z</time></trkpt><trkpt lat="42.6399214" lon="13.6926807"><ele>539.3333333333334</ele><time>2026-04-05T06:59:04.016Z</time></trkpt><trkpt lat="42.6398511" lon="13.6926631"><ele>541.0</ele><time>2026-04-05T06:59:06.015Z</time></trkpt><trkpt lat="42.6397791" lon="13.6926405"><ele>541.0</ele><time>2026-04-05T06:59:08.016Z</time></trkpt><trkpt lat="42.639671" lon="13.6925974"><ele>541.0</ele><time>2026-04-05T06:59:10.016Z</time></trkpt><trkpt lat="42.6396048" lon="13.6925601"><ele>541.0</ele><time>2026-04-05T06:59:11.015Z</time></trkpt><trkpt lat="42.6395285" lon="13.6925228"><ele>541.0</ele><time>2026-04-05T06:59:12.017Z</time></trkpt><trkpt lat="42.6394514" lon="13.6924747"><ele>541.0</ele><time>2026-04-05T06:59:13.017Z</time></trkpt><trkpt lat="42.6393695" lon="13.6924309"><ele>541.0</ele><time>2026-04-05T06:59:14.017Z</time></trkpt><trkpt lat="42.6392826" lon="13.6923925"><ele>540.1666666666667</ele><time>2026-04-05T06:59:15.017Z</time></trkpt><trkpt lat="42.6391929" lon="13.6923633"><ele>539.3333333333334</ele><time>2026-04-05T06:59:16.016Z</time></trkpt><trkpt lat="42.6391041" lon="13.6923429"><ele>538.5</ele><time>2026-04-05T06:59:17.017Z</time></trkpt><trkpt lat="42.6390194" lon="13.6923272"><ele>537.6666666666666</ele><time>2026-04-05T06:59:18.017Z</time></trkpt><trkpt lat="42.638949" lon="13.6922999"><ele>536.8333333333333</ele><time>2026-04-05T06:59:19.017Z</time></trkpt><trkpt lat="42.6388835" lon="13.6922748"><ele>536.0</ele><time>2026-04-05T06:59:20.017Z</time></trkpt><trkpt lat="42.6387747" lon="13.692231"><ele>536.0</ele><time>2026-04-05T06:59:22.016Z</time></trkpt><trkpt lat="42.638691" lon="13.6922022"><ele>536.0</ele><time>2026-04-05T06:59:24.016Z</time></trkpt><trkpt lat="42.6386186" lon="13.6922129"><ele>536.0</ele><time>2026-04-05T06:59:26.016Z</time></trkpt><trkpt lat="42.638531" lon="13.6921869"><ele>536.0</ele><time>2026-04-05T06:59:29.015Z</time></trkpt><trkpt lat="42.6384698" lon="13.6921518"><ele>536.0</ele><time>2026-04-05T06:59:31.016Z</time></trkpt><trkpt lat="42.6384109" lon="13.692093"><ele>536.0</ele><time>2026-04-05T06:59:33.016Z</time></trkpt><trkpt lat="42.6383586" lon="13.6920186"><ele>535.7142857142858</ele><time>2026-04-05T06:59:35.016Z</time></trkpt><trkpt lat="42.638317" lon="13.6919437"><ele>535.4285714285714</ele><time>2026-04-05T06:59:37.016Z</time></trkpt><trkpt lat="42.6382752" lon="13.6918795"><ele>535.1428571428571</ele><time>2026-04-05T06:59:39.016Z</time></trkpt><trkpt lat="42.6382267" lon="13.6918215"><ele>534.8571428571429</ele><time>2026-04-05T06:59:41.016Z</time></trkpt><trkpt lat="42.638173" lon="13.6917632"><ele>534.5714285714286</ele><time>2026-04-05T06:59:43.015Z</time></trkpt><trkpt lat="42.6381142" lon="13.6917093"><ele>534.2857142857143</ele><time>2026-04-05T06:59:45.015Z</time></trkpt><trkpt lat="42.6380563" lon="13.6916644"><ele>534.0</ele><time>2026-04-05T06:59:47.016Z</time></trkpt><trkpt lat="42.6379924" lon="13.6916219"><ele>536.3333333333334</ele><time>2026-04-05T06:59:49.017Z</time></trkpt><trkpt lat="42.6379255" lon="13.6915685"><ele>538.6666666666666</ele><time>2026-04-05T06:59:51.015Z</time></trkpt><trkpt lat="42.6378544" lon="13.6915149"><ele>541.0</ele><time>2026-04-05T06:59:53.016Z</time></trkpt><trkpt lat="42.6377751" lon="13.691468"><ele>543.3333333333333</ele><time>2026-04-05T06:59:55.016Z</time></trkpt><trkpt lat="42.6376849" lon="13.6914291"><ele>545.6666666666666</ele><time>2026-04-05T06:59:57.017Z</time></trkpt><trkpt lat="42.6375867" lon="13.6913829"><ele>548.0</ele><time>2026-04-05T06:59:59.016Z</time></trkpt><trkpt lat="42.637478" lon="13.6913439"><ele>548.0</ele><time>2026-04-05T07:00:01.015Z</time></trkpt><trkpt lat="42.6373571" lon="13.6913143"><ele>548.0</ele><time>2026-04-05T07:00:03.015Z</time></trkpt><trkpt lat="42.6372269" lon="13.6913193"><ele>548.0</ele><time>2026-04-05T07:00:05.016Z</time></trkpt><trkpt lat="42.637164" lon="13.6913089"><ele>548.0</ele><time>2026-04-05T07:00:06.016Z</time></trkpt><trkpt lat="42.6371008" lon="13.6912825"><ele>548.0</ele><time>2026-04-05T07:00:07.016Z</time></trkpt><trkpt lat="42.6370363" lon="13.6912556"><ele>548.0000000000001</ele><time>2026-04-05T07:00:08.016Z</time></trkpt><trkpt lat="42.636972" lon="13.6912232"><ele>548.0</ele><time>2026-04-05T07:00:09.016Z</time></trkpt><trkpt lat="42.6369105" lon="13.6911858"><ele>548.0</ele><time>2026-04-05T07:00:10.016Z</time></trkpt><trkpt lat="42.6368462" lon="13.6911536"><ele>548.0</ele><time>2026-04-05T07:00:11.015Z</time></trkpt><trkpt lat="42.6367844" lon="13.6911157"><ele>548.0</ele><time>2026-04-05T07:00:12.017Z</time></trkpt><trkpt lat="42.6367189" lon="13.6910847"><ele>548.0000000000001</ele><time>2026-04-05T07:00:13.016Z</time></trkpt><trkpt lat="42.6366529" lon="13.6910538"><ele>548.0</ele><time>2026-04-05T07:00:14.017Z</time></trkpt><trkpt lat="42.6365863" lon="13.6910296"><ele>548.1999999999999</ele><time>2026-04-05T07:00:15.016Z</time></trkpt><trkpt lat="42.6365226" lon="13.6910192"><ele>548.4</ele><time>2026-04-05T07:00:16.016Z</time></trkpt><trkpt lat="42.63646" lon="13.6910083"><ele>548.5999999999999</ele><time>2026-04-05T07:00:17.015Z</time></trkpt><trkpt lat="42.6363373" lon="13.6910133"><ele>548.8</ele><time>2026-04-05T07:00:19.016Z</time></trkpt><trkpt lat="42.6362183" lon="13.6910337"><ele>549.0</ele><time>2026-04-05T07:00:21.015Z</time></trkpt><trkpt lat="42.6361059" lon="13.6910612"><ele>547.4</ele><time>2026-04-05T07:00:23.016Z</time></trkpt><trkpt lat="42.635992" lon="13.6911038"><ele>545.8</ele><time>2026-04-05T07:00:25.017Z</time></trkpt><trkpt lat="42.6358866" lon="13.6911438"><ele>544.2</ele><time>2026-04-05T07:00:27.016Z</time></trkpt><trkpt lat="42.6357909" lon="13.6911765"><ele>542.6</ele><time>2026-04-05T07:00:29.016Z</time></trkpt><trkpt lat="42.635701" lon="13.6911912"><ele>541.0</ele><time>2026-04-05T07:00:31.016Z</time></trkpt><trkpt lat="42.6356142" lon="13.6911988"><ele>541.0</ele><time>2026-04-05T07:00:33.015Z</time></trkpt><trkpt lat="42.6355288" lon="13.6911989"><ele>541.0</ele><time>2026-04-05T07:00:35.016Z</time></trkpt><trkpt lat="42.6354446" lon="13.6911944"><ele>541.0</ele><time>2026-04-05T07:00:37.015Z</time></trkpt><trkpt lat="42.6353623" lon="13.6911881"><ele>541.0</ele><time>2026-04-05T07:00:39.017Z</time></trkpt><trkpt lat="42.6352832" lon="13.6911808"><ele>541.0</ele><time>2026-04-05T07:00:41.017Z</time></trkpt><trkpt lat="42.6352073" lon="13.6911668"><ele>541.0</ele><time>2026-04-05T07:00:43.015Z</time></trkpt><trkpt lat="42.6351309" lon="13.6911538"><ele>542.4285714285714</ele><time>2026-04-05T07:00:45.016Z</time></trkpt><trkpt lat="42.6350557" lon="13.6911376"><ele>543.8571428571429</ele><time>2026-04-05T07:00:47.017Z</time></trkpt><trkpt lat="42.6349839" lon="13.6911233"><ele>545.2857142857142</ele><time>2026-04-05T07:00:49.017Z</time></trkpt><trkpt lat="42.6349158" lon="13.6911105"><ele>546.7142857142858</ele><time>2026-04-05T07:00:51.016Z</time></trkpt><trkpt lat="42.6348459" lon="13.6911"><ele>548.1428571428571</ele><time>2026-04-05T07:00:53.016Z</time></trkpt><trkpt lat="42.63478" lon="13.6910836"><ele>549.5714285714286</ele><time>2026-04-05T07:00:55.015Z</time></trkpt><trkpt lat="42.6347151" lon="13.6910748"><ele>551.0</ele><time>2026-04-05T07:00:57.017Z</time></trkpt><trkpt lat="42.6346488" lon="13.6910691"><ele>551.4285714285713</ele><time>2026-04-05T07:00:59.017Z</time></trkpt><trkpt lat="42.634584" lon="13.6910648"><ele>551.8571428571429</ele><time>2026-04-05T07:01:01.016Z</time></trkpt><trkpt lat="42.6345208" lon="13.6910701"><ele>552.2857142857142</ele><time>2026-04-05T07:01:03.016Z</time></trkpt><trkpt lat="42.6344295" lon="13.6910883"><ele>552.7142857142857</ele><time>2026-04-05T07:01:06.016Z</time></trkpt><trkpt lat="42.6343617" lon="13.6910987"><ele>553.1428571428571</ele><time>2026-04-05T07:01:08.016Z</time></trkpt><trkpt lat="42.6342932" lon="13.6911028"><ele>553.5714285714286</ele><time>2026-04-05T07:01:10.016Z</time></trkpt><trkpt lat="42.6342183" lon="13.6911083"><ele>554.0</ele><time>2026-04-05T07:01:12.016Z</time></trkpt><trkpt lat="42.634141" lon="13.6911081"><ele>554.0</ele><time>2026-04-05T07:01:14.016Z</time></trkpt><trkpt lat="42.6340624" lon="13.6911059"><ele>554.0</ele><time>2026-04-05T07:01:16.017Z</time></trkpt><trkpt lat="42.6339858" lon="13.6910967"><ele>554.0</ele><time>2026-04-05T07:01:18.016Z</time></trkpt><trkpt lat="42.6339093" lon="13.6910854"><ele>554.0</ele><time>2026-04-05T07:01:20.017Z</time></trkpt><trkpt lat="42.6338344" lon="13.6910889"><ele>554.0</ele><time>2026-04-05T07:01:22.016Z</time></trkpt><trkpt lat="42.6337602" lon="13.6910884"><ele>554.0</ele><time>2026-04-05T07:01:24.016Z</time></trkpt><trkpt lat="42.633687" lon="13.6910909"><ele>554.2857142857142</ele><time>2026-04-05T07:01:26.015Z</time></trkpt><trkpt lat="42.6336127" lon="13.6911018"><ele>554.5714285714286</ele><time>2026-04-05T07:01:28.016Z</time></trkpt><trkpt lat="42.6335388" lon="13.6911183"><ele>554.8571428571429</ele><time>2026-04-05T07:01:30.016Z</time></trkpt><trkpt lat="42.6334673" lon="13.6911203"><ele>555.1428571428571</ele><time>2026-04-05T07:01:32.015Z</time></trkpt><trkpt lat="42.6333966" lon="13.6911251"><ele>555.4285714285714</ele><time>2026-04-05T07:01:34.015Z</time></trkpt><trkpt lat="42.6333283" lon="13.6911269"><ele>555.7142857142857</ele><time>2026-04-05T07:01:36.016Z</time></trkpt><trkpt lat="42.6332508" lon="13.6911188"><ele>556.0</ele><time>2026-04-05T07:01:38.016Z</time></trkpt><trkpt lat="42.633165" lon="13.6911172"><ele>556.0</ele><time>2026-04-05T07:01:40.015Z</time></trkpt><trkpt lat="42.633071" lon="13.6911147"><ele>556.0</ele><time>2026-04-05T07:01:42.016Z</time></trkpt><trkpt lat="42.6329741" lon="13.6911012"><ele>556.0</ele><time>2026-04-05T07:01:44.017Z</time></trkpt><trkpt lat="42.6328684" lon="13.6910841"><ele>556.0</ele><time>2026-04-05T07:01:46.016Z</time></trkpt><trkpt lat="42.6327679" lon="13.6910448"><ele>556.0</ele><time>2026-04-05T07:01:48.016Z</time></trkpt><trkpt lat="42.6326563" lon="13.6910337"><ele>559.6</ele><time>2026-04-05T07:01:50.017Z</time></trkpt><trkpt lat="42.6325461" lon="13.6910329"><ele>563.2</ele><time>2026-04-05T07:01:52.016Z</time></trkpt><trkpt lat="42.6324408" lon="13.6910175"><ele>566.8</ele><time>2026-04-05T07:01:54.016Z</time></trkpt><trkpt lat="42.6323359" lon="13.6909987"><ele>570.4</ele><time>2026-04-05T07:01:56.016Z</time></trkpt><trkpt lat="42.6322237" lon="13.6909614"><ele>574.0</ele><time>2026-04-05T07:01:58.017Z</time></trkpt><trkpt lat="42.6321112" lon="13.6909206"><ele>574.0</ele><time>2026-04-05T07:02:00.016Z</time></trkpt><trkpt lat="42.6319995" lon="13.6908748"><ele>574.0</ele><time>2026-04-05T07:02:02.016Z</time></trkpt><trkpt lat="42.6318877" lon="13.6908262"><ele>574.0</ele><time>2026-04-05T07:02:04.016Z</time></trkpt><trkpt lat="42.6317818" lon="13.6907738"><ele>574.0</ele><time>2026-04-05T07:02:06.016Z</time></trkpt><trkpt lat="42.6316754" lon="13.6907337"><ele>573.8</ele><time>2026-04-05T07:02:08.016Z</time></trkpt><trkpt lat="42.6315698" lon="13.6906965"><ele>573.5999999999999</ele><time>2026-04-05T07:02:10.017Z</time></trkpt><trkpt lat="42.6314645" lon="13.6906702"><ele>573.4</ele><time>2026-04-05T07:02:12.016Z</time></trkpt><trkpt lat="42.6313677" lon="13.6906476"><ele>573.1999999999999</ele><time>2026-04-05T07:02:14.015Z</time></trkpt><trkpt lat="42.6312741" lon="13.6906355"><ele>573.0</ele><time>2026-04-05T07:02:16.017Z</time></trkpt><trkpt lat="42.6311814" lon="13.6906445"><ele>574.1666666666666</ele><time>2026-04-05T07:02:18.017Z</time></trkpt><trkpt lat="42.6310954" lon="13.6906598"><ele>575.3333333333334</ele><time>2026-04-05T07:02:20.015Z</time></trkpt><trkpt lat="42.6310126" lon="13.690696"><ele>576.5</ele><time>2026-04-05T07:02:22.017Z</time></trkpt><trkpt lat="42.6309315" lon="13.690729"><ele>577.6666666666667</ele><time>2026-04-05T07:02:24.016Z</time></trkpt><trkpt lat="42.6308493" lon="13.690763"><ele>578.8333333333334</ele><time>2026-04-05T07:02:26.017Z</time></trkpt><trkpt lat="42.6307628" lon="13.6907909"><ele>580.0</ele><time>2026-04-05T07:02:28.017Z</time></trkpt><trkpt lat="42.6306742" lon="13.6908148"><ele>580.0</ele><time>2026-04-05T07:02:30.015Z</time></trkpt><trkpt lat="42.6305801" lon="13.690851"><ele>580.0</ele><time>2026-04-05T07:02:32.016Z</time></trkpt><trkpt lat="42.6304797" lon="13.6908843"><ele>580.0</ele><time>2026-04-05T07:02:34.015Z</time></trkpt><trkpt lat="42.6303717" lon="13.6909222"><ele>580.0</ele><time>2026-04-05T07:02:36.015Z</time></trkpt><trkpt lat="42.6302562" lon="13.6909533"><ele>580.0</ele><time>2026-04-05T07:02:38.016Z</time></trkpt><trkpt lat="42.6301345" lon="13.6909789"><ele>578.5</ele><time>2026-04-05T07:02:40.017Z</time></trkpt><trkpt lat="42.6300092" lon="13.6909988"><ele>577.0</ele><time>2026-04-05T07:02:42.017Z</time></trkpt><trkpt lat="42.6298861" lon="13.6909967"><ele>575.5</ele><time>2026-04-05T07:02:44.016Z</time></trkpt><trkpt lat="42.6297632" lon="13.6909806"><ele>574.0</ele><time>2026-04-05T07:02:46.016Z</time></trkpt><trkpt lat="42.6296406" lon="13.6909528"><ele>574.0</ele><time>2026-04-05T07:02:48.015Z</time></trkpt><trkpt lat="42.6295768" lon="13.6909472"><ele>574.0</ele><time>2026-04-05T07:02:49.015Z</time></trkpt><trkpt lat="42.6295113" lon="13.6909305"><ele>574.0</ele><time>2026-04-05T07:02:50.016Z</time></trkpt><trkpt lat="42.6294441" lon="13.6909205"><ele>574.0</ele><time>2026-04-05T07:02:51.016Z</time></trkpt><trkpt lat="42.6293754" lon="13.6909216"><ele>574.0</ele><time>2026-04-05T07:02:52.016Z</time></trkpt><trkpt lat="42.6293066" lon="13.6909234"><ele>574.0</ele><time>2026-04-05T07:02:53.016Z</time></trkpt><trkpt lat="42.6292373" lon="13.6909297"><ele>574.0</ele><time>2026-04-05T07:02:54.017Z</time></trkpt><trkpt lat="42.6291659" lon="13.6909327"><ele>573.3333333333334</ele><time>2026-04-05T07:02:55.016Z</time></trkpt><trkpt lat="42.6290963" lon="13.6909396"><ele>572.6666666666667</ele><time>2026-04-05T07:02:56.017Z</time></trkpt><trkpt lat="42.6290278" lon="13.6909418"><ele>572.0</ele><time>2026-04-05T07:02:57.016Z</time></trkpt><trkpt lat="42.6289581" lon="13.690939"><ele>571.3333333333334</ele><time>2026-04-05T07:02:58.017Z</time></trkpt><trkpt lat="42.6288907" lon="13.690928"><ele>570.6666666666666</ele><time>2026-04-05T07:02:59.015Z</time></trkpt><trkpt lat="42.6287743" lon="13.6908732"><ele>570.0</ele><time>2026-04-05T07:03:01.016Z</time></trkpt><trkpt lat="42.62867" lon="13.690801"><ele>571.6</ele><time>2026-04-05T07:03:03.016Z</time></trkpt><trkpt lat="42.6285779" lon="13.6907206"><ele>573.2</ele><time>2026-04-05T07:03:05.017Z</time></trkpt><trkpt lat="42.6284895" lon="13.6906386"><ele>574.8</ele><time>2026-04-05T07:03:07.016Z</time></trkpt><trkpt lat="42.6284158" lon="13.6905415"><ele>576.4</ele><time>2026-04-05T07:03:09.016Z</time></trkpt><trkpt lat="42.6283509" lon="13.6904282"><ele>578.0</ele><time>2026-04-05T07:03:11.017Z</time></trkpt><trkpt lat="42.6282881" lon="13.6903242"><ele>576.8</ele><time>2026-04-05T07:03:13.017Z</time></trkpt><trkpt lat="42.628207" lon="13.690249"><ele>575.5999999999999</ele><time>2026-04-05T07:03:15.017Z</time></trkpt><trkpt lat="42.6281304" lon="13.690174"><ele>574.4000000000001</ele><time>2026-04-05T07:03:17.015Z</time></trkpt><trkpt lat="42.6280549" lon="13.6900982"><ele>573.2</ele><time>2026-04-05T07:03:19.015Z</time></trkpt><trkpt lat="42.6279789" lon="13.6900311"><ele>572.0</ele><time>2026-04-05T07:03:21.016Z</time></trkpt><trkpt lat="42.627915" lon="13.6899507"><ele>572.0</ele><time>2026-04-05T07:03:23.015Z</time></trkpt><trkpt lat="42.627849" lon="13.6898705"><ele>572.0</ele><time>2026-04-05T07:03:25.015Z</time></trkpt><trkpt lat="42.6277881" lon="13.6898073"><ele>572.0</ele><time>2026-04-05T07:03:27.015Z</time></trkpt><trkpt lat="42.6277193" lon="13.689755"><ele>572.0</ele><time>2026-04-05T07:03:29.015Z</time></trkpt><trkpt lat="42.627651" lon="13.6897171"><ele>572.0</ele><time>2026-04-05T07:03:31.015Z</time></trkpt><trkpt lat="42.627587" lon="13.6896783"><ele>572.0</ele><time>2026-04-05T07:03:33.016Z</time></trkpt><trkpt lat="42.6275209" lon="13.6896397"><ele>574.1666666666666</ele><time>2026-04-05T07:03:35.014Z</time></trkpt><trkpt lat="42.6274504" lon="13.6896044"><ele>576.3333333333333</ele><time>2026-04-05T07:03:37.014Z</time></trkpt><trkpt lat="42.6273858" lon="13.6895749"><ele>578.5</ele><time>2026-04-05T07:03:39.015Z</time></trkpt><trkpt lat="42.627323" lon="13.6895491"><ele>580.6666666666666</ele><time>2026-04-05T07:03:41.016Z</time></trkpt><trkpt lat="42.6272588" lon="13.6895307"><ele>582.8333333333334</ele><time>2026-04-05T07:03:43.015Z</time></trkpt><trkpt lat="42.6271679" lon="13.689501"><ele>585.0</ele><time>2026-04-05T07:03:46.014Z</time></trkpt><trkpt lat="42.6270845" lon="13.6894598"><ele>585.1666666666666</ele><time>2026-04-05T07:03:49.015Z</time></trkpt><trkpt lat="42.6270003" lon="13.6894159"><ele>585.3333333333334</ele><time>2026-04-05T07:03:52.016Z</time></trkpt><trkpt lat="42.6269237" lon="13.6893606"><ele>585.5</ele><time>2026-04-05T07:03:55.016Z</time></trkpt><trkpt lat="42.6268606" lon="13.689295"><ele>585.6666666666667</ele><time>2026-04-05T07:03:58.016Z</time></trkpt><trkpt lat="42.6268024" lon="13.68922"><ele>585.8333333333334</ele><time>2026-04-05T07:04:01.016Z</time></trkpt><trkpt lat="42.6267502" lon="13.6891262"><ele>586.0</ele><time>2026-04-05T07:04:04.014Z</time></trkpt><trkpt lat="42.6266937" lon="13.6890375"><ele>587.1666666666667</ele><time>2026-04-05T07:04:07.014Z</time></trkpt><trkpt lat="42.626646" lon="13.6889463"><ele>588.3333333333334</ele><time>2026-04-05T07:04:10.016Z</time></trkpt><trkpt lat="42.6265975" lon="13.6888693"><ele>589.5</ele><time>2026-04-05T07:04:13.016Z</time></trkpt><trkpt lat="42.6265429" lon="13.6887994"><ele>590.6666666666666</ele><time>2026-04-05T07:04:16.016Z</time></trkpt><trkpt lat="42.6264919" lon="13.6887177"><ele>591.8333333333333</ele><time>2026-04-05T07:04:19.016Z</time></trkpt><trkpt lat="42.6264364" lon="13.6886352"><ele>593.0</ele><time>2026-04-05T07:04:22.015Z</time></trkpt><trkpt lat="42.6263845" lon="13.688531"><ele>593.5714285714286</ele><time>2026-04-05T07:04:25.014Z</time></trkpt><trkpt lat="42.626348" lon="13.6884584"><ele>594.1428571428571</ele><time>2026-04-05T07:04:27.015Z</time></trkpt><trkpt lat="42.6262994" lon="13.688394"><ele>594.7142857142858</ele><time>2026-04-05T07:04:29.014Z</time></trkpt><trkpt lat="42.6262482" lon="13.6883218"><ele>595.2857142857142</ele><time>2026-04-05T07:04:31.015Z</time></trkpt><trkpt lat="42.6261939" lon="13.6882495"><ele>595.8571428571429</ele><time>2026-04-05T07:04:33.015Z</time></trkpt><trkpt lat="42.6261384" lon="13.6881712"><ele>596.4285714285714</ele><time>2026-04-05T07:04:35.016Z</time></trkpt><trkpt lat="42.6260823" lon="13.6880899"><ele>597.0</ele><time>2026-04-05T07:04:37.015Z</time></trkpt><trkpt lat="42.6260312" lon="13.6880051"><ele>597.0000000000001</ele><time>2026-04-05T07:04:39.015Z</time></trkpt><trkpt lat="42.6259804" lon="13.6879253"><ele>597.0</ele><time>2026-04-05T07:04:41.015Z</time></trkpt><trkpt lat="42.6259349" lon="13.6878387"><ele>597.0</ele><time>2026-04-05T07:04:43.015Z</time></trkpt><trkpt lat="42.6258843" lon="13.6877634"><ele>597.0</ele><time>2026-04-05T07:04:45.015Z</time></trkpt><trkpt lat="42.6258447" lon="13.6876846"><ele>597.0</ele><time>2026-04-05T07:04:47.016Z</time></trkpt><trkpt lat="42.625801" lon="13.6876205"><ele>597.0000000000001</ele><time>2026-04-05T07:04:49.015Z</time></trkpt><trkpt lat="42.6257535" lon="13.6875531"><ele>597.0</ele><time>2026-04-05T07:04:51.015Z</time></trkpt><trkpt lat="42.6257091" lon="13.68748"><ele>596.6666666666666</ele><time>2026-04-05T07:04:53.016Z</time></trkpt><trkpt lat="42.6256555" lon="13.6874096"><ele>596.3333333333334</ele><time>2026-04-05T07:04:55.015Z</time></trkpt><trkpt lat="42.6255974" lon="13.6873368"><ele>596.0</ele><time>2026-04-05T07:04:57.015Z</time></trkpt><trkpt lat="42.6255325" lon="13.6872679"><ele>595.6666666666667</ele><time>2026-04-05T07:04:59.016Z</time></trkpt><trkpt lat="42.6254604" lon="13.6871917"><ele>595.3333333333334</ele><time>2026-04-05T07:05:01.015Z</time></trkpt><trkpt lat="42.6253818" lon="13.6870815"><ele>595.0</ele><time>2026-04-05T07:05:03.015Z</time></trkpt><trkpt lat="42.62529" lon="13.6869625"><ele>596.4</ele><time>2026-04-05T07:05:05.016Z</time></trkpt><trkpt lat="42.6252417" lon="13.6869061"><ele>597.8</ele><time>2026-04-05T07:05:06.016Z</time></trkpt><trkpt lat="42.6251516" lon="13.6868112"><ele>599.2</ele><time>2026-04-05T07:05:08.014Z</time></trkpt><trkpt lat="42.6250653" lon="13.6867181"><ele>600.6</ele><time>2026-04-05T07:05:10.015Z</time></trkpt><trkpt lat="42.6249837" lon="13.6866274"><ele>602.0</ele><time>2026-04-05T07:05:12.016Z</time></trkpt><trkpt lat="42.6249123" lon="13.6865401"><ele>602.0</ele><time>2026-04-05T07:05:14.015Z</time></trkpt><trkpt lat="42.6248549" lon="13.6864598"><ele>602.0</ele><time>2026-04-05T07:05:16.015Z</time></trkpt><trkpt lat="42.6247944" lon="13.6863847"><ele>602.0</ele><time>2026-04-05T07:05:18.016Z</time></trkpt><trkpt lat="42.6247316" lon="13.6862876"><ele>602.0</ele><time>2026-04-05T07:05:21.014Z</time></trkpt><trkpt lat="42.6246916" lon="13.6862191"><ele>602.0</ele><time>2026-04-05T07:05:23.015Z</time></trkpt><trkpt lat="42.6246414" lon="13.6861205"><ele>602.0</ele><time>2026-04-05T07:05:26.015Z</time></trkpt><trkpt lat="42.6245965" lon="13.6860475"><ele>601.7142857142857</ele><time>2026-04-05T07:05:29.014Z</time></trkpt><trkpt lat="42.6245637" lon="13.6859692"><ele>601.4285714285714</ele><time>2026-04-05T07:05:35.015Z</time></trkpt><trkpt lat="42.6245622" lon="13.6858832"><ele>601.1428571428571</ele><time>2026-04-05T07:05:42.015Z</time></trkpt><trkpt lat="42.6246123" lon="13.6858176"><ele>600.8571428571429</ele><time>2026-04-05T07:05:45.014Z</time></trkpt><trkpt lat="42.6246496" lon="13.6857459"><ele>600.5714285714286</ele><time>2026-04-05T07:05:47.015Z</time></trkpt><trkpt lat="42.6246799" lon="13.6856526"><ele>600.2857142857142</ele><time>2026-04-05T07:05:49.015Z</time></trkpt><trkpt lat="42.6246894" lon="13.6855043"><ele>600.0</ele><time>2026-04-05T07:05:51.015Z</time></trkpt><trkpt lat="42.6247069" lon="13.6853413"><ele>599.6666666666666</ele><time>2026-04-05T07:05:53.015Z</time></trkpt><trkpt lat="42.6247196" lon="13.685177"><ele>599.3333333333334</ele><time>2026-04-05T07:05:55.015Z</time></trkpt><trkpt lat="42.6247204" lon="13.6850429"><ele>599.0</ele><time>2026-04-05T07:05:57.016Z</time></trkpt><trkpt lat="42.6247071" lon="13.6849515"><ele>598.6666666666667</ele><time>2026-04-05T07:06:04.015Z</time></trkpt><trkpt lat="42.624675" lon="13.6848544"><ele>598.3333333333334</ele><time>2026-04-05T07:06:14.015Z</time></trkpt><trkpt lat="42.6246515" lon="13.6847643"><ele>598.0</ele><time>2026-04-05T07:06:19.016Z</time></trkpt><trkpt lat="42.6246249" lon="13.6846775"><ele>598.0</ele><time>2026-04-05T07:06:22.014Z</time></trkpt><trkpt lat="42.6245967" lon="13.6845636"><ele>598.0</ele><time>2026-04-05T07:06:26.015Z</time></trkpt><trkpt lat="42.6245972" lon="13.684466"><ele>598.0</ele><time>2026-04-05T07:06:28.015Z</time></trkpt><trkpt lat="42.6245945" lon="13.6843541"><ele>598.0</ele><time>2026-04-05T07:06:30.014Z</time></trkpt><trkpt lat="42.6245848" lon="13.6842467"><ele>598.0</ele><time>2026-04-05T07:06:32.016Z</time></trkpt><trkpt lat="42.6245764" lon="13.6841442"><ele>598.0</ele><time>2026-04-05T07:06:34.015Z</time></trkpt><trkpt lat="42.6245638" lon="13.6839856"><ele>596.1999999999999</ele><time>2026-04-05T07:06:36.015Z</time></trkpt><trkpt lat="42.6245392" lon="13.6838209"><ele>594.4</ele><time>2026-04-05T07:06:38.014Z</time></trkpt><trkpt lat="42.6245124" lon="13.6837411"><ele>592.5999999999999</ele><time>2026-04-05T07:06:39.016Z</time></trkpt><trkpt lat="42.6244487" lon="13.6835976"><ele>590.8</ele><time>2026-04-05T07:06:41.014Z</time></trkpt><trkpt lat="42.6244123" lon="13.6834432"><ele>589.0</ele><time>2026-04-05T07:06:43.015Z</time></trkpt><trkpt lat="42.6244078" lon="13.6832778"><ele>588.0</ele><time>2026-04-05T07:06:45.015Z</time></trkpt><trkpt lat="42.6243987" lon="13.683121"><ele>587.0</ele><time>2026-04-05T07:06:47.015Z</time></trkpt><trkpt lat="42.6243553" lon="13.682992"><ele>586.0</ele><time>2026-04-05T07:06:49.015Z</time></trkpt><trkpt lat="42.6243107" lon="13.6828749"><ele>585.0</ele><time>2026-04-05T07:06:51.014Z</time></trkpt><trkpt lat="42.6242742" lon="13.6827648"><ele>584.0</ele><time>2026-04-05T07:06:53.016Z</time></trkpt><trkpt lat="42.6242299" lon="13.6826778"><ele>585.4285714285714</ele><time>2026-04-05T07:06:55.015Z</time></trkpt><trkpt lat="42.6241863" lon="13.6825999"><ele>586.8571428571429</ele><time>2026-04-05T07:06:57.015Z</time></trkpt><trkpt lat="42.6241593" lon="13.6825198"><ele>588.2857142857143</ele><time>2026-04-05T07:06:59.016Z</time></trkpt><trkpt lat="42.6241251" lon="13.6824343"><ele>589.7142857142858</ele><time>2026-04-05T07:07:02.014Z</time></trkpt><trkpt lat="42.6240583" lon="13.6823919"><ele>591.1428571428572</ele><time>2026-04-05T07:07:06.014Z</time></trkpt><trkpt lat="42.624049" lon="13.6822929"><ele>592.5714285714286</ele><time>2026-04-05T07:07:08.014Z</time></trkpt><trkpt lat="42.6240404" lon="13.6821953"><ele>594.0</ele><time>2026-04-05T07:07:10.015Z</time></trkpt><trkpt lat="42.6240398" lon="13.6820922"><ele>594.0</ele><time>2026-04-05T07:07:12.014Z</time></trkpt><trkpt lat="42.624042" lon="13.6819852"><ele>594.0</ele><time>2026-04-05T07:07:14.015Z</time></trkpt><trkpt lat="42.6240314" lon="13.6818638"><ele>594.0</ele><time>2026-04-05T07:07:16.015Z</time></trkpt><trkpt lat="42.6240168" lon="13.6817373"><ele>594.0</ele><time>2026-04-05T07:07:18.016Z</time></trkpt><trkpt lat="42.6239989" lon="13.6816036"><ele>594.0</ele><time>2026-04-05T07:07:20.015Z</time></trkpt><trkpt lat="42.6239719" lon="13.6814678"><ele>596.4</ele><time>2026-04-05T07:07:22.015Z</time></trkpt><trkpt lat="42.6239227" lon="13.6813407"><ele>598.8</ele><time>2026-04-05T07:07:24.016Z</time></trkpt><trkpt lat="42.623863" lon="13.6812101"><ele>601.2</ele><time>2026-04-05T07:07:26.016Z</time></trkpt><trkpt lat="42.6237862" lon="13.6810874"><ele>603.6</ele><time>2026-04-05T07:07:28.015Z</time></trkpt><trkpt lat="42.6237416" lon="13.6810245"><ele>606.0</ele><time>2026-04-05T07:07:29.015Z</time></trkpt><trkpt lat="42.6236416" lon="13.6809421"><ele>606.0</ele><time>2026-04-05T07:07:31.015Z</time></trkpt><trkpt lat="42.6235298" lon="13.6808959"><ele>606.0</ele><time>2026-04-05T07:07:33.015Z</time></trkpt><trkpt lat="42.6234118" lon="13.6808464"><ele>606.0</ele><time>2026-04-05T07:07:35.014Z</time></trkpt><trkpt lat="42.6233071" lon="13.6808003"><ele>606.0</ele><time>2026-04-05T07:07:37.015Z</time></trkpt><trkpt lat="42.6232239" lon="13.6807589"><ele>606.0</ele><time>2026-04-05T07:07:39.016Z</time></trkpt><trkpt lat="42.623151" lon="13.6807327"><ele>606.0</ele><time>2026-04-05T07:07:42.014Z</time></trkpt><trkpt lat="42.6230867" lon="13.6806794"><ele>606.0</ele><time>2026-04-05T07:07:47.013Z</time></trkpt><trkpt lat="42.6230186" lon="13.6806493"><ele>606.0</ele><time>2026-04-05T07:07:51.015Z</time></trkpt><trkpt lat="42.6229547" lon="13.6806139"><ele>606.0</ele><time>2026-04-05T07:07:54.015Z</time></trkpt><trkpt lat="42.6228832" lon="13.6806091"><ele>606.0</ele><time>2026-04-05T07:07:58.014Z</time></trkpt><trkpt lat="42.6228158" lon="13.6805768"><ele>606.0</ele><time>2026-04-05T07:08:04.014Z</time></trkpt><trkpt lat="42.6227636" lon="13.6804999"><ele>606.0</ele><time>2026-04-05T07:08:08.014Z</time></trkpt><trkpt lat="42.622712" lon="13.6804086"><ele>604.0</ele><time>2026-04-05T07:08:10.015Z</time></trkpt><trkpt lat="42.6226563" lon="13.6802976"><ele>602.0</ele><time>2026-04-05T07:08:12.014Z</time></trkpt><trkpt lat="42.6225926" lon="13.6801807"><ele>600.0</ele><time>2026-04-05T07:08:14.014Z</time></trkpt><trkpt lat="42.6224992" lon="13.6800654"><ele>598.0</ele><time>2026-04-05T07:08:16.014Z</time></trkpt><trkpt lat="42.6224431" lon="13.6799987"><ele>596.0</ele><time>2026-04-05T07:08:17.015Z</time></trkpt><trkpt lat="42.6223765" lon="13.6799372"><ele>596.0</ele><time>2026-04-05T07:08:18.015Z</time></trkpt><trkpt lat="42.622306" lon="13.6798882"><ele>596.0</ele><time>2026-04-05T07:08:19.015Z</time></trkpt><trkpt lat="42.6222401" lon="13.6798461"><ele>596.0</ele><time>2026-04-05T07:08:20.014Z</time></trkpt><trkpt lat="42.6221855" lon="13.6798033"><ele>596.0</ele><time>2026-04-05T07:08:21.014Z</time></trkpt><trkpt lat="42.6220944" lon="13.679751"><ele>596.0</ele><time>2026-04-05T07:08:23.014Z</time></trkpt><trkpt lat="42.6220386" lon="13.6796763"><ele>596.0</ele><time>2026-04-05T07:08:26.014Z</time></trkpt><trkpt lat="42.6219727" lon="13.6795772"><ele>594.0</ele><time>2026-04-05T07:08:30.013Z</time></trkpt><trkpt lat="42.6219164" lon="13.6794699"><ele>592.0</ele><time>2026-04-05T07:08:32.014Z</time></trkpt><trkpt lat="42.6218119" lon="13.6793847"><ele>590.0</ele><time>2026-04-05T07:08:34.014Z</time></trkpt><trkpt lat="42.6217226" lon="13.6793339"><ele>588.0</ele><time>2026-04-05T07:08:36.014Z</time></trkpt><trkpt lat="42.6216597" lon="13.6793087"><ele>586.0</ele><time>2026-04-05T07:08:38.013Z</time></trkpt><trkpt lat="42.6215878" lon="13.6792784"><ele>585.0</ele><time>2026-04-05T07:08:41.014Z</time></trkpt><trkpt lat="42.6215216" lon="13.6792384"><ele>584.0</ele><time>2026-04-05T07:08:44.014Z</time></trkpt><trkpt lat="42.6214563" lon="13.6791924"><ele>583.0</ele><time>2026-04-05T07:09:06.014Z</time></trkpt><trkpt lat="42.6213987" lon="13.6791418"><ele>582.0</ele><time>2026-04-05T07:09:09.014Z</time></trkpt><trkpt lat="42.6213314" lon="13.679115"><ele>581.0</ele><time>2026-04-05T07:09:12.013Z</time></trkpt><trkpt lat="42.6212541" lon="13.679102"><ele>580.0</ele><time>2026-04-05T07:09:14.014Z</time></trkpt><trkpt lat="42.621163" lon="13.6790856"><ele>577.4</ele><time>2026-04-05T07:09:16.014Z</time></trkpt><trkpt lat="42.6210629" lon="13.6790797"><ele>574.8</ele><time>2026-04-05T07:09:18.014Z</time></trkpt><trkpt lat="42.6209641" lon="13.6790621"><ele>572.2</ele><time>2026-04-05T07:09:20.014Z</time></trkpt><trkpt lat="42.6208625" lon="13.6790418"><ele>569.6</ele><time>2026-04-05T07:09:22.014Z</time></trkpt><trkpt lat="42.6207485" lon="13.6790325"><ele>567.0</ele><time>2026-04-05T07:09:24.015Z</time></trkpt><trkpt lat="42.6206266" lon="13.6790234"><ele>567.0</ele><time>2026-04-05T07:09:26.014Z</time></trkpt><trkpt lat="42.620506" lon="13.6790183"><ele>567.0</ele><time>2026-04-05T07:09:28.014Z</time></trkpt><trkpt lat="42.6204387" lon="13.6790151"><ele>567.0</ele><time>2026-04-05T07:09:29.013Z</time></trkpt><trkpt lat="42.6203133" lon="13.678982"><ele>567.0</ele><time>2026-04-05T07:09:31.014Z</time></trkpt><trkpt lat="42.6202366" lon="13.6789743"><ele>567.0</ele><time>2026-04-05T07:09:32.015Z</time></trkpt><trkpt lat="42.6201516" lon="13.6789654"><ele>562.2</ele><time>2026-04-05T07:09:33.015Z</time></trkpt><trkpt lat="42.620064" lon="13.6789693"><ele>557.4000000000001</ele><time>2026-04-05T07:09:34.014Z</time></trkpt><trkpt lat="42.6199669" lon="13.6789744"><ele>552.5999999999999</ele><time>2026-04-05T07:09:35.014Z</time></trkpt><trkpt lat="42.6198725" lon="13.6789817"><ele>547.8</ele><time>2026-04-05T07:09:36.015Z</time></trkpt><trkpt lat="42.6197724" lon="13.6789936"><ele>543.0</ele><time>2026-04-05T07:09:37.015Z</time></trkpt><trkpt lat="42.6196831" lon="13.6789931"><ele>543.0</ele><time>2026-04-05T07:09:38.014Z</time></trkpt><trkpt lat="42.6195906" lon="13.6790026"><ele>543.0</ele><time>2026-04-05T07:09:39.015Z</time></trkpt><trkpt lat="42.6195006" lon="13.6790222"><ele>543.0</ele><time>2026-04-05T07:09:40.015Z</time></trkpt><trkpt lat="42.6194182" lon="13.6790319"><ele>543.0</ele><time>2026-04-05T07:09:41.015Z</time></trkpt><trkpt lat="42.6193526" lon="13.6790308"><ele>543.0</ele><time>2026-04-05T07:09:42.014Z</time></trkpt><trkpt lat="42.6192363" lon="13.6790159"><ele>543.0</ele><time>2026-04-05T07:09:44.015Z</time></trkpt><trkpt lat="42.6191281" lon="13.6790228"><ele>542.6666666666666</ele><time>2026-04-05T07:09:46.014Z</time></trkpt><trkpt lat="42.6190132" lon="13.679056"><ele>542.3333333333334</ele><time>2026-04-05T07:09:48.014Z</time></trkpt><trkpt lat="42.6188886" lon="13.6790931"><ele>542.0</ele><time>2026-04-05T07:09:50.013Z</time></trkpt><trkpt lat="42.6188257" lon="13.6791182"><ele>541.6666666666667</ele><time>2026-04-05T07:09:51.014Z</time></trkpt><trkpt lat="42.6187626" lon="13.6791466"><ele>541.3333333333334</ele><time>2026-04-05T07:09:52.014Z</time></trkpt><trkpt lat="42.6186974" lon="13.6791715"><ele>541.0</ele><time>2026-04-05T07:09:53.015Z</time></trkpt><trkpt lat="42.618633" lon="13.6792024"><ele>541.0000000000001</ele><time>2026-04-05T07:09:54.015Z</time></trkpt><trkpt lat="42.6185728" lon="13.6792504"><ele>541.0</ele><time>2026-04-05T07:09:55.013Z</time></trkpt><trkpt lat="42.6185186" lon="13.6793042"><ele>541.0</ele><time>2026-04-05T07:09:56.015Z</time></trkpt><trkpt lat="42.618466" lon="13.679357"><ele>541.0</ele><time>2026-04-05T07:09:57.014Z</time></trkpt><trkpt lat="42.6184138" lon="13.6794136"><ele>541.0</ele><time>2026-04-05T07:09:58.015Z</time></trkpt><trkpt lat="42.6183649" lon="13.6794793"><ele>541.0000000000001</ele><time>2026-04-05T07:09:59.014Z</time></trkpt><trkpt lat="42.6183136" lon="13.6795385"><ele>541.0</ele><time>2026-04-05T07:10:00.014Z</time></trkpt><trkpt lat="42.6182657" lon="13.6795964"><ele>537.8571428571429</ele><time>2026-04-05T07:10:01.014Z</time></trkpt><trkpt lat="42.6182148" lon="13.6796573"><ele>534.7142857142858</ele><time>2026-04-05T07:10:02.014Z</time></trkpt><trkpt lat="42.6181612" lon="13.6797095"><ele>531.5714285714286</ele><time>2026-04-05T07:10:03.014Z</time></trkpt><trkpt lat="42.6181044" lon="13.6797556"><ele>528.4285714285714</ele><time>2026-04-05T07:10:04.014Z</time></trkpt><trkpt lat="42.6180399" lon="13.6797947"><ele>525.2857142857142</ele><time>2026-04-05T07:10:05.014Z</time></trkpt><trkpt lat="42.6179723" lon="13.6798213"><ele>522.1428571428571</ele><time>2026-04-05T07:10:06.014Z</time></trkpt><trkpt lat="42.6179027" lon="13.6798515"><ele>519.0</ele><time>2026-04-05T07:10:07.014Z</time></trkpt><trkpt lat="42.6178346" lon="13.6798759"><ele>520.4285714285714</ele><time>2026-04-05T07:10:08.014Z</time></trkpt><trkpt lat="42.6177639" lon="13.6799059"><ele>521.8571428571428</ele><time>2026-04-05T07:10:09.015Z</time></trkpt><trkpt lat="42.6176968" lon="13.6799377"><ele>523.2857142857142</ele><time>2026-04-05T07:10:10.013Z</time></trkpt><trkpt lat="42.6176327" lon="13.6799883"><ele>524.7142857142857</ele><time>2026-04-05T07:10:11.015Z</time></trkpt><trkpt lat="42.617573" lon="13.6800437"><ele>526.1428571428571</ele><time>2026-04-05T07:10:12.014Z</time></trkpt><trkpt lat="42.6175185" lon="13.6801076"><ele>527.5714285714286</ele><time>2026-04-05T07:10:13.014Z</time></trkpt><trkpt lat="42.617467" lon="13.6801789"><ele>529.0</ele><time>2026-04-05T07:10:14.015Z</time></trkpt><trkpt lat="42.6174166" lon="13.6802512"><ele>526.1666666666667</ele><time>2026-04-05T07:10:15.013Z</time></trkpt><trkpt lat="42.617368" lon="13.6803314"><ele>523.3333333333334</ele><time>2026-04-05T07:10:16.013Z</time></trkpt><trkpt lat="42.6173188" lon="13.6804126"><ele>520.5</ele><time>2026-04-05T07:10:17.013Z</time></trkpt><trkpt lat="42.6172763" lon="13.6804925"><ele>517.6666666666666</ele><time>2026-04-05T07:10:18.013Z</time></trkpt><trkpt lat="42.6172307" lon="13.6805723"><ele>514.8333333333333</ele><time>2026-04-05T07:10:19.015Z</time></trkpt><trkpt lat="42.6171682" lon="13.6806214"><ele>512.0</ele><time>2026-04-05T07:10:20.015Z</time></trkpt><trkpt lat="42.6170909" lon="13.6806321"><ele>512.0</ele><time>2026-04-05T07:10:21.014Z</time></trkpt><trkpt lat="42.6170197" lon="13.6806089"><ele>511.99999999999994</ele><time>2026-04-05T07:10:22.015Z</time></trkpt><trkpt lat="42.616949" lon="13.6805754"><ele>512.0</ele><time>2026-04-05T07:10:23.014Z</time></trkpt><trkpt lat="42.6168805" lon="13.6805402"><ele>512.0</ele><time>2026-04-05T07:10:24.015Z</time></trkpt><trkpt lat="42.6168098" lon="13.6805084"><ele>511.99999999999994</ele><time>2026-04-05T07:10:25.015Z</time></trkpt><trkpt lat="42.6167391" lon="13.680474"><ele>512.0</ele><time>2026-04-05T07:10:26.015Z</time></trkpt><trkpt lat="42.6166678" lon="13.6804311"><ele>512.0</ele><time>2026-04-05T07:10:27.014Z</time></trkpt><trkpt lat="42.6165935" lon="13.680382"><ele>512.8333333333333</ele><time>2026-04-05T07:10:28.013Z</time></trkpt><trkpt lat="42.616526" lon="13.6803221"><ele>513.6666666666666</ele><time>2026-04-05T07:10:29.014Z</time></trkpt><trkpt lat="42.6164639" lon="13.6802533"><ele>514.5</ele><time>2026-04-05T07:10:30.013Z</time></trkpt><trkpt lat="42.6164077" lon="13.6801806"><ele>515.3333333333334</ele><time>2026-04-05T07:10:31.013Z</time></trkpt><trkpt lat="42.6163558" lon="13.6800994"><ele>516.1666666666667</ele><time>2026-04-05T07:10:32.014Z</time></trkpt><trkpt lat="42.6163069" lon="13.6800148"><ele>517.0</ele><time>2026-04-05T07:10:33.013Z</time></trkpt><trkpt lat="42.616262" lon="13.6799338"><ele>517.0</ele><time>2026-04-05T07:10:34.013Z</time></trkpt><trkpt lat="42.616216" lon="13.6798543"><ele>517.0</ele><time>2026-04-05T07:10:35.013Z</time></trkpt><trkpt lat="42.616171" lon="13.6797761"><ele>517.0</ele><time>2026-04-05T07:10:36.014Z</time></trkpt><trkpt lat="42.6161245" lon="13.6797069"><ele>517.0</ele><time>2026-04-05T07:10:37.015Z</time></trkpt><trkpt lat="42.6160144" lon="13.679639"><ele>517.0</ele><time>2026-04-05T07:10:39.014Z</time></trkpt><trkpt lat="42.6159041" lon="13.6797152"><ele>515.8571428571429</ele><time>2026-04-05T07:10:41.015Z</time></trkpt><trkpt lat="42.6158652" lon="13.6797867"><ele>514.7142857142858</ele><time>2026-04-05T07:10:42.015Z</time></trkpt><trkpt lat="42.6158342" lon="13.6798724"><ele>513.5714285714286</ele><time>2026-04-05T07:10:43.014Z</time></trkpt><trkpt lat="42.6158113" lon="13.6799676"><ele>512.4285714285714</ele><time>2026-04-05T07:10:44.014Z</time></trkpt><trkpt lat="42.6157999" lon="13.6800708"><ele>511.2857142857143</ele><time>2026-04-05T07:10:45.014Z</time></trkpt><trkpt lat="42.6157936" lon="13.6801806"><ele>510.1428571428571</ele><time>2026-04-05T07:10:46.013Z</time></trkpt><trkpt lat="42.6157908" lon="13.6802905"><ele>508.99999999999994</ele><time>2026-04-05T07:10:47.014Z</time></trkpt><trkpt lat="42.6157847" lon="13.6804072"><ele>508.99999999999994</ele><time>2026-04-05T07:10:48.015Z</time></trkpt><trkpt lat="42.6157853" lon="13.6805123"><ele>509.0</ele><time>2026-04-05T07:10:49.013Z</time></trkpt><trkpt lat="42.6157826" lon="13.6806109"><ele>509.0</ele><time>2026-04-05T07:10:50.014Z</time></trkpt><trkpt lat="42.6157766" lon="13.6807018"><ele>509.0</ele><time>2026-04-05T07:10:51.014Z</time></trkpt><trkpt lat="42.6157708" lon="13.6808424"><ele>508.99999999999994</ele><time>2026-04-05T07:10:53.015Z</time></trkpt><trkpt lat="42.6157658" lon="13.6809564"><ele>509.0</ele><time>2026-04-05T07:10:56.013Z</time></trkpt><trkpt lat="42.6157152" lon="13.6810528"><ele>506.4</ele><time>2026-04-05T07:11:00.014Z</time></trkpt><trkpt lat="42.615637" lon="13.6811358"><ele>503.79999999999995</ele><time>2026-04-05T07:11:02.013Z</time></trkpt><trkpt lat="42.6155166" lon="13.6811917"><ele>501.20000000000005</ele><time>2026-04-05T07:11:04.015Z</time></trkpt><trkpt lat="42.6154558" lon="13.6812154"><ele>498.6</ele><time>2026-04-05T07:11:05.013Z</time></trkpt><trkpt lat="42.6153942" lon="13.6812331"><ele>496.0</ele><time>2026-04-05T07:11:06.014Z</time></trkpt><trkpt lat="42.6152851" lon="13.6812646"><ele>496.00000000000006</ele><time>2026-04-05T07:11:08.014Z</time></trkpt><trkpt lat="42.61517" lon="13.68125"><ele>496.0</ele><time>2026-04-05T07:11:10.013Z</time></trkpt><trkpt lat="42.6150888" lon="13.6812194"><ele>496.0</ele><time>2026-04-05T07:11:12.014Z</time></trkpt><trkpt lat="42.6150277" lon="13.6811863"><ele>496.0</ele><time>2026-04-05T07:11:15.014Z</time></trkpt><trkpt lat="42.6149621" lon="13.6811472"><ele>496.00000000000006</ele><time>2026-04-05T07:11:17.013Z</time></trkpt><trkpt lat="42.6148795" lon="13.6810973"><ele>496.0</ele><time>2026-04-05T07:11:19.014Z</time></trkpt><trkpt lat="42.6147879" lon="13.6810457"><ele>495.83333333333337</ele><time>2026-04-05T07:11:21.014Z</time></trkpt><trkpt lat="42.614698" lon="13.6809989"><ele>495.6666666666667</ele><time>2026-04-05T07:11:23.014Z</time></trkpt><trkpt lat="42.6146309" lon="13.6809696"><ele>495.5</ele><time>2026-04-05T07:11:25.015Z</time></trkpt><trkpt lat="42.6145592" lon="13.6809611"><ele>495.33333333333337</ele><time>2026-04-05T07:11:27.013Z</time></trkpt><trkpt lat="42.6144818" lon="13.6809916"><ele>495.1666666666667</ele><time>2026-04-05T07:11:29.014Z</time></trkpt><trkpt lat="42.6144328" lon="13.6810584"><ele>495.0</ele><time>2026-04-05T07:11:31.014Z</time></trkpt><trkpt lat="42.6143973" lon="13.6811522"><ele>493.42857142857133</ele><time>2026-04-05T07:11:34.014Z</time></trkpt><trkpt lat="42.6143809" lon="13.6812405"><ele>491.85714285714283</ele><time>2026-04-05T07:11:38.013Z</time></trkpt><trkpt lat="42.6143521" lon="13.6813214"><ele>490.2857142857142</ele><time>2026-04-05T07:11:57.014Z</time></trkpt><trkpt lat="42.6144016" lon="13.68126"><ele>488.71428571428567</ele><time>2026-04-05T07:12:01.015Z</time></trkpt><trkpt lat="42.6143484" lon="13.6812011"><ele>487.1428571428571</ele><time>2026-04-05T07:12:04.013Z</time></trkpt><trkpt lat="42.6143155" lon="13.6810942"><ele>485.57142857142856</ele><time>2026-04-05T07:12:08.013Z</time></trkpt><trkpt lat="42.614288" lon="13.6810027"><ele>484.0</ele><time>2026-04-05T07:12:11.013Z</time></trkpt><trkpt lat="42.6142656" lon="13.6809018"><ele>484.00000000000006</ele><time>2026-04-05T07:12:14.013Z</time></trkpt><trkpt lat="42.6141959" lon="13.6809668"><ele>484.0</ele><time>2026-04-05T07:12:16.013Z</time></trkpt><trkpt lat="42.6141355" lon="13.6810724"><ele>484.0</ele><time>2026-04-05T07:12:18.012Z</time></trkpt><trkpt lat="42.6140881" lon="13.6811436"><ele>484.0</ele><time>2026-04-05T07:12:20.012Z</time></trkpt><trkpt lat="42.6140441" lon="13.6812184"><ele>484.00000000000006</ele><time>2026-04-05T07:12:23.013Z</time></trkpt><trkpt lat="42.6139846" lon="13.6812777"><ele>484.0</ele><time>2026-04-05T07:12:34.012Z</time></trkpt><trkpt lat="42.613919" lon="13.6813149"><ele>484.00000000000006</ele><time>2026-04-05T07:12:36.012Z</time></trkpt><trkpt lat="42.6138822" lon="13.6814144"><ele>484.0</ele><time>2026-04-05T07:12:40.013Z</time></trkpt><trkpt lat="42.6138389" lon="13.6815236"><ele>484.0</ele><time>2026-04-05T07:12:44.013Z</time></trkpt><trkpt lat="42.6137993" lon="13.6816044"><ele>484.0</ele><time>2026-04-05T07:12:46.012Z</time></trkpt><trkpt lat="42.6137866" lon="13.681719"><ele>484.00000000000006</ele><time>2026-04-05T07:12:48.013Z</time></trkpt><trkpt lat="42.6137772" lon="13.6818098"><ele>484.0</ele><time>2026-04-05T07:12:50.012Z</time></trkpt><trkpt lat="42.613779" lon="13.6819089"><ele>482.33333333333337</ele><time>2026-04-05T07:12:52.013Z</time></trkpt><trkpt lat="42.6137841" lon="13.6820082"><ele>480.6666666666667</ele><time>2026-04-05T07:12:55.012Z</time></trkpt><trkpt lat="42.6137605" lon="13.6821238"><ele>479.0</ele><time>2026-04-05T07:12:58.013Z</time></trkpt><trkpt lat="42.6137427" lon="13.6822235"><ele>477.33333333333337</ele><time>2026-04-05T07:13:00.012Z</time></trkpt><trkpt lat="42.6137198" lon="13.6823488"><ele>475.6666666666667</ele><time>2026-04-05T07:13:02.013Z</time></trkpt><trkpt lat="42.6136933" lon="13.6824758"><ele>474.0</ele><time>2026-04-05T07:13:04.014Z</time></trkpt><trkpt lat="42.6136562" lon="13.6826052"><ele>473.5</ele><time>2026-04-05T07:13:06.012Z</time></trkpt><trkpt lat="42.6136131" lon="13.6827336"><ele>473.0</ele><time>2026-04-05T07:13:08.013Z</time></trkpt><trkpt lat="42.613562" lon="13.682854"><ele>472.5</ele><time>2026-04-05T07:13:10.012Z</time></trkpt><trkpt lat="42.6135364" lon="13.6829506"><ele>472.0</ele><time>2026-04-05T07:13:12.014Z</time></trkpt><trkpt lat="42.6135138" lon="13.6830369"><ele>471.5</ele><time>2026-04-05T07:13:15.013Z</time></trkpt><trkpt lat="42.6134719" lon="13.6831067"><ele>471.0</ele><time>2026-04-05T07:13:44.014Z</time></trkpt><trkpt lat="42.6133943" lon="13.6831112"><ele>469.5</ele><time>2026-04-05T07:13:48.013Z</time></trkpt><trkpt lat="42.6133165" lon="13.6831133"><ele>468.0</ele><time>2026-04-05T07:13:51.013Z</time></trkpt><trkpt lat="42.6132302" lon="13.6831294"><ele>466.5</ele><time>2026-04-05T07:13:54.013Z</time></trkpt><trkpt lat="42.6131473" lon="13.6831075"><ele>465.0</ele><time>2026-04-05T07:13:57.012Z</time></trkpt><trkpt lat="42.6130725" lon="13.6830605"><ele>463.5</ele><time>2026-04-05T07:14:00.014Z</time></trkpt><trkpt lat="42.6130151" lon="13.6829858"><ele>462.0</ele><time>2026-04-05T07:14:03.013Z</time></trkpt><trkpt lat="42.6129652" lon="13.6828949"><ele>462.0</ele><time>2026-04-05T07:14:06.014Z</time></trkpt><trkpt lat="42.6129157" lon="13.6827905"><ele>462.0</ele><time>2026-04-05T07:14:09.013Z</time></trkpt><trkpt lat="42.6128774" lon="13.6826863"><ele>462.0</ele><time>2026-04-05T07:14:12.014Z</time></trkpt><trkpt lat="42.61284" lon="13.6825785"><ele>462.0</ele><time>2026-04-05T07:14:15.014Z</time></trkpt><trkpt lat="42.6127925" lon="13.6824877"><ele>462.0</ele><time>2026-04-05T07:14:18.014Z</time></trkpt><trkpt lat="42.612753" lon="13.6823835"><ele>462.0</ele><time>2026-04-05T07:14:21.012Z</time></trkpt><trkpt lat="42.6126967" lon="13.682274"><ele>463.6666666666667</ele><time>2026-04-05T07:14:24.012Z</time></trkpt><trkpt lat="42.6126661" lon="13.682187"><ele>465.33333333333337</ele><time>2026-04-05T07:14:26.013Z</time></trkpt><trkpt lat="42.6126296" lon="13.6820992"><ele>467.0</ele><time>2026-04-05T07:14:28.013Z</time></trkpt><trkpt lat="42.6125933" lon="13.6820197"><ele>468.6666666666667</ele><time>2026-04-05T07:14:30.013Z</time></trkpt><trkpt lat="42.6125569" lon="13.6819471"><ele>470.33333333333337</ele><time>2026-04-05T07:14:32.013Z</time></trkpt><trkpt lat="42.6125093" lon="13.6818407"><ele>472.0</ele><time>2026-04-05T07:14:35.014Z</time></trkpt><trkpt lat="42.6124605" lon="13.6817514"><ele>472.6666666666667</ele><time>2026-04-05T07:14:38.014Z</time></trkpt><trkpt lat="42.6124159" lon="13.6816768"><ele>473.33333333333337</ele><time>2026-04-05T07:14:41.013Z</time></trkpt><trkpt lat="42.6123877" lon="13.6815979"><ele>474.0</ele><time>2026-04-05T07:14:46.013Z</time></trkpt><trkpt lat="42.6123516" lon="13.681519"><ele>474.66666666666663</ele><time>2026-04-05T07:14:57.014Z</time></trkpt><trkpt lat="42.6123136" lon="13.6814246"><ele>475.3333333333333</ele><time>2026-04-05T07:15:01.013Z</time></trkpt><trkpt lat="42.6122292" lon="13.6813855"><ele>476.0</ele><time>2026-04-05T07:15:06.012Z</time></trkpt><trkpt lat="42.6121437" lon="13.6813408"><ele>475.99999999999994</ele><time>2026-04-05T07:15:08.013Z</time></trkpt><trkpt lat="42.6120192" lon="13.6813058"><ele>476.0</ele><time>2026-04-05T07:15:10.013Z</time></trkpt><trkpt lat="42.6119447" lon="13.6813053"><ele>476.0</ele><time>2026-04-05T07:15:11.013Z</time></trkpt><trkpt lat="42.6118683" lon="13.6812932"><ele>476.0</ele><time>2026-04-05T07:15:12.013Z</time></trkpt><trkpt lat="42.6117917" lon="13.6812802"><ele>475.99999999999994</ele><time>2026-04-05T07:15:13.014Z</time></trkpt><trkpt lat="42.6117151" lon="13.6812617"><ele>476.0</ele><time>2026-04-05T07:15:14.014Z</time></trkpt><trkpt lat="42.6116446" lon="13.6812455"><ele>475.49999999999994</ele><time>2026-04-05T07:15:15.013Z</time></trkpt><trkpt lat="42.6115782" lon="13.6812241"><ele>475.0</ele><time>2026-04-05T07:15:16.013Z</time></trkpt><trkpt lat="42.6115171" lon="13.6811897"><ele>474.5</ele><time>2026-04-05T07:15:17.014Z</time></trkpt><trkpt lat="42.611417" lon="13.6811438"><ele>474.0</ele><time>2026-04-05T07:15:19.014Z</time></trkpt><trkpt lat="42.6113235" lon="13.6810996"><ele>473.49999999999994</ele><time>2026-04-05T07:15:21.013Z</time></trkpt><trkpt lat="42.6112352" lon="13.6810774"><ele>473.0</ele><time>2026-04-05T07:15:23.014Z</time></trkpt><trkpt lat="42.6111455" lon="13.6810572"><ele>474.8333333333333</ele><time>2026-04-05T07:15:25.013Z</time></trkpt><trkpt lat="42.611061" lon="13.6810388"><ele>476.66666666666663</ele><time>2026-04-05T07:15:27.014Z</time></trkpt><trkpt lat="42.6109783" lon="13.6810317"><ele>478.5</ele><time>2026-04-05T07:15:29.014Z</time></trkpt><trkpt lat="42.610911" lon="13.6810324"><ele>480.33333333333337</ele><time>2026-04-05T07:15:31.013Z</time></trkpt><trkpt lat="42.6108455" lon="13.6810202"><ele>482.1666666666667</ele><time>2026-04-05T07:15:34.012Z</time></trkpt><trkpt lat="42.6107606" lon="13.6809887"><ele>484.0</ele><time>2026-04-05T07:15:39.012Z</time></trkpt><trkpt lat="42.6106631" lon="13.6809517"><ele>484.00000000000006</ele><time>2026-04-05T07:15:41.014Z</time></trkpt><trkpt lat="42.6105989" lon="13.6809244"><ele>484.0</ele><time>2026-04-05T07:15:42.012Z</time></trkpt><trkpt lat="42.6105244" lon="13.6808877"><ele>484.0</ele><time>2026-04-05T07:15:43.013Z</time></trkpt><trkpt lat="42.6104374" lon="13.6808439"><ele>484.0</ele><time>2026-04-05T07:15:44.014Z</time></trkpt><trkpt lat="42.6103399" lon="13.6808091"><ele>484.00000000000006</ele><time>2026-04-05T07:15:45.013Z</time></trkpt><trkpt lat="42.6102391" lon="13.6807806"><ele>484.0</ele><time>2026-04-05T07:15:46.014Z</time></trkpt><trkpt lat="42.6101397" lon="13.6807448"><ele>482.33333333333337</ele><time>2026-04-05T07:15:47.014Z</time></trkpt><trkpt lat="42.6100394" lon="13.6807108"><ele>480.6666666666667</ele><time>2026-04-05T07:15:48.014Z</time></trkpt><trkpt lat="42.6099489" lon="13.6806805"><ele>479.0</ele><time>2026-04-05T07:15:49.014Z</time></trkpt><trkpt lat="42.6098804" lon="13.6806446"><ele>477.33333333333337</ele><time>2026-04-05T07:15:50.014Z</time></trkpt><trkpt lat="42.6098149" lon="13.6806066"><ele>475.6666666666667</ele><time>2026-04-05T07:15:51.013Z</time></trkpt><trkpt lat="42.6097564" lon="13.6805545"><ele>474.0</ele><time>2026-04-05T07:15:54.014Z</time></trkpt><trkpt lat="42.6097219" lon="13.6804546"><ele>474.0</ele><time>2026-04-05T07:15:57.014Z</time></trkpt><trkpt lat="42.6096506" lon="13.6803851"><ele>474.0</ele><time>2026-04-05T07:16:00.013Z</time></trkpt><trkpt lat="42.6095901" lon="13.68034"><ele>474.0</ele><time>2026-04-05T07:16:04.012Z</time></trkpt><trkpt lat="42.6095263" lon="13.6802897"><ele>474.0</ele><time>2026-04-05T07:16:39.013Z</time></trkpt><trkpt lat="42.6094628" lon="13.6802729"><ele>474.0</ele><time>2026-04-05T07:16:51.013Z</time></trkpt><trkpt lat="42.6093702" lon="13.680233"><ele>474.0</ele><time>2026-04-05T07:16:54.013Z</time></trkpt><trkpt lat="42.6093072" lon="13.6802108"><ele>472.42857142857133</ele><time>2026-04-05T07:16:56.012Z</time></trkpt><trkpt lat="42.6092205" lon="13.6801854"><ele>470.85714285714283</ele><time>2026-04-05T07:16:59.011Z</time></trkpt><trkpt lat="42.6091566" lon="13.6801615"><ele>469.2857142857142</ele><time>2026-04-05T07:17:02.012Z</time></trkpt><trkpt lat="42.609125" lon="13.6800624"><ele>467.71428571428567</ele><time>2026-04-05T07:17:15.012Z</time></trkpt><trkpt lat="42.6091185" lon="13.6799715"><ele>466.1428571428571</ele><time>2026-04-05T07:17:32.012Z</time></trkpt><trkpt lat="42.6090971" lon="13.6798848"><ele>464.57142857142856</ele><time>2026-04-05T07:17:36.013Z</time></trkpt><trkpt lat="42.6090529" lon="13.679798"><ele>463.0</ele><time>2026-04-05T07:17:40.012Z</time></trkpt><trkpt lat="42.6090176" lon="13.6797203"><ele>463.00000000000006</ele><time>2026-04-05T07:17:43.012Z</time></trkpt><trkpt lat="42.6089723" lon="13.6796421"><ele>463.0</ele><time>2026-04-05T07:17:46.013Z</time></trkpt><trkpt lat="42.6089063" lon="13.6795461"><ele>463.0</ele><time>2026-04-05T07:17:49.013Z</time></trkpt><trkpt lat="42.6088541" lon="13.6794619"><ele>463.0</ele><time>2026-04-05T07:17:52.012Z</time></trkpt><trkpt lat="42.6088211" lon="13.6793808"><ele>463.00000000000006</ele><time>2026-04-05T07:17:54.013Z</time></trkpt><trkpt lat="42.6088009" lon="13.679288"><ele>463.0</ele><time>2026-04-05T07:17:56.011Z</time></trkpt><trkpt lat="42.6087926" lon="13.679203"><ele>463.00000000000006</ele><time>2026-04-05T07:18:28.012Z</time></trkpt><trkpt lat="42.6088228" lon="13.6793036"><ele>463.0</ele><time>2026-04-05T07:23:00.012Z</time></trkpt><trkpt lat="42.6088552" lon="13.679417"><ele>463.0</ele><time>2026-04-05T07:23:03.011Z</time></trkpt><trkpt lat="42.6089017" lon="13.6795037"><ele>463.0</ele><time>2026-04-05T07:23:06.011Z</time></trkpt><trkpt lat="42.6089546" lon="13.679593"><ele>463.00000000000006</ele><time>2026-04-05T07:23:10.01Z</time></trkpt><trkpt lat="42.6090057" lon="13.6796747"><ele>463.0</ele><time>2026-04-05T07:23:14.012Z</time></trkpt><trkpt lat="42.6090452" lon="13.6797497"><ele>463.0</ele><time>2026-04-05T07:23:17.011Z</time></trkpt><trkpt lat="42.6090837" lon="13.6798257"><ele>462.99999999999994</ele><time>2026-04-05T07:23:20.012Z</time></trkpt><trkpt lat="42.6091236" lon="13.6799167"><ele>463.0</ele><time>2026-04-05T07:23:24.011Z</time></trkpt><trkpt lat="42.6091398" lon="13.6800076"><ele>463.0</ele><time>2026-04-05T07:23:28.012Z</time></trkpt><trkpt lat="42.6091552" lon="13.6800921"><ele>462.99999999999994</ele><time>2026-04-05T07:23:31.01Z</time></trkpt><trkpt lat="42.6090892" lon="13.6801399"><ele>463.0</ele><time>2026-04-05T07:23:37.01Z</time></trkpt><trkpt lat="42.6090133" lon="13.6801613"><ele>463.0</ele><time>2026-04-05T07:23:41.011Z</time></trkpt><trkpt lat="42.6089506" lon="13.6801758"><ele>463.00000000000006</ele><time>2026-04-05T07:23:44.011Z</time></trkpt><trkpt lat="42.6088868" lon="13.680156"><ele>463.0</ele><time>2026-04-05T07:23:46.01Z</time></trkpt><trkpt lat="42.608804" lon="13.6801234"><ele>463.0</ele><time>2026-04-05T07:23:49.01Z</time></trkpt><trkpt lat="42.6087254" lon="13.6801603"><ele>463.0</ele><time>2026-04-05T07:23:53.011Z</time></trkpt><trkpt lat="42.6086601" lon="13.6801889"><ele>463.00000000000006</ele><time>2026-04-05T07:23:56.01Z</time></trkpt><trkpt lat="42.6086039" lon="13.6802547"><ele>463.0</ele><time>2026-04-05T07:23:59.009Z</time></trkpt><trkpt lat="42.6086275" lon="13.6803616"><ele>461.83333333333337</ele><time>2026-04-05T07:24:04.01Z</time></trkpt><trkpt lat="42.6086702" lon="13.6804599"><ele>460.6666666666667</ele><time>2026-04-05T07:24:07.01Z</time></trkpt><trkpt lat="42.6087213" lon="13.6805538"><ele>459.5</ele><time>2026-04-05T07:24:10.011Z</time></trkpt><trkpt lat="42.6087863" lon="13.6806373"><ele>458.33333333333337</ele><time>2026-04-05T07:24:13.009Z</time></trkpt><trkpt lat="42.6088142" lon="13.6807193"><ele>457.1666666666667</ele><time>2026-04-05T07:24:35.009Z</time></trkpt><trkpt lat="42.6087627" lon="13.6807752"><ele>456.0</ele><time>2026-04-05T07:24:40.01Z</time></trkpt><trkpt lat="42.6088054" lon="13.6808538"><ele>456.0</ele><time>2026-04-05T07:24:45.01Z</time></trkpt><trkpt lat="42.6088049" lon="13.6809442"><ele>456.0</ele><time>2026-04-05T07:24:49.009Z</time></trkpt><trkpt lat="42.6088199" lon="13.681048"><ele>456.0</ele><time>2026-04-05T07:25:01.011Z</time></trkpt><trkpt lat="42.6088598" lon="13.6811245"><ele>456.0</ele><time>2026-04-05T07:25:06.01Z</time></trkpt><trkpt lat="42.6088734" lon="13.681229"><ele>456.0</ele><time>2026-04-05T07:25:09.01Z</time></trkpt><trkpt lat="42.6088837" lon="13.6813372"><ele>456.0</ele><time>2026-04-05T07:25:11.01Z</time></trkpt><trkpt lat="42.6089102" lon="13.6814385"><ele>450.8</ele><time>2026-04-05T07:25:13.011Z</time></trkpt><trkpt lat="42.6089723" lon="13.6815096"><ele>445.6</ele><time>2026-04-05T07:25:15.01Z</time></trkpt><trkpt lat="42.6090725" lon="13.6815924"><ele>440.4</ele><time>2026-04-05T07:25:17.011Z</time></trkpt><trkpt lat="42.6091411" lon="13.6817047"><ele>435.2</ele><time>2026-04-05T07:25:19.011Z</time></trkpt><trkpt lat="42.6092009" lon="13.6818054"><ele>430.0</ele><time>2026-04-05T07:25:21.01Z</time></trkpt><trkpt lat="42.6092788" lon="13.6818685"><ele>430.00000000000006</ele><time>2026-04-05T07:25:23.01Z</time></trkpt><trkpt lat="42.6093649" lon="13.6819053"><ele>430.0</ele><time>2026-04-05T07:25:25.01Z</time></trkpt><trkpt lat="42.6094326" lon="13.6819236"><ele>430.0</ele><time>2026-04-05T07:25:28.011Z</time></trkpt><trkpt lat="42.6095133" lon="13.6819569"><ele>430.0</ele><time>2026-04-05T07:25:31.011Z</time></trkpt><trkpt lat="42.6095946" lon="13.6820102"><ele>430.00000000000006</ele><time>2026-04-05T07:25:33.011Z</time></trkpt><trkpt lat="42.6096679" lon="13.6820544"><ele>430.0</ele><time>2026-04-05T07:25:35.01Z</time></trkpt><trkpt lat="42.6097341" lon="13.6821123"><ele>429.33333333333337</ele><time>2026-04-05T07:25:37.01Z</time></trkpt><trkpt lat="42.6097981" lon="13.6821937"><ele>428.6666666666667</ele><time>2026-04-05T07:25:39.01Z</time></trkpt><trkpt lat="42.6098648" lon="13.6822475"><ele>428.0</ele><time>2026-04-05T07:25:41.01Z</time></trkpt><trkpt lat="42.6099275" lon="13.6822781"><ele>427.33333333333337</ele><time>2026-04-05T07:25:43.011Z</time></trkpt><trkpt lat="42.609983" lon="13.6823236"><ele>426.6666666666667</ele><time>2026-04-05T07:25:45.011Z</time></trkpt><trkpt lat="42.6100761" lon="13.6823786"><ele>426.0</ele><time>2026-04-05T07:25:48.009Z</time></trkpt><trkpt lat="42.6101463" lon="13.6824313"><ele>426.0</ele><time>2026-04-05T07:25:50.011Z</time></trkpt><trkpt lat="42.6102073" lon="13.6824981"><ele>426.0</ele><time>2026-04-05T07:25:52.011Z</time></trkpt><trkpt lat="42.6102864" lon="13.6825735"><ele>426.0</ele><time>2026-04-05T07:25:54.01Z</time></trkpt><trkpt lat="42.6103941" lon="13.6825797"><ele>426.0</ele><time>2026-04-05T07:25:56.01Z</time></trkpt><trkpt lat="42.6104994" lon="13.682622"><ele>426.0</ele><time>2026-04-05T07:25:58.01Z</time></trkpt><trkpt lat="42.6105521" lon="13.6827077"><ele>422.99999999999994</ele><time>2026-04-05T07:26:00.009Z</time></trkpt><trkpt lat="42.6105725" lon="13.6828015"><ele>420.0</ele><time>2026-04-05T07:26:04.011Z</time></trkpt><trkpt lat="42.6105686" lon="13.6828965"><ele>417.0</ele><time>2026-04-05T07:26:07.011Z</time></trkpt><trkpt lat="42.6105219" lon="13.6829642"><ele>414.0</ele><time>2026-04-05T07:26:10.01Z</time></trkpt><trkpt lat="42.6104977" lon="13.683054"><ele>411.0</ele><time>2026-04-05T07:26:15.009Z</time></trkpt><trkpt lat="42.6104982" lon="13.683159"><ele>407.99999999999994</ele><time>2026-04-05T07:26:19.011Z</time></trkpt><trkpt lat="42.6104758" lon="13.6832546"><ele>405.0</ele><time>2026-04-05T07:26:25.011Z</time></trkpt><trkpt lat="42.6104582" lon="13.683345"><ele>405.0</ele><time>2026-04-05T07:26:29.011Z</time></trkpt><trkpt lat="42.6104307" lon="13.6834727"><ele>405.0</ele><time>2026-04-05T07:26:32.009Z</time></trkpt><trkpt lat="42.6103983" lon="13.6835889"><ele>405.0</ele><time>2026-04-05T07:26:34.011Z</time></trkpt><trkpt lat="42.6103642" lon="13.6836951"><ele>405.0</ele><time>2026-04-05T07:26:36.009Z</time></trkpt><trkpt lat="42.6103237" lon="13.6837803"><ele>405.0</ele><time>2026-04-05T07:26:38.01Z</time></trkpt><trkpt lat="42.6102794" lon="13.6838565"><ele>405.0</ele><time>2026-04-05T07:26:40.011Z</time></trkpt><trkpt lat="42.6102243" lon="13.6839286"><ele>399.71428571428567</ele><time>2026-04-05T07:26:42.01Z</time></trkpt><trkpt lat="42.6101694" lon="13.6840008"><ele>394.42857142857144</ele><time>2026-04-05T07:26:45.01Z</time></trkpt><trkpt lat="42.6101211" lon="13.684091"><ele>389.1428571428571</ele><time>2026-04-05T07:26:48.009Z</time></trkpt><trkpt lat="42.6101633" lon="13.6841667"><ele>383.85714285714283</ele><time>2026-04-05T07:27:00.009Z</time></trkpt><trkpt lat="42.6102327" lon="13.6841961"><ele>378.57142857142856</ele><time>2026-04-05T07:27:09.009Z</time></trkpt><trkpt lat="42.6102869" lon="13.6842503"><ele>373.2857142857143</ele><time>2026-04-05T07:27:14.009Z</time></trkpt><trkpt lat="42.6102749" lon="13.6843406"><ele>368.0</ele><time>2026-04-05T07:27:18.01Z</time></trkpt><trkpt lat="42.6102531" lon="13.6844262"><ele>368.0</ele><time>2026-04-05T07:27:29.008Z</time></trkpt><trkpt lat="42.6102844" lon="13.6845105"><ele>368.0</ele><time>2026-04-05T07:27:34.01Z</time></trkpt><trkpt lat="42.6102829" lon="13.6846065"><ele>368.0</ele><time>2026-04-05T07:27:38.009Z</time></trkpt><trkpt lat="42.6102677" lon="13.6847265"><ele>368.0</ele><time>2026-04-05T07:27:42.01Z</time></trkpt><trkpt lat="42.6102485" lon="13.6848328"><ele>368.0</ele><time>2026-04-05T07:27:45.009Z</time></trkpt><trkpt lat="42.6102124" lon="13.684939"><ele>368.0</ele><time>2026-04-05T07:27:49.009Z</time></trkpt><trkpt lat="42.6102203" lon="13.6850365"><ele>368.0</ele><time>2026-04-05T07:27:52.009Z</time></trkpt><trkpt lat="42.610239" lon="13.685134"><ele>368.0</ele><time>2026-04-05T07:27:56.009Z</time></trkpt><trkpt lat="42.6102026" lon="13.6852086"><ele>368.0</ele><time>2026-04-05T07:27:59.009Z</time></trkpt><trkpt lat="42.6102052" lon="13.6853129"><ele>368.0</ele><time>2026-04-05T07:28:03.01Z</time></trkpt><trkpt lat="42.6102496" lon="13.6853793"><ele>368.0</ele><time>2026-04-05T07:28:06.009Z</time></trkpt><trkpt lat="42.6102819" lon="13.6854644"><ele>368.0</ele><time>2026-04-05T07:28:09.009Z</time></trkpt><trkpt lat="42.6103292" lon="13.6855511"><ele>368.0</ele><time>2026-04-05T07:28:13.009Z</time></trkpt><trkpt lat="42.6103504" lon="13.6856616"><ele>371.5714285714286</ele><time>2026-04-05T07:28:17.008Z</time></trkpt><trkpt lat="42.6103614" lon="13.6857698"><ele>375.1428571428571</ele><time>2026-04-05T07:28:21.009Z</time></trkpt><trkpt lat="42.6103995" lon="13.6858624"><ele>378.7142857142857</ele><time>2026-04-05T07:28:25.008Z</time></trkpt><trkpt lat="42.6104411" lon="13.6859501"><ele>382.28571428571433</ele><time>2026-04-05T07:28:29.009Z</time></trkpt><trkpt lat="42.610456" lon="13.6860337"><ele>385.8571428571429</ele><time>2026-04-05T07:28:32.009Z</time></trkpt><trkpt lat="42.6104884" lon="13.686119"><ele>389.42857142857144</ele><time>2026-04-05T07:28:36.009Z</time></trkpt><trkpt lat="42.6105033" lon="13.6862245"><ele>393.0</ele><time>2026-04-05T07:28:40.009Z</time></trkpt><trkpt lat="42.6105029" lon="13.6863119"><ele>393.00000000000006</ele><time>2026-04-05T07:28:45.01Z</time></trkpt><trkpt lat="42.6104742" lon="13.6863882"><ele>393.0</ele><time>2026-04-05T07:28:53.009Z</time></trkpt><trkpt lat="42.6104362" lon="13.6864757"><ele>393.0</ele><time>2026-04-05T07:29:14.008Z</time></trkpt><trkpt lat="42.6103946" lon="13.6865573"><ele>393.0</ele><time>2026-04-05T07:29:18.01Z</time></trkpt><trkpt lat="42.6103483" lon="13.6866345"><ele>393.0</ele><time>2026-04-05T07:29:21.008Z</time></trkpt><trkpt lat="42.6102977" lon="13.6867153"><ele>393.00000000000006</ele><time>2026-04-05T07:29:24.008Z</time></trkpt><trkpt lat="42.6102585" lon="13.6868074"><ele>393.0</ele><time>2026-04-05T07:29:27.009Z</time></trkpt><trkpt lat="42.6102138" lon="13.686901"><ele>393.14285714285717</ele><time>2026-04-05T07:29:30.009Z</time></trkpt><trkpt lat="42.6101711" lon="13.6869828"><ele>393.2857142857143</ele><time>2026-04-05T07:29:33.009Z</time></trkpt><trkpt lat="42.6101187" lon="13.6870886"><ele>393.42857142857144</ele><time>2026-04-05T07:29:36.01Z</time></trkpt><trkpt lat="42.6100786" lon="13.6871667"><ele>393.57142857142856</ele><time>2026-04-05T07:29:38.009Z</time></trkpt><trkpt lat="42.6100352" lon="13.6872403"><ele>393.7142857142857</ele><time>2026-04-05T07:29:40.008Z</time></trkpt><trkpt lat="42.6099988" lon="13.6873143"><ele>393.8571428571429</ele><time>2026-04-05T07:29:42.01Z</time></trkpt><trkpt lat="42.6099717" lon="13.6873943"><ele>394.0</ele><time>2026-04-05T07:29:44.01Z</time></trkpt><trkpt lat="42.6099362" lon="13.6875054"><ele>394.00000000000006</ele><time>2026-04-05T07:29:47.008Z</time></trkpt><trkpt lat="42.6099151" lon="13.6876253"><ele>394.0</ele><time>2026-04-05T07:29:50.01Z</time></trkpt><trkpt lat="42.6098978" lon="13.6877469"><ele>394.0</ele><time>2026-04-05T07:29:53.009Z</time></trkpt><trkpt lat="42.6098834" lon="13.6878643"><ele>394.0</ele><time>2026-04-05T07:29:56.009Z</time></trkpt><trkpt lat="42.609858" lon="13.6879725"><ele>394.00000000000006</ele><time>2026-04-05T07:29:59.008Z</time></trkpt><trkpt lat="42.6098296" lon="13.6880666"><ele>394.0</ele><time>2026-04-05T07:30:02.009Z</time></trkpt><trkpt lat="42.6098134" lon="13.6881732"><ele>395.33333333333337</ele><time>2026-04-05T07:30:05.008Z</time></trkpt><trkpt lat="42.6098036" lon="13.6882826"><ele>396.6666666666667</ele><time>2026-04-05T07:30:08.008Z</time></trkpt><trkpt lat="42.6097851" lon="13.6883869"><ele>398.0</ele><time>2026-04-05T07:30:11.008Z</time></trkpt><trkpt lat="42.6097714" lon="13.6884727"><ele>399.33333333333337</ele><time>2026-04-05T07:30:14.008Z</time></trkpt><trkpt lat="42.6097599" lon="13.6885714"><ele>400.6666666666667</ele><time>2026-04-05T07:30:17.008Z</time></trkpt><trkpt lat="42.6097392" lon="13.6886811"><ele>402.0</ele><time>2026-04-05T07:30:20.008Z</time></trkpt><trkpt lat="42.6097179" lon="13.6887865"><ele>402.3333333333333</ele><time>2026-04-05T07:30:23.007Z</time></trkpt><trkpt lat="42.6097043" lon="13.6888955"><ele>402.66666666666663</ele><time>2026-04-05T07:30:26.008Z</time></trkpt><trkpt lat="42.6096837" lon="13.6890033"><ele>403.0</ele><time>2026-04-05T07:30:29.007Z</time></trkpt><trkpt lat="42.6096528" lon="13.6891002"><ele>403.3333333333333</ele><time>2026-04-05T07:30:32.008Z</time></trkpt><trkpt lat="42.609619" lon="13.6892014"><ele>403.66666666666663</ele><time>2026-04-05T07:30:35.009Z</time></trkpt><trkpt lat="42.6095725" lon="13.6892953"><ele>404.0</ele><time>2026-04-05T07:30:38.008Z</time></trkpt><trkpt lat="42.6095187" lon="13.6893817"><ele>406.57142857142856</ele><time>2026-04-05T07:30:41.007Z</time></trkpt><trkpt lat="42.6094568" lon="13.6894525"><ele>409.1428571428571</ele><time>2026-04-05T07:30:44.007Z</time></trkpt><trkpt lat="42.6093952" lon="13.6895148"><ele>411.7142857142857</ele><time>2026-04-05T07:30:47.007Z</time></trkpt><trkpt lat="42.6093442" lon="13.6895914"><ele>414.2857142857143</ele><time>2026-04-05T07:30:50.009Z</time></trkpt><trkpt lat="42.6092984" lon="13.6896683"><ele>416.8571428571429</ele><time>2026-04-05T07:30:53.008Z</time></trkpt><trkpt lat="42.609253" lon="13.6897318"><ele>419.42857142857144</ele><time>2026-04-05T07:30:56.009Z</time></trkpt><trkpt lat="42.6092072" lon="13.6897983"><ele>422.0</ele><time>2026-04-05T07:30:59.008Z</time></trkpt><trkpt lat="42.6091606" lon="13.6898646"><ele>422.0</ele><time>2026-04-05T07:31:02.008Z</time></trkpt><trkpt lat="42.6091139" lon="13.6899288"><ele>422.0</ele><time>2026-04-05T07:31:05.008Z</time></trkpt><trkpt lat="42.6090632" lon="13.6899977"><ele>422.0</ele><time>2026-04-05T07:31:08.009Z</time></trkpt><trkpt lat="42.6090058" lon="13.69006"><ele>422.0</ele><time>2026-04-05T07:31:11.008Z</time></trkpt><trkpt lat="42.6089509" lon="13.6901279"><ele>422.0</ele><time>2026-04-05T07:31:14.008Z</time></trkpt><trkpt lat="42.6088929" lon="13.6901836"><ele>422.0</ele><time>2026-04-05T07:31:17.007Z</time></trkpt><trkpt lat="42.6088299" lon="13.6902324"><ele>422.0</ele><time>2026-04-05T07:31:20.008Z</time></trkpt><trkpt lat="42.6087695" lon="13.6903003"><ele>422.3333333333333</ele><time>2026-04-05T07:31:23.007Z</time></trkpt><trkpt lat="42.6087122" lon="13.6903739"><ele>422.66666666666663</ele><time>2026-04-05T07:31:26.007Z</time></trkpt><trkpt lat="42.6086291" lon="13.6904528"><ele>423.0</ele><time>2026-04-05T07:31:29.008Z</time></trkpt><trkpt lat="42.6085519" lon="13.6904987"><ele>423.33333333333337</ele><time>2026-04-05T07:31:32.009Z</time></trkpt><trkpt lat="42.6084858" lon="13.6905309"><ele>423.6666666666667</ele><time>2026-04-05T07:31:34.008Z</time></trkpt><trkpt lat="42.6084198" lon="13.6905713"><ele>424.0</ele><time>2026-04-05T07:31:36.008Z</time></trkpt><trkpt lat="42.6083427" lon="13.6905935"><ele>424.00000000000006</ele><time>2026-04-05T07:31:38.008Z</time></trkpt><trkpt lat="42.6082774" lon="13.6905879"><ele>424.0</ele><time>2026-04-05T07:31:40.008Z</time></trkpt><trkpt lat="42.6081872" lon="13.6905635"><ele>424.0</ele><time>2026-04-05T07:31:43.008Z</time></trkpt><trkpt lat="42.6081169" lon="13.6905373"><ele>424.0</ele><time>2026-04-05T07:31:45.007Z</time></trkpt><trkpt lat="42.6080411" lon="13.6905052"><ele>424.00000000000006</ele><time>2026-04-05T07:31:47.008Z</time></trkpt><trkpt lat="42.6079603" lon="13.6904708"><ele>424.0</ele><time>2026-04-05T07:31:49.008Z</time></trkpt><trkpt lat="42.6078673" lon="13.6904404"><ele>424.1666666666667</ele><time>2026-04-05T07:31:51.009Z</time></trkpt><trkpt lat="42.6077624" lon="13.690422"><ele>424.33333333333337</ele><time>2026-04-05T07:31:53.008Z</time></trkpt><trkpt lat="42.6076862" lon="13.6904329"><ele>424.5</ele><time>2026-04-05T07:31:55.009Z</time></trkpt><trkpt lat="42.607601" lon="13.6904997"><ele>424.66666666666663</ele><time>2026-04-05T07:31:58.007Z</time></trkpt><trkpt lat="42.6075382" lon="13.6905541"><ele>424.8333333333333</ele><time>2026-04-05T07:32:00.009Z</time></trkpt><trkpt lat="42.6074489" lon="13.6905629"><ele>425.0</ele><time>2026-04-05T07:32:02.007Z</time></trkpt><trkpt lat="42.6073421" lon="13.6905548"><ele>424.99999999999994</ele><time>2026-04-05T07:32:04.008Z</time></trkpt><trkpt lat="42.6072784" lon="13.6905635"><ele>425.0</ele><time>2026-04-05T07:32:05.007Z</time></trkpt><trkpt lat="42.6072151" lon="13.690567"><ele>425.0</ele><time>2026-04-05T07:32:06.007Z</time></trkpt><trkpt lat="42.6071113" lon="13.6905925"><ele>425.0</ele><time>2026-04-05T07:32:08.008Z</time></trkpt><trkpt lat="42.6070258" lon="13.6906204"><ele>424.99999999999994</ele><time>2026-04-05T07:32:10.007Z</time></trkpt><trkpt lat="42.6069487" lon="13.6906404"><ele>425.0</ele><time>2026-04-05T07:32:12.009Z</time></trkpt><trkpt lat="42.6068449" lon="13.6906632"><ele>425.16666666666663</ele><time>2026-04-05T07:32:14.009Z</time></trkpt><trkpt lat="42.606764" lon="13.6906751"><ele>425.3333333333333</ele><time>2026-04-05T07:32:16.008Z</time></trkpt><trkpt lat="42.6066718" lon="13.6906924"><ele>425.5</ele><time>2026-04-05T07:32:18.008Z</time></trkpt><trkpt lat="42.6065849" lon="13.6907137"><ele>425.66666666666663</ele><time>2026-04-05T07:32:20.008Z</time></trkpt><trkpt lat="42.6064932" lon="13.6907281"><ele>425.8333333333333</ele><time>2026-04-05T07:32:22.008Z</time></trkpt><trkpt lat="42.6064017" lon="13.6907282"><ele>426.0</ele><time>2026-04-05T07:32:24.007Z</time></trkpt><trkpt lat="42.6063151" lon="13.6907252"><ele>426.0</ele><time>2026-04-05T07:32:26.008Z</time></trkpt><trkpt lat="42.6062503" lon="13.6907176"><ele>426.0</ele><time>2026-04-05T07:32:28.008Z</time></trkpt><trkpt lat="42.6061594" lon="13.6907468"><ele>426.0</ele><time>2026-04-05T07:32:30.009Z</time></trkpt><trkpt lat="42.6060875" lon="13.6908111"><ele>426.0</ele><time>2026-04-05T07:32:32.008Z</time></trkpt><trkpt lat="42.6060248" lon="13.6908738"><ele>426.0</ele><time>2026-04-05T07:32:34.007Z</time></trkpt><trkpt lat="42.6059619" lon="13.6909489"><ele>426.0</ele><time>2026-04-05T07:32:36.008Z</time></trkpt><trkpt lat="42.6059176" lon="13.691021"><ele>428.4</ele><time>2026-04-05T07:32:38.008Z</time></trkpt><trkpt lat="42.6058734" lon="13.6911051"><ele>430.8</ele><time>2026-04-05T07:32:40.008Z</time></trkpt><trkpt lat="42.6058264" lon="13.6912062"><ele>433.19999999999993</ele><time>2026-04-05T07:32:42.008Z</time></trkpt><trkpt lat="42.6057608" lon="13.6913046"><ele>435.59999999999997</ele><time>2026-04-05T07:32:44.008Z</time></trkpt><trkpt lat="42.6056911" lon="13.6913955"><ele>438.0</ele><time>2026-04-05T07:32:46.009Z</time></trkpt><trkpt lat="42.6056038" lon="13.6914646"><ele>438.0</ele><time>2026-04-05T07:32:48.009Z</time></trkpt><trkpt lat="42.605574" lon="13.6915433"><ele>438.0</ele><time>2026-04-05T07:32:49.008Z</time></trkpt><trkpt lat="42.6055107" lon="13.6916357"><ele>438.0</ele><time>2026-04-05T07:32:51.008Z</time></trkpt><trkpt lat="42.6054503" lon="13.6917018"><ele>438.0</ele><time>2026-04-05T07:32:53.009Z</time></trkpt><trkpt lat="42.6053966" lon="13.6917618"><ele>438.0</ele><time>2026-04-05T07:32:55.007Z</time></trkpt><trkpt lat="42.6053436" lon="13.6918196"><ele>438.0</ele><time>2026-04-05T07:32:57.007Z</time></trkpt><trkpt lat="42.6052789" lon="13.6918996"><ele>435.4</ele><time>2026-04-05T07:32:59.008Z</time></trkpt><trkpt lat="42.6052244" lon="13.6920165"><ele>432.79999999999995</ele><time>2026-04-05T07:33:01.008Z</time></trkpt><trkpt lat="42.6051908" lon="13.6921242"><ele>430.2</ele><time>2026-04-05T07:33:03.008Z</time></trkpt><trkpt lat="42.6051637" lon="13.6922402"><ele>427.6</ele><time>2026-04-05T07:33:05.007Z</time></trkpt><trkpt lat="42.6051498" lon="13.6923681"><ele>425.0</ele><time>2026-04-05T07:33:07.008Z</time></trkpt><trkpt lat="42.6051677" lon="13.6925006"><ele>424.99999999999994</ele><time>2026-04-05T07:33:09.008Z</time></trkpt><trkpt lat="42.6051993" lon="13.6925782"><ele>425.0</ele><time>2026-04-05T07:33:11.008Z</time></trkpt><trkpt lat="42.6052748" lon="13.692628"><ele>425.0</ele><time>2026-04-05T07:33:14.008Z</time></trkpt><trkpt lat="42.6051819" lon="13.6926637"><ele>425.0</ele><time>2026-04-05T07:33:17.009Z</time></trkpt><trkpt lat="42.6050742" lon="13.6926598"><ele>424.99999999999994</ele><time>2026-04-05T07:33:19.007Z</time></trkpt><trkpt lat="42.6050105" lon="13.6926508"><ele>425.0</ele><time>2026-04-05T07:33:20.008Z</time></trkpt><trkpt lat="42.6049454" lon="13.6926394"><ele>424.99999999999994</ele><time>2026-04-05T07:33:21.009Z</time></trkpt><trkpt lat="42.6048808" lon="13.6926177"><ele>425.0</ele><time>2026-04-05T07:33:22.007Z</time></trkpt><trkpt lat="42.6048168" lon="13.6926087"><ele>425.0</ele><time>2026-04-05T07:33:23.008Z</time></trkpt><trkpt lat="42.6046992" lon="13.692619"><ele>425.0</ele><time>2026-04-05T07:33:25.007Z</time></trkpt><trkpt lat="42.6046044" lon="13.6926104"><ele>424.99999999999994</ele><time>2026-04-05T07:33:27.007Z</time></trkpt><trkpt lat="42.6045234" lon="13.69261"><ele>425.0</ele><time>2026-04-05T07:33:29.008Z</time></trkpt><trkpt lat="42.6044303" lon="13.6925926"><ele>423.99999999999994</ele><time>2026-04-05T07:33:31.009Z</time></trkpt><trkpt lat="42.6043427" lon="13.6925731"><ele>423.0</ele><time>2026-04-05T07:33:33.007Z</time></trkpt><trkpt lat="42.604261" lon="13.6925468"><ele>422.0</ele><time>2026-04-05T07:33:35.008Z</time></trkpt><trkpt lat="42.604188" lon="13.6925232"><ele>421.0</ele><time>2026-04-05T07:34:12.007Z</time></trkpt><trkpt lat="42.6041167" lon="13.6925012"><ele>419.99999999999994</ele><time>2026-04-05T07:34:15.008Z</time></trkpt><trkpt lat="42.6040547" lon="13.6924781"><ele>419.0</ele><time>2026-04-05T07:34:19.006Z</time></trkpt><trkpt lat="42.6039342" lon="13.692402"><ele>418.99999999999994</ele><time>2026-04-05T07:34:22.007Z</time></trkpt><trkpt lat="42.6038315" lon="13.6922956"><ele>419.0</ele><time>2026-04-05T07:34:24.008Z</time></trkpt><trkpt lat="42.603776" lon="13.6922398"><ele>419.0</ele><time>2026-04-05T07:34:25.007Z</time></trkpt><trkpt lat="42.6037191" lon="13.692188"><ele>419.0</ele><time>2026-04-05T07:34:26.008Z</time></trkpt><trkpt lat="42.6036534" lon="13.6921521"><ele>418.99999999999994</ele><time>2026-04-05T07:34:27.007Z</time></trkpt><trkpt lat="42.6035919" lon="13.6921209"><ele>419.0</ele><time>2026-04-05T07:34:28.007Z</time></trkpt><trkpt lat="42.6034826" lon="13.6920542"><ele>417.99999999999994</ele><time>2026-04-05T07:34:30.006Z</time></trkpt><trkpt lat="42.6034285" lon="13.6919713"><ele>417.0</ele><time>2026-04-05T07:34:32.007Z</time></trkpt><trkpt lat="42.6033711" lon="13.6918965"><ele>416.0</ele><time>2026-04-05T07:34:34.007Z</time></trkpt><trkpt lat="42.6033044" lon="13.6918082"><ele>415.0</ele><time>2026-04-05T07:34:37.007Z</time></trkpt><trkpt lat="42.603244" lon="13.6917171"><ele>413.99999999999994</ele><time>2026-04-05T07:34:40.007Z</time></trkpt><trkpt lat="42.6031862" lon="13.6916361"><ele>413.0</ele><time>2026-04-05T07:34:43.008Z</time></trkpt><trkpt lat="42.6031204" lon="13.6915624"><ele>413.0</ele><time>2026-04-05T07:34:46.008Z</time></trkpt><trkpt lat="42.6030512" lon="13.6915301"><ele>413.0</ele><time>2026-04-05T07:34:49.007Z</time></trkpt><trkpt lat="42.6029856" lon="13.691505"><ele>413.0</ele><time>2026-04-05T07:34:51.006Z</time></trkpt><trkpt lat="42.6029272" lon="13.6914499"><ele>413.0</ele><time>2026-04-05T07:34:53.007Z</time></trkpt><trkpt lat="42.6028715" lon="13.691388"><ele>413.0</ele><time>2026-04-05T07:34:56.008Z</time></trkpt><trkpt lat="42.6028422" lon="13.6913111"><ele>413.0</ele><time>2026-04-05T07:34:58.007Z</time></trkpt><trkpt lat="42.6028177" lon="13.6912251"><ele>413.0</ele><time>2026-04-05T07:35:00.007Z</time></trkpt><trkpt lat="42.6027878" lon="13.6911292"><ele>409.3333333333333</ele><time>2026-04-05T07:35:02.007Z</time></trkpt><trkpt lat="42.6027754" lon="13.6910283"><ele>405.66666666666663</ele><time>2026-04-05T07:35:04.007Z</time></trkpt><trkpt lat="42.6027697" lon="13.6909213"><ele>402.0</ele><time>2026-04-05T07:35:07.008Z</time></trkpt><trkpt lat="42.6027464" lon="13.6908283"><ele>398.33333333333337</ele><time>2026-04-05T07:35:10.007Z</time></trkpt><trkpt lat="42.6027339" lon="13.6907189"><ele>394.6666666666667</ele><time>2026-04-05T07:35:12.007Z</time></trkpt><trkpt lat="42.6027445" lon="13.6905553"><ele>391.0</ele><time>2026-04-05T07:35:14.008Z</time></trkpt><trkpt lat="42.6027541" lon="13.6904655"><ele>391.0</ele><time>2026-04-05T07:35:15.008Z</time></trkpt><trkpt lat="42.6027679" lon="13.6903034"><ele>391.0</ele><time>2026-04-05T07:35:17.007Z</time></trkpt><trkpt lat="42.6027622" lon="13.690148"><ele>391.0</ele><time>2026-04-05T07:35:19.008Z</time></trkpt><trkpt lat="42.6027964" lon="13.6900012"><ele>391.0</ele><time>2026-04-05T07:35:21.008Z</time></trkpt><trkpt lat="42.602808" lon="13.6898905"><ele>391.0</ele><time>2026-04-05T07:35:23.006Z</time></trkpt><trkpt lat="42.6028376" lon="13.6898001"><ele>389.6666666666667</ele><time>2026-04-05T07:35:25.006Z</time></trkpt><trkpt lat="42.6028756" lon="13.6897182"><ele>388.33333333333337</ele><time>2026-04-05T07:35:27.007Z</time></trkpt><trkpt lat="42.6029661" lon="13.6896514"><ele>387.0</ele><time>2026-04-05T07:35:29.008Z</time></trkpt><trkpt lat="42.6030101" lon="13.6895533"><ele>385.6666666666667</ele><time>2026-04-05T07:35:31.007Z</time></trkpt><trkpt lat="42.603017" lon="13.6894406"><ele>384.33333333333337</ele><time>2026-04-05T07:35:33.007Z</time></trkpt><trkpt lat="42.6029951" lon="13.6893571"><ele>383.0</ele><time>2026-04-05T07:35:35.007Z</time></trkpt><trkpt lat="42.6029433" lon="13.6892952"><ele>380.0</ele><time>2026-04-05T07:35:37.007Z</time></trkpt><trkpt lat="42.6028724" lon="13.6892969"><ele>377.0</ele><time>2026-04-05T07:35:38.007Z</time></trkpt><trkpt lat="42.6028007" lon="13.6892355"><ele>374.0</ele><time>2026-04-05T07:35:40.008Z</time></trkpt><trkpt lat="42.6027301" lon="13.6892354"><ele>371.0</ele><time>2026-04-05T07:35:42.008Z</time></trkpt><trkpt lat="42.6026503" lon="13.6892665"><ele>368.0</ele><time>2026-04-05T07:35:44.008Z</time></trkpt><trkpt lat="42.6025601" lon="13.689321"><ele>365.0</ele><time>2026-04-05T07:35:46.006Z</time></trkpt><trkpt lat="42.6024633" lon="13.6894178"><ele>367.5</ele><time>2026-04-05T07:35:48.008Z</time></trkpt><trkpt lat="42.60241" lon="13.6894927"><ele>370.0</ele><time>2026-04-05T07:35:49.007Z</time></trkpt><trkpt lat="42.6023407" lon="13.6895453"><ele>372.5</ele><time>2026-04-05T07:35:50.007Z</time></trkpt><trkpt lat="42.6022774" lon="13.6895884"><ele>375.0</ele><time>2026-04-05T07:35:51.007Z</time></trkpt><trkpt lat="42.602227" lon="13.6896424"><ele>377.5</ele><time>2026-04-05T07:35:52.006Z</time></trkpt><trkpt lat="42.6021258" lon="13.6897431"><ele>380.0</ele><time>2026-04-05T07:35:54.008Z</time></trkpt><trkpt lat="42.6020642" lon="13.6897992"><ele>375.83333333333337</ele><time>2026-04-05T07:35:55.008Z</time></trkpt><trkpt lat="42.6019966" lon="13.6898566"><ele>371.6666666666667</ele><time>2026-04-05T07:35:56.006Z</time></trkpt><trkpt lat="42.60193" lon="13.6899037"><ele>367.5</ele><time>2026-04-05T07:35:57.006Z</time></trkpt><trkpt lat="42.6018872" lon="13.689967"><ele>363.3333333333333</ele><time>2026-04-05T07:35:58.007Z</time></trkpt><trkpt lat="42.6018016" lon="13.6900825"><ele>359.16666666666663</ele><time>2026-04-05T07:36:00.007Z</time></trkpt><trkpt lat="42.6017073" lon="13.6901298"><ele>355.0</ele><time>2026-04-05T07:36:02.007Z</time></trkpt><trkpt lat="42.6016172" lon="13.6901905"><ele>355.0</ele><time>2026-04-05T07:36:04.006Z</time></trkpt><trkpt lat="42.6015297" lon="13.6902403"><ele>355.0</ele><time>2026-04-05T07:36:06.007Z</time></trkpt><trkpt lat="42.6014558" lon="13.6902668"><ele>355.0</ele><time>2026-04-05T07:36:08.007Z</time></trkpt><trkpt lat="42.6013768" lon="13.6902235"><ele>355.0</ele><time>2026-04-05T07:36:11.006Z</time></trkpt><trkpt lat="42.6013621" lon="13.6901363"><ele>355.0</ele><time>2026-04-05T07:36:13.008Z</time></trkpt><trkpt lat="42.6013755" lon="13.6900457"><ele>355.0</ele><time>2026-04-05T07:36:15.007Z</time></trkpt><trkpt lat="42.6014098" lon="13.6899467"><ele>355.0</ele><time>2026-04-05T07:36:18.007Z</time></trkpt><trkpt lat="42.6014665" lon="13.6898453"><ele>355.0</ele><time>2026-04-05T07:36:20.008Z</time></trkpt><trkpt lat="42.6015094" lon="13.6897338"><ele>355.0</ele><time>2026-04-05T07:36:22.006Z</time></trkpt><trkpt lat="42.6015268" lon="13.6896511"><ele>355.0</ele><time>2026-04-05T07:36:26.006Z</time></trkpt><trkpt lat="42.6015141" lon="13.68955"><ele>355.0</ele><time>2026-04-05T07:36:30.007Z</time></trkpt><trkpt lat="42.601423" lon="13.689517"><ele>355.0</ele><time>2026-04-05T07:36:32.007Z</time></trkpt><trkpt lat="42.6013427" lon="13.6895337"><ele>355.0</ele><time>2026-04-05T07:36:34.007Z</time></trkpt><trkpt lat="42.6012582" lon="13.689581"><ele>355.0</ele><time>2026-04-05T07:36:36.007Z</time></trkpt><trkpt lat="42.6011765" lon="13.6896255"><ele>355.0</ele><time>2026-04-05T07:36:38.007Z</time></trkpt><trkpt lat="42.6010961" lon="13.6896652"><ele>355.0</ele><time>2026-04-05T07:36:40.007Z</time></trkpt><trkpt lat="42.601038" lon="13.6897009"><ele>355.0</ele><time>2026-04-05T07:36:42.007Z</time></trkpt><trkpt lat="42.6009856" lon="13.6897607"><ele>355.0</ele><time>2026-04-05T07:36:45.007Z</time></trkpt><trkpt lat="42.6009373" lon="13.6898327"><ele>349.4</ele><time>2026-04-05T07:36:47.007Z</time></trkpt><trkpt lat="42.6008754" lon="13.6899232"><ele>343.8</ele><time>2026-04-05T07:36:50.007Z</time></trkpt><trkpt lat="42.6007841" lon="13.689947"><ele>338.20000000000005</ele><time>2026-04-05T07:36:53.008Z</time></trkpt><trkpt lat="42.6007066" lon="13.689927"><ele>332.6</ele><time>2026-04-05T07:36:55.008Z</time></trkpt><trkpt lat="42.6006094" lon="13.6898883"><ele>327.0</ele><time>2026-04-05T07:36:57.006Z</time></trkpt><trkpt lat="42.6005246" lon="13.6898212"><ele>327.0</ele><time>2026-04-05T07:36:59.007Z</time></trkpt><trkpt lat="42.6004598" lon="13.6897303"><ele>327.0</ele><time>2026-04-05T07:37:01.006Z</time></trkpt><trkpt lat="42.600438" lon="13.6895874"><ele>327.0</ele><time>2026-04-05T07:37:03.007Z</time></trkpt><trkpt lat="42.600446" lon="13.6894403"><ele>327.0</ele><time>2026-04-05T07:37:05.008Z</time></trkpt><trkpt lat="42.6005022" lon="13.6893085"><ele>327.0</ele><time>2026-04-05T07:37:07.007Z</time></trkpt><trkpt lat="42.6005775" lon="13.6892141"><ele>325.0</ele><time>2026-04-05T07:37:09.007Z</time></trkpt><trkpt lat="42.6006576" lon="13.6891322"><ele>323.0</ele><time>2026-04-05T07:37:11.007Z</time></trkpt><trkpt lat="42.6007476" lon="13.6890492"><ele>321.0</ele><time>2026-04-05T07:37:13.007Z</time></trkpt><trkpt lat="42.6007985" lon="13.6889759"><ele>319.0</ele><time>2026-04-05T07:37:15.007Z</time></trkpt><trkpt lat="42.6007829" lon="13.6888762"><ele>317.0</ele><time>2026-04-05T07:37:57.008Z</time></trkpt><trkpt lat="42.6007009" lon="13.6888759"><ele>315.0</ele><time>2026-04-05T07:37:59.006Z</time></trkpt><trkpt lat="42.6005807" lon="13.688855"><ele>315.0</ele><time>2026-04-05T07:38:01.006Z</time></trkpt><trkpt lat="42.6005056" lon="13.6888465"><ele>315.0</ele><time>2026-04-05T07:38:02.006Z</time></trkpt><trkpt lat="42.60043" lon="13.6888347"><ele>315.0</ele><time>2026-04-05T07:38:03.007Z</time></trkpt><trkpt lat="42.6003411" lon="13.688835"><ele>315.0</ele><time>2026-04-05T07:38:04.006Z</time></trkpt><trkpt lat="42.600263" lon="13.6888488"><ele>315.0</ele><time>2026-04-05T07:38:05.005Z</time></trkpt><trkpt lat="42.6001926" lon="13.688868"><ele>315.0</ele><time>2026-04-05T07:38:06.005Z</time></trkpt><trkpt lat="42.6001232" lon="13.688889"><ele>311.6</ele><time>2026-04-05T07:38:07.006Z</time></trkpt><trkpt lat="42.6000587" lon="13.6889117"><ele>308.2</ele><time>2026-04-05T07:38:08.007Z</time></trkpt><trkpt lat="42.5999968" lon="13.6889345"><ele>304.8</ele><time>2026-04-05T07:38:09.005Z</time></trkpt><trkpt lat="42.5998814" lon="13.6889746"><ele>301.4</ele><time>2026-04-05T07:38:11.006Z</time></trkpt><trkpt lat="42.5997804" lon="13.6890194"><ele>298.0</ele><time>2026-04-05T07:38:13.005Z</time></trkpt><trkpt lat="42.5996881" lon="13.68908"><ele>298.0</ele><time>2026-04-05T07:38:15.007Z</time></trkpt><trkpt lat="42.599598" lon="13.6891214"><ele>298.0</ele><time>2026-04-05T07:38:17.006Z</time></trkpt><trkpt lat="42.5994876" lon="13.6891088"><ele>298.0</ele><time>2026-04-05T07:38:19.007Z</time></trkpt><trkpt lat="42.5994062" lon="13.6890872"><ele>298.0</ele><time>2026-04-05T07:38:21.005Z</time></trkpt><trkpt lat="42.5993282" lon="13.6890679"><ele>298.0</ele><time>2026-04-05T07:38:23.007Z</time></trkpt><trkpt lat="42.599256" lon="13.6890197"><ele>298.0</ele><time>2026-04-05T07:39:12.007Z</time></trkpt><trkpt lat="42.5991784" lon="13.6889566"><ele>295.8333333333333</ele><time>2026-04-05T07:39:15.006Z</time></trkpt><trkpt lat="42.5991254" lon="13.6888867"><ele>293.66666666666663</ele><time>2026-04-05T07:39:17.006Z</time></trkpt><trkpt lat="42.5990798" lon="13.6888121"><ele>291.5</ele><time>2026-04-05T07:39:19.006Z</time></trkpt><trkpt lat="42.5990214" lon="13.6887592"><ele>289.3333333333333</ele><time>2026-04-05T07:39:21.007Z</time></trkpt><trkpt lat="42.5989361" lon="13.6887084"><ele>287.1666666666667</ele><time>2026-04-05T07:39:23.005Z</time></trkpt><trkpt lat="42.5988472" lon="13.6886389"><ele>285.0</ele><time>2026-04-05T07:39:25.006Z</time></trkpt><trkpt lat="42.5987517" lon="13.688585"><ele>282.8333333333333</ele><time>2026-04-05T07:39:27.006Z</time></trkpt><trkpt lat="42.5986721" lon="13.6885444"><ele>280.6666666666667</ele><time>2026-04-05T07:39:29.007Z</time></trkpt><trkpt lat="42.5985925" lon="13.6885272"><ele>278.5</ele><time>2026-04-05T07:39:31.005Z</time></trkpt><trkpt lat="42.5985065" lon="13.6885126"><ele>276.33333333333337</ele><time>2026-04-05T07:39:34.006Z</time></trkpt><trkpt lat="42.598433" lon="13.6884945"><ele>274.1666666666667</ele><time>2026-04-05T07:39:44.007Z</time></trkpt><trkpt lat="42.5983532" lon="13.6884949"><ele>272.0</ele><time>2026-04-05T07:39:48.006Z</time></trkpt><trkpt lat="42.5982658" lon="13.6884855"><ele>270.0</ele><time>2026-04-05T07:39:51.007Z</time></trkpt><trkpt lat="42.5982062" lon="13.6884562"><ele>268.0</ele><time>2026-04-05T07:39:53.006Z</time></trkpt><trkpt lat="42.598125" lon="13.6884378"><ele>266.0</ele><time>2026-04-05T07:39:57.007Z</time></trkpt><trkpt lat="42.5980438" lon="13.6884299"><ele>264.0</ele><time>2026-04-05T07:40:00.005Z</time></trkpt><trkpt lat="42.5979504" lon="13.6884349"><ele>262.0</ele><time>2026-04-05T07:40:03.006Z</time></trkpt><trkpt lat="42.5978742" lon="13.6884429"><ele>260.0</ele><time>2026-04-05T07:40:06.006Z</time></trkpt><trkpt lat="42.5978045" lon="13.6884468"><ele>256.28571428571433</ele><time>2026-04-05T07:40:09.005Z</time></trkpt><trkpt lat="42.5977361" lon="13.6884437"><ele>252.57142857142858</ele><time>2026-04-05T07:40:33.006Z</time></trkpt><trkpt lat="42.5976656" lon="13.6884322"><ele>248.8571428571429</ele><time>2026-04-05T07:40:37.006Z</time></trkpt><trkpt lat="42.5975944" lon="13.6883923"><ele>245.14285714285717</ele><time>2026-04-05T07:40:41.006Z</time></trkpt><trkpt lat="42.5975249" lon="13.6883631"><ele>241.42857142857144</ele><time>2026-04-05T07:40:45.007Z</time></trkpt><trkpt lat="42.5974594" lon="13.6883801"><ele>237.71428571428572</ele><time>2026-04-05T07:40:49.006Z</time></trkpt><trkpt lat="42.5973996" lon="13.6884447"><ele>234.0</ele><time>2026-04-05T07:40:52.006Z</time></trkpt><trkpt lat="42.5973413" lon="13.6885115"><ele>233.66666666666666</ele><time>2026-04-05T07:40:55.006Z</time></trkpt><trkpt lat="42.5972688" lon="13.6885937"><ele>233.33333333333331</ele><time>2026-04-05T07:40:58.005Z</time></trkpt><trkpt lat="42.5972037" lon="13.6886709"><ele>233.0</ele><time>2026-04-05T07:41:01.006Z</time></trkpt><trkpt lat="42.5971368" lon="13.6887328"><ele>232.66666666666666</ele><time>2026-04-05T07:41:04.007Z</time></trkpt><trkpt lat="42.5970556" lon="13.6887745"><ele>232.33333333333331</ele><time>2026-04-05T07:41:07.005Z</time></trkpt><trkpt lat="42.5969838" lon="13.6887903"><ele>232.0</ele><time>2026-04-05T07:41:10.006Z</time></trkpt><trkpt lat="42.5969099" lon="13.6887691"><ele>227.83333333333331</ele><time>2026-04-05T07:41:13.005Z</time></trkpt><trkpt lat="42.5968793" lon="13.688686"><ele>223.66666666666666</ele><time>2026-04-05T07:41:15.005Z</time></trkpt><trkpt lat="42.5968786" lon="13.6885748"><ele>219.5</ele><time>2026-04-05T07:41:17.005Z</time></trkpt><trkpt lat="42.5969134" lon="13.6884369"><ele>215.33333333333331</ele><time>2026-04-05T07:41:19.005Z</time></trkpt><trkpt lat="42.5968895" lon="13.6883182"><ele>211.16666666666666</ele><time>2026-04-05T07:41:22.005Z</time></trkpt><trkpt lat="42.5968594" lon="13.6882299"><ele>207.0</ele><time>2026-04-05T07:41:24.007Z</time></trkpt><trkpt lat="42.5968099" lon="13.6881515"><ele>207.0</ele><time>2026-04-05T07:41:26.006Z</time></trkpt><trkpt lat="42.5967735" lon="13.6880736"><ele>207.0</ele><time>2026-04-05T07:41:28.006Z</time></trkpt><trkpt lat="42.5967489" lon="13.6879802"><ele>207.0</ele><time>2026-04-05T07:41:30.007Z</time></trkpt><trkpt lat="42.5967351" lon="13.6878764"><ele>207.0</ele><time>2026-04-05T07:41:32.007Z</time></trkpt><trkpt lat="42.5967136" lon="13.6877472"><ele>207.0</ele><time>2026-04-05T07:41:35.005Z</time></trkpt><trkpt lat="42.5966927" lon="13.6876423"><ele>207.0</ele><time>2026-04-05T07:41:38.006Z</time></trkpt><trkpt lat="42.5966556" lon="13.6875459"><ele>206.0</ele><time>2026-04-05T07:41:41.006Z</time></trkpt><trkpt lat="42.5966027" lon="13.6874836"><ele>205.0</ele><time>2026-04-05T07:41:44.005Z</time></trkpt><trkpt lat="42.5965378" lon="13.6874278"><ele>204.0</ele><time>2026-04-05T07:41:48.005Z</time></trkpt><trkpt lat="42.5964597" lon="13.6874707"><ele>203.0</ele><time>2026-04-05T07:41:51.005Z</time></trkpt><trkpt lat="42.5963757" lon="13.6875155"><ele>202.0</ele><time>2026-04-05T07:41:54.006Z</time></trkpt><trkpt lat="42.5963002" lon="13.687563"><ele>201.0</ele><time>2026-04-05T07:41:57.005Z</time></trkpt><trkpt lat="42.5962463" lon="13.6876196"><ele>201.0</ele><time>2026-04-05T07:42:01.006Z</time></trkpt><trkpt lat="42.5962049" lon="13.6875482"><ele>201.0</ele><time>2026-04-05T07:42:09.005Z</time></trkpt><trkpt lat="42.5961725" lon="13.6874743"><ele>201.0</ele><time>2026-04-05T07:43:07.006Z</time></trkpt><trkpt lat="42.5961083" lon="13.6874073"><ele>201.0</ele><time>2026-04-05T07:51:10.001Z</time></trkpt><trkpt lat="42.596056" lon="13.6873231"><ele>201.0</ele><time>2026-04-05T07:51:13.003Z</time></trkpt><trkpt lat="42.5960303" lon="13.6872295"><ele>201.0</ele><time>2026-04-05T07:51:16.003Z</time></trkpt><trkpt lat="42.5960277" lon="13.6871325"><ele>201.0</ele><time>2026-04-05T07:52:40Z</time></trkpt><trkpt lat="42.5960093" lon="13.6870387"><ele>200.16666666666666</ele><time>2026-04-05T07:52:46Z</time></trkpt><trkpt lat="42.5959304" lon="13.6870306"><ele>199.33333333333331</ele><time>2026-04-05T07:52:49.001Z</time></trkpt><trkpt lat="42.5958557" lon="13.6870028"><ele>198.5</ele><time>2026-04-05T07:52:51.002Z</time></trkpt><trkpt lat="42.5957923" lon="13.6869535"><ele>197.66666666666666</ele><time>2026-04-05T07:52:53.001Z</time></trkpt><trkpt lat="42.5957225" lon="13.6869086"><ele>196.83333333333331</ele><time>2026-04-05T07:52:55.002Z</time></trkpt><trkpt lat="42.5956355" lon="13.6868616"><ele>196.0</ele><time>2026-04-05T07:52:57.001Z</time></trkpt><trkpt lat="42.5955369" lon="13.6868165"><ele>197.83333333333331</ele><time>2026-04-05T07:52:59.002Z</time></trkpt><trkpt lat="42.5954761" lon="13.6867016"><ele>199.66666666666666</ele><time>2026-04-05T07:53:01Z</time></trkpt><trkpt lat="42.5954498" lon="13.686581"><ele>201.5</ele><time>2026-04-05T07:53:03.001Z</time></trkpt><trkpt lat="42.5954144" lon="13.686468"><ele>203.33333333333331</ele><time>2026-04-05T07:53:05.001Z</time></trkpt><trkpt lat="42.5953867" lon="13.6863588"><ele>205.16666666666666</ele><time>2026-04-05T07:53:07Z</time></trkpt><trkpt lat="42.5953496" lon="13.6862868"><ele>207.0</ele><time>2026-04-05T07:53:09.001Z</time></trkpt><trkpt lat="42.5953603" lon="13.6861935"><ele>207.71428571428572</ele><time>2026-04-05T07:53:13.002Z</time></trkpt><trkpt lat="42.5953171" lon="13.6861197"><ele>208.42857142857144</ele><time>2026-04-05T07:53:16.001Z</time></trkpt><trkpt lat="42.5953169" lon="13.6860161"><ele>209.14285714285717</ele><time>2026-04-05T07:53:19Z</time></trkpt><trkpt lat="42.5953432" lon="13.6859017"><ele>209.85714285714286</ele><time>2026-04-05T07:53:22.001Z</time></trkpt><trkpt lat="42.5953589" lon="13.685816"><ele>210.57142857142856</ele><time>2026-04-05T07:53:25Z</time></trkpt><trkpt lat="42.5953931" lon="13.6857429"><ele>211.2857142857143</ele><time>2026-04-05T07:53:27Z</time></trkpt><trkpt lat="42.5953909" lon="13.6856339"><ele>212.0</ele><time>2026-04-05T07:53:29.002Z</time></trkpt><trkpt lat="42.5953612" lon="13.6855576"><ele>209.83333333333334</ele><time>2026-04-05T07:53:32.001Z</time></trkpt><trkpt lat="42.5953273" lon="13.6854779"><ele>207.66666666666669</ele><time>2026-04-05T07:53:35Z</time></trkpt><trkpt lat="42.5953134" lon="13.6853653"><ele>205.5</ele><time>2026-04-05T07:53:42.001Z</time></trkpt><trkpt lat="42.5953053" lon="13.6852702"><ele>203.33333333333331</ele><time>2026-04-05T07:53:45Z</time></trkpt><trkpt lat="42.5952882" lon="13.685182"><ele>201.16666666666666</ele><time>2026-04-05T07:53:47.002Z</time></trkpt><trkpt lat="42.5952493" lon="13.6850811"><ele>199.0</ele><time>2026-04-05T07:53:50Z</time></trkpt><trkpt lat="42.5951852" lon="13.6850207"><ele>198.99999999999997</ele><time>2026-04-05T07:53:54.001Z</time></trkpt><trkpt lat="42.595134" lon="13.6849301"><ele>199.0</ele><time>2026-04-05T07:53:57.001Z</time></trkpt><trkpt lat="42.5951206" lon="13.6848251"><ele>199.0</ele><time>2026-04-05T07:54:04.001Z</time></trkpt><trkpt lat="42.5951079" lon="13.684735"><ele>199.0</ele><time>2026-04-05T07:54:22.001Z</time></trkpt><trkpt lat="42.5951233" lon="13.6848331"><ele>199.0</ele><time>2026-04-05T07:55:18Z</time></trkpt><trkpt lat="42.5951878" lon="13.6848132"><ele>198.99999999999997</ele><time>2026-04-05T07:55:26Z</time></trkpt><trkpt lat="42.595193" lon="13.6847185"><ele>199.0</ele><time>2026-04-05T07:55:38Z</time></trkpt><trkpt lat="42.5951339" lon="13.6846598"><ele>198.99999999999997</ele><time>2026-04-05T07:55:42Z</time></trkpt><trkpt lat="42.5950869" lon="13.6845996"><ele>199.0</ele><time>2026-04-05T07:56:02.001Z</time></trkpt><trkpt lat="42.5950304" lon="13.6845181"><ele>199.0</ele><time>2026-04-05T07:56:05Z</time></trkpt><trkpt lat="42.594991" lon="13.6844299"><ele>199.0</ele><time>2026-04-05T07:56:08Z</time></trkpt><trkpt lat="42.5949329" lon="13.6843402"><ele>198.99999999999997</ele><time>2026-04-05T07:56:11.001Z</time></trkpt><trkpt lat="42.5948716" lon="13.6842417"><ele>199.0</ele><time>2026-04-05T07:56:14.001Z</time></trkpt><trkpt lat="42.5948418" lon="13.6841262"><ele>199.79999999999998</ele><time>2026-04-05T07:56:17Z</time></trkpt><trkpt lat="42.5948086" lon="13.6840133"><ele>200.6</ele><time>2026-04-05T07:56:18Z</time></trkpt><trkpt lat="42.5947593" lon="13.6838897"><ele>201.4</ele><time>2026-04-05T07:56:20Z</time></trkpt><trkpt lat="42.5947263" lon="13.6837675"><ele>202.2</ele><time>2026-04-05T07:56:22Z</time></trkpt><trkpt lat="42.5946942" lon="13.6836702"><ele>203.0</ele><time>2026-04-05T07:56:24Z</time></trkpt><trkpt lat="42.5946958" lon="13.6835423"><ele>203.28571428571428</ele><time>2026-04-05T07:56:26.999Z</time></trkpt><trkpt lat="42.5946964" lon="13.6834378"><ele>203.57142857142856</ele><time>2026-04-05T07:56:29.001Z</time></trkpt><trkpt lat="42.594658" lon="13.6833492"><ele>203.85714285714286</ele><time>2026-04-05T07:56:32Z</time></trkpt><trkpt lat="42.5946006" lon="13.6833002"><ele>204.14285714285714</ele><time>2026-04-05T07:56:34Z</time></trkpt><trkpt lat="42.5945469" lon="13.6832313"><ele>204.42857142857142</ele><time>2026-04-05T07:56:36.001Z</time></trkpt><trkpt lat="42.5944786" lon="13.6831808"><ele>204.71428571428572</ele><time>2026-04-05T07:56:38Z</time></trkpt><trkpt lat="42.5944484" lon="13.683093"><ele>205.0</ele><time>2026-04-05T07:56:40.001Z</time></trkpt><trkpt lat="42.5944552" lon="13.6829909"><ele>204.33333333333331</ele><time>2026-04-05T07:56:42.001Z</time></trkpt><trkpt lat="42.594474" lon="13.682883"><ele>203.66666666666666</ele><time>2026-04-05T07:56:45Z</time></trkpt><trkpt lat="42.5944526" lon="13.6828002"><ele>203.0</ele><time>2026-04-05T07:56:50Z</time></trkpt><trkpt lat="42.5943953" lon="13.6827306"><ele>202.33333333333331</ele><time>2026-04-05T07:57:11.999Z</time></trkpt><trkpt lat="42.5943314" lon="13.6827251"><ele>201.66666666666666</ele><time>2026-04-05T07:57:14Z</time></trkpt><trkpt lat="42.5942895" lon="13.6826298"><ele>201.0</ele><time>2026-04-05T07:57:17Z</time></trkpt><trkpt lat="42.5942689" lon="13.682512"><ele>201.0</ele><time>2026-04-05T07:57:19.999Z</time></trkpt><trkpt lat="42.5942064" lon="13.6824402"><ele>201.0</ele><time>2026-04-05T07:57:23.998Z</time></trkpt><trkpt lat="42.5941867" lon="13.6823389"><ele>201.0</ele><time>2026-04-05T07:57:26.999Z</time></trkpt><trkpt lat="42.5941915" lon="13.6822265"><ele>201.0</ele><time>2026-04-05T07:57:34.998Z</time></trkpt><trkpt lat="42.5941746" lon="13.6821268"><ele>201.0</ele><time>2026-04-05T07:57:38.998Z</time></trkpt><trkpt lat="42.5941327" lon="13.6820449"><ele>201.0</ele><time>2026-04-05T07:57:43.999Z</time></trkpt><trkpt lat="42.5940735" lon="13.6820155"><ele>201.33333333333334</ele><time>2026-04-05T07:57:56.998Z</time></trkpt><trkpt lat="42.5940428" lon="13.6819237"><ele>201.66666666666669</ele><time>2026-04-05T07:58:03.999Z</time></trkpt><trkpt lat="42.5940511" lon="13.6818232"><ele>202.0</ele><time>2026-04-05T07:58:06.999Z</time></trkpt><trkpt lat="42.5940955" lon="13.6817154"><ele>202.33333333333334</ele><time>2026-04-05T07:58:09.998Z</time></trkpt><trkpt lat="42.594118" lon="13.6816319"><ele>202.66666666666669</ele><time>2026-04-05T07:58:11.999Z</time></trkpt><trkpt lat="42.5941413" lon="13.681514"><ele>203.0</ele><time>2026-04-05T07:58:13.998Z</time></trkpt><trkpt lat="42.5941657" lon="13.6813742"><ele>203.00000000000003</ele><time>2026-04-05T07:58:16Z</time></trkpt><trkpt lat="42.5941535" lon="13.68126"><ele>203.0</ele><time>2026-04-05T07:58:17.999Z</time></trkpt><trkpt lat="42.59413" lon="13.6811743"><ele>203.0</ele><time>2026-04-05T07:58:20Z</time></trkpt><trkpt lat="42.5940488" lon="13.6811199"><ele>203.0</ele><time>2026-04-05T07:58:33.998Z</time></trkpt><trkpt lat="42.5939842" lon="13.6810768"><ele>203.00000000000003</ele><time>2026-04-05T07:58:36Z</time></trkpt><trkpt lat="42.5939184" lon="13.6810303"><ele>203.0</ele><time>2026-04-05T07:58:37.999Z</time></trkpt><trkpt lat="42.5938376" lon="13.6809996"><ele>203.0</ele><time>2026-04-05T07:58:39.999Z</time></trkpt><trkpt lat="42.5937507" lon="13.6810089"><ele>203.0</ele><time>2026-04-05T07:58:42Z</time></trkpt><trkpt lat="42.5936562" lon="13.6810239"><ele>203.0</ele><time>2026-04-05T07:58:43.999Z</time></trkpt><trkpt lat="42.5935834" lon="13.6810086"><ele>203.0</ele><time>2026-04-05T07:58:44.999Z</time></trkpt><trkpt lat="42.5934726" lon="13.6809869"><ele>203.0</ele><time>2026-04-05T07:58:46.998Z</time></trkpt><trkpt lat="42.5933827" lon="13.6809952"><ele>202.66666666666669</ele><time>2026-04-05T07:58:49Z</time></trkpt><trkpt lat="42.5933102" lon="13.6809573"><ele>202.33333333333334</ele><time>2026-04-05T07:58:50.999Z</time></trkpt><trkpt lat="42.5932456" lon="13.6808707"><ele>202.0</ele><time>2026-04-05T07:58:53Z</time></trkpt><trkpt lat="42.5931754" lon="13.6807686"><ele>201.66666666666669</ele><time>2026-04-05T07:58:54.998Z</time></trkpt><trkpt lat="42.5931178" lon="13.6806888"><ele>201.33333333333334</ele><time>2026-04-05T07:58:56.999Z</time></trkpt><trkpt lat="42.5930641" lon="13.6806179"><ele>201.0</ele><time>2026-04-05T07:58:58.999Z</time></trkpt><trkpt lat="42.5929849" lon="13.6805401"><ele>201.0</ele><time>2026-04-05T07:59:01.999Z</time></trkpt><trkpt lat="42.5929201" lon="13.6804927"><ele>201.0</ele><time>2026-04-05T07:59:03.999Z</time></trkpt><trkpt lat="42.5928602" lon="13.6804166"><ele>201.0</ele><time>2026-04-05T07:59:05.999Z</time></trkpt><trkpt lat="42.5928045" lon="13.6803295"><ele>201.0</ele><time>2026-04-05T07:59:07.999Z</time></trkpt><trkpt lat="42.5927155" lon="13.680233"><ele>201.0</ele><time>2026-04-05T07:59:10Z</time></trkpt><trkpt lat="42.5926489" lon="13.6801809"><ele>201.0</ele><time>2026-04-05T07:59:11.999Z</time></trkpt><trkpt lat="42.5925805" lon="13.6801426"><ele>201.14285714285714</ele><time>2026-04-05T07:59:14Z</time></trkpt><trkpt lat="42.5925251" lon="13.6800814"><ele>201.2857142857143</ele><time>2026-04-05T07:59:16.998Z</time></trkpt><trkpt lat="42.5924587" lon="13.68005"><ele>201.42857142857144</ele><time>2026-04-05T07:59:19.998Z</time></trkpt><trkpt lat="42.592397" lon="13.6800132"><ele>201.57142857142856</ele><time>2026-04-05T07:59:22.999Z</time></trkpt><trkpt lat="42.5923361" lon="13.6799285"><ele>201.71428571428572</ele><time>2026-04-05T07:59:27.998Z</time></trkpt><trkpt lat="42.5923008" lon="13.6798473"><ele>201.85714285714286</ele><time>2026-04-05T07:59:29.999Z</time></trkpt><trkpt lat="42.5922621" lon="13.679772"><ele>202.0</ele><time>2026-04-05T07:59:32Z</time></trkpt><trkpt lat="42.5921881" lon="13.6796966"><ele>201.99999999999997</ele><time>2026-04-05T07:59:34.999Z</time></trkpt><trkpt lat="42.5921413" lon="13.6796045"><ele>202.0</ele><time>2026-04-05T07:59:36.999Z</time></trkpt><trkpt lat="42.5920872" lon="13.6794996"><ele>202.0</ele><time>2026-04-05T07:59:39Z</time></trkpt><trkpt lat="42.5920535" lon="13.6794184"><ele>202.0</ele><time>2026-04-05T07:59:41Z</time></trkpt><trkpt lat="42.5920144" lon="13.6793366"><ele>201.99999999999997</ele><time>2026-04-05T07:59:42.999Z</time></trkpt><trkpt lat="42.5919724" lon="13.6792469"><ele>202.0</ele><time>2026-04-05T07:59:44.999Z</time></trkpt><trkpt lat="42.5919375" lon="13.6791225"><ele>201.99999999999997</ele><time>2026-04-05T07:59:47Z</time></trkpt><trkpt lat="42.5919021" lon="13.6789895"><ele>202.0</ele><time>2026-04-05T07:59:49Z</time></trkpt><trkpt lat="42.5918622" lon="13.6788764"><ele>202.0</ele><time>2026-04-05T07:59:50.998Z</time></trkpt><trkpt lat="42.5918888" lon="13.6787949"><ele>202.0</ele><time>2026-04-05T07:59:52.998Z</time></trkpt><trkpt lat="42.5918678" lon="13.678692"><ele>201.99999999999997</ele><time>2026-04-05T08:00:02.999Z</time></trkpt><trkpt lat="42.5918454" lon="13.6786027"><ele>202.0</ele><time>2026-04-05T08:00:06.998Z</time></trkpt><trkpt lat="42.5918181" lon="13.6785155"><ele>202.99999999999997</ele><time>2026-04-05T08:00:55.998Z</time></trkpt><trkpt lat="42.5918068" lon="13.6783859"><ele>204.0</ele><time>2026-04-05T08:00:58.998Z</time></trkpt><trkpt lat="42.591793" lon="13.6782887"><ele>205.0</ele><time>2026-04-05T08:01:00.998Z</time></trkpt><trkpt lat="42.5917799" lon="13.678183"><ele>206.0</ele><time>2026-04-05T08:01:02.997Z</time></trkpt><trkpt lat="42.5917681" lon="13.6780671"><ele>206.99999999999997</ele><time>2026-04-05T08:01:04.999Z</time></trkpt><trkpt lat="42.5917673" lon="13.6779486"><ele>208.0</ele><time>2026-04-05T08:01:06.998Z</time></trkpt><trkpt lat="42.5917703" lon="13.6778127"><ele>208.33333333333331</ele><time>2026-04-05T08:01:08.998Z</time></trkpt><trkpt lat="42.5917732" lon="13.6776762"><ele>208.66666666666666</ele><time>2026-04-05T08:01:10.998Z</time></trkpt><trkpt lat="42.5917582" lon="13.6775582"><ele>209.0</ele><time>2026-04-05T08:01:12.997Z</time></trkpt><trkpt lat="42.5917635" lon="13.6774677"><ele>209.33333333333331</ele><time>2026-04-05T08:01:14.997Z</time></trkpt><trkpt lat="42.5917467" lon="13.677384"><ele>209.66666666666666</ele><time>2026-04-05T08:01:17.997Z</time></trkpt><trkpt lat="42.5917737" lon="13.6773044"><ele>210.0</ele><time>2026-04-05T08:01:26.997Z</time></trkpt><trkpt lat="42.5916987" lon="13.6772427"><ele>210.0</ele><time>2026-04-05T08:01:42.997Z</time></trkpt><trkpt lat="42.5916345" lon="13.6771774"><ele>210.0</ele><time>2026-04-05T08:01:44.998Z</time></trkpt><trkpt lat="42.5915812" lon="13.6771218"><ele>210.0</ele><time>2026-04-05T08:01:47.998Z</time></trkpt><trkpt lat="42.5915042" lon="13.6770706"><ele>210.0</ele><time>2026-04-05T08:01:51.998Z</time></trkpt><trkpt lat="42.591438" lon="13.6769903"><ele>210.0</ele><time>2026-04-05T08:01:54.998Z</time></trkpt><trkpt lat="42.5914881" lon="13.6770772"><ele>210.0</ele><time>2026-04-05T08:02:02.998Z</time></trkpt><trkpt lat="42.5915613" lon="13.6771343"><ele>210.0</ele><time>2026-04-05T08:02:04.998Z</time></trkpt><trkpt lat="42.5916358" lon="13.6771887"><ele>210.0</ele><time>2026-04-05T08:02:06.999Z</time></trkpt><trkpt lat="42.5917099" lon="13.6772562"><ele>210.0</ele><time>2026-04-05T08:02:08.999Z</time></trkpt><trkpt lat="42.5917804" lon="13.677309"><ele>210.0</ele><time>2026-04-05T08:02:10.999Z</time></trkpt><trkpt lat="42.5918385" lon="13.6773616"><ele>210.0</ele><time>2026-04-05T08:02:12.998Z</time></trkpt><trkpt lat="42.5919084" lon="13.6774212"><ele>210.0</ele><time>2026-04-05T08:02:14.999Z</time></trkpt><trkpt lat="42.5919767" lon="13.6774763"><ele>211.83333333333334</ele><time>2026-04-05T08:02:18.999Z</time></trkpt><trkpt lat="42.5920223" lon="13.6775712"><ele>213.66666666666669</ele><time>2026-04-05T08:02:21.956Z</time></trkpt><trkpt lat="42.5920617" lon="13.677666"><ele>215.5</ele><time>2026-04-05T08:02:24.998Z</time></trkpt><trkpt lat="42.5920422" lon="13.6777649"><ele>217.33333333333334</ele><time>2026-04-05T08:02:27.998Z</time></trkpt><trkpt lat="42.5920396" lon="13.677881"><ele>219.16666666666669</ele><time>2026-04-05T08:02:30.997Z</time></trkpt><trkpt lat="42.5920644" lon="13.6779845"><ele>221.0</ele><time>2026-04-05T08:02:33.999Z</time></trkpt><trkpt lat="42.5921115" lon="13.6780442"><ele>221.00000000000003</ele><time>2026-04-05T08:02:36.999Z</time></trkpt><trkpt lat="42.5920872" lon="13.6779563"><ele>221.0</ele><time>2026-04-05T08:02:42.998Z</time></trkpt><trkpt lat="42.5920767" lon="13.6778673"><ele>221.0</ele><time>2026-04-05T08:03:02.999Z</time></trkpt><trkpt lat="42.5920618" lon="13.6777526"><ele>221.0</ele><time>2026-04-05T08:03:06.998Z</time></trkpt><trkpt lat="42.5920751" lon="13.6776583"><ele>221.0</ele><time>2026-04-05T08:03:09.998Z</time></trkpt><trkpt lat="42.5921206" lon="13.6775899"><ele>221.00000000000003</ele><time>2026-04-05T08:03:11.997Z</time></trkpt><trkpt lat="42.5921883" lon="13.6775288"><ele>221.0</ele><time>2026-04-05T08:03:14.998Z</time></trkpt><trkpt lat="42.5922616" lon="13.6774985"><ele>221.66666666666669</ele><time>2026-04-05T08:03:17.998Z</time></trkpt><trkpt lat="42.5923413" lon="13.6774773"><ele>222.33333333333334</ele><time>2026-04-05T08:03:21.998Z</time></trkpt><trkpt lat="42.5924207" lon="13.677448"><ele>223.0</ele><time>2026-04-05T08:03:28.997Z</time></trkpt><trkpt lat="42.5924977" lon="13.6774312"><ele>223.66666666666669</ele><time>2026-04-05T08:03:32.999Z</time></trkpt><trkpt lat="42.5925792" lon="13.6774106"><ele>224.33333333333334</ele><time>2026-04-05T08:03:35.998Z</time></trkpt><trkpt lat="42.5926479" lon="13.6774096"><ele>225.0</ele><time>2026-04-05T08:03:38.998Z</time></trkpt><trkpt lat="42.5927289" lon="13.6774012"><ele>225.00000000000003</ele><time>2026-04-05T08:03:41.998Z</time></trkpt><trkpt lat="42.5928142" lon="13.6773884"><ele>225.0</ele><time>2026-04-05T08:03:44.999Z</time></trkpt><trkpt lat="42.5928793" lon="13.6773732"><ele>225.00000000000003</ele><time>2026-04-05T08:03:46.997Z</time></trkpt><trkpt lat="42.5929469" lon="13.6773601"><ele>225.00000000000003</ele><time>2026-04-05T08:03:48.999Z</time></trkpt><trkpt lat="42.5930109" lon="13.6773451"><ele>225.0</ele><time>2026-04-05T08:03:50.998Z</time></trkpt><trkpt lat="42.5930774" lon="13.677334"><ele>225.00000000000003</ele><time>2026-04-05T08:03:52.997Z</time></trkpt><trkpt lat="42.5931478" lon="13.6773209"><ele>225.00000000000003</ele><time>2026-04-05T08:03:54.997Z</time></trkpt><trkpt lat="42.5932173" lon="13.6773156"><ele>226.5714285714286</ele><time>2026-04-05T08:03:56.998Z</time></trkpt><trkpt lat="42.5932857" lon="13.6772963"><ele>228.14285714285717</ele><time>2026-04-05T08:03:58.996Z</time></trkpt><trkpt lat="42.5933545" lon="13.677276"><ele>229.71428571428572</ele><time>2026-04-05T08:04:00.997Z</time></trkpt><trkpt lat="42.5934202" lon="13.6772541"><ele>231.2857142857143</ele><time>2026-04-05T08:04:02.998Z</time></trkpt><trkpt lat="42.5934819" lon="13.6772249"><ele>232.8571428571429</ele><time>2026-04-05T08:04:04.996Z</time></trkpt><trkpt lat="42.5935615" lon="13.6771734"><ele>234.42857142857142</ele><time>2026-04-05T08:04:07.998Z</time></trkpt><trkpt lat="42.5936241" lon="13.6770998"><ele>236.0</ele><time>2026-04-05T08:04:10.997Z</time></trkpt><trkpt lat="42.5936655" lon="13.6770246"><ele>238.83333333333334</ele><time>2026-04-05T08:04:13.996Z</time></trkpt><trkpt lat="42.593724" lon="13.6769451"><ele>241.66666666666669</ele><time>2026-04-05T08:04:16.997Z</time></trkpt><trkpt lat="42.5938023" lon="13.6768977"><ele>244.5</ele><time>2026-04-05T08:04:19.998Z</time></trkpt><trkpt lat="42.5938711" lon="13.6768756"><ele>247.33333333333331</ele><time>2026-04-05T08:04:22.998Z</time></trkpt><trkpt lat="42.5939489" lon="13.6768486"><ele>250.16666666666666</ele><time>2026-04-05T08:04:25.997Z</time></trkpt><trkpt lat="42.5940224" lon="13.6768163"><ele>253.0</ele><time>2026-04-05T08:04:28.997Z</time></trkpt><trkpt lat="42.5940853" lon="13.676791"><ele>253.5714285714286</ele><time>2026-04-05T08:04:31.997Z</time></trkpt><trkpt lat="42.5941474" lon="13.6767723"><ele>254.14285714285717</ele><time>2026-04-05T08:04:34.998Z</time></trkpt><trkpt lat="42.5942109" lon="13.676765"><ele>254.71428571428572</ele><time>2026-04-05T08:04:37.997Z</time></trkpt><trkpt lat="42.5942835" lon="13.6767722"><ele>255.2857142857143</ele><time>2026-04-05T08:04:41.998Z</time></trkpt><trkpt lat="42.5943513" lon="13.6767984"><ele>255.8571428571429</ele><time>2026-04-05T08:04:44.997Z</time></trkpt><trkpt lat="42.5944141" lon="13.6768257"><ele>256.42857142857144</ele><time>2026-04-05T08:04:47.996Z</time></trkpt><trkpt lat="42.5944762" lon="13.6768466"><ele>257.0</ele><time>2026-04-05T08:04:50.997Z</time></trkpt><trkpt lat="42.594548" lon="13.6768594"><ele>261.5</ele><time>2026-04-05T08:04:54.998Z</time></trkpt><trkpt lat="42.594592" lon="13.6767657"><ele>266.0</ele><time>2026-04-05T08:04:58.997Z</time></trkpt><trkpt lat="42.5945777" lon="13.6766625"><ele>270.5</ele><time>2026-04-05T08:05:02.997Z</time></trkpt><trkpt lat="42.5945805" lon="13.6765608"><ele>275.0</ele><time>2026-04-05T08:05:06.998Z</time></trkpt><trkpt lat="42.5945851" lon="13.6764532"><ele>279.5</ele><time>2026-04-05T08:05:10.997Z</time></trkpt><trkpt lat="42.5946292" lon="13.6763593"><ele>284.0</ele><time>2026-04-05T08:05:14.997Z</time></trkpt><trkpt lat="42.594683" lon="13.6763101"><ele>284.0</ele><time>2026-04-05T08:05:17.997Z</time></trkpt><trkpt lat="42.5947441" lon="13.6762872"><ele>284.0</ele><time>2026-04-05T08:05:20.998Z</time></trkpt><trkpt lat="42.5948106" lon="13.6762825"><ele>284.0</ele><time>2026-04-05T08:05:23.998Z</time></trkpt><trkpt lat="42.5948749" lon="13.676269"><ele>284.0</ele><time>2026-04-05T08:05:26.998Z</time></trkpt><trkpt lat="42.5949589" lon="13.6762624"><ele>284.0</ele><time>2026-04-05T08:05:30.997Z</time></trkpt><trkpt lat="42.595042" lon="13.6762472"><ele>284.0</ele><time>2026-04-05T08:05:34.998Z</time></trkpt><trkpt lat="42.5951075" lon="13.6762362"><ele>284.0</ele><time>2026-04-05T08:05:37.997Z</time></trkpt><trkpt lat="42.5951826" lon="13.6762069"><ele>284.0</ele><time>2026-04-05T08:05:41.997Z</time></trkpt><trkpt lat="42.5952568" lon="13.6761797"><ele>284.0</ele><time>2026-04-05T08:05:45.998Z</time></trkpt><trkpt lat="42.5953305" lon="13.6761683"><ele>284.0</ele><time>2026-04-05T08:05:49.997Z</time></trkpt><trkpt lat="42.5953997" lon="13.6761331"><ele>284.0</ele><time>2026-04-05T08:05:53.998Z</time></trkpt><trkpt lat="42.5954671" lon="13.6761485"><ele>284.0</ele><time>2026-04-05T08:06:31.997Z</time></trkpt><trkpt lat="42.5955306" lon="13.6761314"><ele>284.0</ele><time>2026-04-05T08:06:40.998Z</time></trkpt><trkpt lat="42.5955969" lon="13.6761283"><ele>284.0</ele><time>2026-04-05T08:06:49.998Z</time></trkpt><trkpt lat="42.5956604" lon="13.6761308"><ele>287.7142857142857</ele><time>2026-04-05T08:06:58.997Z</time></trkpt><trkpt lat="42.5957313" lon="13.6761099"><ele>291.4285714285714</ele><time>2026-04-05T08:11:31.996Z</time></trkpt><trkpt lat="42.5957979" lon="13.6761185"><ele>295.1428571428571</ele><time>2026-04-05T08:11:34.996Z</time></trkpt><trkpt lat="42.5958635" lon="13.6761299"><ele>298.85714285714283</ele><time>2026-04-05T08:11:37.996Z</time></trkpt><trkpt lat="42.5959255" lon="13.6761816"><ele>302.57142857142856</ele><time>2026-04-05T08:11:41.995Z</time></trkpt><trkpt lat="42.5959863" lon="13.6762157"><ele>306.2857142857143</ele><time>2026-04-05T08:11:45.995Z</time></trkpt><trkpt lat="42.5959254" lon="13.6761925"><ele>310.0</ele><time>2026-04-05T08:12:29.994Z</time></trkpt><trkpt lat="42.5959636" lon="13.6761058"><ele>309.66666666666663</ele><time>2026-04-05T08:12:44.993Z</time></trkpt><trkpt lat="42.5960187" lon="13.6760496"><ele>309.3333333333333</ele><time>2026-04-05T08:12:47.993Z</time></trkpt><trkpt lat="42.5960819" lon="13.676"><ele>309.0</ele><time>2026-04-05T08:12:50.994Z</time></trkpt><trkpt lat="42.5961498" lon="13.6759365"><ele>308.6666666666667</ele><time>2026-04-05T08:12:53.994Z</time></trkpt><trkpt lat="42.5962289" lon="13.675882"><ele>308.33333333333337</ele><time>2026-04-05T08:12:56.994Z</time></trkpt><trkpt lat="42.5963015" lon="13.6758273"><ele>308.0</ele><time>2026-04-05T08:12:59.995Z</time></trkpt><trkpt lat="42.5963663" lon="13.6757621"><ele>311.1666666666667</ele><time>2026-04-05T08:13:02.994Z</time></trkpt><trkpt lat="42.5964289" lon="13.6757164"><ele>314.33333333333337</ele><time>2026-04-05T08:13:05.994Z</time></trkpt><trkpt lat="42.5964913" lon="13.6756766"><ele>317.5</ele><time>2026-04-05T08:13:09.994Z</time></trkpt><trkpt lat="42.5965675" lon="13.6756621"><ele>320.6666666666667</ele><time>2026-04-05T08:13:13.995Z</time></trkpt><trkpt lat="42.5966324" lon="13.6756496"><ele>323.8333333333333</ele><time>2026-04-05T08:13:16.995Z</time></trkpt><trkpt lat="42.5967212" lon="13.6756559"><ele>327.0</ele><time>2026-04-05T08:13:19.994Z</time></trkpt><trkpt lat="42.5968063" lon="13.6756561"><ele>327.0</ele><time>2026-04-05T08:13:22.994Z</time></trkpt><trkpt lat="42.5968902" lon="13.6756408"><ele>327.0</ele><time>2026-04-05T08:13:25.995Z</time></trkpt><trkpt lat="42.5969761" lon="13.675608"><ele>327.0</ele><time>2026-04-05T08:13:28.994Z</time></trkpt><trkpt lat="42.5970413" lon="13.6755655"><ele>327.0</ele><time>2026-04-05T08:13:30.994Z</time></trkpt><trkpt lat="42.5970903" lon="13.6755035"><ele>327.0</ele><time>2026-04-05T08:13:32.994Z</time></trkpt><trkpt lat="42.5971287" lon="13.6754173"><ele>327.0</ele><time>2026-04-05T08:13:34.993Z</time></trkpt><trkpt lat="42.5971618" lon="13.6753303"><ele>328.42857142857144</ele><time>2026-04-05T08:13:36.993Z</time></trkpt><trkpt lat="42.5971891" lon="13.6752517"><ele>329.8571428571429</ele><time>2026-04-05T08:13:38.994Z</time></trkpt><trkpt lat="42.5972055" lon="13.675157"><ele>331.28571428571433</ele><time>2026-04-05T08:13:41.994Z</time></trkpt><trkpt lat="42.5972008" lon="13.6750348"><ele>332.7142857142857</ele><time>2026-04-05T08:13:44.994Z</time></trkpt><trkpt lat="42.5972105" lon="13.6749486"><ele>334.14285714285717</ele><time>2026-04-05T08:13:46.994Z</time></trkpt><trkpt lat="42.5972421" lon="13.6748723"><ele>335.5714285714286</ele><time>2026-04-05T08:13:48.994Z</time></trkpt><trkpt lat="42.5972849" lon="13.6748076"><ele>337.0</ele><time>2026-04-05T08:13:50.993Z</time></trkpt><trkpt lat="42.5973362" lon="13.6747534"><ele>337.0</ele><time>2026-04-05T08:13:52.993Z</time></trkpt><trkpt lat="42.597423" lon="13.6747254"><ele>337.0</ele><time>2026-04-05T08:13:55.994Z</time></trkpt><trkpt lat="42.5975094" lon="13.6747408"><ele>337.0</ele><time>2026-04-05T08:13:58.994Z</time></trkpt><trkpt lat="42.59759" lon="13.6748031"><ele>337.0</ele><time>2026-04-05T08:14:01.994Z</time></trkpt><trkpt lat="42.5976499" lon="13.6748552"><ele>337.0</ele><time>2026-04-05T08:14:04.995Z</time></trkpt><trkpt lat="42.5977207" lon="13.6748887"><ele>337.0</ele><time>2026-04-05T08:14:18.994Z</time></trkpt><trkpt lat="42.5978011" lon="13.6749295"><ele>337.5</ele><time>2026-04-05T08:14:21.993Z</time></trkpt><trkpt lat="42.597868" lon="13.6749445"><ele>338.0</ele><time>2026-04-05T08:14:23.993Z</time></trkpt><trkpt lat="42.5979332" lon="13.6749634"><ele>338.5</ele><time>2026-04-05T08:14:25.994Z</time></trkpt><trkpt lat="42.5980064" lon="13.6749781"><ele>339.0</ele><time>2026-04-05T08:14:27.994Z</time></trkpt><trkpt lat="42.5980862" lon="13.6750134"><ele>339.5</ele><time>2026-04-05T08:14:29.994Z</time></trkpt><trkpt lat="42.5981635" lon="13.6750585"><ele>340.0</ele><time>2026-04-05T08:14:31.995Z</time></trkpt><trkpt lat="42.5982395" lon="13.6750937"><ele>340.0</ele><time>2026-04-05T08:14:33.993Z</time></trkpt><trkpt lat="42.5983098" lon="13.6751193"><ele>340.0</ele><time>2026-04-05T08:14:35.994Z</time></trkpt><trkpt lat="42.5983762" lon="13.6751341"><ele>340.0</ele><time>2026-04-05T08:14:37.995Z</time></trkpt><trkpt lat="42.5984408" lon="13.675122"><ele>340.0</ele><time>2026-04-05T08:14:39.993Z</time></trkpt><trkpt lat="42.5985278" lon="13.6751029"><ele>340.0</ele><time>2026-04-05T08:14:42.994Z</time></trkpt><trkpt lat="42.5986002" lon="13.675039"><ele>340.0</ele><time>2026-04-05T08:14:45.994Z</time></trkpt><trkpt lat="42.5986746" lon="13.6749783"><ele>340.0</ele><time>2026-04-05T08:14:48.993Z</time></trkpt><trkpt lat="42.5987459" lon="13.6749401"><ele>340.0</ele><time>2026-04-05T08:14:51.994Z</time></trkpt><trkpt lat="42.5986789" lon="13.6749696"><ele>340.0</ele><time>2026-04-05T08:15:34.993Z</time></trkpt><trkpt lat="42.5986175" lon="13.6750272"><ele>340.0</ele><time>2026-04-05T08:15:37.992Z</time></trkpt><trkpt lat="42.5985384" lon="13.6750867"><ele>340.0</ele><time>2026-04-05T08:15:39.992Z</time></trkpt><trkpt lat="42.5984249" lon="13.6751342"><ele>340.0</ele><time>2026-04-05T08:15:41.993Z</time></trkpt><trkpt lat="42.5983078" lon="13.6751287"><ele>340.0</ele><time>2026-04-05T08:15:43.994Z</time></trkpt><trkpt lat="42.5982023" lon="13.6750745"><ele>340.0</ele><time>2026-04-05T08:15:45.993Z</time></trkpt><trkpt lat="42.5981134" lon="13.6750317"><ele>340.0</ele><time>2026-04-05T08:15:47.993Z</time></trkpt><trkpt lat="42.5980076" lon="13.6750049"><ele>340.0</ele><time>2026-04-05T08:15:49.993Z</time></trkpt><trkpt lat="42.5979003" lon="13.6749709"><ele>340.0</ele><time>2026-04-05T08:15:51.992Z</time></trkpt><trkpt lat="42.5978153" lon="13.6749413"><ele>339.5714285714286</ele><time>2026-04-05T08:15:53.993Z</time></trkpt><trkpt lat="42.5977425" lon="13.6749221"><ele>339.1428571428571</ele><time>2026-04-05T08:15:55.993Z</time></trkpt><trkpt lat="42.5976752" lon="13.6749061"><ele>338.7142857142857</ele><time>2026-04-05T08:15:57.994Z</time></trkpt><trkpt lat="42.597613" lon="13.6748754"><ele>338.28571428571433</ele><time>2026-04-05T08:15:59.992Z</time></trkpt><trkpt lat="42.5975567" lon="13.6748325"><ele>337.8571428571429</ele><time>2026-04-05T08:16:01.993Z</time></trkpt><trkpt lat="42.5975069" lon="13.6747787"><ele>337.42857142857144</ele><time>2026-04-05T08:16:03.994Z</time></trkpt><trkpt lat="42.5974311" lon="13.6747469"><ele>337.0</ele><time>2026-04-05T08:16:06.993Z</time></trkpt><trkpt lat="42.5973612" lon="13.6747528"><ele>337.0</ele><time>2026-04-05T08:16:08.992Z</time></trkpt><trkpt lat="42.5973024" lon="13.6747958"><ele>337.0</ele><time>2026-04-05T08:16:10.993Z</time></trkpt><trkpt lat="42.597251" lon="13.6748662"><ele>337.0</ele><time>2026-04-05T08:16:12.994Z</time></trkpt><trkpt lat="42.5972052" lon="13.6749654"><ele>337.0</ele><time>2026-04-05T08:16:14.993Z</time></trkpt><trkpt lat="42.5971901" lon="13.6750596"><ele>337.0</ele><time>2026-04-05T08:16:16.993Z</time></trkpt><trkpt lat="42.5972102" lon="13.675162"><ele>337.0</ele><time>2026-04-05T08:16:18.994Z</time></trkpt><trkpt lat="42.5971989" lon="13.6752704"><ele>335.0</ele><time>2026-04-05T08:16:20.992Z</time></trkpt><trkpt lat="42.5971544" lon="13.6753765"><ele>333.0</ele><time>2026-04-05T08:16:22.993Z</time></trkpt><trkpt lat="42.5971095" lon="13.6754826"><ele>331.0</ele><time>2026-04-05T08:16:24.994Z</time></trkpt><trkpt lat="42.5970426" lon="13.6755711"><ele>329.0</ele><time>2026-04-05T08:16:26.994Z</time></trkpt><trkpt lat="42.5969471" lon="13.6756297"><ele>327.0</ele><time>2026-04-05T08:16:28.992Z</time></trkpt><trkpt lat="42.5968395" lon="13.675653"><ele>327.0</ele><time>2026-04-05T08:16:30.994Z</time></trkpt><trkpt lat="42.596724" lon="13.6756574"><ele>327.0</ele><time>2026-04-05T08:16:32.993Z</time></trkpt><trkpt lat="42.5966279" lon="13.6756554"><ele>327.0</ele><time>2026-04-05T08:16:34.994Z</time></trkpt><trkpt lat="42.5965522" lon="13.6756619"><ele>327.0</ele><time>2026-04-05T08:16:36.993Z</time></trkpt><trkpt lat="42.5964787" lon="13.6757053"><ele>327.0</ele><time>2026-04-05T08:16:38.993Z</time></trkpt><trkpt lat="42.5964176" lon="13.6757518"><ele>327.0</ele><time>2026-04-05T08:16:40.993Z</time></trkpt><trkpt lat="42.5963532" lon="13.6757975"><ele>327.0</ele><time>2026-04-05T08:16:42.993Z</time></trkpt><trkpt lat="42.5962817" lon="13.6758595"><ele>327.0</ele><time>2026-04-05T08:16:44.993Z</time></trkpt><trkpt lat="42.5962055" lon="13.6759203"><ele>327.0</ele><time>2026-04-05T08:16:46.993Z</time></trkpt><trkpt lat="42.596129" lon="13.6759834"><ele>327.0</ele><time>2026-04-05T08:16:48.992Z</time></trkpt><trkpt lat="42.5960745" lon="13.6760354"><ele>327.0</ele><time>2026-04-05T08:16:50.993Z</time></trkpt><trkpt lat="42.5960187" lon="13.6760758"><ele>327.0</ele><time>2026-04-05T08:16:52.993Z</time></trkpt><trkpt lat="42.5959513" lon="13.6760976"><ele>327.57142857142856</ele><time>2026-04-05T08:16:55.993Z</time></trkpt><trkpt lat="42.5959093" lon="13.6761616"><ele>328.14285714285717</ele><time>2026-04-05T08:17:00.992Z</time></trkpt><trkpt lat="42.5959674" lon="13.6762022"><ele>328.7142857142857</ele><time>2026-04-05T08:17:21.993Z</time></trkpt><trkpt lat="42.5960395" lon="13.6762184"><ele>329.2857142857143</ele><time>2026-04-05T08:17:41.993Z</time></trkpt><trkpt lat="42.596103" lon="13.6762412"><ele>329.85714285714283</ele><time>2026-04-05T08:17:51.993Z</time></trkpt><trkpt lat="42.5961678" lon="13.6762752"><ele>330.42857142857144</ele><time>2026-04-05T08:18:01.993Z</time></trkpt><trkpt lat="42.5962315" lon="13.6763095"><ele>331.0</ele><time>2026-04-05T08:18:11.992Z</time></trkpt><trkpt lat="42.5962994" lon="13.676333"><ele>331.0</ele><time>2026-04-05T08:18:51.991Z</time></trkpt><trkpt lat="42.5963683" lon="13.6763474"><ele>331.0</ele><time>2026-04-05T08:18:59.992Z</time></trkpt><trkpt lat="42.5964345" lon="13.6763677"><ele>331.0</ele><time>2026-04-05T08:19:26.992Z</time></trkpt><trkpt lat="42.5965016" lon="13.6763843"><ele>331.0</ele><time>2026-04-05T08:19:29.992Z</time></trkpt><trkpt lat="42.5965709" lon="13.6764047"><ele>331.0</ele><time>2026-04-05T08:19:32.992Z</time></trkpt><trkpt lat="42.5966348" lon="13.6764109"><ele>331.0</ele><time>2026-04-05T08:19:35.993Z</time></trkpt><trkpt lat="42.5967069" lon="13.6764194"><ele>331.0</ele><time>2026-04-05T08:19:38.992Z</time></trkpt><trkpt lat="42.5967747" lon="13.6764347"><ele>331.0</ele><time>2026-04-05T08:19:41.992Z</time></trkpt><trkpt lat="42.5968463" lon="13.6764405"><ele>331.0</ele><time>2026-04-05T08:19:44.991Z</time></trkpt><trkpt lat="42.5969138" lon="13.6764419"><ele>331.0</ele><time>2026-04-05T08:19:47.992Z</time></trkpt><trkpt lat="42.5969793" lon="13.6764406"><ele>331.0</ele><time>2026-04-05T08:19:50.992Z</time></trkpt><trkpt lat="42.5970454" lon="13.6764332"><ele>331.0</ele><time>2026-04-05T08:19:53.991Z</time></trkpt><trkpt lat="42.5971134" lon="13.676425"><ele>331.0</ele><time>2026-04-05T08:19:56.991Z</time></trkpt><trkpt lat="42.5971772" lon="13.6764109"><ele>331.0</ele><time>2026-04-05T08:19:59.992Z</time></trkpt><trkpt lat="42.5972424" lon="13.6763905"><ele>335.14285714285717</ele><time>2026-04-05T08:20:02.992Z</time></trkpt><trkpt lat="42.5973053" lon="13.6763594"><ele>339.2857142857143</ele><time>2026-04-05T08:20:05.991Z</time></trkpt><trkpt lat="42.5973637" lon="13.6763192"><ele>343.42857142857144</ele><time>2026-04-05T08:20:08.992Z</time></trkpt><trkpt lat="42.5974215" lon="13.6762803"><ele>347.57142857142856</ele><time>2026-04-05T08:20:11.992Z</time></trkpt><trkpt lat="42.5974808" lon="13.6762496"><ele>351.7142857142857</ele><time>2026-04-05T08:20:14.99Z</time></trkpt><trkpt lat="42.5975574" lon="13.6762054"><ele>355.85714285714283</ele><time>2026-04-05T08:20:18.991Z</time></trkpt><trkpt lat="42.5976319" lon="13.676174"><ele>360.0</ele><time>2026-04-05T08:20:22.992Z</time></trkpt><trkpt lat="42.5977048" lon="13.6761497"><ele>360.0</ele><time>2026-04-05T08:20:26.991Z</time></trkpt><trkpt lat="42.5977734" lon="13.6761529"><ele>360.0</ele><time>2026-04-05T08:20:30.992Z</time></trkpt><trkpt lat="42.5978496" lon="13.676176"><ele>360.0</ele><time>2026-04-05T08:20:34.991Z</time></trkpt><trkpt lat="42.597921" lon="13.6761784"><ele>360.0</ele><time>2026-04-05T08:20:38.991Z</time></trkpt><trkpt lat="42.5980079" lon="13.6761699"><ele>360.0</ele><time>2026-04-05T08:21:07.992Z</time></trkpt><trkpt lat="42.5980749" lon="13.6761824"><ele>360.0</ele><time>2026-04-05T08:21:09.992Z</time></trkpt><trkpt lat="42.5981502" lon="13.6761884"><ele>360.0</ele><time>2026-04-05T08:21:11.991Z</time></trkpt><trkpt lat="42.5982296" lon="13.6761922"><ele>359.3333333333333</ele><time>2026-04-05T08:21:13.992Z</time></trkpt><trkpt lat="42.5983127" lon="13.6761862"><ele>358.6666666666667</ele><time>2026-04-05T08:21:15.992Z</time></trkpt><trkpt lat="42.5983904" lon="13.6761691"><ele>358.0</ele><time>2026-04-05T08:21:17.992Z</time></trkpt><trkpt lat="42.598453" lon="13.6761448"><ele>357.33333333333337</ele><time>2026-04-05T08:21:19.992Z</time></trkpt><trkpt lat="42.598539" lon="13.6761091"><ele>356.6666666666667</ele><time>2026-04-05T08:21:22.99Z</time></trkpt><trkpt lat="42.5986093" lon="13.6760612"><ele>356.0</ele><time>2026-04-05T08:21:25.99Z</time></trkpt><trkpt lat="42.5986927" lon="13.6760297"><ele>356.0</ele><time>2026-04-05T08:21:28.991Z</time></trkpt><trkpt lat="42.5987809" lon="13.6759926"><ele>356.0</ele><time>2026-04-05T08:21:30.99Z</time></trkpt><trkpt lat="42.5988912" lon="13.6759373"><ele>356.0</ele><time>2026-04-05T08:21:32.991Z</time></trkpt><trkpt lat="42.5989538" lon="13.6759093"><ele>356.0</ele><time>2026-04-05T08:21:33.991Z</time></trkpt><trkpt lat="42.5990624" lon="13.6758556"><ele>356.0</ele><time>2026-04-05T08:21:35.991Z</time></trkpt><trkpt lat="42.5991558" lon="13.6757926"><ele>356.0</ele><time>2026-04-05T08:21:37.99Z</time></trkpt><trkpt lat="42.5992483" lon="13.6756936"><ele>356.0</ele><time>2026-04-05T08:21:39.992Z</time></trkpt><trkpt lat="42.5992962" lon="13.6756258"><ele>356.0</ele><time>2026-04-05T08:21:40.991Z</time></trkpt><trkpt lat="42.5993403" lon="13.6755552"><ele>356.0</ele><time>2026-04-05T08:21:41.991Z</time></trkpt><trkpt lat="42.5994117" lon="13.6754263"><ele>356.0</ele><time>2026-04-05T08:21:43.991Z</time></trkpt><trkpt lat="42.5994739" lon="13.6753207"><ele>354.0</ele><time>2026-04-05T08:21:45.991Z</time></trkpt><trkpt lat="42.5995459" lon="13.6752322"><ele>352.0</ele><time>2026-04-05T08:21:47.992Z</time></trkpt><trkpt lat="42.5996196" lon="13.6751676"><ele>350.0</ele><time>2026-04-05T08:21:49.991Z</time></trkpt><trkpt lat="42.599701" lon="13.6751193"><ele>348.0</ele><time>2026-04-05T08:21:51.991Z</time></trkpt><trkpt lat="42.5997833" lon="13.6750888"><ele>346.0</ele><time>2026-04-05T08:21:53.991Z</time></trkpt><trkpt lat="42.5998655" lon="13.6750614"><ele>344.0</ele><time>2026-04-05T08:21:55.991Z</time></trkpt><trkpt lat="42.5999426" lon="13.6750382"><ele>344.0</ele><time>2026-04-05T08:21:57.991Z</time></trkpt><trkpt lat="42.6000101" lon="13.6750231"><ele>344.0</ele><time>2026-04-05T08:21:59.991Z</time></trkpt><trkpt lat="42.6000935" lon="13.6749919"><ele>344.0</ele><time>2026-04-05T08:22:02.991Z</time></trkpt><trkpt lat="42.6001679" lon="13.6749577"><ele>344.0</ele><time>2026-04-05T08:22:05.99Z</time></trkpt><trkpt lat="42.6002538" lon="13.6749213"><ele>344.0</ele><time>2026-04-05T08:22:08.991Z</time></trkpt><trkpt lat="42.6003388" lon="13.674893"><ele>344.0</ele><time>2026-04-05T08:22:11.991Z</time></trkpt><trkpt lat="42.6004253" lon="13.67486"><ele>344.00000000000006</ele><time>2026-04-05T08:22:14.991Z</time></trkpt><trkpt lat="42.6004989" lon="13.6748156"><ele>344.0</ele><time>2026-04-05T08:22:17.99Z</time></trkpt><trkpt lat="42.6005536" lon="13.6747651"><ele>344.0</ele><time>2026-04-05T08:22:23.989Z</time></trkpt><trkpt lat="42.6005933" lon="13.6746814"><ele>344.0</ele><time>2026-04-05T08:22:27.99Z</time></trkpt><trkpt lat="42.6006337" lon="13.6746055"><ele>344.0</ele><time>2026-04-05T08:22:31.991Z</time></trkpt><trkpt lat="42.6006618" lon="13.6745237"><ele>344.00000000000006</ele><time>2026-04-05T08:22:35.989Z</time></trkpt><trkpt lat="42.6007299" lon="13.6745051"><ele>344.0</ele><time>2026-04-05T08:22:54.99Z</time></trkpt><trkpt lat="42.6007809" lon="13.6745699"><ele>344.0</ele><time>2026-04-05T08:22:57.991Z</time></trkpt><trkpt lat="42.6008294" lon="13.6746344"><ele>344.0</ele><time>2026-04-05T08:22:59.99Z</time></trkpt><trkpt lat="42.600901" lon="13.6746984"><ele>344.0</ele><time>2026-04-05T08:23:01.99Z</time></trkpt><trkpt lat="42.6009688" lon="13.6747376"><ele>344.0</ele><time>2026-04-05T08:23:03.99Z</time></trkpt><trkpt lat="42.6010504" lon="13.674741"><ele>344.0</ele><time>2026-04-05T08:23:06.989Z</time></trkpt><trkpt lat="42.6011583" lon="13.6747867"><ele>344.0</ele><time>2026-04-05T08:23:09.99Z</time></trkpt><trkpt lat="42.6012587" lon="13.674829"><ele>341.6666666666667</ele><time>2026-04-05T08:23:11.991Z</time></trkpt><trkpt lat="42.6013338" lon="13.6748448"><ele>339.33333333333337</ele><time>2026-04-05T08:23:13.99Z</time></trkpt><trkpt lat="42.6014016" lon="13.6748504"><ele>337.0</ele><time>2026-04-05T08:23:17.99Z</time></trkpt><trkpt lat="42.6014813" lon="13.6748464"><ele>334.6666666666667</ele><time>2026-04-05T08:23:22.99Z</time></trkpt><trkpt lat="42.6015729" lon="13.6748208"><ele>332.3333333333333</ele><time>2026-04-05T08:23:25.991Z</time></trkpt><trkpt lat="42.6016518" lon="13.6747792"><ele>330.0</ele><time>2026-04-05T08:23:27.99Z</time></trkpt><trkpt lat="42.6017363" lon="13.6747489"><ele>330.0</ele><time>2026-04-05T08:23:29.991Z</time></trkpt><trkpt lat="42.6018074" lon="13.6747192"><ele>330.0</ele><time>2026-04-05T08:23:31.991Z</time></trkpt><trkpt lat="42.6018824" lon="13.6746784"><ele>330.0</ele><time>2026-04-05T08:23:40.99Z</time></trkpt><trkpt lat="42.6019602" lon="13.6746468"><ele>330.0</ele><time>2026-04-05T08:23:43.99Z</time></trkpt><trkpt lat="42.6020228" lon="13.6745754"><ele>330.0</ele><time>2026-04-05T08:23:45.991Z</time></trkpt><trkpt lat="42.6020842" lon="13.6745322"><ele>330.0</ele><time>2026-04-05T08:23:47.991Z</time></trkpt><trkpt lat="42.6021438" lon="13.6744842"><ele>327.1666666666667</ele><time>2026-04-05T08:24:09.989Z</time></trkpt><trkpt lat="42.6022133" lon="13.6744995"><ele>324.3333333333333</ele><time>2026-04-05T08:24:15.99Z</time></trkpt><trkpt lat="42.6022692" lon="13.6745434"><ele>321.5</ele><time>2026-04-05T08:24:17.991Z</time></trkpt><trkpt lat="42.6023593" lon="13.6745583"><ele>318.66666666666663</ele><time>2026-04-05T08:24:18.99Z</time></trkpt><trkpt lat="42.6024503" lon="13.674602"><ele>315.8333333333333</ele><time>2026-04-05T08:24:20.991Z</time></trkpt><trkpt lat="42.6025101" lon="13.6746532"><ele>313.0</ele><time>2026-04-05T08:24:22.991Z</time></trkpt><trkpt lat="42.6025683" lon="13.6746946"><ele>313.0</ele><time>2026-04-05T08:24:24.991Z</time></trkpt><trkpt lat="42.6026276" lon="13.674744"><ele>313.0</ele><time>2026-04-05T08:24:28.99Z</time></trkpt><trkpt lat="42.6027" lon="13.6747934"><ele>313.0</ele><time>2026-04-05T08:24:37.991Z</time></trkpt><trkpt lat="42.6027735" lon="13.6748707"><ele>313.0</ele><time>2026-04-05T08:24:42.988Z</time></trkpt><trkpt lat="42.6028373" lon="13.6749345"><ele>313.0</ele><time>2026-04-05T08:24:44.99Z</time></trkpt><trkpt lat="42.6028993" lon="13.6749611"><ele>313.0</ele><time>2026-04-05T08:24:47.989Z</time></trkpt><trkpt lat="42.6029644" lon="13.6750135"><ele>309.85714285714283</ele><time>2026-04-05T08:24:51.988Z</time></trkpt><trkpt lat="42.6030305" lon="13.6750741"><ele>306.7142857142857</ele><time>2026-04-05T08:24:54.989Z</time></trkpt><trkpt lat="42.6030879" lon="13.6751195"><ele>303.57142857142856</ele><time>2026-04-05T08:24:59.99Z</time></trkpt><trkpt lat="42.6031419" lon="13.6751908"><ele>300.42857142857144</ele><time>2026-04-05T08:25:10.989Z</time></trkpt><trkpt lat="42.6031933" lon="13.6752716"><ele>297.2857142857143</ele><time>2026-04-05T08:25:13.989Z</time></trkpt><trkpt lat="42.6032265" lon="13.6753541"><ele>294.1428571428571</ele><time>2026-04-05T08:25:47.99Z</time></trkpt><trkpt lat="42.6031847" lon="13.6752805"><ele>291.0</ele><time>2026-04-05T08:26:01.988Z</time></trkpt><trkpt lat="42.6031365" lon="13.6751955"><ele>291.0</ele><time>2026-04-05T08:26:04.99Z</time></trkpt><trkpt lat="42.6030732" lon="13.6751113"><ele>291.0</ele><time>2026-04-05T08:26:07.989Z</time></trkpt><trkpt lat="42.6030058" lon="13.6750376"><ele>291.0</ele><time>2026-04-05T08:26:10.989Z</time></trkpt><trkpt lat="42.6029325" lon="13.6749853"><ele>291.0</ele><time>2026-04-05T08:26:13.989Z</time></trkpt><trkpt lat="42.6028628" lon="13.6749603"><ele>291.0</ele><time>2026-04-05T08:26:16.99Z</time></trkpt><trkpt lat="42.6027868" lon="13.6748919"><ele>291.0</ele><time>2026-04-05T08:26:19.989Z</time></trkpt><trkpt lat="42.602721" lon="13.6748115"><ele>294.6666666666667</ele><time>2026-04-05T08:26:22.989Z</time></trkpt><trkpt lat="42.6026563" lon="13.6747573"><ele>298.3333333333333</ele><time>2026-04-05T08:26:25.989Z</time></trkpt><trkpt lat="42.6025755" lon="13.67473"><ele>302.0</ele><time>2026-04-05T08:26:28.989Z</time></trkpt><trkpt lat="42.6025051" lon="13.6746591"><ele>305.66666666666663</ele><time>2026-04-05T08:26:31.989Z</time></trkpt><trkpt lat="42.6024428" lon="13.6746137"><ele>309.3333333333333</ele><time>2026-04-05T08:26:34.99Z</time></trkpt><trkpt lat="42.6023628" lon="13.6745557"><ele>313.0</ele><time>2026-04-05T08:26:37.989Z</time></trkpt><trkpt lat="42.6023" lon="13.6745398"><ele>313.0</ele><time>2026-04-05T08:26:39.99Z</time></trkpt><trkpt lat="42.6022237" lon="13.6745124"><ele>313.0</ele><time>2026-04-05T08:26:42.989Z</time></trkpt><trkpt lat="42.6021512" lon="13.6744875"><ele>313.0</ele><time>2026-04-05T08:26:45.989Z</time></trkpt><trkpt lat="42.6020846" lon="13.6745336"><ele>313.0</ele><time>2026-04-05T08:26:48.989Z</time></trkpt><trkpt lat="42.6020243" lon="13.6745827"><ele>313.0</ele><time>2026-04-05T08:26:51.989Z</time></trkpt><trkpt lat="42.6019673" lon="13.6746534"><ele>313.0</ele><time>2026-04-05T08:26:54.988Z</time></trkpt><trkpt lat="42.6019056" lon="13.6747116"><ele>315.8333333333333</ele><time>2026-04-05T08:26:57.988Z</time></trkpt><trkpt lat="42.6018386" lon="13.6747395"><ele>318.66666666666663</ele><time>2026-04-05T08:27:00.99Z</time></trkpt><trkpt lat="42.6017638" lon="13.6747603"><ele>321.5</ele><time>2026-04-05T08:27:03.989Z</time></trkpt><trkpt lat="42.6016952" lon="13.6747807"><ele>324.3333333333333</ele><time>2026-04-05T08:27:06.988Z</time></trkpt><trkpt lat="42.6016228" lon="13.6748069"><ele>327.1666666666667</ele><time>2026-04-05T08:27:09.987Z</time></trkpt><trkpt lat="42.6015431" lon="13.6748427"><ele>330.0</ele><time>2026-04-05T08:27:12.988Z</time></trkpt><trkpt lat="42.6014604" lon="13.6748711"><ele>330.00000000000006</ele><time>2026-04-05T08:27:16.989Z</time></trkpt><trkpt lat="42.6013878" lon="13.6748633"><ele>330.0</ele><time>2026-04-05T08:27:19.987Z</time></trkpt><trkpt lat="42.6013118" lon="13.674865"><ele>330.0</ele><time>2026-04-05T08:27:22.988Z</time></trkpt><trkpt lat="42.6012476" lon="13.6748387"><ele>330.0</ele><time>2026-04-05T08:27:25.989Z</time></trkpt><trkpt lat="42.6011848" lon="13.6748095"><ele>330.0</ele><time>2026-04-05T08:27:28.989Z</time></trkpt><trkpt lat="42.6011086" lon="13.6747685"><ele>330.00000000000006</ele><time>2026-04-05T08:27:32.987Z</time></trkpt><trkpt lat="42.6010288" lon="13.6747735"><ele>330.0</ele><time>2026-04-05T08:27:36.987Z</time></trkpt><trkpt lat="42.6009502" lon="13.6747648"><ele>332.3333333333333</ele><time>2026-04-05T08:27:40.988Z</time></trkpt><trkpt lat="42.6008779" lon="13.6747291"><ele>334.6666666666667</ele><time>2026-04-05T08:27:44.989Z</time></trkpt><trkpt lat="42.6008176" lon="13.6746557"><ele>337.0</ele><time>2026-04-05T08:27:48.988Z</time></trkpt><trkpt lat="42.6007675" lon="13.6745827"><ele>339.33333333333337</ele><time>2026-04-05T08:27:52.987Z</time></trkpt><trkpt lat="42.600715" lon="13.6745234"><ele>341.6666666666667</ele><time>2026-04-05T08:27:56.988Z</time></trkpt><trkpt lat="42.6006554" lon="13.674591"><ele>344.0</ele><time>2026-04-05T08:28:00.988Z</time></trkpt><trkpt lat="42.6006017" lon="13.6746946"><ele>344.0</ele><time>2026-04-05T08:28:03.989Z</time></trkpt><trkpt lat="42.6005674" lon="13.6747684"><ele>344.0</ele><time>2026-04-05T08:28:05.987Z</time></trkpt><trkpt lat="42.6005411" lon="13.6748966"><ele>344.0</ele><time>2026-04-05T08:28:08.987Z</time></trkpt><trkpt lat="42.6005311" lon="13.6749949"><ele>344.0</ele><time>2026-04-05T08:28:10.988Z</time></trkpt><trkpt lat="42.6005298" lon="13.6750995"><ele>344.0</ele><time>2026-04-05T08:28:12.987Z</time></trkpt><trkpt lat="42.60052" lon="13.675201"><ele>344.0</ele><time>2026-04-05T08:28:14.988Z</time></trkpt><trkpt lat="42.6005001" lon="13.6752826"><ele>342.33333333333337</ele><time>2026-04-05T08:28:16.987Z</time></trkpt><trkpt lat="42.6004576" lon="13.6753597"><ele>340.6666666666667</ele><time>2026-04-05T08:28:29.989Z</time></trkpt><trkpt lat="42.6004348" lon="13.6754518"><ele>339.0</ele><time>2026-04-05T08:28:34.988Z</time></trkpt><trkpt lat="42.6004116" lon="13.6755485"><ele>337.3333333333333</ele><time>2026-04-05T08:28:39.989Z</time></trkpt><trkpt lat="42.6003876" lon="13.6756588"><ele>335.66666666666663</ele><time>2026-04-05T08:28:43.989Z</time></trkpt><trkpt lat="42.6003655" lon="13.6757745"><ele>334.0</ele><time>2026-04-05T08:28:46.987Z</time></trkpt><trkpt lat="42.6003469" lon="13.6758584"><ele>334.85714285714283</ele><time>2026-04-05T08:28:48.988Z</time></trkpt><trkpt lat="42.6003229" lon="13.6759456"><ele>335.7142857142857</ele><time>2026-04-05T08:28:50.987Z</time></trkpt><trkpt lat="42.6002984" lon="13.6760316"><ele>336.57142857142856</ele><time>2026-04-05T08:28:52.989Z</time></trkpt><trkpt lat="42.6002844" lon="13.6761299"><ele>337.42857142857144</ele><time>2026-04-05T08:28:54.987Z</time></trkpt><trkpt lat="42.600273" lon="13.6762236"><ele>338.2857142857143</ele><time>2026-04-05T08:28:56.988Z</time></trkpt><trkpt lat="42.6002518" lon="13.676327"><ele>339.14285714285717</ele><time>2026-04-05T08:28:58.988Z</time></trkpt><trkpt lat="42.6002249" lon="13.6764422"><ele>340.0</ele><time>2026-04-05T08:29:00.987Z</time></trkpt><trkpt lat="42.6001927" lon="13.6765816"><ele>340.0</ele><time>2026-04-05T08:29:02.989Z</time></trkpt><trkpt lat="42.6001543" lon="13.6767322"><ele>340.0</ele><time>2026-04-05T08:29:04.988Z</time></trkpt><trkpt lat="42.6001101" lon="13.6768852"><ele>340.0</ele><time>2026-04-05T08:29:06.988Z</time></trkpt><trkpt lat="42.6000703" lon="13.6769582"><ele>340.0</ele><time>2026-04-05T08:29:07.988Z</time></trkpt><trkpt lat="42.6000389" lon="13.6770338"><ele>340.0</ele><time>2026-04-05T08:29:08.987Z</time></trkpt><trkpt lat="42.6000002" lon="13.6771176"><ele>340.0</ele><time>2026-04-05T08:29:09.988Z</time></trkpt><trkpt lat="42.5999694" lon="13.6771923"><ele>338.5</ele><time>2026-04-05T08:29:10.989Z</time></trkpt><trkpt lat="42.5999256" lon="13.6773222"><ele>337.0</ele><time>2026-04-05T08:29:12.989Z</time></trkpt><trkpt lat="42.5998918" lon="13.6774051"><ele>335.5</ele><time>2026-04-05T08:29:14.987Z</time></trkpt><trkpt lat="42.5998518" lon="13.6775115"><ele>334.0</ele><time>2026-04-05T08:29:17.989Z</time></trkpt><trkpt lat="42.5998181" lon="13.6775859"><ele>332.5</ele><time>2026-04-05T08:29:19.987Z</time></trkpt><trkpt lat="42.5997623" lon="13.6776909"><ele>331.0</ele><time>2026-04-05T08:29:22.988Z</time></trkpt><trkpt lat="42.5997199" lon="13.6777796"><ele>332.0</ele><time>2026-04-05T08:29:24.988Z</time></trkpt><trkpt lat="42.5996975" lon="13.6779034"><ele>333.0</ele><time>2026-04-05T08:29:26.988Z</time></trkpt><trkpt lat="42.5996702" lon="13.6780131"><ele>334.0</ele><time>2026-04-05T08:29:28.989Z</time></trkpt><trkpt lat="42.5996249" lon="13.6781146"><ele>335.0</ele><time>2026-04-05T08:29:31.988Z</time></trkpt><trkpt lat="42.5995871" lon="13.6781953"><ele>336.0</ele><time>2026-04-05T08:29:35.986Z</time></trkpt><trkpt lat="42.5995471" lon="13.6782666"><ele>337.0</ele><time>2026-04-05T08:29:45.986Z</time></trkpt><trkpt lat="42.5994939" lon="13.6783157"><ele>337.0</ele><time>2026-04-05T08:29:55.988Z</time></trkpt><trkpt lat="42.5994213" lon="13.6783952"><ele>337.0</ele><time>2026-04-05T08:30:17.986Z</time></trkpt><trkpt lat="42.59937" lon="13.6784561"><ele>337.0</ele><time>2026-04-05T08:30:19.988Z</time></trkpt><trkpt lat="42.5993025" lon="13.6785347"><ele>337.0</ele><time>2026-04-05T08:30:22.987Z</time></trkpt><trkpt lat="42.5992424" lon="13.6786068"><ele>337.0</ele><time>2026-04-05T08:30:25.988Z</time></trkpt><trkpt lat="42.5991999" lon="13.6786764"><ele>337.0</ele><time>2026-04-05T08:30:27.986Z</time></trkpt><trkpt lat="42.5991249" lon="13.678745"><ele>334.5</ele><time>2026-04-05T08:30:29.986Z</time></trkpt><trkpt lat="42.5990379" lon="13.6787979"><ele>332.0</ele><time>2026-04-05T08:30:31.987Z</time></trkpt><trkpt lat="42.5989999" lon="13.6788721"><ele>329.5</ele><time>2026-04-05T08:30:38.987Z</time></trkpt><trkpt lat="42.5989598" lon="13.6789536"><ele>327.0</ele><time>2026-04-05T08:30:42.987Z</time></trkpt><trkpt lat="42.5989211" lon="13.6790566"><ele>324.5</ele><time>2026-04-05T08:30:46.988Z</time></trkpt><trkpt lat="42.5988939" lon="13.6791523"><ele>322.0</ele><time>2026-04-05T08:30:50.986Z</time></trkpt><trkpt lat="42.5988714" lon="13.6792609"><ele>322.0</ele><time>2026-04-05T08:30:53.988Z</time></trkpt><trkpt lat="42.5988412" lon="13.6793485"><ele>322.0</ele><time>2026-04-05T08:30:55.987Z</time></trkpt><trkpt lat="42.5988125" lon="13.6794392"><ele>322.0</ele><time>2026-04-05T08:30:57.987Z</time></trkpt><trkpt lat="42.598787" lon="13.6795243"><ele>322.0</ele><time>2026-04-05T08:30:59.988Z</time></trkpt><trkpt lat="42.5987457" lon="13.6796305"><ele>322.0</ele><time>2026-04-05T08:31:02.987Z</time></trkpt><trkpt lat="42.5987035" lon="13.6797378"><ele>322.0</ele><time>2026-04-05T08:31:05.986Z</time></trkpt><trkpt lat="42.5986873" lon="13.6798318"><ele>321.6</ele><time>2026-04-05T08:31:07.987Z</time></trkpt><trkpt lat="42.5986526" lon="13.6799377"><ele>321.20000000000005</ele><time>2026-04-05T08:31:09.988Z</time></trkpt><trkpt lat="42.5986171" lon="13.6800575"><ele>320.8</ele><time>2026-04-05T08:31:11.987Z</time></trkpt><trkpt lat="42.5985632" lon="13.680179"><ele>320.4</ele><time>2026-04-05T08:31:13.987Z</time></trkpt><trkpt lat="42.5985131" lon="13.6803042"><ele>320.0</ele><time>2026-04-05T08:31:15.987Z</time></trkpt><trkpt lat="42.5984692" lon="13.6804275"><ele>320.0</ele><time>2026-04-05T08:31:17.986Z</time></trkpt><trkpt lat="42.5984185" lon="13.6805462"><ele>320.0</ele><time>2026-04-05T08:31:19.987Z</time></trkpt><trkpt lat="42.598359" lon="13.6806707"><ele>320.0</ele><time>2026-04-05T08:31:21.987Z</time></trkpt><trkpt lat="42.5983056" lon="13.680799"><ele>320.0</ele><time>2026-04-05T08:31:23.988Z</time></trkpt><trkpt lat="42.5982548" lon="13.6809563"><ele>320.0</ele><time>2026-04-05T08:31:25.986Z</time></trkpt><trkpt lat="42.5982364" lon="13.6810389"><ele>318.0</ele><time>2026-04-05T08:31:26.987Z</time></trkpt><trkpt lat="42.5982205" lon="13.681176"><ele>316.0</ele><time>2026-04-05T08:31:28.987Z</time></trkpt><trkpt lat="42.5982188" lon="13.6812876"><ele>314.0</ele><time>2026-04-05T08:31:30.988Z</time></trkpt><trkpt lat="42.5982009" lon="13.6814189"><ele>312.0</ele><time>2026-04-05T08:31:33.987Z</time></trkpt><trkpt lat="42.5981797" lon="13.6815348"><ele>310.0</ele><time>2026-04-05T08:31:35.986Z</time></trkpt><trkpt lat="42.598151" lon="13.6816621"><ele>310.0</ele><time>2026-04-05T08:31:37.987Z</time></trkpt><trkpt lat="42.598123" lon="13.6817415"><ele>310.0</ele><time>2026-04-05T08:31:38.988Z</time></trkpt><trkpt lat="42.5980854" lon="13.681824"><ele>310.0</ele><time>2026-04-05T08:31:39.987Z</time></trkpt><trkpt lat="42.5980389" lon="13.6819096"><ele>310.0</ele><time>2026-04-05T08:31:40.987Z</time></trkpt><trkpt lat="42.5979917" lon="13.6819935"><ele>310.0</ele><time>2026-04-05T08:31:41.987Z</time></trkpt><trkpt lat="42.5979543" lon="13.6820688"><ele>310.0</ele><time>2026-04-05T08:31:42.987Z</time></trkpt><trkpt lat="42.5979186" lon="13.6821474"><ele>310.0</ele><time>2026-04-05T08:31:43.988Z</time></trkpt><trkpt lat="42.5978546" lon="13.6822694"><ele>307.0</ele><time>2026-04-05T08:31:45.988Z</time></trkpt><trkpt lat="42.5977899" lon="13.6823955"><ele>304.0</ele><time>2026-04-05T08:31:47.988Z</time></trkpt><trkpt lat="42.5977271" lon="13.6825198"><ele>301.0</ele><time>2026-04-05T08:31:49.987Z</time></trkpt><trkpt lat="42.5976765" lon="13.6826521"><ele>298.0</ele><time>2026-04-05T08:31:51.987Z</time></trkpt><trkpt lat="42.5976309" lon="13.6827754"><ele>295.0</ele><time>2026-04-05T08:31:53.986Z</time></trkpt><trkpt lat="42.5976043" lon="13.6829089"><ele>293.3333333333333</ele><time>2026-04-05T08:31:55.987Z</time></trkpt><trkpt lat="42.5975846" lon="13.6830332"><ele>291.66666666666663</ele><time>2026-04-05T08:31:57.987Z</time></trkpt><trkpt lat="42.5975745" lon="13.683132"><ele>290.0</ele><time>2026-04-05T08:31:59.986Z</time></trkpt><trkpt lat="42.5975648" lon="13.6832328"><ele>288.3333333333333</ele><time>2026-04-05T08:32:01.987Z</time></trkpt><trkpt lat="42.597553" lon="13.6833835"><ele>286.6666666666667</ele><time>2026-04-05T08:32:03.988Z</time></trkpt><trkpt lat="42.5975471" lon="13.6834691"><ele>285.0</ele><time>2026-04-05T08:32:04.987Z</time></trkpt><trkpt lat="42.5975353" lon="13.6836228"><ele>281.6</ele><time>2026-04-05T08:32:06.987Z</time></trkpt><trkpt lat="42.5975227" lon="13.6837549"><ele>278.2</ele><time>2026-04-05T08:32:08.987Z</time></trkpt><trkpt lat="42.5975137" lon="13.6838897"><ele>274.8</ele><time>2026-04-05T08:32:10.986Z</time></trkpt><trkpt lat="42.5974867" lon="13.6840558"><ele>271.4</ele><time>2026-04-05T08:32:12.986Z</time></trkpt><trkpt lat="42.5974656" lon="13.6841471"><ele>268.0</ele><time>2026-04-05T08:32:13.986Z</time></trkpt><trkpt lat="42.5974381" lon="13.6842323"><ele>268.0</ele><time>2026-04-05T08:32:14.985Z</time></trkpt><trkpt lat="42.5973922" lon="13.6843152"><ele>268.0</ele><time>2026-04-05T08:32:15.986Z</time></trkpt><trkpt lat="42.5973171" lon="13.6844085"><ele>268.0</ele><time>2026-04-05T08:32:17.987Z</time></trkpt><trkpt lat="42.5972569" lon="13.6844677"><ele>268.0</ele><time>2026-04-05T08:32:19.986Z</time></trkpt><trkpt lat="42.5971918" lon="13.6845285"><ele>268.0</ele><time>2026-04-05T08:32:22.986Z</time></trkpt><trkpt lat="42.5971123" lon="13.6846062"><ele>268.0</ele><time>2026-04-05T08:32:25.987Z</time></trkpt><trkpt lat="42.5970548" lon="13.6846868"><ele>264.4</ele><time>2026-04-05T08:32:27.986Z</time></trkpt><trkpt lat="42.597016" lon="13.6847819"><ele>260.8</ele><time>2026-04-05T08:32:29.986Z</time></trkpt><trkpt lat="42.5969803" lon="13.6849062"><ele>257.2</ele><time>2026-04-05T08:32:31.987Z</time></trkpt><trkpt lat="42.5969537" lon="13.6850533"><ele>253.6</ele><time>2026-04-05T08:32:33.986Z</time></trkpt><trkpt lat="42.5969278" lon="13.6852046"><ele>250.0</ele><time>2026-04-05T08:32:35.985Z</time></trkpt><trkpt lat="42.5969091" lon="13.6853654"><ele>247.28571428571428</ele><time>2026-04-05T08:32:37.986Z</time></trkpt><trkpt lat="42.5968965" lon="13.6854535"><ele>244.57142857142858</ele><time>2026-04-05T08:32:38.985Z</time></trkpt><trkpt lat="42.5968859" lon="13.685544"><ele>241.85714285714286</ele><time>2026-04-05T08:32:39.985Z</time></trkpt><trkpt lat="42.5968765" lon="13.6856331"><ele>239.14285714285714</ele><time>2026-04-05T08:32:40.987Z</time></trkpt><trkpt lat="42.5968668" lon="13.68572"><ele>236.42857142857144</ele><time>2026-04-05T08:32:41.986Z</time></trkpt><trkpt lat="42.5968538" lon="13.6858107"><ele>233.71428571428572</ele><time>2026-04-05T08:32:42.986Z</time></trkpt><trkpt lat="42.5968413" lon="13.6859015"><ele>231.0</ele><time>2026-04-05T08:32:43.986Z</time></trkpt><trkpt lat="42.5968303" lon="13.6859934"><ele>231.0</ele><time>2026-04-05T08:32:44.986Z</time></trkpt><trkpt lat="42.5968184" lon="13.6860828"><ele>231.00000000000003</ele><time>2026-04-05T08:32:45.986Z</time></trkpt><trkpt lat="42.5967993" lon="13.6862463"><ele>231.00000000000003</ele><time>2026-04-05T08:32:47.986Z</time></trkpt><trkpt lat="42.5967726" lon="13.6863893"><ele>231.0</ele><time>2026-04-05T08:32:49.986Z</time></trkpt><trkpt lat="42.5967334" lon="13.6865035"><ele>231.0</ele><time>2026-04-05T08:32:51.985Z</time></trkpt><trkpt lat="42.5966671" lon="13.6865722"><ele>228.0</ele><time>2026-04-05T08:32:53.987Z</time></trkpt><trkpt lat="42.5965775" lon="13.6866363"><ele>225.0</ele><time>2026-04-05T08:32:55.986Z</time></trkpt><trkpt lat="42.5965111" lon="13.686676"><ele>222.0</ele><time>2026-04-05T08:32:56.986Z</time></trkpt><trkpt lat="42.596409" lon="13.6867527"><ele>219.0</ele><time>2026-04-05T08:32:58.986Z</time></trkpt><trkpt lat="42.5963531" lon="13.6867943"><ele>216.0</ele><time>2026-04-05T08:32:59.985Z</time></trkpt><trkpt lat="42.5962884" lon="13.6868376"><ele>213.0</ele><time>2026-04-05T08:33:00.986Z</time></trkpt><trkpt lat="42.5961996" lon="13.6868681"><ele>210.16666666666666</ele><time>2026-04-05T08:33:01.987Z</time></trkpt><trkpt lat="42.5960989" lon="13.6869384"><ele>207.33333333333331</ele><time>2026-04-05T08:33:03.987Z</time></trkpt><trkpt lat="42.5960407" lon="13.6870145"><ele>204.5</ele><time>2026-04-05T08:33:05.987Z</time></trkpt><trkpt lat="42.5960408" lon="13.6871435"><ele>201.66666666666666</ele><time>2026-04-05T08:33:08.987Z</time></trkpt><trkpt lat="42.596058" lon="13.6872479"><ele>198.83333333333331</ele><time>2026-04-05T08:33:10.987Z</time></trkpt><trkpt lat="42.5960833" lon="13.6873322"><ele>196.0</ele><time>2026-04-05T08:33:33.987Z</time></trkpt><trkpt lat="42.5961241" lon="13.6874064"><ele>196.0</ele><time>2026-04-05T08:34:07.986Z</time></trkpt><trkpt lat="42.5961794" lon="13.6874625"><ele>196.0</ele><time>2026-04-05T08:34:13.985Z</time></trkpt><trkpt lat="42.596225" lon="13.6875384"><ele>196.0</ele><time>2026-04-05T08:34:42.985Z</time></trkpt><trkpt lat="42.5962234" lon="13.6876286"><ele>196.0</ele><time>2026-04-05T08:34:49.986Z</time></trkpt><trkpt lat="42.5961843" lon="13.6876994"><ele>196.0</ele><time>2026-04-05T08:34:55.985Z</time></trkpt><trkpt lat="42.5961164" lon="13.6877422"><ele>196.0</ele><time>2026-04-05T08:35:05.985Z</time></trkpt><trkpt lat="42.5960299" lon="13.6878122"><ele>196.0</ele><time>2026-04-05T08:35:08.985Z</time></trkpt><trkpt lat="42.5959496" lon="13.6878778"><ele>195.0</ele><time>2026-04-05T08:35:10.985Z</time></trkpt><trkpt lat="42.5958594" lon="13.6879541"><ele>194.0</ele><time>2026-04-05T08:35:12.985Z</time></trkpt><trkpt lat="42.5957612" lon="13.6880261"><ele>193.0</ele><time>2026-04-05T08:35:14.985Z</time></trkpt><trkpt lat="42.5956845" lon="13.6881314"><ele>192.0</ele><time>2026-04-05T08:35:16.985Z</time></trkpt><trkpt lat="42.5956568" lon="13.6882293"><ele>191.0</ele><time>2026-04-05T08:35:18.985Z</time></trkpt><trkpt lat="42.5956635" lon="13.6883251"><ele>191.0</ele><time>2026-04-05T08:35:20.985Z</time></trkpt><trkpt lat="42.5956949" lon="13.6884003"><ele>191.0</ele><time>2026-04-05T08:35:21.985Z</time></trkpt><trkpt lat="42.5957054" lon="13.6885331"><ele>191.0</ele><time>2026-04-05T08:35:23.984Z</time></trkpt><trkpt lat="42.5957171" lon="13.6886352"><ele>191.0</ele><time>2026-04-05T08:35:25.984Z</time></trkpt><trkpt lat="42.5957681" lon="13.6887444"><ele>191.0</ele><time>2026-04-05T08:35:27.985Z</time></trkpt><trkpt lat="42.5957842" lon="13.6888304"><ele>191.0</ele><time>2026-04-05T08:35:29.984Z</time></trkpt><trkpt lat="42.5957626" lon="13.6889459"><ele>191.0</ele><time>2026-04-05T08:35:31.986Z</time></trkpt><trkpt lat="42.5956921" lon="13.6890133"><ele>191.0</ele><time>2026-04-05T08:35:33.985Z</time></trkpt><trkpt lat="42.5956876" lon="13.6891506"><ele>191.0</ele><time>2026-04-05T08:35:36.986Z</time></trkpt><trkpt lat="42.5956963" lon="13.6892541"><ele>191.0</ele><time>2026-04-05T08:35:38.985Z</time></trkpt><trkpt lat="42.5957231" lon="13.6894042"><ele>191.0</ele><time>2026-04-05T08:35:40.986Z</time></trkpt><trkpt lat="42.5957393" lon="13.6895385"><ele>191.8</ele><time>2026-04-05T08:35:42.985Z</time></trkpt><trkpt lat="42.5957435" lon="13.6896628"><ele>192.60000000000002</ele><time>2026-04-05T08:35:44.985Z</time></trkpt><trkpt lat="42.5957467" lon="13.6897955"><ele>193.4</ele><time>2026-04-05T08:35:46.986Z</time></trkpt><trkpt lat="42.5957459" lon="13.6899392"><ele>194.2</ele><time>2026-04-05T08:35:48.985Z</time></trkpt><trkpt lat="42.5957418" lon="13.6900738"><ele>195.0</ele><time>2026-04-05T08:35:50.985Z</time></trkpt><trkpt lat="42.5957871" lon="13.6901634"><ele>194.83333333333334</ele><time>2026-04-05T08:35:51.985Z</time></trkpt><trkpt lat="42.5958096" lon="13.6903215"><ele>194.66666666666669</ele><time>2026-04-05T08:35:53.985Z</time></trkpt><trkpt lat="42.5957921" lon="13.6904259"><ele>194.5</ele><time>2026-04-05T08:35:55.986Z</time></trkpt><trkpt lat="42.5957433" lon="13.6905036"><ele>194.33333333333334</ele><time>2026-04-05T08:35:58.985Z</time></trkpt><trkpt lat="42.5957148" lon="13.6906148"><ele>194.16666666666669</ele><time>2026-04-05T08:36:02.984Z</time></trkpt><trkpt lat="42.595646" lon="13.690666"><ele>194.0</ele><time>2026-04-05T08:36:04.985Z</time></trkpt><trkpt lat="42.5956106" lon="13.6907653"><ele>194.0</ele><time>2026-04-05T08:36:07.986Z</time></trkpt><trkpt lat="42.5956561" lon="13.6908424"><ele>194.0</ele><time>2026-04-05T08:36:09.984Z</time></trkpt><trkpt lat="42.5956908" lon="13.6909204"><ele>194.0</ele><time>2026-04-05T08:36:10.986Z</time></trkpt><trkpt lat="42.5957127" lon="13.6910373"><ele>194.0</ele><time>2026-04-05T08:36:12.984Z</time></trkpt><trkpt lat="42.5957436" lon="13.6911364"><ele>194.0</ele><time>2026-04-05T08:36:14.985Z</time></trkpt><trkpt lat="42.5957811" lon="13.6912071"><ele>194.0</ele><time>2026-04-05T08:36:16.985Z</time></trkpt><trkpt lat="42.5958233" lon="13.6912929"><ele>194.0</ele><time>2026-04-05T08:36:18.984Z</time></trkpt><trkpt lat="42.5958404" lon="13.6913917"><ele>194.0</ele><time>2026-04-05T08:36:42.986Z</time></trkpt><trkpt lat="42.5957981" lon="13.6914841"><ele>194.0</ele><time>2026-04-05T08:36:46.986Z</time></trkpt><trkpt lat="42.5957428" lon="13.6915332"><ele>194.0</ele><time>2026-04-05T08:37:09.983Z</time></trkpt><trkpt lat="42.5956939" lon="13.6916054"><ele>194.0</ele><time>2026-04-05T08:37:12.984Z</time></trkpt><trkpt lat="42.5956362" lon="13.6917004"><ele>194.0</ele><time>2026-04-05T08:37:15.985Z</time></trkpt><trkpt lat="42.5955999" lon="13.6917714"><ele>194.0</ele><time>2026-04-05T08:37:18.984Z</time></trkpt><trkpt lat="42.5955538" lon="13.6918381"><ele>194.0</ele><time>2026-04-05T08:37:25.984Z</time></trkpt><trkpt lat="42.5955147" lon="13.6919513"><ele>194.00000000000003</ele><time>2026-04-05T08:37:28.984Z</time></trkpt><trkpt lat="42.5954827" lon="13.6920453"><ele>194.0</ele><time>2026-04-05T08:37:30.984Z</time></trkpt><trkpt lat="42.5954577" lon="13.6921339"><ele>194.0</ele><time>2026-04-05T08:37:32.983Z</time></trkpt><trkpt lat="42.5954326" lon="13.692239"><ele>194.0</ele><time>2026-04-05T08:37:35.984Z</time></trkpt><trkpt lat="42.5954228" lon="13.6923305"><ele>194.00000000000003</ele><time>2026-04-05T08:38:07.983Z</time></trkpt><trkpt lat="42.5953464" lon="13.6924056"><ele>194.0</ele><time>2026-04-05T08:38:11.984Z</time></trkpt><trkpt lat="42.5953106" lon="13.6924868"><ele>194.0</ele><time>2026-04-05T08:38:14.984Z</time></trkpt><trkpt lat="42.5953164" lon="13.692584"><ele>194.0</ele><time>2026-04-05T08:38:24.984Z</time></trkpt><trkpt lat="42.5953754" lon="13.6926306"><ele>194.0</ele><time>2026-04-05T08:38:30.984Z</time></trkpt><trkpt lat="42.5954433" lon="13.6926182"><ele>194.0</ele><time>2026-04-05T08:38:32.985Z</time></trkpt><trkpt lat="42.5955091" lon="13.6926272"><ele>194.0</ele><time>2026-04-05T08:38:34.984Z</time></trkpt><trkpt lat="42.5955723" lon="13.6926579"><ele>194.0</ele><time>2026-04-05T08:38:37.984Z</time></trkpt><trkpt lat="42.5956603" lon="13.692671"><ele>194.0</ele><time>2026-04-05T08:38:40.984Z</time></trkpt><trkpt lat="42.595779" lon="13.6926586"><ele>194.00000000000003</ele><time>2026-04-05T08:38:41.985Z</time></trkpt><trkpt lat="42.5958438" lon="13.6926464"><ele>194.0</ele><time>2026-04-05T08:38:43.984Z</time></trkpt><trkpt lat="42.5959289" lon="13.6926901"><ele>194.0</ele><time>2026-04-05T08:38:45.985Z</time></trkpt><trkpt lat="42.5960346" lon="13.6927573"><ele>194.0</ele><time>2026-04-05T08:38:47.983Z</time></trkpt><trkpt lat="42.5960582" lon="13.6928652"><ele>194.00000000000003</ele><time>2026-04-05T08:38:49.985Z</time></trkpt><trkpt lat="42.5961078" lon="13.6929711"><ele>194.0</ele><time>2026-04-05T08:38:51.984Z</time></trkpt><trkpt lat="42.5961455" lon="13.6930482"><ele>194.14285714285714</ele><time>2026-04-05T08:38:53.985Z</time></trkpt><trkpt lat="42.5961736" lon="13.693154"><ele>194.2857142857143</ele><time>2026-04-05T08:38:55.984Z</time></trkpt><trkpt lat="42.5961963" lon="13.6932387"><ele>194.42857142857144</ele><time>2026-04-05T08:38:58.984Z</time></trkpt><trkpt lat="42.5961862" lon="13.6933266"><ele>194.57142857142856</ele><time>2026-04-05T08:39:20.984Z</time></trkpt><trkpt lat="42.5961521" lon="13.6933994"><ele>194.71428571428572</ele><time>2026-04-05T08:39:27.985Z</time></trkpt><trkpt lat="42.5961581" lon="13.6934846"><ele>194.85714285714286</ele><time>2026-04-05T08:39:30.985Z</time></trkpt><trkpt lat="42.5962002" lon="13.6935733"><ele>195.0</ele><time>2026-04-05T08:39:33.984Z</time></trkpt><trkpt lat="42.5962452" lon="13.69364"><ele>195.0</ele><time>2026-04-05T08:39:35.985Z</time></trkpt><trkpt lat="42.5962775" lon="13.6937475"><ele>195.0</ele><time>2026-04-05T08:39:37.984Z</time></trkpt><trkpt lat="42.5962711" lon="13.6938554"><ele>195.0</ele><time>2026-04-05T08:39:39.984Z</time></trkpt><trkpt lat="42.5962846" lon="13.693946"><ele>195.0</ele><time>2026-04-05T08:39:42.983Z</time></trkpt><trkpt lat="42.5963169" lon="13.6940294"><ele>195.0</ele><time>2026-04-05T08:39:54.983Z</time></trkpt><trkpt lat="42.5962715" lon="13.6941069"><ele>195.0</ele><time>2026-04-05T08:40:08.983Z</time></trkpt><trkpt lat="42.5962564" lon="13.6942185"><ele>195.0</ele><time>2026-04-05T08:40:11.983Z</time></trkpt><trkpt lat="42.5962602" lon="13.6943382"><ele>195.0</ele><time>2026-04-05T08:40:13.983Z</time></trkpt><trkpt lat="42.5962544" lon="13.6944487"><ele>195.0</ele><time>2026-04-05T08:40:15.982Z</time></trkpt><trkpt lat="42.5962663" lon="13.6945601"><ele>195.0</ele><time>2026-04-05T08:40:18.983Z</time></trkpt><trkpt lat="42.5963131" lon="13.6946398"><ele>195.0</ele><time>2026-04-05T08:40:20.984Z</time></trkpt><trkpt lat="42.5963238" lon="13.6947511"><ele>195.0</ele><time>2026-04-05T08:40:22.983Z</time></trkpt><trkpt lat="42.5963407" lon="13.6948541"><ele>194.33333333333334</ele><time>2026-04-05T08:40:24.983Z</time></trkpt><trkpt lat="42.5963285" lon="13.6949756"><ele>193.66666666666666</ele><time>2026-04-05T08:40:26.984Z</time></trkpt><trkpt lat="42.59631" lon="13.6950735"><ele>193.0</ele><time>2026-04-05T08:40:28.982Z</time></trkpt><trkpt lat="42.5963387" lon="13.6951869"><ele>192.33333333333331</ele><time>2026-04-05T08:40:31.984Z</time></trkpt><trkpt lat="42.5964033" lon="13.6952123"><ele>191.66666666666666</ele><time>2026-04-05T08:40:33.984Z</time></trkpt><trkpt lat="42.5964632" lon="13.6952757"><ele>191.0</ele><time>2026-04-05T08:40:35.983Z</time></trkpt><trkpt lat="42.5965252" lon="13.6953257"><ele>190.66666666666666</ele><time>2026-04-05T08:40:38.983Z</time></trkpt><trkpt lat="42.5966153" lon="13.6952867"><ele>190.33333333333331</ele><time>2026-04-05T08:40:40.983Z</time></trkpt><trkpt lat="42.5966951" lon="13.6952891"><ele>190.0</ele><time>2026-04-05T08:40:43.984Z</time></trkpt><trkpt lat="42.5967655" lon="13.6953568"><ele>189.66666666666666</ele><time>2026-04-05T08:40:47.982Z</time></trkpt><trkpt lat="42.5967941" lon="13.6954366"><ele>189.33333333333334</ele><time>2026-04-05T08:40:49.983Z</time></trkpt><trkpt lat="42.5968304" lon="13.6955172"><ele>189.0</ele><time>2026-04-05T08:40:51.984Z</time></trkpt><trkpt lat="42.5968531" lon="13.6955985"><ele>189.0</ele><time>2026-04-05T08:40:54.982Z</time></trkpt><trkpt lat="42.5968986" lon="13.6956882"><ele>189.0</ele><time>2026-04-05T08:40:58.983Z</time></trkpt><trkpt lat="42.596952" lon="13.695764"><ele>189.0</ele><time>2026-04-05T08:41:01.983Z</time></trkpt><trkpt lat="42.5969865" lon="13.6958692"><ele>189.0</ele><time>2026-04-05T08:41:04.983Z</time></trkpt><trkpt lat="42.5970063" lon="13.6959602"><ele>189.0</ele><time>2026-04-05T08:41:07.983Z</time></trkpt><trkpt lat="42.5970253" lon="13.6960751"><ele>189.0</ele><time>2026-04-05T08:41:10.983Z</time></trkpt><trkpt lat="42.5970367" lon="13.6961621"><ele>189.0</ele><time>2026-04-05T08:41:13.984Z</time></trkpt><trkpt lat="42.5970315" lon="13.6962587"><ele>189.0</ele><time>2026-04-05T08:41:15.982Z</time></trkpt><trkpt lat="42.5970205" lon="13.6963606"><ele>189.0</ele><time>2026-04-05T08:41:17.983Z</time></trkpt><trkpt lat="42.597012" lon="13.6964533"><ele>189.0</ele><time>2026-04-05T08:41:19.983Z</time></trkpt><trkpt lat="42.5970207" lon="13.6965517"><ele>189.0</ele><time>2026-04-05T08:41:22.983Z</time></trkpt><trkpt lat="42.5970078" lon="13.6966416"><ele>189.0</ele><time>2026-04-05T08:41:26.983Z</time></trkpt><trkpt lat="42.5969894" lon="13.6967308"><ele>189.0</ele><time>2026-04-05T08:41:28.983Z</time></trkpt><trkpt lat="42.5969934" lon="13.6968228"><ele>188.85714285714286</ele><time>2026-04-05T08:41:30.984Z</time></trkpt><trkpt lat="42.5969918" lon="13.6969367"><ele>188.71428571428572</ele><time>2026-04-05T08:41:33.983Z</time></trkpt><trkpt lat="42.5969977" lon="13.69703"><ele>188.57142857142856</ele><time>2026-04-05T08:41:36.982Z</time></trkpt><trkpt lat="42.5970122" lon="13.6971178"><ele>188.42857142857144</ele><time>2026-04-05T08:41:39.983Z</time></trkpt><trkpt lat="42.5970395" lon="13.6971954"><ele>188.28571428571428</ele><time>2026-04-05T08:42:02.983Z</time></trkpt><trkpt lat="42.5970515" lon="13.6972856"><ele>188.14285714285714</ele><time>2026-04-05T08:42:11.984Z</time></trkpt><trkpt lat="42.5970573" lon="13.6973731"><ele>188.0</ele><time>2026-04-05T08:42:33.983Z</time></trkpt><trkpt lat="42.5971029" lon="13.6974438"><ele>191.0</ele><time>2026-04-05T08:42:43.982Z</time></trkpt><trkpt lat="42.597146" lon="13.6975072"><ele>194.0</ele><time>2026-04-05T08:42:52.981Z</time></trkpt><trkpt lat="42.5971803" lon="13.6975845"><ele>197.0</ele><time>2026-04-05T08:42:59.981Z</time></trkpt><trkpt lat="42.5972112" lon="13.6976706"><ele>200.0</ele><time>2026-04-05T08:50:13.979Z</time></trkpt><trkpt lat="42.5972377" lon="13.6977655"><ele>203.0</ele><time>2026-04-05T08:50:25.98Z</time></trkpt><trkpt lat="42.5972422" lon="13.6978803"><ele>206.0</ele><time>2026-04-05T08:50:29.979Z</time></trkpt><trkpt lat="42.5972627" lon="13.6979682"><ele>209.0</ele><time>2026-04-05T08:50:32.979Z</time></trkpt><trkpt lat="42.5972583" lon="13.6980599"><ele>209.00000000000003</ele><time>2026-04-05T08:51:19.978Z</time></trkpt><trkpt lat="42.5972447" lon="13.6981531"><ele>209.0</ele><time>2026-04-05T08:51:23.98Z</time></trkpt><trkpt lat="42.5972371" lon="13.6982568"><ele>209.0</ele><time>2026-04-05T08:51:27.979Z</time></trkpt><trkpt lat="42.5972357" lon="13.6983482"><ele>209.0</ele><time>2026-04-05T08:51:30.98Z</time></trkpt><trkpt lat="42.5972868" lon="13.6984205"><ele>209.00000000000003</ele><time>2026-04-05T08:51:33.98Z</time></trkpt><trkpt lat="42.5973671" lon="13.6984821"><ele>209.0</ele><time>2026-04-05T08:51:36.98Z</time></trkpt><trkpt lat="42.5974292" lon="13.698531"><ele>209.00000000000003</ele><time>2026-04-05T08:51:38.979Z</time></trkpt><trkpt lat="42.597497" lon="13.6985708"><ele>209.0</ele><time>2026-04-05T08:51:40.98Z</time></trkpt><trkpt lat="42.5975664" lon="13.6986329"><ele>209.0</ele><time>2026-04-05T08:51:42.979Z</time></trkpt><trkpt lat="42.5976284" lon="13.6986972"><ele>209.0</ele><time>2026-04-05T08:51:44.978Z</time></trkpt><trkpt lat="42.5976874" lon="13.6987902"><ele>209.00000000000003</ele><time>2026-04-05T08:51:46.977Z</time></trkpt><trkpt lat="42.5977558" lon="13.6988913"><ele>209.0</ele><time>2026-04-05T08:51:48.978Z</time></trkpt><trkpt lat="42.5978186" lon="13.6989939"><ele>209.28571428571428</ele><time>2026-04-05T08:51:50.977Z</time></trkpt><trkpt lat="42.5978576" lon="13.6990738"><ele>209.57142857142856</ele><time>2026-04-05T08:51:51.979Z</time></trkpt><trkpt lat="42.5978932" lon="13.6991446"><ele>209.85714285714286</ele><time>2026-04-05T08:51:52.978Z</time></trkpt><trkpt lat="42.5979283" lon="13.699221"><ele>210.14285714285714</ele><time>2026-04-05T08:51:53.978Z</time></trkpt><trkpt lat="42.5979654" lon="13.6992955"><ele>210.42857142857144</ele><time>2026-04-05T08:51:54.978Z</time></trkpt><trkpt lat="42.5980143" lon="13.6993802"><ele>210.71428571428572</ele><time>2026-04-05T08:51:55.978Z</time></trkpt><trkpt lat="42.5980563" lon="13.6994641"><ele>211.0</ele><time>2026-04-05T08:51:56.977Z</time></trkpt><trkpt lat="42.5980907" lon="13.6995392"><ele>209.8</ele><time>2026-04-05T08:51:57.978Z</time></trkpt><trkpt lat="42.5981578" lon="13.6996809"><ele>208.60000000000002</ele><time>2026-04-05T08:51:59.978Z</time></trkpt><trkpt lat="42.5981943" lon="13.6997528"><ele>207.4</ele><time>2026-04-05T08:52:00.978Z</time></trkpt><trkpt lat="42.5982311" lon="13.6998255"><ele>206.2</ele><time>2026-04-05T08:52:01.977Z</time></trkpt><trkpt lat="42.5982943" lon="13.6999447"><ele>205.0</ele><time>2026-04-05T08:52:03.978Z</time></trkpt><trkpt lat="42.5983401" lon="13.7000703"><ele>204.99999999999997</ele><time>2026-04-05T08:52:05.978Z</time></trkpt><trkpt lat="42.5983645" lon="13.7001748"><ele>205.0</ele><time>2026-04-05T08:52:07.978Z</time></trkpt><trkpt lat="42.5983728" lon="13.7002801"><ele>205.0</ele><time>2026-04-05T08:52:09.978Z</time></trkpt><trkpt lat="42.5983592" lon="13.700393"><ele>205.0</ele><time>2026-04-05T08:52:11.978Z</time></trkpt><trkpt lat="42.5983458" lon="13.7005048"><ele>204.99999999999997</ele><time>2026-04-05T08:52:13.978Z</time></trkpt><trkpt lat="42.5983399" lon="13.7006074"><ele>205.0</ele><time>2026-04-05T08:52:15.977Z</time></trkpt><trkpt lat="42.5983566" lon="13.7007183"><ele>204.16666666666666</ele><time>2026-04-05T08:52:17.977Z</time></trkpt><trkpt lat="42.598389" lon="13.7008343"><ele>203.33333333333331</ele><time>2026-04-05T08:52:19.977Z</time></trkpt><trkpt lat="42.598396" lon="13.7009342"><ele>202.5</ele><time>2026-04-05T08:52:21.979Z</time></trkpt><trkpt lat="42.5983803" lon="13.7010477"><ele>201.66666666666669</ele><time>2026-04-05T08:52:23.979Z</time></trkpt><trkpt lat="42.5983715" lon="13.7011547"><ele>200.83333333333334</ele><time>2026-04-05T08:52:25.979Z</time></trkpt><trkpt lat="42.5983818" lon="13.701257"><ele>200.0</ele><time>2026-04-05T08:52:27.978Z</time></trkpt><trkpt lat="42.5983913" lon="13.7013557"><ele>199.66666666666669</ele><time>2026-04-05T08:52:29.978Z</time></trkpt><trkpt lat="42.5983985" lon="13.701448"><ele>199.33333333333334</ele><time>2026-04-05T08:52:31.979Z</time></trkpt><trkpt lat="42.5984019" lon="13.7015431"><ele>199.0</ele><time>2026-04-05T08:53:01.978Z</time></trkpt><trkpt lat="42.5984165" lon="13.701646"><ele>198.66666666666669</ele><time>2026-04-05T08:53:03.979Z</time></trkpt><trkpt lat="42.5984375" lon="13.7017879"><ele>198.33333333333334</ele><time>2026-04-05T08:53:05.978Z</time></trkpt><trkpt lat="42.5984458" lon="13.7018741"><ele>198.0</ele><time>2026-04-05T08:53:06.979Z</time></trkpt><trkpt lat="42.5984587" lon="13.7019605"><ele>197.5</ele><time>2026-04-05T08:53:07.979Z</time></trkpt><trkpt lat="42.5984712" lon="13.702047"><ele>197.0</ele><time>2026-04-05T08:53:08.978Z</time></trkpt><trkpt lat="42.5984885" lon="13.7021327"><ele>196.5</ele><time>2026-04-05T08:53:09.978Z</time></trkpt><trkpt lat="42.598505" lon="13.7022168"><ele>196.0</ele><time>2026-04-05T08:53:10.978Z</time></trkpt><trkpt lat="42.5985251" lon="13.7023012"><ele>195.5</ele><time>2026-04-05T08:53:11.979Z</time></trkpt><trkpt lat="42.5985524" lon="13.7023814"><ele>195.0</ele><time>2026-04-05T08:53:12.979Z</time></trkpt><trkpt lat="42.5986152" lon="13.7025343"><ele>195.0</ele><time>2026-04-05T08:53:14.977Z</time></trkpt><trkpt lat="42.5986861" lon="13.7026755"><ele>195.0</ele><time>2026-04-05T08:53:16.977Z</time></trkpt><trkpt lat="42.5987291" lon="13.7027434"><ele>195.0</ele><time>2026-04-05T08:53:17.977Z</time></trkpt><trkpt lat="42.598776" lon="13.7028042"><ele>195.0</ele><time>2026-04-05T08:53:18.978Z</time></trkpt><trkpt lat="42.5988681" lon="13.7029187"><ele>195.0</ele><time>2026-04-05T08:53:20.978Z</time></trkpt><trkpt lat="42.5989186" lon="13.7029725"><ele>195.0</ele><time>2026-04-05T08:53:21.977Z</time></trkpt><trkpt lat="42.598971" lon="13.7030205"><ele>195.0</ele><time>2026-04-05T08:53:22.978Z</time></trkpt><trkpt lat="42.5990774" lon="13.7031175"><ele>195.0</ele><time>2026-04-05T08:53:24.979Z</time></trkpt><trkpt lat="42.5991349" lon="13.7031649"><ele>195.0</ele><time>2026-04-05T08:53:25.978Z</time></trkpt><trkpt lat="42.5991898" lon="13.7032137"><ele>195.0</ele><time>2026-04-05T08:53:26.978Z</time></trkpt><trkpt lat="42.5992454" lon="13.7032607"><ele>195.0</ele><time>2026-04-05T08:53:27.978Z</time></trkpt><trkpt lat="42.5993043" lon="13.7033016"><ele>195.0</ele><time>2026-04-05T08:53:28.978Z</time></trkpt><trkpt lat="42.5993587" lon="13.7033543"><ele>195.0</ele><time>2026-04-05T08:53:29.977Z</time></trkpt><trkpt lat="42.5994115" lon="13.7034011"><ele>195.0</ele><time>2026-04-05T08:53:30.978Z</time></trkpt><trkpt lat="42.5994653" lon="13.7034528"><ele>195.0</ele><time>2026-04-05T08:53:31.978Z</time></trkpt><trkpt lat="42.5995184" lon="13.703505"><ele>195.0</ele><time>2026-04-05T08:53:32.979Z</time></trkpt><trkpt lat="42.5995674" lon="13.7035594"><ele>195.0</ele><time>2026-04-05T08:53:33.977Z</time></trkpt><trkpt lat="42.599622" lon="13.7036066"><ele>195.0</ele><time>2026-04-05T08:53:34.978Z</time></trkpt><trkpt lat="42.5997336" lon="13.7036918"><ele>194.57142857142856</ele><time>2026-04-05T08:53:36.979Z</time></trkpt><trkpt lat="42.5997894" lon="13.7037441"><ele>194.14285714285714</ele><time>2026-04-05T08:53:37.979Z</time></trkpt><trkpt lat="42.5998447" lon="13.7037929"><ele>193.71428571428572</ele><time>2026-04-05T08:53:38.978Z</time></trkpt><trkpt lat="42.5998978" lon="13.7038426"><ele>193.28571428571428</ele><time>2026-04-05T08:53:39.978Z</time></trkpt><trkpt lat="42.5999536" lon="13.7038903"><ele>192.85714285714286</ele><time>2026-04-05T08:53:40.979Z</time></trkpt><trkpt lat="42.6000104" lon="13.7039371"><ele>192.42857142857142</ele><time>2026-04-05T08:53:41.977Z</time></trkpt><trkpt lat="42.6000685" lon="13.7039777"><ele>192.0</ele><time>2026-04-05T08:53:42.979Z</time></trkpt><trkpt lat="42.6001294" lon="13.7040226"><ele>191.99999999999997</ele><time>2026-04-05T08:53:43.979Z</time></trkpt><trkpt lat="42.6001918" lon="13.7040683"><ele>192.0</ele><time>2026-04-05T08:53:44.978Z</time></trkpt><trkpt lat="42.600252" lon="13.7041129"><ele>192.0</ele><time>2026-04-05T08:53:45.977Z</time></trkpt><trkpt lat="42.6003108" lon="13.7041579"><ele>192.0</ele><time>2026-04-05T08:53:46.978Z</time></trkpt><trkpt lat="42.6003739" lon="13.7041983"><ele>192.0</ele><time>2026-04-05T08:53:47.978Z</time></trkpt><trkpt lat="42.6004323" lon="13.7042416"><ele>191.99999999999997</ele><time>2026-04-05T08:53:48.978Z</time></trkpt><trkpt lat="42.6004924" lon="13.7042762"><ele>192.0</ele><time>2026-04-05T08:53:49.978Z</time></trkpt><trkpt lat="42.6005529" lon="13.7043067"><ele>192.39999999999998</ele><time>2026-04-05T08:53:50.979Z</time></trkpt><trkpt lat="42.6006546" lon="13.7043575"><ele>192.79999999999998</ele><time>2026-04-05T08:53:52.977Z</time></trkpt><trkpt lat="42.6007125" lon="13.7043967"><ele>193.2</ele><time>2026-04-05T08:54:00.978Z</time></trkpt><trkpt lat="42.6006616" lon="13.7044574"><ele>193.6</ele><time>2026-04-05T08:54:07.978Z</time></trkpt><trkpt lat="42.6007256" lon="13.7045668"><ele>194.0</ele><time>2026-04-05T08:54:09.977Z</time></trkpt><trkpt lat="42.6007928" lon="13.7046923"><ele>193.00000000000003</ele><time>2026-04-05T08:54:11.977Z</time></trkpt><trkpt lat="42.6008326" lon="13.7047669"><ele>192.0</ele><time>2026-04-05T08:54:12.976Z</time></trkpt><trkpt lat="42.600879" lon="13.7048391"><ele>191.0</ele><time>2026-04-05T08:54:13.977Z</time></trkpt><trkpt lat="42.600931" lon="13.7049041"><ele>190.0</ele><time>2026-04-05T08:54:14.977Z</time></trkpt><trkpt lat="42.6009835" lon="13.704955"><ele>189.0</ele><time>2026-04-05T08:54:15.977Z</time></trkpt><trkpt lat="42.6010443" lon="13.7049891"><ele>188.0</ele><time>2026-04-05T08:54:16.978Z</time></trkpt><trkpt lat="42.6011523" lon="13.7050198"><ele>187.0</ele><time>2026-04-05T08:54:18.977Z</time></trkpt><trkpt lat="42.6012639" lon="13.70502"><ele>186.0</ele><time>2026-04-05T08:54:20.978Z</time></trkpt><trkpt lat="42.6013793" lon="13.704956"><ele>185.0</ele><time>2026-04-05T08:54:22.977Z</time></trkpt><trkpt lat="42.6014412" lon="13.7049317"><ele>184.0</ele><time>2026-04-05T08:54:23.977Z</time></trkpt><trkpt lat="42.6014993" lon="13.7048767"><ele>183.0</ele><time>2026-04-05T08:54:24.977Z</time></trkpt><trkpt lat="42.6015567" lon="13.704834"><ele>182.0</ele><time>2026-04-05T08:54:25.977Z</time></trkpt><trkpt lat="42.6016163" lon="13.7048029"><ele>182.0</ele><time>2026-04-05T08:54:26.977Z</time></trkpt><trkpt lat="42.6016781" lon="13.7047772"><ele>182.0</ele><time>2026-04-05T08:54:27.976Z</time></trkpt><trkpt lat="42.60174" lon="13.7047584"><ele>182.0</ele><time>2026-04-05T08:54:28.978Z</time></trkpt><trkpt lat="42.6018567" lon="13.7047511"><ele>182.0</ele><time>2026-04-05T08:54:30.978Z</time></trkpt><trkpt lat="42.6019664" lon="13.7047392"><ele>182.0</ele><time>2026-04-05T08:54:32.978Z</time></trkpt><trkpt lat="42.6020667" lon="13.7047278"><ele>181.83333333333331</ele><time>2026-04-05T08:54:34.977Z</time></trkpt><trkpt lat="42.6021489" lon="13.7046995"><ele>181.66666666666666</ele><time>2026-04-05T08:54:36.978Z</time></trkpt><trkpt lat="42.6022183" lon="13.7046556"><ele>181.5</ele><time>2026-04-05T08:54:38.977Z</time></trkpt><trkpt lat="42.602285" lon="13.7046052"><ele>181.33333333333334</ele><time>2026-04-05T08:54:40.977Z</time></trkpt><trkpt lat="42.6023469" lon="13.7045552"><ele>181.16666666666669</ele><time>2026-04-05T08:54:42.976Z</time></trkpt><trkpt lat="42.6024102" lon="13.7044947"><ele>181.0</ele><time>2026-04-05T08:54:44.978Z</time></trkpt><trkpt lat="42.6024761" lon="13.7044435"><ele>181.0</ele><time>2026-04-05T08:54:46.978Z</time></trkpt><trkpt lat="42.6025536" lon="13.7044047"><ele>181.0</ele><time>2026-04-05T08:54:48.977Z</time></trkpt><trkpt lat="42.6026526" lon="13.7044191"><ele>181.0</ele><time>2026-04-05T08:54:50.977Z</time></trkpt><trkpt lat="42.6027368" lon="13.7044854"><ele>181.0</ele><time>2026-04-05T08:54:52.977Z</time></trkpt><trkpt lat="42.6028126" lon="13.7045495"><ele>181.0</ele><time>2026-04-05T08:54:54.977Z</time></trkpt><trkpt lat="42.6028903" lon="13.7046082"><ele>182.60000000000002</ele><time>2026-04-05T08:54:56.976Z</time></trkpt><trkpt lat="42.6029799" lon="13.7046557"><ele>184.2</ele><time>2026-04-05T08:54:58.978Z</time></trkpt><trkpt lat="42.60307" lon="13.7046913"><ele>185.8</ele><time>2026-04-05T08:55:00.978Z</time></trkpt><trkpt lat="42.6031666" lon="13.7047188"><ele>187.39999999999998</ele><time>2026-04-05T08:55:02.976Z</time></trkpt><trkpt lat="42.6032553" lon="13.7047539"><ele>189.0</ele><time>2026-04-05T08:55:04.977Z</time></trkpt><trkpt lat="42.6033445" lon="13.7047984"><ele>189.0</ele><time>2026-04-05T08:55:06.977Z</time></trkpt><trkpt lat="42.603427" lon="13.7048438"><ele>189.0</ele><time>2026-04-05T08:55:08.978Z</time></trkpt><trkpt lat="42.6034956" lon="13.7048919"><ele>189.0</ele><time>2026-04-05T08:55:10.978Z</time></trkpt><trkpt lat="42.6035747" lon="13.7049379"><ele>189.0</ele><time>2026-04-05T08:55:12.977Z</time></trkpt><trkpt lat="42.6036421" lon="13.7049866"><ele>189.0</ele><time>2026-04-05T08:55:14.978Z</time></trkpt><trkpt lat="42.603709" lon="13.705021"><ele>189.0</ele><time>2026-04-05T08:55:16.978Z</time></trkpt><trkpt lat="42.6037732" lon="13.7050479"><ele>190.83333333333334</ele><time>2026-04-05T08:55:18.978Z</time></trkpt><trkpt lat="42.6038376" lon="13.7050828"><ele>192.66666666666669</ele><time>2026-04-05T08:55:20.976Z</time></trkpt><trkpt lat="42.6039294" lon="13.7051129"><ele>194.5</ele><time>2026-04-05T08:55:23.977Z</time></trkpt><trkpt lat="42.6040205" lon="13.7051227"><ele>196.33333333333334</ele><time>2026-04-05T08:55:26.978Z</time></trkpt><trkpt lat="42.6041135" lon="13.7051149"><ele>198.16666666666669</ele><time>2026-04-05T08:55:29.977Z</time></trkpt><trkpt lat="42.6041824" lon="13.7051054"><ele>200.0</ele><time>2026-04-05T08:55:31.977Z</time></trkpt><trkpt lat="42.6042517" lon="13.7051066"><ele>200.00000000000003</ele><time>2026-04-05T08:55:33.978Z</time></trkpt><trkpt lat="42.6043182" lon="13.7051121"><ele>200.0</ele><time>2026-04-05T08:55:35.978Z</time></trkpt><trkpt lat="42.6044082" lon="13.7051137"><ele>200.0</ele><time>2026-04-05T08:55:38.977Z</time></trkpt><trkpt lat="42.6044751" lon="13.7051103"><ele>200.0</ele><time>2026-04-05T08:55:40.977Z</time></trkpt><trkpt lat="42.604545" lon="13.7050969"><ele>200.0</ele><time>2026-04-05T08:55:42.976Z</time></trkpt><trkpt lat="42.6046134" lon="13.7050767"><ele>200.00000000000003</ele><time>2026-04-05T08:55:44.977Z</time></trkpt><trkpt lat="42.6046815" lon="13.7050579"><ele>200.0</ele><time>2026-04-05T08:55:46.977Z</time></trkpt><trkpt lat="42.604753" lon="13.7050393"><ele>201.16666666666669</ele><time>2026-04-05T08:55:48.978Z</time></trkpt><trkpt lat="42.6048265" lon="13.7050217"><ele>202.33333333333334</ele><time>2026-04-05T08:55:50.976Z</time></trkpt><trkpt lat="42.6049012" lon="13.7049993"><ele>203.5</ele><time>2026-04-05T08:55:52.977Z</time></trkpt><trkpt lat="42.6049802" lon="13.7049863"><ele>204.66666666666669</ele><time>2026-04-05T08:55:54.978Z</time></trkpt><trkpt lat="42.6050546" lon="13.7050162"><ele>205.83333333333334</ele><time>2026-04-05T08:55:56.978Z</time></trkpt><trkpt lat="42.6051139" lon="13.7050843"><ele>207.0</ele><time>2026-04-05T08:55:58.976Z</time></trkpt><trkpt lat="42.6051536" lon="13.7051651"><ele>207.0</ele><time>2026-04-05T08:56:00.976Z</time></trkpt><trkpt lat="42.6051922" lon="13.7052604"><ele>207.0</ele><time>2026-04-05T08:56:02.978Z</time></trkpt><trkpt lat="42.605247" lon="13.7053165"><ele>207.0</ele><time>2026-04-05T08:56:04.978Z</time></trkpt><trkpt lat="42.6053018" lon="13.7052697"><ele>207.0</ele><time>2026-04-05T08:56:06.978Z</time></trkpt><trkpt lat="42.6053128" lon="13.7051833"><ele>207.0</ele><time>2026-04-05T08:56:08.976Z</time></trkpt><trkpt lat="42.6053384" lon="13.7050635"><ele>207.0</ele><time>2026-04-05T08:56:11.978Z</time></trkpt><trkpt lat="42.6053956" lon="13.7049713"><ele>207.71428571428572</ele><time>2026-04-05T08:56:14.978Z</time></trkpt><trkpt lat="42.6054328" lon="13.7049002"><ele>208.42857142857144</ele><time>2026-04-05T08:56:16.978Z</time></trkpt><trkpt lat="42.6054709" lon="13.7048261"><ele>209.14285714285717</ele><time>2026-04-05T08:56:18.977Z</time></trkpt><trkpt lat="42.6055132" lon="13.7047591"><ele>209.85714285714286</ele><time>2026-04-05T08:56:20.977Z</time></trkpt><trkpt lat="42.605556" lon="13.7046961"><ele>210.57142857142856</ele><time>2026-04-05T08:56:22.977Z</time></trkpt><trkpt lat="42.6055992" lon="13.7046306"><ele>211.2857142857143</ele><time>2026-04-05T08:56:24.976Z</time></trkpt><trkpt lat="42.6056466" lon="13.7045646"><ele>212.0</ele><time>2026-04-05T08:56:26.976Z</time></trkpt><trkpt lat="42.6057017" lon="13.7045062"><ele>212.00000000000003</ele><time>2026-04-05T08:56:28.976Z</time></trkpt><trkpt lat="42.6057635" lon="13.7044493"><ele>212.0</ele><time>2026-04-05T08:56:30.977Z</time></trkpt><trkpt lat="42.6058283" lon="13.7043761"><ele>212.0</ele><time>2026-04-05T08:56:32.977Z</time></trkpt><trkpt lat="42.6058951" lon="13.7043053"><ele>212.0</ele><time>2026-04-05T08:56:34.975Z</time></trkpt><trkpt lat="42.6059574" lon="13.7042334"><ele>212.00000000000003</ele><time>2026-04-05T08:56:36.975Z</time></trkpt><trkpt lat="42.6060242" lon="13.7041782"><ele>212.0</ele><time>2026-04-05T08:56:38.976Z</time></trkpt><trkpt lat="42.6060937" lon="13.7041562"><ele>217.71428571428572</ele><time>2026-04-05T08:56:40.976Z</time></trkpt><trkpt lat="42.6061628" lon="13.7041627"><ele>223.42857142857142</ele><time>2026-04-05T08:56:42.976Z</time></trkpt><trkpt lat="42.6062219" lon="13.7041925"><ele>229.14285714285714</ele><time>2026-04-05T08:56:44.975Z</time></trkpt><trkpt lat="42.6062876" lon="13.7042229"><ele>234.85714285714286</ele><time>2026-04-05T08:56:46.977Z</time></trkpt><trkpt lat="42.6063576" lon="13.7042579"><ele>240.57142857142856</ele><time>2026-04-05T08:56:48.976Z</time></trkpt><trkpt lat="42.606435" lon="13.7042828"><ele>246.28571428571428</ele><time>2026-04-05T08:56:50.977Z</time></trkpt><trkpt lat="42.6065185" lon="13.7043138"><ele>252.0</ele><time>2026-04-05T08:56:52.975Z</time></trkpt><trkpt lat="42.6065979" lon="13.7043585"><ele>252.0</ele><time>2026-04-05T08:56:54.975Z</time></trkpt><trkpt lat="42.6066749" lon="13.7044024"><ele>252.0</ele><time>2026-04-05T08:56:56.975Z</time></trkpt><trkpt lat="42.60675" lon="13.7044532"><ele>252.0</ele><time>2026-04-05T08:56:58.977Z</time></trkpt><trkpt lat="42.6068336" lon="13.7045182"><ele>252.0</ele><time>2026-04-05T08:57:00.976Z</time></trkpt><trkpt lat="42.6069134" lon="13.7045907"><ele>252.0</ele><time>2026-04-05T08:57:02.976Z</time></trkpt><trkpt lat="42.6069304" lon="13.7046899"><ele>252.0</ele><time>2026-04-05T08:57:04.977Z</time></trkpt><trkpt lat="42.6069573" lon="13.704789"><ele>250.83333333333334</ele><time>2026-04-05T08:57:06.977Z</time></trkpt><trkpt lat="42.606982" lon="13.7048845"><ele>249.66666666666669</ele><time>2026-04-05T08:57:08.975Z</time></trkpt><trkpt lat="42.6070286" lon="13.704995"><ele>248.5</ele><time>2026-04-05T08:57:11.975Z</time></trkpt><trkpt lat="42.6070638" lon="13.7050717"><ele>247.33333333333334</ele><time>2026-04-05T08:57:13.975Z</time></trkpt><trkpt lat="42.6071153" lon="13.7051214"><ele>246.16666666666669</ele><time>2026-04-05T08:57:15.976Z</time></trkpt><trkpt lat="42.6071945" lon="13.7051697"><ele>245.0</ele><time>2026-04-05T08:57:18.976Z</time></trkpt><trkpt lat="42.6072803" lon="13.7051997"><ele>245.00000000000003</ele><time>2026-04-05T08:57:21.976Z</time></trkpt><trkpt lat="42.6073527" lon="13.7052322"><ele>245.0</ele><time>2026-04-05T08:57:24.975Z</time></trkpt><trkpt lat="42.6074474" lon="13.705248"><ele>245.0</ele><time>2026-04-05T08:57:27.976Z</time></trkpt><trkpt lat="42.607516" lon="13.7052494"><ele>245.0</ele><time>2026-04-05T08:57:29.977Z</time></trkpt><trkpt lat="42.607601" lon="13.7052448"><ele>245.00000000000003</ele><time>2026-04-05T08:57:31.975Z</time></trkpt><trkpt lat="42.6077115" lon="13.7052329"><ele>245.0</ele><time>2026-04-05T08:57:33.976Z</time></trkpt><trkpt lat="42.607784" lon="13.7052333"><ele>244.83333333333334</ele><time>2026-04-05T08:57:34.976Z</time></trkpt><trkpt lat="42.6078677" lon="13.705231"><ele>244.66666666666669</ele><time>2026-04-05T08:57:35.976Z</time></trkpt><trkpt lat="42.6079488" lon="13.7052478"><ele>244.5</ele><time>2026-04-05T08:57:36.977Z</time></trkpt><trkpt lat="42.608021" lon="13.7053008"><ele>244.33333333333331</ele><time>2026-04-05T08:57:37.976Z</time></trkpt><trkpt lat="42.6080743" lon="13.7053689"><ele>244.16666666666666</ele><time>2026-04-05T08:57:38.976Z</time></trkpt><trkpt lat="42.6081196" lon="13.7054413"><ele>244.0</ele><time>2026-04-05T08:57:39.975Z</time></trkpt><trkpt lat="42.608162" lon="13.705514"><ele>242.16666666666666</ele><time>2026-04-05T08:57:40.975Z</time></trkpt><trkpt lat="42.6081978" lon="13.7055926"><ele>240.33333333333331</ele><time>2026-04-05T08:57:41.976Z</time></trkpt><trkpt lat="42.6082414" lon="13.7056786"><ele>238.5</ele><time>2026-04-05T08:57:42.976Z</time></trkpt><trkpt lat="42.6082842" lon="13.7057608"><ele>236.66666666666669</ele><time>2026-04-05T08:57:43.976Z</time></trkpt><trkpt lat="42.6083171" lon="13.7058428"><ele>234.83333333333334</ele><time>2026-04-05T08:57:44.975Z</time></trkpt><trkpt lat="42.6083485" lon="13.7059203"><ele>233.0</ele><time>2026-04-05T08:57:45.975Z</time></trkpt><trkpt lat="42.6084153" lon="13.7060556"><ele>230.50000000000003</ele><time>2026-04-05T08:57:47.976Z</time></trkpt><trkpt lat="42.6084753" lon="13.7061572"><ele>228.0</ele><time>2026-04-05T08:57:49.976Z</time></trkpt><trkpt lat="42.6085219" lon="13.7062331"><ele>225.5</ele><time>2026-04-05T08:57:51.976Z</time></trkpt><trkpt lat="42.6085862" lon="13.7062743"><ele>223.0</ele><time>2026-04-05T08:57:56.975Z</time></trkpt><trkpt lat="42.6086344" lon="13.7063838"><ele>220.50000000000003</ele><time>2026-04-05T08:57:59.975Z</time></trkpt><trkpt lat="42.6086984" lon="13.7064111"><ele>218.0</ele><time>2026-04-05T08:58:02.977Z</time></trkpt><trkpt lat="42.6086803" lon="13.7063153"><ele>218.00000000000003</ele><time>2026-04-05T08:58:22.976Z</time></trkpt><trkpt lat="42.6086134" lon="13.7062628"><ele>218.0</ele><time>2026-04-05T08:58:27.976Z</time></trkpt><trkpt lat="42.6085617" lon="13.7061952"><ele>218.0</ele><time>2026-04-05T08:58:31.975Z</time></trkpt><trkpt lat="42.6085064" lon="13.7061252"><ele>218.0</ele><time>2026-04-05T08:58:35.975Z</time></trkpt><trkpt lat="42.6084586" lon="13.7060515"><ele>218.00000000000003</ele><time>2026-04-05T08:58:39.976Z</time></trkpt><trkpt lat="42.6084155" lon="13.705963"><ele>218.0</ele><time>2026-04-05T08:59:02.975Z</time></trkpt><trkpt lat="42.6083885" lon="13.7058578"><ele>220.14285714285714</ele><time>2026-04-05T08:59:06.974Z</time></trkpt><trkpt lat="42.608375" lon="13.7057719"><ele>222.28571428571428</ele><time>2026-04-05T08:59:09.975Z</time></trkpt><trkpt lat="42.6083582" lon="13.7056748"><ele>224.42857142857144</ele><time>2026-04-05T08:59:12.975Z</time></trkpt><trkpt lat="42.6083386" lon="13.7055794"><ele>226.57142857142856</ele><time>2026-04-05T08:59:15.975Z</time></trkpt><trkpt lat="42.6083256" lon="13.7054852"><ele>228.7142857142857</ele><time>2026-04-05T08:59:18.975Z</time></trkpt><trkpt lat="42.6083129" lon="13.7053927"><ele>230.85714285714286</ele><time>2026-04-05T08:59:21.974Z</time></trkpt><trkpt lat="42.6082963" lon="13.705281"><ele>233.0</ele><time>2026-04-05T08:59:25.975Z</time></trkpt><trkpt lat="42.6082748" lon="13.7051896"><ele>234.83333333333334</ele><time>2026-04-05T08:59:28.975Z</time></trkpt><trkpt lat="42.6082538" lon="13.7050888"><ele>236.66666666666669</ele><time>2026-04-05T08:59:31.974Z</time></trkpt><trkpt lat="42.6082331" lon="13.7049635"><ele>238.5</ele><time>2026-04-05T08:59:34.975Z</time></trkpt><trkpt lat="42.608191" lon="13.7048488"><ele>240.33333333333331</ele><time>2026-04-05T08:59:37.975Z</time></trkpt><trkpt lat="42.6081574" lon="13.7047713"><ele>242.16666666666666</ele><time>2026-04-05T08:59:39.975Z</time></trkpt><trkpt lat="42.6081195" lon="13.7046796"><ele>244.0</ele><time>2026-04-05T08:59:42.974Z</time></trkpt><trkpt lat="42.6080816" lon="13.7045907"><ele>243.99999999999997</ele><time>2026-04-05T08:59:45.974Z</time></trkpt><trkpt lat="42.6080127" lon="13.7045603"><ele>244.0</ele><time>2026-04-05T08:59:49.975Z</time></trkpt><trkpt lat="42.6079684" lon="13.7046452"><ele>244.0</ele><time>2026-04-05T08:59:51.975Z</time></trkpt><trkpt lat="42.6079891" lon="13.7047733"><ele>244.0</ele><time>2026-04-05T08:59:53.974Z</time></trkpt><trkpt lat="42.6080629" lon="13.7048868"><ele>243.99999999999997</ele><time>2026-04-05T08:59:55.974Z</time></trkpt><trkpt lat="42.6080811" lon="13.7049909"><ele>244.0</ele><time>2026-04-05T08:59:57.975Z</time></trkpt><trkpt lat="42.6081223" lon="13.705069"><ele>243.99999999999997</ele><time>2026-04-05T08:59:59.975Z</time></trkpt><trkpt lat="42.6081917" lon="13.7051448"><ele>244.0</ele><time>2026-04-05T09:00:02.976Z</time></trkpt><trkpt lat="42.6082495" lon="13.7051902"><ele>244.0</ele><time>2026-04-05T09:00:04.976Z</time></trkpt><trkpt lat="42.6082885" lon="13.7052574"><ele>244.0</ele><time>2026-04-05T09:00:06.975Z</time></trkpt><trkpt lat="42.6083188" lon="13.7053583"><ele>243.99999999999997</ele><time>2026-04-05T09:00:08.975Z</time></trkpt><trkpt lat="42.6083609" lon="13.7055112"><ele>244.0</ele><time>2026-04-05T09:00:10.975Z</time></trkpt><trkpt lat="42.6083829" lon="13.7056062"><ele>242.4285714285714</ele><time>2026-04-05T09:00:11.976Z</time></trkpt><trkpt lat="42.6083977" lon="13.7056992"><ele>240.85714285714283</ele><time>2026-04-05T09:00:12.976Z</time></trkpt><trkpt lat="42.6084144" lon="13.7057824"><ele>239.28571428571428</ele><time>2026-04-05T09:00:13.975Z</time></trkpt><trkpt lat="42.6084347" lon="13.7058658"><ele>237.7142857142857</ele><time>2026-04-05T09:00:14.976Z</time></trkpt><trkpt lat="42.6084675" lon="13.7059616"><ele>236.1428571428571</ele><time>2026-04-05T09:00:15.976Z</time></trkpt><trkpt lat="42.6085087" lon="13.706046"><ele>234.57142857142858</ele><time>2026-04-05T09:00:16.976Z</time></trkpt><trkpt lat="42.6085481" lon="13.7061148"><ele>233.0</ele><time>2026-04-05T09:00:17.974Z</time></trkpt><trkpt lat="42.6086085" lon="13.7062169"><ele>230.33333333333334</ele><time>2026-04-05T09:00:19.974Z</time></trkpt><trkpt lat="42.6086675" lon="13.7063146"><ele>227.66666666666669</ele><time>2026-04-05T09:00:21.975Z</time></trkpt><trkpt lat="42.60871" lon="13.7063862"><ele>225.0</ele><time>2026-04-05T09:00:24.975Z</time></trkpt><trkpt lat="42.6087047" lon="13.7064721"><ele>222.33333333333331</ele><time>2026-04-05T09:00:39.974Z</time></trkpt><trkpt lat="42.6087677" lon="13.7065312"><ele>219.66666666666666</ele><time>2026-04-05T09:01:04.975Z</time></trkpt><trkpt lat="42.6088037" lon="13.7066343"><ele>217.0</ele><time>2026-04-05T09:01:08.975Z</time></trkpt><trkpt lat="42.6088428" lon="13.7067537"><ele>214.6</ele><time>2026-04-05T09:01:10.975Z</time></trkpt><trkpt lat="42.608881" lon="13.7069251"><ele>212.2</ele><time>2026-04-05T09:01:12.975Z</time></trkpt><trkpt lat="42.6089026" lon="13.7070306"><ele>209.8</ele><time>2026-04-05T09:01:13.974Z</time></trkpt><trkpt lat="42.6089182" lon="13.7071449"><ele>207.4</ele><time>2026-04-05T09:01:14.974Z</time></trkpt><trkpt lat="42.6089239" lon="13.7072548"><ele>205.0</ele><time>2026-04-05T09:01:15.976Z</time></trkpt><trkpt lat="42.6089314" lon="13.7073574"><ele>204.99999999999997</ele><time>2026-04-05T09:01:16.974Z</time></trkpt><trkpt lat="42.6089355" lon="13.707443"><ele>205.0</ele><time>2026-04-05T09:01:17.975Z</time></trkpt><trkpt lat="42.6089272" lon="13.7075337"><ele>205.0</ele><time>2026-04-05T09:01:18.975Z</time></trkpt><trkpt lat="42.6088503" lon="13.707659"><ele>205.0</ele><time>2026-04-05T09:01:20.974Z</time></trkpt><trkpt lat="42.6087872" lon="13.7077047"><ele>204.99999999999997</ele><time>2026-04-05T09:01:21.974Z</time></trkpt><trkpt lat="42.6087344" lon="13.7077684"><ele>205.0</ele><time>2026-04-05T09:01:22.973Z</time></trkpt><trkpt lat="42.6086974" lon="13.7078552"><ele>204.0</ele><time>2026-04-05T09:01:23.973Z</time></trkpt><trkpt lat="42.6086559" lon="13.7079474"><ele>203.0</ele><time>2026-04-05T09:01:24.973Z</time></trkpt><trkpt lat="42.6086186" lon="13.7080349"><ele>202.0</ele><time>2026-04-05T09:01:25.974Z</time></trkpt><trkpt lat="42.6085958" lon="13.7081226"><ele>201.0</ele><time>2026-04-05T09:01:26.974Z</time></trkpt><trkpt lat="42.6085675" lon="13.7082119"><ele>200.0</ele><time>2026-04-05T09:01:27.974Z</time></trkpt><trkpt lat="42.6086011" lon="13.7082905"><ele>199.0</ele><time>2026-04-05T09:01:28.974Z</time></trkpt><trkpt lat="42.608624" lon="13.7083837"><ele>198.0</ele><time>2026-04-05T09:01:29.974Z</time></trkpt><trkpt lat="42.6086683" lon="13.7084726"><ele>198.0</ele><time>2026-04-05T09:01:30.974Z</time></trkpt><trkpt lat="42.6087099" lon="13.7085612"><ele>198.0</ele><time>2026-04-05T09:01:31.974Z</time></trkpt><trkpt lat="42.6087477" lon="13.7086428"><ele>198.0</ele><time>2026-04-05T09:01:32.975Z</time></trkpt><trkpt lat="42.6087872" lon="13.7087177"><ele>198.0</ele><time>2026-04-05T09:01:33.975Z</time></trkpt><trkpt lat="42.6088278" lon="13.7087983"><ele>198.0</ele><time>2026-04-05T09:01:34.975Z</time></trkpt><trkpt lat="42.608877" lon="13.7088846"><ele>198.0</ele><time>2026-04-05T09:01:35.974Z</time></trkpt><trkpt lat="42.6089254" lon="13.708976"><ele>195.33333333333334</ele><time>2026-04-05T09:01:36.974Z</time></trkpt><trkpt lat="42.6089689" lon="13.7090859"><ele>192.66666666666666</ele><time>2026-04-05T09:01:37.973Z</time></trkpt><trkpt lat="42.6090059" lon="13.7092136"><ele>190.0</ele><time>2026-04-05T09:01:38.974Z</time></trkpt><trkpt lat="42.6090491" lon="13.7093212"><ele>187.33333333333331</ele><time>2026-04-05T09:01:39.974Z</time></trkpt><trkpt lat="42.6090914" lon="13.7094168"><ele>184.66666666666666</ele><time>2026-04-05T09:01:40.974Z</time></trkpt><trkpt lat="42.6091309" lon="13.7095039"><ele>182.0</ele><time>2026-04-05T09:01:41.974Z</time></trkpt><trkpt lat="42.6091724" lon="13.7095752"><ele>180.5</ele><time>2026-04-05T09:01:42.973Z</time></trkpt><trkpt lat="42.6092104" lon="13.7096517"><ele>179.0</ele><time>2026-04-05T09:01:43.974Z</time></trkpt><trkpt lat="42.6092433" lon="13.7097275"><ele>177.5</ele><time>2026-04-05T09:01:44.974Z</time></trkpt><trkpt lat="42.6092857" lon="13.709863"><ele>176.0</ele><time>2026-04-05T09:01:46.974Z</time></trkpt><trkpt lat="42.6093208" lon="13.709985"><ele>174.5</ele><time>2026-04-05T09:01:48.973Z</time></trkpt><trkpt lat="42.6093254" lon="13.7100885"><ele>173.0</ele><time>2026-04-05T09:01:51.974Z</time></trkpt><trkpt lat="42.609394" lon="13.7101825"><ele>172.60000000000002</ele><time>2026-04-05T09:01:54.974Z</time></trkpt><trkpt lat="42.6094862" lon="13.7102695"><ele>172.20000000000002</ele><time>2026-04-05T09:01:56.974Z</time></trkpt><trkpt lat="42.6095773" lon="13.7103694"><ele>171.8</ele><time>2026-04-05T09:01:58.975Z</time></trkpt><trkpt lat="42.6096673" lon="13.7104588"><ele>171.4</ele><time>2026-04-05T09:02:00.975Z</time></trkpt><trkpt lat="42.609769" lon="13.7104348"><ele>171.0</ele><time>2026-04-05T09:02:02.973Z</time></trkpt><trkpt lat="42.6098587" lon="13.710341"><ele>171.0</ele><time>2026-04-05T09:02:04.973Z</time></trkpt><trkpt lat="42.6099538" lon="13.7102496"><ele>171.0</ele><time>2026-04-05T09:02:06.975Z</time></trkpt><trkpt lat="42.6100654" lon="13.7102006"><ele>171.0</ele><time>2026-04-05T09:02:08.974Z</time></trkpt><trkpt lat="42.6101836" lon="13.7102258"><ele>171.0</ele><time>2026-04-05T09:02:10.975Z</time></trkpt><trkpt lat="42.6102878" lon="13.7102878"><ele>172.20000000000002</ele><time>2026-04-05T09:02:12.974Z</time></trkpt><trkpt lat="42.6103731" lon="13.7103664"><ele>173.4</ele><time>2026-04-05T09:02:14.973Z</time></trkpt><trkpt lat="42.6104503" lon="13.7104382"><ele>174.6</ele><time>2026-04-05T09:02:16.975Z</time></trkpt><trkpt lat="42.6105448" lon="13.7105055"><ele>175.8</ele><time>2026-04-05T09:02:18.974Z</time></trkpt><trkpt lat="42.610619" lon="13.7105811"><ele>177.0</ele><time>2026-04-05T09:02:20.974Z</time></trkpt><trkpt lat="42.610703" lon="13.7106316"><ele>177.0</ele><time>2026-04-05T09:02:22.974Z</time></trkpt><trkpt lat="42.6107943" lon="13.7106531"><ele>177.0</ele><time>2026-04-05T09:02:24.974Z</time></trkpt><trkpt lat="42.6108818" lon="13.7106744"><ele>177.0</ele><time>2026-04-05T09:02:26.974Z</time></trkpt><trkpt lat="42.6109574" lon="13.7106996"><ele>177.0</ele><time>2026-04-05T09:02:28.975Z</time></trkpt><trkpt lat="42.6110266" lon="13.7107306"><ele>177.0</ele><time>2026-04-05T09:02:30.974Z</time></trkpt><trkpt lat="42.6110898" lon="13.7107734"><ele>177.0</ele><time>2026-04-05T09:02:32.974Z</time></trkpt><trkpt lat="42.6111501" lon="13.7108197"><ele>178.71428571428572</ele><time>2026-04-05T09:02:34.975Z</time></trkpt><trkpt lat="42.6112091" lon="13.7108645"><ele>180.42857142857142</ele><time>2026-04-05T09:02:36.975Z</time></trkpt><trkpt lat="42.6112605" lon="13.7109221"><ele>182.14285714285714</ele><time>2026-04-05T09:02:38.975Z</time></trkpt><trkpt lat="42.6113148" lon="13.7109807"><ele>183.85714285714286</ele><time>2026-04-05T09:02:40.974Z</time></trkpt><trkpt lat="42.6113642" lon="13.7110421"><ele>185.57142857142856</ele><time>2026-04-05T09:02:42.974Z</time></trkpt><trkpt lat="42.6114163" lon="13.7111079"><ele>187.28571428571428</ele><time>2026-04-05T09:02:44.973Z</time></trkpt><trkpt lat="42.6114714" lon="13.7111759"><ele>189.0</ele><time>2026-04-05T09:02:46.973Z</time></trkpt><trkpt lat="42.6115238" lon="13.711252"><ele>189.0</ele><time>2026-04-05T09:02:48.974Z</time></trkpt><trkpt lat="42.6115809" lon="13.7113154"><ele>189.0</ele><time>2026-04-05T09:02:50.974Z</time></trkpt><trkpt lat="42.611648" lon="13.7113535"><ele>189.0</ele><time>2026-04-05T09:02:52.973Z</time></trkpt><trkpt lat="42.6117234" lon="13.7113562"><ele>189.0</ele><time>2026-04-05T09:02:54.974Z</time></trkpt><trkpt lat="42.6117782" lon="13.7113102"><ele>189.0</ele><time>2026-04-05T09:02:56.974Z</time></trkpt><trkpt lat="42.6118203" lon="13.7112309"><ele>189.0</ele><time>2026-04-05T09:02:58.975Z</time></trkpt><trkpt lat="42.6118374" lon="13.7111327"><ele>189.0</ele><time>2026-04-05T09:03:00.974Z</time></trkpt><trkpt lat="42.6118208" lon="13.7110293"><ele>190.5</ele><time>2026-04-05T09:03:02.974Z</time></trkpt><trkpt lat="42.6117712" lon="13.7109477"><ele>192.0</ele><time>2026-04-05T09:03:04.973Z</time></trkpt><trkpt lat="42.6117184" lon="13.7108687"><ele>193.5</ele><time>2026-04-05T09:03:06.974Z</time></trkpt><trkpt lat="42.6116635" lon="13.7107958"><ele>195.0</ele><time>2026-04-05T09:03:08.975Z</time></trkpt><trkpt lat="42.6116148" lon="13.7107149"><ele>196.5</ele><time>2026-04-05T09:03:10.973Z</time></trkpt><trkpt lat="42.6115783" lon="13.7106261"><ele>198.0</ele><time>2026-04-05T09:03:12.974Z</time></trkpt><trkpt lat="42.6115702" lon="13.7105175"><ele>198.0</ele><time>2026-04-05T09:03:14.974Z</time></trkpt><trkpt lat="42.6115852" lon="13.7104122"><ele>198.0</ele><time>2026-04-05T09:03:16.974Z</time></trkpt><trkpt lat="42.6115997" lon="13.7103114"><ele>198.0</ele><time>2026-04-05T09:03:18.974Z</time></trkpt><trkpt lat="42.6115913" lon="13.7102112"><ele>198.0</ele><time>2026-04-05T09:03:20.973Z</time></trkpt><trkpt lat="42.611554" lon="13.7101279"><ele>198.0</ele><time>2026-04-05T09:03:22.974Z</time></trkpt><trkpt lat="42.611499" lon="13.7100704"><ele>198.0</ele><time>2026-04-05T09:03:24.974Z</time></trkpt><trkpt lat="42.611435" lon="13.7100218"><ele>198.0</ele><time>2026-04-05T09:03:26.974Z</time></trkpt><trkpt lat="42.6113756" lon="13.7099647"><ele>196.85714285714286</ele><time>2026-04-05T09:03:28.975Z</time></trkpt><trkpt lat="42.6113144" lon="13.7099152"><ele>195.7142857142857</ele><time>2026-04-05T09:03:30.973Z</time></trkpt><trkpt lat="42.611256" lon="13.7098628"><ele>194.57142857142856</ele><time>2026-04-05T09:03:32.974Z</time></trkpt><trkpt lat="42.6112011" lon="13.7098097"><ele>193.42857142857144</ele><time>2026-04-05T09:03:34.973Z</time></trkpt><trkpt lat="42.6111452" lon="13.7097599"><ele>192.28571428571428</ele><time>2026-04-05T09:03:36.973Z</time></trkpt><trkpt lat="42.6110885" lon="13.7097112"><ele>191.14285714285714</ele><time>2026-04-05T09:03:38.974Z</time></trkpt><trkpt lat="42.6110338" lon="13.7096579"><ele>190.0</ele><time>2026-04-05T09:03:40.974Z</time></trkpt><trkpt lat="42.6109591" lon="13.7095825"><ele>190.0</ele><time>2026-04-05T09:03:43.972Z</time></trkpt><trkpt lat="42.6108904" lon="13.7094988"><ele>190.0</ele><time>2026-04-05T09:03:46.974Z</time></trkpt><trkpt lat="42.6108618" lon="13.7094177"><ele>190.0</ele><time>2026-04-05T09:03:48.973Z</time></trkpt><trkpt lat="42.6108476" lon="13.7093294"><ele>190.0</ele><time>2026-04-05T09:03:50.973Z</time></trkpt><trkpt lat="42.6108496" lon="13.7092431"><ele>190.0</ele><time>2026-04-05T09:03:52.974Z</time></trkpt><trkpt lat="42.6108709" lon="13.7091623"><ele>190.0</ele><time>2026-04-05T09:03:54.974Z</time></trkpt><trkpt lat="42.6109055" lon="13.709086"><ele>190.0</ele><time>2026-04-05T09:03:56.972Z</time></trkpt><trkpt lat="42.6109422" lon="13.7090115"><ele>191.16666666666669</ele><time>2026-04-05T09:03:58.974Z</time></trkpt><trkpt lat="42.6109775" lon="13.7089288"><ele>192.33333333333334</ele><time>2026-04-05T09:04:00.972Z</time></trkpt><trkpt lat="42.6110159" lon="13.7088401"><ele>193.5</ele><time>2026-04-05T09:04:02.973Z</time></trkpt><trkpt lat="42.6110666" lon="13.7087523"><ele>194.66666666666669</ele><time>2026-04-05T09:04:04.973Z</time></trkpt><trkpt lat="42.6111296" lon="13.7086761"><ele>195.83333333333334</ele><time>2026-04-05T09:04:06.974Z</time></trkpt><trkpt lat="42.6112064" lon="13.7086274"><ele>197.0</ele><time>2026-04-05T09:04:08.974Z</time></trkpt><trkpt lat="42.6112813" lon="13.7085775"><ele>200.6</ele><time>2026-04-05T09:04:10.974Z</time></trkpt><trkpt lat="42.6113584" lon="13.7085218"><ele>204.2</ele><time>2026-04-05T09:04:12.972Z</time></trkpt><trkpt lat="42.6114428" lon="13.7084707"><ele>207.8</ele><time>2026-04-05T09:04:14.974Z</time></trkpt><trkpt lat="42.6115283" lon="13.7084052"><ele>211.4</ele><time>2026-04-05T09:04:16.972Z</time></trkpt><trkpt lat="42.6116166" lon="13.7083468"><ele>215.0</ele><time>2026-04-05T09:04:18.974Z</time></trkpt><trkpt lat="42.6117085" lon="13.7082944"><ele>215.0</ele><time>2026-04-05T09:04:20.974Z</time></trkpt><trkpt lat="42.6117942" lon="13.7082298"><ele>215.0</ele><time>2026-04-05T09:04:22.972Z</time></trkpt><trkpt lat="42.6118674" lon="13.7081394"><ele>215.0</ele><time>2026-04-05T09:04:24.973Z</time></trkpt><trkpt lat="42.611918" lon="13.7080293"><ele>215.0</ele><time>2026-04-05T09:04:26.973Z</time></trkpt><trkpt lat="42.6119611" lon="13.7079174"><ele>215.0</ele><time>2026-04-05T09:04:28.973Z</time></trkpt><trkpt lat="42.6120342" lon="13.7078329"><ele>218.2</ele><time>2026-04-05T09:04:30.973Z</time></trkpt><trkpt lat="42.6121108" lon="13.7077684"><ele>221.4</ele><time>2026-04-05T09:04:32.973Z</time></trkpt><trkpt lat="42.6121984" lon="13.7077314"><ele>224.60000000000002</ele><time>2026-04-05T09:04:34.973Z</time></trkpt><trkpt lat="42.612289" lon="13.7076861"><ele>227.8</ele><time>2026-04-05T09:04:36.973Z</time></trkpt><trkpt lat="42.6123714" lon="13.7076139"><ele>231.0</ele><time>2026-04-05T09:04:38.973Z</time></trkpt><trkpt lat="42.6124481" lon="13.7075173"><ele>231.0</ele><time>2026-04-05T09:04:40.974Z</time></trkpt><trkpt lat="42.6125247" lon="13.7074195"><ele>231.00000000000003</ele><time>2026-04-05T09:04:42.974Z</time></trkpt><trkpt lat="42.6126053" lon="13.7073222"><ele>231.00000000000003</ele><time>2026-04-05T09:04:44.973Z</time></trkpt><trkpt lat="42.6126833" lon="13.7072212"><ele>231.0</ele><time>2026-04-05T09:04:46.973Z</time></trkpt><trkpt lat="42.6127513" lon="13.7071196"><ele>231.0</ele><time>2026-04-05T09:04:48.973Z</time></trkpt><trkpt lat="42.6128036" lon="13.7069978"><ele>233.60000000000002</ele><time>2026-04-05T09:04:50.973Z</time></trkpt><trkpt lat="42.6128442" lon="13.7068745"><ele>236.20000000000002</ele><time>2026-04-05T09:04:52.973Z</time></trkpt><trkpt lat="42.6128934" lon="13.706753"><ele>238.79999999999998</ele><time>2026-04-05T09:04:54.973Z</time></trkpt><trkpt lat="42.6129466" lon="13.7066308"><ele>241.39999999999998</ele><time>2026-04-05T09:04:56.973Z</time></trkpt><trkpt lat="42.6129933" lon="13.7065047"><ele>244.0</ele><time>2026-04-05T09:04:58.974Z</time></trkpt><trkpt lat="42.6130305" lon="13.7063669"><ele>244.0</ele><time>2026-04-05T09:05:00.972Z</time></trkpt><trkpt lat="42.6130487" lon="13.7062331"><ele>243.99999999999997</ele><time>2026-04-05T09:05:02.974Z</time></trkpt><trkpt lat="42.6130694" lon="13.7060989"><ele>243.99999999999997</ele><time>2026-04-05T09:05:04.973Z</time></trkpt><trkpt lat="42.6131111" lon="13.7059828"><ele>244.0</ele><time>2026-04-05T09:05:06.973Z</time></trkpt><trkpt lat="42.6131963" lon="13.7059212"><ele>244.0</ele><time>2026-04-05T09:05:08.973Z</time></trkpt><trkpt lat="42.6132964" lon="13.705899"><ele>246.39999999999998</ele><time>2026-04-05T09:05:10.973Z</time></trkpt><trkpt lat="42.6133972" lon="13.7058666"><ele>248.79999999999998</ele><time>2026-04-05T09:05:12.973Z</time></trkpt><trkpt lat="42.6134773" lon="13.7057982"><ele>251.20000000000002</ele><time>2026-04-05T09:05:14.973Z</time></trkpt><trkpt lat="42.6135372" lon="13.7056965"><ele>253.60000000000002</ele><time>2026-04-05T09:05:16.972Z</time></trkpt><trkpt lat="42.6135959" lon="13.7055917"><ele>256.0</ele><time>2026-04-05T09:05:18.973Z</time></trkpt><trkpt lat="42.6136557" lon="13.7054842"><ele>256.0</ele><time>2026-04-05T09:05:20.973Z</time></trkpt><trkpt lat="42.6137158" lon="13.7053769"><ele>256.0</ele><time>2026-04-05T09:05:22.973Z</time></trkpt><trkpt lat="42.6137855" lon="13.7052589"><ele>256.0</ele><time>2026-04-05T09:05:24.973Z</time></trkpt><trkpt lat="42.6138537" lon="13.7051517"><ele>256.0</ele><time>2026-04-05T09:05:26.972Z</time></trkpt><trkpt lat="42.6139462" lon="13.7051159"><ele>256.0</ele><time>2026-04-05T09:05:28.974Z</time></trkpt><trkpt lat="42.6140141" lon="13.7052103"><ele>255.99999999999997</ele><time>2026-04-05T09:05:30.972Z</time></trkpt><trkpt lat="42.6139941" lon="13.7053264"><ele>256.0</ele><time>2026-04-05T09:05:32.973Z</time></trkpt><trkpt lat="42.6139309" lon="13.7054056"><ele>256.0</ele><time>2026-04-05T09:05:34.973Z</time></trkpt><trkpt lat="42.6138575" lon="13.7054832"><ele>256.0</ele><time>2026-04-05T09:05:36.973Z</time></trkpt><trkpt lat="42.6137932" lon="13.7055653"><ele>255.99999999999997</ele><time>2026-04-05T09:05:38.972Z</time></trkpt><trkpt lat="42.6137445" lon="13.7056727"><ele>256.0</ele><time>2026-04-05T09:05:40.974Z</time></trkpt><trkpt lat="42.6137227" lon="13.7057737"><ele>255.99999999999997</ele><time>2026-04-05T09:05:42.973Z</time></trkpt><trkpt lat="42.6137048" lon="13.705876"><ele>256.0</ele><time>2026-04-05T09:05:44.972Z</time></trkpt><trkpt lat="42.6136982" lon="13.7059898"><ele>256.0</ele><time>2026-04-05T09:05:46.972Z</time></trkpt><trkpt lat="42.6136874" lon="13.7061131"><ele>256.0</ele><time>2026-04-05T09:05:48.973Z</time></trkpt><trkpt lat="42.6136849" lon="13.7062313"><ele>255.99999999999997</ele><time>2026-04-05T09:05:50.973Z</time></trkpt><trkpt lat="42.6136723" lon="13.7063471"><ele>256.0</ele><time>2026-04-05T09:05:52.972Z</time></trkpt><trkpt lat="42.6136601" lon="13.7064569"><ele>254.28571428571428</ele><time>2026-04-05T09:05:54.973Z</time></trkpt><trkpt lat="42.6136461" lon="13.7065605"><ele>252.57142857142856</ele><time>2026-04-05T09:05:56.973Z</time></trkpt><trkpt lat="42.6136314" lon="13.706657"><ele>250.85714285714283</ele><time>2026-04-05T09:05:58.973Z</time></trkpt><trkpt lat="42.6136" lon="13.7067385"><ele>249.1428571428571</ele><time>2026-04-05T09:06:00.974Z</time></trkpt><trkpt lat="42.6135513" lon="13.7068118"><ele>247.42857142857142</ele><time>2026-04-05T09:06:02.972Z</time></trkpt><trkpt lat="42.6134876" lon="13.7068585"><ele>245.71428571428567</ele><time>2026-04-05T09:06:04.974Z</time></trkpt><trkpt lat="42.6134163" lon="13.7068821"><ele>243.99999999999997</ele><time>2026-04-05T09:06:06.972Z</time></trkpt><trkpt lat="42.6133422" lon="13.7069066"><ele>245.71428571428567</ele><time>2026-04-05T09:06:08.973Z</time></trkpt><trkpt lat="42.6132733" lon="13.7069343"><ele>247.42857142857142</ele><time>2026-04-05T09:06:10.972Z</time></trkpt><trkpt lat="42.6132135" lon="13.7069787"><ele>249.1428571428571</ele><time>2026-04-05T09:06:12.972Z</time></trkpt><trkpt lat="42.6131682" lon="13.7070397"><ele>250.85714285714283</ele><time>2026-04-05T09:06:14.972Z</time></trkpt><trkpt lat="42.6131303" lon="13.7071126"><ele>252.57142857142856</ele><time>2026-04-05T09:06:16.972Z</time></trkpt><trkpt lat="42.6131065" lon="13.7072026"><ele>254.28571428571428</ele><time>2026-04-05T09:06:18.973Z</time></trkpt><trkpt lat="42.6130838" lon="13.7072959"><ele>256.0</ele><time>2026-04-05T09:06:20.971Z</time></trkpt><trkpt lat="42.6130608" lon="13.707387"><ele>256.0</ele><time>2026-04-05T09:06:22.973Z</time></trkpt><trkpt lat="42.6130295" lon="13.7074727"><ele>255.99999999999997</ele><time>2026-04-05T09:06:24.972Z</time></trkpt><trkpt lat="42.6129917" lon="13.707552"><ele>256.0</ele><time>2026-04-05T09:06:26.973Z</time></trkpt><trkpt lat="42.6129558" lon="13.7076282"><ele>256.0</ele><time>2026-04-05T09:06:28.971Z</time></trkpt><trkpt lat="42.612905" lon="13.7077336"><ele>255.99999999999997</ele><time>2026-04-05T09:06:31.972Z</time></trkpt><trkpt lat="42.6128642" lon="13.7077994"><ele>256.0</ele><time>2026-04-05T09:06:33.973Z</time></trkpt><trkpt lat="42.6128144" lon="13.7078587"><ele>256.0</ele><time>2026-04-05T09:06:35.972Z</time></trkpt><trkpt lat="42.6127402" lon="13.7079316"><ele>255.14285714285714</ele><time>2026-04-05T09:06:38.971Z</time></trkpt><trkpt lat="42.6126896" lon="13.7079825"><ele>254.28571428571428</ele><time>2026-04-05T09:06:40.971Z</time></trkpt><trkpt lat="42.6126489" lon="13.7080526"><ele>253.42857142857142</ele><time>2026-04-05T09:06:42.972Z</time></trkpt><trkpt lat="42.6126212" lon="13.7081398"><ele>252.57142857142856</ele><time>2026-04-05T09:06:44.972Z</time></trkpt><trkpt lat="42.612598" lon="13.7082309"><ele>251.71428571428572</ele><time>2026-04-05T09:06:46.972Z</time></trkpt><trkpt lat="42.6125869" lon="13.7083257"><ele>250.85714285714283</ele><time>2026-04-05T09:06:48.972Z</time></trkpt><trkpt lat="42.612581" lon="13.7084238"><ele>250.0</ele><time>2026-04-05T09:06:50.973Z</time></trkpt><trkpt lat="42.6125784" lon="13.7085213"><ele>250.85714285714283</ele><time>2026-04-05T09:06:52.972Z</time></trkpt><trkpt lat="42.6125737" lon="13.7086176"><ele>251.71428571428572</ele><time>2026-04-05T09:06:54.971Z</time></trkpt><trkpt lat="42.6125683" lon="13.7087142"><ele>252.57142857142856</ele><time>2026-04-05T09:06:56.971Z</time></trkpt><trkpt lat="42.6125751" lon="13.7088128"><ele>253.42857142857142</ele><time>2026-04-05T09:06:58.972Z</time></trkpt><trkpt lat="42.6125906" lon="13.7089043"><ele>254.28571428571428</ele><time>2026-04-05T09:07:00.972Z</time></trkpt><trkpt lat="42.6126205" lon="13.7089898"><ele>255.14285714285714</ele><time>2026-04-05T09:07:02.972Z</time></trkpt><trkpt lat="42.6126702" lon="13.7090983"><ele>256.0</ele><time>2026-04-05T09:07:05.971Z</time></trkpt><trkpt lat="42.6127151" lon="13.7091602"><ele>256.0</ele><time>2026-04-05T09:07:07.972Z</time></trkpt><trkpt lat="42.6127581" lon="13.7092233"><ele>255.99999999999997</ele><time>2026-04-05T09:07:09.972Z</time></trkpt><trkpt lat="42.6128153" lon="13.7093144"><ele>256.0</ele><time>2026-04-05T09:07:12.973Z</time></trkpt><trkpt lat="42.612876" lon="13.7093983"><ele>256.0</ele><time>2026-04-05T09:07:15.973Z</time></trkpt><trkpt lat="42.6129214" lon="13.7094606"><ele>255.99999999999997</ele><time>2026-04-05T09:07:17.972Z</time></trkpt><trkpt lat="42.6129609" lon="13.7095344"><ele>256.0</ele><time>2026-04-05T09:07:19.972Z</time></trkpt><trkpt lat="42.6129957" lon="13.7096065"><ele>256.0</ele><time>2026-04-05T09:07:21.973Z</time></trkpt><trkpt lat="42.6130503" lon="13.7097134"><ele>257.42857142857144</ele><time>2026-04-05T09:07:24.972Z</time></trkpt><trkpt lat="42.6130846" lon="13.7097926"><ele>258.85714285714283</ele><time>2026-04-05T09:07:26.972Z</time></trkpt><trkpt lat="42.6131071" lon="13.7098758"><ele>260.2857142857143</ele><time>2026-04-05T09:07:28.971Z</time></trkpt><trkpt lat="42.6131246" lon="13.7099603"><ele>261.7142857142857</ele><time>2026-04-05T09:07:30.972Z</time></trkpt><trkpt lat="42.613138" lon="13.7100444"><ele>263.1428571428571</ele><time>2026-04-05T09:07:32.972Z</time></trkpt><trkpt lat="42.6131493" lon="13.7101671"><ele>264.57142857142856</ele><time>2026-04-05T09:07:35.971Z</time></trkpt><trkpt lat="42.613157" lon="13.7102523"><ele>266.0</ele><time>2026-04-05T09:07:37.972Z</time></trkpt><trkpt lat="42.6131742" lon="13.7103695"><ele>266.0</ele><time>2026-04-05T09:07:40.972Z</time></trkpt><trkpt lat="42.6132157" lon="13.7104612"><ele>266.0</ele><time>2026-04-05T09:07:43.971Z</time></trkpt><trkpt lat="42.6132857" lon="13.7105239"><ele>266.0</ele><time>2026-04-05T09:07:46.972Z</time></trkpt><trkpt lat="42.6133653" lon="13.7105793"><ele>266.0</ele><time>2026-04-05T09:07:49.973Z</time></trkpt><trkpt lat="42.6134517" lon="13.7106129"><ele>266.0</ele><time>2026-04-05T09:07:52.972Z</time></trkpt><trkpt lat="42.6135258" lon="13.7106341"><ele>266.0</ele><time>2026-04-05T09:07:55.973Z</time></trkpt><trkpt lat="42.6135879" lon="13.7106595"><ele>268.14285714285717</ele><time>2026-04-05T09:07:58.972Z</time></trkpt><trkpt lat="42.6136633" lon="13.7106884"><ele>270.2857142857143</ele><time>2026-04-05T09:08:01.972Z</time></trkpt><trkpt lat="42.6137323" lon="13.710717"><ele>272.42857142857144</ele><time>2026-04-05T09:08:04.972Z</time></trkpt><trkpt lat="42.6137956" lon="13.7107415"><ele>274.57142857142856</ele><time>2026-04-05T09:08:07.971Z</time></trkpt><trkpt lat="42.6138807" lon="13.7108009"><ele>276.7142857142857</ele><time>2026-04-05T09:08:10.973Z</time></trkpt><trkpt lat="42.6139359" lon="13.7108515"><ele>278.8571428571429</ele><time>2026-04-05T09:08:12.971Z</time></trkpt><trkpt lat="42.6139875" lon="13.710903"><ele>281.0</ele><time>2026-04-05T09:08:14.973Z</time></trkpt><trkpt lat="42.614031" lon="13.7109653"><ele>281.0</ele><time>2026-04-05T09:08:16.973Z</time></trkpt><trkpt lat="42.6141041" lon="13.711041"><ele>281.0</ele><time>2026-04-05T09:08:19.972Z</time></trkpt><trkpt lat="42.614188" lon="13.7110946"><ele>281.0</ele><time>2026-04-05T09:08:22.972Z</time></trkpt><trkpt lat="42.6142769" lon="13.7110811"><ele>281.0</ele><time>2026-04-05T09:08:25.972Z</time></trkpt><trkpt lat="42.614352" lon="13.7110121"><ele>281.0</ele><time>2026-04-05T09:08:28.972Z</time></trkpt><trkpt lat="42.6143933" lon="13.7109024"><ele>281.0</ele><time>2026-04-05T09:08:31.972Z</time></trkpt><trkpt lat="42.614386" lon="13.710786"><ele>281.0</ele><time>2026-04-05T09:08:34.972Z</time></trkpt><trkpt lat="42.6143471" lon="13.7106718"><ele>281.0</ele><time>2026-04-05T09:08:37.973Z</time></trkpt><trkpt lat="42.6143109" lon="13.7105993"><ele>281.0</ele><time>2026-04-05T09:08:39.972Z</time></trkpt><trkpt lat="42.6142827" lon="13.7105214"><ele>281.0</ele><time>2026-04-05T09:08:41.971Z</time></trkpt><trkpt lat="42.6142352" lon="13.7104197"><ele>281.0</ele><time>2026-04-05T09:08:44.973Z</time></trkpt><trkpt lat="42.6141875" lon="13.7103145"><ele>282.33333333333337</ele><time>2026-04-05T09:08:47.972Z</time></trkpt><trkpt lat="42.6141492" lon="13.7102161"><ele>283.6666666666667</ele><time>2026-04-05T09:08:50.97Z</time></trkpt><trkpt lat="42.6141079" lon="13.7101306"><ele>285.0</ele><time>2026-04-05T09:08:53.972Z</time></trkpt><trkpt lat="42.6140702" lon="13.7100424"><ele>286.3333333333333</ele><time>2026-04-05T09:08:56.971Z</time></trkpt><trkpt lat="42.6140382" lon="13.7099481"><ele>287.66666666666663</ele><time>2026-04-05T09:08:59.972Z</time></trkpt><trkpt lat="42.6140026" lon="13.7098532"><ele>289.0</ele><time>2026-04-05T09:09:02.971Z</time></trkpt><trkpt lat="42.6139823" lon="13.7097496"><ele>289.0</ele><time>2026-04-05T09:09:05.971Z</time></trkpt><trkpt lat="42.6139844" lon="13.7096474"><ele>289.0</ele><time>2026-04-05T09:09:08.972Z</time></trkpt><trkpt lat="42.614034" lon="13.7095585"><ele>289.0</ele><time>2026-04-05T09:09:11.971Z</time></trkpt><trkpt lat="42.6140956" lon="13.7094927"><ele>289.0</ele><time>2026-04-05T09:09:14.97Z</time></trkpt><trkpt lat="42.6141614" lon="13.7094548"><ele>289.0</ele><time>2026-04-05T09:09:17.971Z</time></trkpt><trkpt lat="42.6142212" lon="13.7094217"><ele>289.0</ele><time>2026-04-05T09:09:20.971Z</time></trkpt><trkpt lat="42.6142927" lon="13.7093801"><ele>289.0</ele><time>2026-04-05T09:09:23.971Z</time></trkpt><trkpt lat="42.614364" lon="13.709344"><ele>288.5</ele><time>2026-04-05T09:09:26.971Z</time></trkpt><trkpt lat="42.6144373" lon="13.7093082"><ele>288.0</ele><time>2026-04-05T09:09:29.971Z</time></trkpt><trkpt lat="42.6144967" lon="13.709279"><ele>287.5</ele><time>2026-04-05T09:09:31.97Z</time></trkpt><trkpt lat="42.6145561" lon="13.7092487"><ele>287.0</ele><time>2026-04-05T09:09:33.971Z</time></trkpt><trkpt lat="42.6146449" lon="13.709215"><ele>286.5</ele><time>2026-04-05T09:09:36.971Z</time></trkpt><trkpt lat="42.614731" lon="13.7091827"><ele>286.0</ele><time>2026-04-05T09:09:39.971Z</time></trkpt><trkpt lat="42.6148136" lon="13.7091335"><ele>288.3333333333333</ele><time>2026-04-05T09:09:42.972Z</time></trkpt><trkpt lat="42.6148904" lon="13.7090693"><ele>290.66666666666663</ele><time>2026-04-05T09:09:45.971Z</time></trkpt><trkpt lat="42.6149651" lon="13.7089966"><ele>293.0</ele><time>2026-04-05T09:09:48.97Z</time></trkpt><trkpt lat="42.6150476" lon="13.7089381"><ele>295.3333333333333</ele><time>2026-04-05T09:09:51.971Z</time></trkpt><trkpt lat="42.6150969" lon="13.7088846"><ele>297.6666666666667</ele><time>2026-04-05T09:09:53.97Z</time></trkpt><trkpt lat="42.6151684" lon="13.7088081"><ele>300.0</ele><time>2026-04-05T09:09:56.971Z</time></trkpt><trkpt lat="42.6152472" lon="13.7087441"><ele>300.5</ele><time>2026-04-05T09:09:59.972Z</time></trkpt><trkpt lat="42.6153242" lon="13.7086903"><ele>301.0</ele><time>2026-04-05T09:10:02.972Z</time></trkpt><trkpt lat="42.6153993" lon="13.7086507"><ele>301.5</ele><time>2026-04-05T09:10:05.972Z</time></trkpt><trkpt lat="42.6154802" lon="13.7086191"><ele>302.0</ele><time>2026-04-05T09:10:08.971Z</time></trkpt><trkpt lat="42.6155578" lon="13.7085939"><ele>302.5</ele><time>2026-04-05T09:10:11.971Z</time></trkpt><trkpt lat="42.6156361" lon="13.7085745"><ele>303.0</ele><time>2026-04-05T09:10:14.971Z</time></trkpt><trkpt lat="42.6157156" lon="13.7085534"><ele>303.0</ele><time>2026-04-05T09:10:17.97Z</time></trkpt><trkpt lat="42.6157933" lon="13.708519"><ele>303.0</ele><time>2026-04-05T09:10:20.972Z</time></trkpt><trkpt lat="42.6158626" lon="13.70847"><ele>303.0</ele><time>2026-04-05T09:10:23.972Z</time></trkpt><trkpt lat="42.6159206" lon="13.7084275"><ele>303.0</ele><time>2026-04-05T09:10:26.971Z</time></trkpt><trkpt lat="42.6159785" lon="13.7083586"><ele>303.0</ele><time>2026-04-05T09:10:30.97Z</time></trkpt><trkpt lat="42.6160244" lon="13.7082849"><ele>303.0</ele><time>2026-04-05T09:10:36.972Z</time></trkpt><trkpt lat="42.6160673" lon="13.7082117"><ele>303.0</ele><time>2026-04-05T09:10:41.971Z</time></trkpt><trkpt lat="42.6161084" lon="13.7081447"><ele>303.0</ele><time>2026-04-05T09:10:46.972Z</time></trkpt><trkpt lat="42.6161508" lon="13.7080772"><ele>303.0</ele><time>2026-04-05T09:10:52.971Z</time></trkpt><trkpt lat="42.6161877" lon="13.7080069"><ele>303.0</ele><time>2026-04-05T09:11:00.97Z</time></trkpt><trkpt lat="42.6162365" lon="13.7079268"><ele>303.0</ele><time>2026-04-05T09:11:03.972Z</time></trkpt><trkpt lat="42.6162818" lon="13.7078442"><ele>303.0</ele><time>2026-04-05T09:11:06.971Z</time></trkpt><trkpt lat="42.6163292" lon="13.7077647"><ele>303.0</ele><time>2026-04-05T09:11:09.97Z</time></trkpt><trkpt lat="42.6163753" lon="13.7076827"><ele>303.0</ele><time>2026-04-05T09:11:12.97Z</time></trkpt><trkpt lat="42.6164273" lon="13.7076036"><ele>306.1666666666667</ele><time>2026-04-05T09:11:15.971Z</time></trkpt><trkpt lat="42.6164754" lon="13.7075238"><ele>309.3333333333333</ele><time>2026-04-05T09:11:18.969Z</time></trkpt><trkpt lat="42.6165265" lon="13.707445"><ele>312.5</ele><time>2026-04-05T09:11:21.97Z</time></trkpt><trkpt lat="42.6165762" lon="13.707361"><ele>315.66666666666663</ele><time>2026-04-05T09:11:24.969Z</time></trkpt><trkpt lat="42.6166275" lon="13.7072808"><ele>318.8333333333333</ele><time>2026-04-05T09:11:27.971Z</time></trkpt><trkpt lat="42.6166777" lon="13.7072003"><ele>322.0</ele><time>2026-04-05T09:11:30.971Z</time></trkpt><trkpt lat="42.6167286" lon="13.7071153"><ele>322.0</ele><time>2026-04-05T09:11:33.97Z</time></trkpt><trkpt lat="42.616768" lon="13.7070207"><ele>322.0</ele><time>2026-04-05T09:11:36.969Z</time></trkpt><trkpt lat="42.616792" lon="13.7069183"><ele>322.0</ele><time>2026-04-05T09:11:39.97Z</time></trkpt><trkpt lat="42.6167992" lon="13.7068022"><ele>322.0</ele><time>2026-04-05T09:11:42.97Z</time></trkpt><trkpt lat="42.616779" lon="13.7067049"><ele>322.0</ele><time>2026-04-05T09:11:45.971Z</time></trkpt><trkpt lat="42.6167579" lon="13.7066105"><ele>322.0</ele><time>2026-04-05T09:11:48.97Z</time></trkpt><trkpt lat="42.6167509" lon="13.706503"><ele>321.0</ele><time>2026-04-05T09:11:51.97Z</time></trkpt><trkpt lat="42.6167403" lon="13.706397"><ele>320.0</ele><time>2026-04-05T09:11:54.97Z</time></trkpt><trkpt lat="42.616743" lon="13.7062901"><ele>319.0</ele><time>2026-04-05T09:11:57.971Z</time></trkpt><trkpt lat="42.6167698" lon="13.7061923"><ele>318.0</ele><time>2026-04-05T09:12:00.971Z</time></trkpt><trkpt lat="42.6168368" lon="13.7061604"><ele>317.0</ele><time>2026-04-05T09:12:03.969Z</time></trkpt><trkpt lat="42.6168877" lon="13.7062234"><ele>316.0</ele><time>2026-04-05T09:12:06.969Z</time></trkpt><trkpt lat="42.6168966" lon="13.7063278"><ele>316.0</ele><time>2026-04-05T09:12:09.97Z</time></trkpt><trkpt lat="42.6169021" lon="13.7064351"><ele>316.0</ele><time>2026-04-05T09:12:12.97Z</time></trkpt><trkpt lat="42.6169351" lon="13.7065321"><ele>316.0</ele><time>2026-04-05T09:12:15.97Z</time></trkpt><trkpt lat="42.6169816" lon="13.7066334"><ele>316.0</ele><time>2026-04-05T09:12:18.971Z</time></trkpt><trkpt lat="42.6170152" lon="13.7067082"><ele>316.0</ele><time>2026-04-05T09:12:20.971Z</time></trkpt><trkpt lat="42.6170444" lon="13.7067911"><ele>316.0</ele><time>2026-04-05T09:12:22.969Z</time></trkpt><trkpt lat="42.6170539" lon="13.7069099"><ele>317.20000000000005</ele><time>2026-04-05T09:12:24.969Z</time></trkpt><trkpt lat="42.6170454" lon="13.7070582"><ele>318.40000000000003</ele><time>2026-04-05T09:12:26.969Z</time></trkpt><trkpt lat="42.6170078" lon="13.7072108"><ele>319.6</ele><time>2026-04-05T09:12:28.971Z</time></trkpt><trkpt lat="42.6169335" lon="13.7073267"><ele>320.8</ele><time>2026-04-05T09:12:30.971Z</time></trkpt><trkpt lat="42.6168781" lon="13.7074205"><ele>322.0</ele><time>2026-04-05T09:12:32.969Z</time></trkpt><trkpt lat="42.616842" lon="13.7075293"><ele>322.0</ele><time>2026-04-05T09:12:34.97Z</time></trkpt><trkpt lat="42.6168079" lon="13.707643"><ele>322.0</ele><time>2026-04-05T09:12:36.97Z</time></trkpt><trkpt lat="42.6167868" lon="13.7077588"><ele>322.0</ele><time>2026-04-05T09:12:38.97Z</time></trkpt><trkpt lat="42.6167814" lon="13.7078752"><ele>322.0</ele><time>2026-04-05T09:12:40.969Z</time></trkpt><trkpt lat="42.6167918" lon="13.7080198"><ele>322.0</ele><time>2026-04-05T09:12:42.97Z</time></trkpt><trkpt lat="42.6168175" lon="13.7081588"><ele>323.8</ele><time>2026-04-05T09:12:44.97Z</time></trkpt><trkpt lat="42.6168446" lon="13.7082984"><ele>325.6</ele><time>2026-04-05T09:12:46.971Z</time></trkpt><trkpt lat="42.6168605" lon="13.7084234"><ele>327.40000000000003</ele><time>2026-04-05T09:12:48.97Z</time></trkpt><trkpt lat="42.6168557" lon="13.7085412"><ele>329.20000000000005</ele><time>2026-04-05T09:12:50.97Z</time></trkpt><trkpt lat="42.6168181" lon="13.7086467"><ele>331.0</ele><time>2026-04-05T09:12:52.969Z</time></trkpt><trkpt lat="42.6167647" lon="13.7087399"><ele>333.3333333333333</ele><time>2026-04-05T09:12:54.97Z</time></trkpt><trkpt lat="42.6167028" lon="13.708831"><ele>335.66666666666663</ele><time>2026-04-05T09:12:56.969Z</time></trkpt><trkpt lat="42.6166423" lon="13.708934"><ele>338.0</ele><time>2026-04-05T09:12:58.97Z</time></trkpt><trkpt lat="42.6166087" lon="13.7090402"><ele>340.3333333333333</ele><time>2026-04-05T09:13:00.969Z</time></trkpt><trkpt lat="42.6165662" lon="13.7091283"><ele>342.6666666666667</ele><time>2026-04-05T09:13:02.969Z</time></trkpt><trkpt lat="42.6165406" lon="13.7092182"><ele>345.0</ele><time>2026-04-05T09:13:04.969Z</time></trkpt><trkpt lat="42.6165304" lon="13.709316"><ele>345.0</ele><time>2026-04-05T09:13:06.971Z</time></trkpt><trkpt lat="42.616512" lon="13.7094084"><ele>345.0</ele><time>2026-04-05T09:13:08.97Z</time></trkpt><trkpt lat="42.6164971" lon="13.7094946"><ele>345.0</ele><time>2026-04-05T09:13:10.97Z</time></trkpt><trkpt lat="42.6164765" lon="13.7096202"><ele>345.0</ele><time>2026-04-05T09:13:13.97Z</time></trkpt><trkpt lat="42.6164613" lon="13.709745"><ele>345.0</ele><time>2026-04-05T09:13:16.969Z</time></trkpt><trkpt lat="42.6164517" lon="13.7098302"><ele>345.0</ele><time>2026-04-05T09:13:18.969Z</time></trkpt><trkpt lat="42.6164429" lon="13.7099226"><ele>346.14285714285717</ele><time>2026-04-05T09:13:20.969Z</time></trkpt><trkpt lat="42.6164304" lon="13.7100187"><ele>347.2857142857143</ele><time>2026-04-05T09:13:22.971Z</time></trkpt><trkpt lat="42.6164128" lon="13.7101133"><ele>348.42857142857144</ele><time>2026-04-05T09:13:24.969Z</time></trkpt><trkpt lat="42.616403" lon="13.7102121"><ele>349.57142857142856</ele><time>2026-04-05T09:13:26.97Z</time></trkpt><trkpt lat="42.6163977" lon="13.710301"><ele>350.7142857142857</ele><time>2026-04-05T09:13:28.97Z</time></trkpt><trkpt lat="42.6163999" lon="13.7103894"><ele>351.85714285714283</ele><time>2026-04-05T09:13:30.969Z</time></trkpt><trkpt lat="42.6164046" lon="13.7104793"><ele>353.0</ele><time>2026-04-05T09:13:32.969Z</time></trkpt><trkpt lat="42.6164095" lon="13.7105706"><ele>353.1428571428571</ele><time>2026-04-05T09:13:34.97Z</time></trkpt><trkpt lat="42.6164218" lon="13.7106626"><ele>353.28571428571433</ele><time>2026-04-05T09:13:36.97Z</time></trkpt><trkpt lat="42.6164314" lon="13.7107537"><ele>353.42857142857144</ele><time>2026-04-05T09:13:38.969Z</time></trkpt><trkpt lat="42.6164471" lon="13.7108462"><ele>353.57142857142856</ele><time>2026-04-05T09:13:40.97Z</time></trkpt><trkpt lat="42.6164656" lon="13.7109332"><ele>353.71428571428567</ele><time>2026-04-05T09:13:42.969Z</time></trkpt><trkpt lat="42.6164831" lon="13.7110156"><ele>353.8571428571429</ele><time>2026-04-05T09:13:44.969Z</time></trkpt><trkpt lat="42.616514" lon="13.7111427"><ele>354.0</ele><time>2026-04-05T09:13:47.969Z</time></trkpt><trkpt lat="42.6165264" lon="13.7112463"><ele>354.0</ele><time>2026-04-05T09:13:49.971Z</time></trkpt><trkpt lat="42.6165371" lon="13.7113412"><ele>354.0</ele><time>2026-04-05T09:13:51.97Z</time></trkpt><trkpt lat="42.6165467" lon="13.7114296"><ele>354.0</ele><time>2026-04-05T09:13:53.97Z</time></trkpt><trkpt lat="42.6165618" lon="13.7115154"><ele>354.0</ele><time>2026-04-05T09:13:55.968Z</time></trkpt><trkpt lat="42.6165782" lon="13.7116028"><ele>354.0</ele><time>2026-04-05T09:13:57.969Z</time></trkpt><trkpt lat="42.6165968" lon="13.7116872"><ele>354.0</ele><time>2026-04-05T09:13:59.97Z</time></trkpt><trkpt lat="42.6166232" lon="13.7118083"><ele>354.0</ele><time>2026-04-05T09:14:02.969Z</time></trkpt><trkpt lat="42.6166476" lon="13.7118939"><ele>351.8571428571429</ele><time>2026-04-05T09:14:04.968Z</time></trkpt><trkpt lat="42.6166717" lon="13.7119784"><ele>349.71428571428567</ele><time>2026-04-05T09:14:06.969Z</time></trkpt><trkpt lat="42.6166958" lon="13.7120693"><ele>347.57142857142856</ele><time>2026-04-05T09:14:08.969Z</time></trkpt><trkpt lat="42.6167286" lon="13.7121598"><ele>345.42857142857144</ele><time>2026-04-05T09:14:10.969Z</time></trkpt><trkpt lat="42.616759" lon="13.7122457"><ele>343.28571428571433</ele><time>2026-04-05T09:14:12.968Z</time></trkpt><trkpt lat="42.6167878" lon="13.7123278"><ele>341.1428571428571</ele><time>2026-04-05T09:14:14.968Z</time></trkpt><trkpt lat="42.6168147" lon="13.7124058"><ele>339.0</ele><time>2026-04-05T09:14:16.969Z</time></trkpt><trkpt lat="42.6168443" lon="13.7124838"><ele>339.0</ele><time>2026-04-05T09:14:18.968Z</time></trkpt><trkpt lat="42.6168772" lon="13.7125616"><ele>339.0</ele><time>2026-04-05T09:14:20.969Z</time></trkpt><trkpt lat="42.6169217" lon="13.7126717"><ele>339.0</ele><time>2026-04-05T09:14:23.969Z</time></trkpt><trkpt lat="42.6169732" lon="13.712775"><ele>339.0</ele><time>2026-04-05T09:14:26.969Z</time></trkpt><trkpt lat="42.6170258" lon="13.7128647"><ele>339.0</ele><time>2026-04-05T09:14:29.969Z</time></trkpt><trkpt lat="42.6170729" lon="13.7129221"><ele>339.0</ele><time>2026-04-05T09:14:32.97Z</time></trkpt><trkpt lat="42.6171358" lon="13.7129771"><ele>341.2857142857143</ele><time>2026-04-05T09:14:35.969Z</time></trkpt><trkpt lat="42.6172166" lon="13.7130184"><ele>343.5714285714286</ele><time>2026-04-05T09:14:38.968Z</time></trkpt><trkpt lat="42.617281" lon="13.7130392"><ele>345.8571428571429</ele><time>2026-04-05T09:14:40.969Z</time></trkpt><trkpt lat="42.6173457" lon="13.7130724"><ele>348.1428571428571</ele><time>2026-04-05T09:14:42.969Z</time></trkpt><trkpt lat="42.6174072" lon="13.7131087"><ele>350.42857142857144</ele><time>2026-04-05T09:14:44.968Z</time></trkpt><trkpt lat="42.6174651" lon="13.7131486"><ele>352.7142857142857</ele><time>2026-04-05T09:14:46.97Z</time></trkpt><trkpt lat="42.6175177" lon="13.7132008"><ele>355.0</ele><time>2026-04-05T09:14:48.969Z</time></trkpt><trkpt lat="42.6175611" lon="13.713266"><ele>355.0</ele><time>2026-04-05T09:14:50.968Z</time></trkpt><trkpt lat="42.6175986" lon="13.7133779"><ele>355.0</ele><time>2026-04-05T09:14:53.969Z</time></trkpt><trkpt lat="42.6176127" lon="13.7134952"><ele>355.0</ele><time>2026-04-05T09:14:56.968Z</time></trkpt><trkpt lat="42.6176203" lon="13.7136089"><ele>355.0</ele><time>2026-04-05T09:14:59.97Z</time></trkpt><trkpt lat="42.6176324" lon="13.7137139"><ele>355.0</ele><time>2026-04-05T09:15:02.968Z</time></trkpt><trkpt lat="42.6176724" lon="13.7138092"><ele>355.0</ele><time>2026-04-05T09:15:05.968Z</time></trkpt><trkpt lat="42.6177354" lon="13.7138447"><ele>355.0</ele><time>2026-04-05T09:15:08.969Z</time></trkpt><trkpt lat="42.617785" lon="13.7137888"><ele>355.0</ele><time>2026-04-05T09:15:13.968Z</time></trkpt><trkpt lat="42.6178083" lon="13.7136896"><ele>355.0</ele><time>2026-04-05T09:15:18.97Z</time></trkpt><trkpt lat="42.6178121" lon="13.7135922"><ele>355.0</ele><time>2026-04-05T09:15:21.97Z</time></trkpt><trkpt lat="42.6178176" lon="13.713505"><ele>355.0</ele><time>2026-04-05T09:15:23.968Z</time></trkpt><trkpt lat="42.6178221" lon="13.7133996"><ele>355.0</ele><time>2026-04-05T09:15:25.969Z</time></trkpt><trkpt lat="42.6178169" lon="13.7132878"><ele>355.0</ele><time>2026-04-05T09:15:27.969Z</time></trkpt><trkpt lat="42.6178066" lon="13.713178"><ele>355.0</ele><time>2026-04-05T09:15:29.97Z</time></trkpt><trkpt lat="42.6177839" lon="13.7130727"><ele>355.0</ele><time>2026-04-05T09:15:31.968Z</time></trkpt><trkpt lat="42.6177549" lon="13.7129762"><ele>355.0</ele><time>2026-04-05T09:15:33.969Z</time></trkpt><trkpt lat="42.6177158" lon="13.7128878"><ele>355.0</ele><time>2026-04-05T09:15:35.968Z</time></trkpt><trkpt lat="42.6176651" lon="13.7128109"><ele>355.0</ele><time>2026-04-05T09:15:37.97Z</time></trkpt><trkpt lat="42.6176194" lon="13.7127319"><ele>355.0</ele><time>2026-04-05T09:15:39.969Z</time></trkpt><trkpt lat="42.6175667" lon="13.7126585"><ele>357.3333333333333</ele><time>2026-04-05T09:15:41.969Z</time></trkpt><trkpt lat="42.6175101" lon="13.7125937"><ele>359.66666666666663</ele><time>2026-04-05T09:15:43.969Z</time></trkpt><trkpt lat="42.6174454" lon="13.7125415"><ele>362.0</ele><time>2026-04-05T09:15:45.969Z</time></trkpt><trkpt lat="42.6173798" lon="13.7124835"><ele>364.3333333333333</ele><time>2026-04-05T09:15:47.969Z</time></trkpt><trkpt lat="42.6173126" lon="13.712414"><ele>366.6666666666667</ele><time>2026-04-05T09:15:49.969Z</time></trkpt><trkpt lat="42.6172479" lon="13.7123323"><ele>369.0</ele><time>2026-04-05T09:15:51.969Z</time></trkpt><trkpt lat="42.6171961" lon="13.7122274"><ele>369.0</ele><time>2026-04-05T09:15:53.969Z</time></trkpt><trkpt lat="42.6171602" lon="13.7121264"><ele>369.0</ele><time>2026-04-05T09:15:55.968Z</time></trkpt><trkpt lat="42.6171314" lon="13.7120105"><ele>369.0</ele><time>2026-04-05T09:15:57.97Z</time></trkpt><trkpt lat="42.6171147" lon="13.7119114"><ele>369.0</ele><time>2026-04-05T09:15:59.969Z</time></trkpt><trkpt lat="42.6170957" lon="13.7118125"><ele>369.0</ele><time>2026-04-05T09:16:01.968Z</time></trkpt><trkpt lat="42.617082" lon="13.7117128"><ele>369.0</ele><time>2026-04-05T09:16:03.968Z</time></trkpt><trkpt lat="42.6170641" lon="13.7116096"><ele>370.6666666666667</ele><time>2026-04-05T09:16:05.969Z</time></trkpt><trkpt lat="42.6170468" lon="13.711471"><ele>372.3333333333333</ele><time>2026-04-05T09:16:07.969Z</time></trkpt><trkpt lat="42.6170257" lon="13.711362"><ele>374.0</ele><time>2026-04-05T09:16:09.968Z</time></trkpt><trkpt lat="42.6170023" lon="13.7112534"><ele>375.66666666666663</ele><time>2026-04-05T09:16:11.969Z</time></trkpt><trkpt lat="42.6169792" lon="13.7111424"><ele>377.3333333333333</ele><time>2026-04-05T09:16:13.969Z</time></trkpt><trkpt lat="42.616962" lon="13.7110348"><ele>379.0</ele><time>2026-04-05T09:16:15.969Z</time></trkpt><trkpt lat="42.6169444" lon="13.7109315"><ele>376.00000000000006</ele><time>2026-04-05T09:16:17.969Z</time></trkpt><trkpt lat="42.6169273" lon="13.7108321"><ele>373.0</ele><time>2026-04-05T09:16:19.969Z</time></trkpt><trkpt lat="42.6169175" lon="13.7107317"><ele>370.0</ele><time>2026-04-05T09:16:21.97Z</time></trkpt><trkpt lat="42.616909" lon="13.7106336"><ele>367.0</ele><time>2026-04-05T09:16:23.968Z</time></trkpt><trkpt lat="42.6169069" lon="13.7105342"><ele>364.0</ele><time>2026-04-05T09:16:25.968Z</time></trkpt><trkpt lat="42.6169154" lon="13.7104332"><ele>361.00000000000006</ele><time>2026-04-05T09:16:27.968Z</time></trkpt><trkpt lat="42.6169246" lon="13.7103391"><ele>358.0</ele><time>2026-04-05T09:16:29.968Z</time></trkpt><trkpt lat="42.616936" lon="13.7102548"><ele>357.16666666666663</ele><time>2026-04-05T09:16:31.967Z</time></trkpt><trkpt lat="42.6169625" lon="13.7101416"><ele>356.3333333333333</ele><time>2026-04-05T09:16:34.968Z</time></trkpt><trkpt lat="42.6169983" lon="13.7100341"><ele>355.5</ele><time>2026-04-05T09:16:37.968Z</time></trkpt><trkpt lat="42.6170426" lon="13.7099313"><ele>354.6666666666667</ele><time>2026-04-05T09:16:40.968Z</time></trkpt><trkpt lat="42.6170851" lon="13.7098215"><ele>353.83333333333337</ele><time>2026-04-05T09:16:43.968Z</time></trkpt><trkpt lat="42.617124" lon="13.7097111"><ele>353.0</ele><time>2026-04-05T09:16:46.968Z</time></trkpt><trkpt lat="42.6171782" lon="13.7096109"><ele>357.5</ele><time>2026-04-05T09:16:49.967Z</time></trkpt><trkpt lat="42.6172317" lon="13.7095104"><ele>362.0</ele><time>2026-04-05T09:16:52.967Z</time></trkpt><trkpt lat="42.617275" lon="13.7094462"><ele>366.5</ele><time>2026-04-05T09:16:54.967Z</time></trkpt><trkpt lat="42.6173356" lon="13.7093773"><ele>371.0</ele><time>2026-04-05T09:16:56.967Z</time></trkpt><trkpt lat="42.6173979" lon="13.7093016"><ele>375.5</ele><time>2026-04-05T09:16:58.968Z</time></trkpt><trkpt lat="42.617463" lon="13.7092161"><ele>380.0</ele><time>2026-04-05T09:17:00.967Z</time></trkpt><trkpt lat="42.617511" lon="13.7091124"><ele>380.0</ele><time>2026-04-05T09:17:02.968Z</time></trkpt><trkpt lat="42.6175584" lon="13.7090077"><ele>380.0</ele><time>2026-04-05T09:17:04.968Z</time></trkpt><trkpt lat="42.6176328" lon="13.7089575"><ele>380.0</ele><time>2026-04-05T09:17:06.968Z</time></trkpt><trkpt lat="42.6176999" lon="13.708914"><ele>380.0</ele><time>2026-04-05T09:17:08.968Z</time></trkpt><trkpt lat="42.6177791" lon="13.7088983"><ele>380.0</ele><time>2026-04-05T09:17:10.967Z</time></trkpt><trkpt lat="42.6178664" lon="13.7088863"><ele>380.0</ele><time>2026-04-05T09:17:12.968Z</time></trkpt><trkpt lat="42.6179649" lon="13.7088564"><ele>379.5</ele><time>2026-04-05T09:17:14.967Z</time></trkpt><trkpt lat="42.6180751" lon="13.7088117"><ele>379.0</ele><time>2026-04-05T09:17:16.968Z</time></trkpt><trkpt lat="42.6181832" lon="13.7087467"><ele>378.5</ele><time>2026-04-05T09:17:18.968Z</time></trkpt><trkpt lat="42.6182774" lon="13.7086534"><ele>378.0</ele><time>2026-04-05T09:17:20.969Z</time></trkpt><trkpt lat="42.6183558" lon="13.7085437"><ele>379.0</ele><time>2026-04-05T09:17:22.969Z</time></trkpt><trkpt lat="42.6184177" lon="13.708419"><ele>380.0</ele><time>2026-04-05T09:17:24.969Z</time></trkpt><trkpt lat="42.6184238" lon="13.7083292"><ele>381.0</ele><time>2026-04-05T09:17:25.969Z</time></trkpt><trkpt lat="42.6184625" lon="13.7082602"><ele>382.0</ele><time>2026-04-05T09:17:26.969Z</time></trkpt><trkpt lat="42.6184915" lon="13.7081824"><ele>383.0</ele><time>2026-04-05T09:17:27.969Z</time></trkpt><trkpt lat="42.6185548" lon="13.7080427"><ele>384.0</ele><time>2026-04-05T09:17:29.968Z</time></trkpt><trkpt lat="42.6186006" lon="13.7079032"><ele>384.0</ele><time>2026-04-05T09:17:31.969Z</time></trkpt><trkpt lat="42.6186458" lon="13.7077648"><ele>384.0</ele><time>2026-04-05T09:17:33.967Z</time></trkpt><trkpt lat="42.6186817" lon="13.7076425"><ele>384.0</ele><time>2026-04-05T09:17:35.968Z</time></trkpt><trkpt lat="42.6187169" lon="13.7075341"><ele>384.0</ele><time>2026-04-05T09:17:37.968Z</time></trkpt><trkpt lat="42.6187533" lon="13.7074212"><ele>384.0</ele><time>2026-04-05T09:17:39.968Z</time></trkpt><trkpt lat="42.6187928" lon="13.707321"><ele>383.57142857142856</ele><time>2026-04-05T09:17:41.968Z</time></trkpt><trkpt lat="42.6188307" lon="13.707221"><ele>383.1428571428571</ele><time>2026-04-05T09:17:43.968Z</time></trkpt><trkpt lat="42.6188696" lon="13.7071268"><ele>382.71428571428567</ele><time>2026-04-05T09:17:45.969Z</time></trkpt><trkpt lat="42.6188984" lon="13.707039"><ele>382.2857142857143</ele><time>2026-04-05T09:17:47.968Z</time></trkpt><trkpt lat="42.618924" lon="13.7069497"><ele>381.8571428571429</ele><time>2026-04-05T09:17:49.967Z</time></trkpt><trkpt lat="42.6189449" lon="13.7068598"><ele>381.4285714285714</ele><time>2026-04-05T09:17:51.968Z</time></trkpt><trkpt lat="42.6189706" lon="13.7067747"><ele>381.0</ele><time>2026-04-05T09:17:53.967Z</time></trkpt><trkpt lat="42.6190046" lon="13.7066987"><ele>382.5</ele><time>2026-04-05T09:17:55.968Z</time></trkpt><trkpt lat="42.619033" lon="13.7066119"><ele>384.0</ele><time>2026-04-05T09:17:57.968Z</time></trkpt><trkpt lat="42.6190638" lon="13.7065318"><ele>385.5</ele><time>2026-04-05T09:17:59.968Z</time></trkpt><trkpt lat="42.6190977" lon="13.7064468"><ele>387.0</ele><time>2026-04-05T09:18:01.968Z</time></trkpt><trkpt lat="42.6191263" lon="13.7063642"><ele>388.5</ele><time>2026-04-05T09:18:03.968Z</time></trkpt><trkpt lat="42.6191655" lon="13.7062495"><ele>390.0</ele><time>2026-04-05T09:18:06.967Z</time></trkpt><trkpt lat="42.6191988" lon="13.7061403"><ele>391.3333333333333</ele><time>2026-04-05T09:18:09.968Z</time></trkpt><trkpt lat="42.6192227" lon="13.7060609"><ele>392.66666666666663</ele><time>2026-04-05T09:18:11.969Z</time></trkpt><trkpt lat="42.6192484" lon="13.7059765"><ele>394.0</ele><time>2026-04-05T09:18:13.969Z</time></trkpt><trkpt lat="42.6192937" lon="13.705868"><ele>395.3333333333333</ele><time>2026-04-05T09:18:16.968Z</time></trkpt><trkpt lat="42.6193243" lon="13.7057932"><ele>396.66666666666663</ele><time>2026-04-05T09:18:18.968Z</time></trkpt><trkpt lat="42.6193804" lon="13.705691"><ele>398.0</ele><time>2026-04-05T09:18:21.969Z</time></trkpt><trkpt lat="42.6194414" lon="13.7055926"><ele>397.16666666666663</ele><time>2026-04-05T09:18:24.967Z</time></trkpt><trkpt lat="42.6195127" lon="13.7055097"><ele>396.3333333333333</ele><time>2026-04-05T09:18:27.967Z</time></trkpt><trkpt lat="42.619591" lon="13.7054518"><ele>395.5</ele><time>2026-04-05T09:18:30.969Z</time></trkpt><trkpt lat="42.6196756" lon="13.7054168"><ele>394.66666666666663</ele><time>2026-04-05T09:18:33.967Z</time></trkpt><trkpt lat="42.6197673" lon="13.7053852"><ele>393.8333333333333</ele><time>2026-04-05T09:18:36.968Z</time></trkpt><trkpt lat="42.6198379" lon="13.7053545"><ele>393.0</ele><time>2026-04-05T09:18:38.967Z</time></trkpt><trkpt lat="42.6199101" lon="13.7053206"><ele>393.0</ele><time>2026-04-05T09:18:40.968Z</time></trkpt><trkpt lat="42.6199825" lon="13.7052859"><ele>393.0</ele><time>2026-04-05T09:18:42.967Z</time></trkpt><trkpt lat="42.6200531" lon="13.7052508"><ele>393.0</ele><time>2026-04-05T09:18:44.968Z</time></trkpt><trkpt lat="42.6201247" lon="13.7052139"><ele>393.0</ele><time>2026-04-05T09:18:46.968Z</time></trkpt><trkpt lat="42.6201889" lon="13.705158"><ele>393.0</ele><time>2026-04-05T09:18:48.969Z</time></trkpt><trkpt lat="42.6202537" lon="13.7050982"><ele>393.0</ele><time>2026-04-05T09:18:50.969Z</time></trkpt><trkpt lat="42.6203202" lon="13.7050249"><ele>394.1666666666667</ele><time>2026-04-05T09:18:52.968Z</time></trkpt><trkpt lat="42.6203981" lon="13.7049596"><ele>395.33333333333337</ele><time>2026-04-05T09:18:54.968Z</time></trkpt><trkpt lat="42.6204616" lon="13.7048779"><ele>396.5</ele><time>2026-04-05T09:18:56.968Z</time></trkpt><trkpt lat="42.6205137" lon="13.7047855"><ele>397.6666666666667</ele><time>2026-04-05T09:18:58.968Z</time></trkpt><trkpt lat="42.6205571" lon="13.7046885"><ele>398.83333333333337</ele><time>2026-04-05T09:19:00.967Z</time></trkpt><trkpt lat="42.6205887" lon="13.704593"><ele>400.0</ele><time>2026-04-05T09:19:02.967Z</time></trkpt><trkpt lat="42.620611" lon="13.7044955"><ele>400.7142857142857</ele><time>2026-04-05T09:19:04.966Z</time></trkpt><trkpt lat="42.6206224" lon="13.7043976"><ele>401.42857142857144</ele><time>2026-04-05T09:19:06.967Z</time></trkpt><trkpt lat="42.6206436" lon="13.7043064"><ele>402.1428571428571</ele><time>2026-04-05T09:19:08.968Z</time></trkpt><trkpt lat="42.6206671" lon="13.7042161"><ele>402.8571428571429</ele><time>2026-04-05T09:19:10.968Z</time></trkpt><trkpt lat="42.6206957" lon="13.704128"><ele>403.57142857142856</ele><time>2026-04-05T09:19:12.968Z</time></trkpt><trkpt lat="42.6207255" lon="13.7040449"><ele>404.2857142857143</ele><time>2026-04-05T09:19:14.967Z</time></trkpt><trkpt lat="42.6207597" lon="13.7039687"><ele>405.0</ele><time>2026-04-05T09:19:16.967Z</time></trkpt><trkpt lat="42.6208106" lon="13.7038637"><ele>405.0</ele><time>2026-04-05T09:19:19.967Z</time></trkpt><trkpt lat="42.6208524" lon="13.7037993"><ele>405.0</ele><time>2026-04-05T09:19:21.967Z</time></trkpt><trkpt lat="42.6209097" lon="13.7037056"><ele>405.0</ele><time>2026-04-05T09:19:24.967Z</time></trkpt><trkpt lat="42.620962" lon="13.7036082"><ele>405.0</ele><time>2026-04-05T09:19:27.967Z</time></trkpt><trkpt lat="42.6210232" lon="13.7035207"><ele>405.0</ele><time>2026-04-05T09:19:30.968Z</time></trkpt><trkpt lat="42.6210787" lon="13.7034231"><ele>405.0</ele><time>2026-04-05T09:19:33.967Z</time></trkpt><trkpt lat="42.6211313" lon="13.7033316"><ele>405.99999999999994</ele><time>2026-04-05T09:19:36.966Z</time></trkpt><trkpt lat="42.6211761" lon="13.7032687"><ele>407.0</ele><time>2026-04-05T09:19:40.968Z</time></trkpt><trkpt lat="42.6212252" lon="13.7031903"><ele>408.0</ele><time>2026-04-05T09:20:05.968Z</time></trkpt><trkpt lat="42.6212545" lon="13.7030985"><ele>409.0</ele><time>2026-04-05T09:20:08.967Z</time></trkpt><trkpt lat="42.6213006" lon="13.7030167"><ele>410.0</ele><time>2026-04-05T09:20:11.966Z</time></trkpt><trkpt lat="42.6213422" lon="13.7029281"><ele>410.99999999999994</ele><time>2026-04-05T09:20:14.967Z</time></trkpt><trkpt lat="42.6213885" lon="13.7028423"><ele>412.0</ele><time>2026-04-05T09:20:17.967Z</time></trkpt><trkpt lat="42.6214432" lon="13.7027952"><ele>411.99999999999994</ele><time>2026-04-05T09:20:19.967Z</time></trkpt><trkpt lat="42.6215103" lon="13.7027978"><ele>412.0</ele><time>2026-04-05T09:20:21.967Z</time></trkpt><trkpt lat="42.621573" lon="13.7028257"><ele>412.0</ele><time>2026-04-05T09:20:23.966Z</time></trkpt><trkpt lat="42.6216476" lon="13.7028141"><ele>412.0</ele><time>2026-04-05T09:20:25.967Z</time></trkpt><trkpt lat="42.6217244" lon="13.7027782"><ele>412.0</ele><time>2026-04-05T09:20:27.968Z</time></trkpt><trkpt lat="42.6218027" lon="13.7027128"><ele>411.99999999999994</ele><time>2026-04-05T09:20:29.968Z</time></trkpt><trkpt lat="42.6218547" lon="13.7026639"><ele>412.0</ele><time>2026-04-05T09:20:30.967Z</time></trkpt><trkpt lat="42.6219506" lon="13.7025628"><ele>414.83333333333337</ele><time>2026-04-05T09:20:32.967Z</time></trkpt><trkpt lat="42.6220338" lon="13.7024939"><ele>417.6666666666667</ele><time>2026-04-05T09:20:34.966Z</time></trkpt><trkpt lat="42.622122" lon="13.7024665"><ele>420.5</ele><time>2026-04-05T09:20:36.968Z</time></trkpt><trkpt lat="42.6222136" lon="13.7024566"><ele>423.33333333333337</ele><time>2026-04-05T09:20:38.967Z</time></trkpt><trkpt lat="42.6222907" lon="13.7024379"><ele>426.1666666666667</ele><time>2026-04-05T09:20:40.967Z</time></trkpt><trkpt lat="42.6223695" lon="13.7024295"><ele>429.0</ele><time>2026-04-05T09:20:42.968Z</time></trkpt><trkpt lat="42.6224438" lon="13.7024361"><ele>429.0</ele><time>2026-04-05T09:20:44.967Z</time></trkpt><trkpt lat="42.6225175" lon="13.702474"><ele>429.0</ele><time>2026-04-05T09:20:46.967Z</time></trkpt><trkpt lat="42.6225755" lon="13.7025401"><ele>429.0</ele><time>2026-04-05T09:20:48.966Z</time></trkpt><trkpt lat="42.6226102" lon="13.7026206"><ele>429.0</ele><time>2026-04-05T09:20:50.967Z</time></trkpt><trkpt lat="42.6226451" lon="13.7027355"><ele>429.0</ele><time>2026-04-05T09:20:53.966Z</time></trkpt><trkpt lat="42.6226903" lon="13.7028295"><ele>429.0</ele><time>2026-04-05T09:20:56.968Z</time></trkpt><trkpt lat="42.6227317" lon="13.702903"><ele>428.6666666666667</ele><time>2026-04-05T09:21:00.967Z</time></trkpt><trkpt lat="42.6227743" lon="13.7029713"><ele>428.33333333333337</ele><time>2026-04-05T09:21:11.968Z</time></trkpt><trkpt lat="42.6228174" lon="13.7030459"><ele>428.0</ele><time>2026-04-05T09:21:13.966Z</time></trkpt><trkpt lat="42.6228634" lon="13.7031366"><ele>427.6666666666667</ele><time>2026-04-05T09:21:15.966Z</time></trkpt><trkpt lat="42.6229247" lon="13.7032223"><ele>427.33333333333337</ele><time>2026-04-05T09:21:17.966Z</time></trkpt><trkpt lat="42.6229948" lon="13.703293"><ele>427.0</ele><time>2026-04-05T09:21:19.967Z</time></trkpt><trkpt lat="42.6230504" lon="13.7033692"><ele>427.00000000000006</ele><time>2026-04-05T09:21:21.966Z</time></trkpt><trkpt lat="42.6231015" lon="13.7034373"><ele>427.0</ele><time>2026-04-05T09:21:23.966Z</time></trkpt><trkpt lat="42.6231628" lon="13.7034942"><ele>427.0</ele><time>2026-04-05T09:21:25.968Z</time></trkpt><trkpt lat="42.6232481" lon="13.7035467"><ele>427.0</ele><time>2026-04-05T09:21:28.968Z</time></trkpt><trkpt lat="42.6233366" lon="13.7035757"><ele>427.00000000000006</ele><time>2026-04-05T09:21:31.968Z</time></trkpt><trkpt lat="42.6234228" lon="13.7035973"><ele>427.0</ele><time>2026-04-05T09:21:34.966Z</time></trkpt><trkpt lat="42.6235056" lon="13.7036091"><ele>428.83333333333337</ele><time>2026-04-05T09:21:37.966Z</time></trkpt><trkpt lat="42.6235835" lon="13.7035935"><ele>430.6666666666667</ele><time>2026-04-05T09:21:40.967Z</time></trkpt><trkpt lat="42.6236541" lon="13.7035491"><ele>432.5</ele><time>2026-04-05T09:21:43.966Z</time></trkpt><trkpt lat="42.6237333" lon="13.7035156"><ele>434.33333333333337</ele><time>2026-04-05T09:21:46.966Z</time></trkpt><trkpt lat="42.6238096" lon="13.7034716"><ele>436.1666666666667</ele><time>2026-04-05T09:21:49.966Z</time></trkpt><trkpt lat="42.6238853" lon="13.7034155"><ele>438.0</ele><time>2026-04-05T09:21:52.966Z</time></trkpt><trkpt lat="42.6239567" lon="13.7033569"><ele>438.0</ele><time>2026-04-05T09:21:55.966Z</time></trkpt><trkpt lat="42.6240255" lon="13.7032915"><ele>438.0</ele><time>2026-04-05T09:21:58.965Z</time></trkpt><trkpt lat="42.6241066" lon="13.7032976"><ele>438.0</ele><time>2026-04-05T09:22:01.966Z</time></trkpt><trkpt lat="42.6241904" lon="13.7033345"><ele>438.0</ele><time>2026-04-05T09:22:04.966Z</time></trkpt><trkpt lat="42.6242664" lon="13.7033689"><ele>438.0</ele><time>2026-04-05T09:22:07.967Z</time></trkpt><trkpt lat="42.6243431" lon="13.7033758"><ele>438.0</ele><time>2026-04-05T09:22:10.966Z</time></trkpt><trkpt lat="42.6244166" lon="13.7033436"><ele>438.42857142857144</ele><time>2026-04-05T09:22:13.965Z</time></trkpt><trkpt lat="42.6244985" lon="13.703306"><ele>438.85714285714283</ele><time>2026-04-05T09:22:16.966Z</time></trkpt><trkpt lat="42.6245759" lon="13.7033142"><ele>439.2857142857143</ele><time>2026-04-05T09:22:19.967Z</time></trkpt><trkpt lat="42.6246333" lon="13.7033708"><ele>439.7142857142857</ele><time>2026-04-05T09:22:22.966Z</time></trkpt><trkpt lat="42.6246912" lon="13.7034362"><ele>440.1428571428571</ele><time>2026-04-05T09:22:25.965Z</time></trkpt><trkpt lat="42.624736" lon="13.7034979"><ele>440.57142857142856</ele><time>2026-04-05T09:22:27.965Z</time></trkpt><trkpt lat="42.6247762" lon="13.7035674"><ele>441.0</ele><time>2026-04-05T09:22:29.966Z</time></trkpt><trkpt lat="42.6248359" lon="13.7036624"><ele>441.0</ele><time>2026-04-05T09:22:32.966Z</time></trkpt><trkpt lat="42.6248929" lon="13.703758"><ele>441.0</ele><time>2026-04-05T09:22:35.966Z</time></trkpt><trkpt lat="42.6249465" lon="13.7038501"><ele>441.0</ele><time>2026-04-05T09:22:38.965Z</time></trkpt><trkpt lat="42.6250019" lon="13.7039418"><ele>441.0</ele><time>2026-04-05T09:22:41.966Z</time></trkpt><trkpt lat="42.6250504" lon="13.704037"><ele>441.0</ele><time>2026-04-05T09:22:44.966Z</time></trkpt><trkpt lat="42.6250966" lon="13.7041346"><ele>441.0</ele><time>2026-04-05T09:22:48.967Z</time></trkpt><trkpt lat="42.6251424" lon="13.7042185"><ele>441.0</ele><time>2026-04-05T09:22:51.966Z</time></trkpt><trkpt lat="42.6251997" lon="13.7042956"><ele>441.0</ele><time>2026-04-05T09:22:54.967Z</time></trkpt><trkpt lat="42.6252578" lon="13.7043806"><ele>441.0</ele><time>2026-04-05T09:22:57.967Z</time></trkpt><trkpt lat="42.625323" lon="13.7044585"><ele>441.0</ele><time>2026-04-05T09:23:00.966Z</time></trkpt><trkpt lat="42.6253802" lon="13.7045428"><ele>441.0</ele><time>2026-04-05T09:23:03.965Z</time></trkpt><trkpt lat="42.6254404" lon="13.7046196"><ele>441.0</ele><time>2026-04-05T09:23:06.965Z</time></trkpt><trkpt lat="42.6254818" lon="13.7046841"><ele>443.0</ele><time>2026-04-05T09:23:08.966Z</time></trkpt><trkpt lat="42.625524" lon="13.7047488"><ele>445.0</ele><time>2026-04-05T09:23:10.966Z</time></trkpt><trkpt lat="42.6255824" lon="13.7048337"><ele>447.0</ele><time>2026-04-05T09:23:13.966Z</time></trkpt><trkpt lat="42.625645" lon="13.7049091"><ele>449.0</ele><time>2026-04-05T09:23:16.967Z</time></trkpt><trkpt lat="42.6257084" lon="13.704979"><ele>451.0</ele><time>2026-04-05T09:23:19.966Z</time></trkpt><trkpt lat="42.6257653" lon="13.7050429"><ele>453.0</ele><time>2026-04-05T09:23:22.966Z</time></trkpt><trkpt lat="42.6258216" lon="13.7051013"><ele>452.99999999999994</ele><time>2026-04-05T09:23:25.967Z</time></trkpt><trkpt lat="42.6258835" lon="13.7051519"><ele>453.0</ele><time>2026-04-05T09:23:28.966Z</time></trkpt><trkpt lat="42.6259497" lon="13.7051944"><ele>452.99999999999994</ele><time>2026-04-05T09:23:31.966Z</time></trkpt><trkpt lat="42.6260184" lon="13.7052284"><ele>452.99999999999994</ele><time>2026-04-05T09:23:34.966Z</time></trkpt><trkpt lat="42.6260889" lon="13.7052797"><ele>453.0</ele><time>2026-04-05T09:23:37.966Z</time></trkpt><trkpt lat="42.6261509" lon="13.7053369"><ele>452.99999999999994</ele><time>2026-04-05T09:23:40.966Z</time></trkpt><trkpt lat="42.6262118" lon="13.7053703"><ele>452.99999999999994</ele><time>2026-04-05T09:24:17.964Z</time></trkpt><trkpt lat="42.6262353" lon="13.7052796"><ele>452.99999999999994</ele><time>2026-04-05T09:24:22.965Z</time></trkpt><trkpt lat="42.6262107" lon="13.7051846"><ele>453.0</ele><time>2026-04-05T09:24:25.966Z</time></trkpt><trkpt lat="42.626192" lon="13.7050899"><ele>452.99999999999994</ele><time>2026-04-05T09:24:28.965Z</time></trkpt><trkpt lat="42.6261545" lon="13.7050103"><ele>452.99999999999994</ele><time>2026-04-05T09:24:31.965Z</time></trkpt><trkpt lat="42.6261134" lon="13.704936"><ele>453.0</ele><time>2026-04-05T09:24:34.965Z</time></trkpt><trkpt lat="42.6260672" lon="13.7048508"><ele>452.99999999999994</ele><time>2026-04-05T09:24:37.966Z</time></trkpt><trkpt lat="42.6260104" lon="13.7047797"><ele>452.99999999999994</ele><time>2026-04-05T09:24:40.966Z</time></trkpt><trkpt lat="42.6259487" lon="13.704715"><ele>453.0</ele><time>2026-04-05T09:24:43.966Z</time></trkpt><trkpt lat="42.6259078" lon="13.7046183"><ele>453.0</ele><time>2026-04-05T09:24:46.965Z</time></trkpt><trkpt lat="42.6258745" lon="13.7045018"><ele>453.0</ele><time>2026-04-05T09:24:49.965Z</time></trkpt><trkpt lat="42.6258526" lon="13.7044147"><ele>453.0</ele><time>2026-04-05T09:24:51.965Z</time></trkpt><trkpt lat="42.6258411" lon="13.704289"><ele>453.0</ele><time>2026-04-05T09:24:54.965Z</time></trkpt><trkpt lat="42.6258397" lon="13.7041614"><ele>453.0</ele><time>2026-04-05T09:24:57.966Z</time></trkpt><trkpt lat="42.6258396" lon="13.7040378"><ele>455.2</ele><time>2026-04-05T09:25:00.966Z</time></trkpt><trkpt lat="42.6258468" lon="13.7039144"><ele>457.4</ele><time>2026-04-05T09:25:03.965Z</time></trkpt><trkpt lat="42.6258486" lon="13.7037892"><ele>459.59999999999997</ele><time>2026-04-05T09:25:06.966Z</time></trkpt><trkpt lat="42.6258361" lon="13.7036635"><ele>461.79999999999995</ele><time>2026-04-05T09:25:09.965Z</time></trkpt><trkpt lat="42.6258154" lon="13.7035407"><ele>464.0</ele><time>2026-04-05T09:25:12.964Z</time></trkpt><trkpt lat="42.6257957" lon="13.7034173"><ele>465.16666666666663</ele><time>2026-04-05T09:25:15.965Z</time></trkpt><trkpt lat="42.6257787" lon="13.703292"><ele>466.3333333333333</ele><time>2026-04-05T09:25:18.965Z</time></trkpt><trkpt lat="42.62574" lon="13.703172"><ele>467.5</ele><time>2026-04-05T09:25:21.965Z</time></trkpt><trkpt lat="42.6257197" lon="13.7030757"><ele>468.66666666666663</ele><time>2026-04-05T09:25:23.966Z</time></trkpt><trkpt lat="42.625698" lon="13.7029741"><ele>469.8333333333333</ele><time>2026-04-05T09:25:25.965Z</time></trkpt><trkpt lat="42.6256718" lon="13.702868"><ele>471.0</ele><time>2026-04-05T09:25:27.964Z</time></trkpt><trkpt lat="42.6256437" lon="13.7027649"><ele>471.6666666666667</ele><time>2026-04-05T09:25:29.964Z</time></trkpt><trkpt lat="42.6256091" lon="13.7026643"><ele>472.33333333333337</ele><time>2026-04-05T09:25:31.964Z</time></trkpt><trkpt lat="42.6255754" lon="13.7025656"><ele>473.0</ele><time>2026-04-05T09:25:33.966Z</time></trkpt><trkpt lat="42.6255462" lon="13.702465"><ele>473.6666666666667</ele><time>2026-04-05T09:25:35.965Z</time></trkpt><trkpt lat="42.6255171" lon="13.7023676"><ele>474.33333333333337</ele><time>2026-04-05T09:25:37.966Z</time></trkpt><trkpt lat="42.6254974" lon="13.7022675"><ele>475.0</ele><time>2026-04-05T09:25:39.965Z</time></trkpt><trkpt lat="42.6255106" lon="13.7021742"><ele>475.00000000000006</ele><time>2026-04-05T09:25:41.966Z</time></trkpt><trkpt lat="42.6255687" lon="13.7021266"><ele>475.0</ele><time>2026-04-05T09:25:43.965Z</time></trkpt><trkpt lat="42.6256427" lon="13.7021084"><ele>475.0</ele><time>2026-04-05T09:25:45.965Z</time></trkpt><trkpt lat="42.6257139" lon="13.7020759"><ele>475.0</ele><time>2026-04-05T09:25:47.966Z</time></trkpt><trkpt lat="42.6257853" lon="13.7020279"><ele>475.00000000000006</ele><time>2026-04-05T09:25:49.965Z</time></trkpt><trkpt lat="42.6258438" lon="13.7019526"><ele>475.0</ele><time>2026-04-05T09:25:51.964Z</time></trkpt><trkpt lat="42.6258962" lon="13.7018681"><ele>475.83333333333337</ele><time>2026-04-05T09:25:53.965Z</time></trkpt><trkpt lat="42.6259324" lon="13.7017704"><ele>476.6666666666667</ele><time>2026-04-05T09:25:55.966Z</time></trkpt><trkpt lat="42.6259586" lon="13.7016605"><ele>477.5</ele><time>2026-04-05T09:25:57.965Z</time></trkpt><trkpt lat="42.6259798" lon="13.7015493"><ele>478.33333333333337</ele><time>2026-04-05T09:25:59.964Z</time></trkpt><trkpt lat="42.6259919" lon="13.7014391"><ele>479.1666666666667</ele><time>2026-04-05T09:26:01.965Z</time></trkpt><trkpt lat="42.6260099" lon="13.7013319"><ele>480.0</ele><time>2026-04-05T09:26:03.966Z</time></trkpt><trkpt lat="42.6260281" lon="13.7012219"><ele>480.0</ele><time>2026-04-05T09:26:05.965Z</time></trkpt><trkpt lat="42.6260439" lon="13.7011106"><ele>480.0</ele><time>2026-04-05T09:26:07.966Z</time></trkpt><trkpt lat="42.6260556" lon="13.7010008"><ele>480.0</ele><time>2026-04-05T09:26:09.964Z</time></trkpt><trkpt lat="42.6260746" lon="13.7008927"><ele>480.0</ele><time>2026-04-05T09:26:11.966Z</time></trkpt><trkpt lat="42.6260892" lon="13.7007884"><ele>480.0</ele><time>2026-04-05T09:26:13.965Z</time></trkpt><trkpt lat="42.6261013" lon="13.7006915"><ele>480.0</ele><time>2026-04-05T09:26:15.965Z</time></trkpt><trkpt lat="42.6261147" lon="13.7005975"><ele>480.28571428571433</ele><time>2026-04-05T09:26:17.966Z</time></trkpt><trkpt lat="42.6261267" lon="13.7005038"><ele>480.57142857142856</ele><time>2026-04-05T09:26:19.965Z</time></trkpt><trkpt lat="42.6261438" lon="13.7004151"><ele>480.8571428571429</ele><time>2026-04-05T09:26:21.965Z</time></trkpt><trkpt lat="42.6261661" lon="13.700292"><ele>481.14285714285717</ele><time>2026-04-05T09:26:24.965Z</time></trkpt><trkpt lat="42.6261816" lon="13.7002065"><ele>481.42857142857144</ele><time>2026-04-05T09:26:26.965Z</time></trkpt><trkpt lat="42.626198" lon="13.700119"><ele>481.7142857142857</ele><time>2026-04-05T09:26:28.965Z</time></trkpt><trkpt lat="42.6262133" lon="13.7000317"><ele>482.0</ele><time>2026-04-05T09:26:30.963Z</time></trkpt><trkpt lat="42.6262327" lon="13.6999491"><ele>481.99999999999994</ele><time>2026-04-05T09:26:32.964Z</time></trkpt><trkpt lat="42.6262558" lon="13.6998665"><ele>482.0</ele><time>2026-04-05T09:26:34.964Z</time></trkpt><trkpt lat="42.6262851" lon="13.699789"><ele>482.0</ele><time>2026-04-05T09:26:36.964Z</time></trkpt><trkpt lat="42.6263413" lon="13.6996918"><ele>482.0</ele><time>2026-04-05T09:26:39.965Z</time></trkpt><trkpt lat="42.6264008" lon="13.6995988"><ele>481.99999999999994</ele><time>2026-04-05T09:26:42.965Z</time></trkpt><trkpt lat="42.6264662" lon="13.6995154"><ele>482.0</ele><time>2026-04-05T09:26:45.963Z</time></trkpt><trkpt lat="42.6265407" lon="13.699437"><ele>484.16666666666663</ele><time>2026-04-05T09:26:48.964Z</time></trkpt><trkpt lat="42.6266083" lon="13.69935"><ele>486.3333333333333</ele><time>2026-04-05T09:26:51.965Z</time></trkpt><trkpt lat="42.6266439" lon="13.6992792"><ele>488.5</ele><time>2026-04-05T09:26:53.964Z</time></trkpt><trkpt lat="42.6266913" lon="13.6992128"><ele>490.66666666666663</ele><time>2026-04-05T09:26:55.964Z</time></trkpt><trkpt lat="42.6267491" lon="13.6991494"><ele>492.8333333333333</ele><time>2026-04-05T09:26:57.965Z</time></trkpt><trkpt lat="42.6268111" lon="13.6990775"><ele>495.0</ele><time>2026-04-05T09:26:59.963Z</time></trkpt><trkpt lat="42.6268779" lon="13.6990082"><ele>495.0</ele><time>2026-04-05T09:27:01.964Z</time></trkpt><trkpt lat="42.6269423" lon="13.6989353"><ele>495.0</ele><time>2026-04-05T09:27:03.964Z</time></trkpt><trkpt lat="42.6270135" lon="13.6988728"><ele>495.0</ele><time>2026-04-05T09:27:05.963Z</time></trkpt><trkpt lat="42.6270883" lon="13.6988107"><ele>495.0</ele><time>2026-04-05T09:27:07.964Z</time></trkpt><trkpt lat="42.6271653" lon="13.6987526"><ele>495.0</ele><time>2026-04-05T09:27:09.964Z</time></trkpt><trkpt lat="42.6272424" lon="13.6987046"><ele>495.0</ele><time>2026-04-05T09:27:11.964Z</time></trkpt><trkpt lat="42.6273212" lon="13.6986688"><ele>494.4</ele><time>2026-04-05T09:27:13.965Z</time></trkpt><trkpt lat="42.627405" lon="13.698638"><ele>493.8</ele><time>2026-04-05T09:27:15.964Z</time></trkpt><trkpt lat="42.6275004" lon="13.6986187"><ele>493.20000000000005</ele><time>2026-04-05T09:27:17.964Z</time></trkpt><trkpt lat="42.6275999" lon="13.6986277"><ele>492.6</ele><time>2026-04-05T09:27:19.965Z</time></trkpt><trkpt lat="42.6276962" lon="13.6986455"><ele>492.0</ele><time>2026-04-05T09:27:21.964Z</time></trkpt><trkpt lat="42.627789" lon="13.6986847"><ele>491.1666666666667</ele><time>2026-04-05T09:27:23.964Z</time></trkpt><trkpt lat="42.6278741" lon="13.6987169"><ele>490.33333333333337</ele><time>2026-04-05T09:27:25.964Z</time></trkpt><trkpt lat="42.6279583" lon="13.6987206"><ele>489.5</ele><time>2026-04-05T09:27:27.965Z</time></trkpt><trkpt lat="42.6280365" lon="13.6987062"><ele>488.6666666666667</ele><time>2026-04-05T09:27:29.963Z</time></trkpt><trkpt lat="42.62811" lon="13.6986511"><ele>487.83333333333337</ele><time>2026-04-05T09:27:31.964Z</time></trkpt><trkpt lat="42.6281714" lon="13.6985647"><ele>487.0</ele><time>2026-04-05T09:27:33.964Z</time></trkpt><trkpt lat="42.6282189" lon="13.6984725"><ele>488.42857142857144</ele><time>2026-04-05T09:27:35.965Z</time></trkpt><trkpt lat="42.6282655" lon="13.6983872"><ele>489.85714285714283</ele><time>2026-04-05T09:27:37.963Z</time></trkpt><trkpt lat="42.6283032" lon="13.6982917"><ele>491.2857142857143</ele><time>2026-04-05T09:27:39.965Z</time></trkpt><trkpt lat="42.6283245" lon="13.6982022"><ele>492.7142857142857</ele><time>2026-04-05T09:27:41.964Z</time></trkpt><trkpt lat="42.6283284" lon="13.6981052"><ele>494.1428571428571</ele><time>2026-04-05T09:27:43.964Z</time></trkpt><trkpt lat="42.6283197" lon="13.6980199"><ele>495.57142857142856</ele><time>2026-04-05T09:27:45.964Z</time></trkpt><trkpt lat="42.6282944" lon="13.6979397"><ele>497.0</ele><time>2026-04-05T09:27:47.964Z</time></trkpt><trkpt lat="42.628269" lon="13.6978591"><ele>497.16666666666663</ele><time>2026-04-05T09:27:49.964Z</time></trkpt><trkpt lat="42.6282382" lon="13.6977483"><ele>497.3333333333333</ele><time>2026-04-05T09:27:52.964Z</time></trkpt><trkpt lat="42.6282057" lon="13.6976304"><ele>497.5</ele><time>2026-04-05T09:27:55.963Z</time></trkpt><trkpt lat="42.6281808" lon="13.6975149"><ele>497.66666666666663</ele><time>2026-04-05T09:27:58.963Z</time></trkpt><trkpt lat="42.6281741" lon="13.6974023"><ele>497.8333333333333</ele><time>2026-04-05T09:28:01.963Z</time></trkpt><trkpt lat="42.628181" lon="13.6972921"><ele>498.0</ele><time>2026-04-05T09:28:04.963Z</time></trkpt><trkpt lat="42.6281876" lon="13.6971891"><ele>498.0</ele><time>2026-04-05T09:28:07.964Z</time></trkpt><trkpt lat="42.6282032" lon="13.6970861"><ele>497.99999999999994</ele><time>2026-04-05T09:28:10.965Z</time></trkpt><trkpt lat="42.6282082" lon="13.6969816"><ele>498.0</ele><time>2026-04-05T09:28:13.964Z</time></trkpt><trkpt lat="42.6281675" lon="13.6968977"><ele>498.0</ele><time>2026-04-05T09:28:16.964Z</time></trkpt><trkpt lat="42.6281028" lon="13.6968992"><ele>497.99999999999994</ele><time>2026-04-05T09:28:20.965Z</time></trkpt><trkpt lat="42.6280665" lon="13.6969853"><ele>498.0</ele><time>2026-04-05T09:28:29.963Z</time></trkpt><trkpt lat="42.627999" lon="13.6970429"><ele>498.0</ele><time>2026-04-05T09:28:32.965Z</time></trkpt><trkpt lat="42.6279342" lon="13.6971031"><ele>498.0</ele><time>2026-04-05T09:28:35.964Z</time></trkpt><trkpt lat="42.6278733" lon="13.6971679"><ele>497.99999999999994</ele><time>2026-04-05T09:28:38.965Z</time></trkpt><trkpt lat="42.627818" lon="13.6972258"><ele>498.0</ele><time>2026-04-05T09:28:41.965Z</time></trkpt><trkpt lat="42.6277577" lon="13.6972816"><ele>498.0</ele><time>2026-04-05T09:28:45.964Z</time></trkpt><trkpt lat="42.6276901" lon="13.6973115"><ele>497.99999999999994</ele><time>2026-04-05T09:28:49.964Z</time></trkpt><trkpt lat="42.6276114" lon="13.6973182"><ele>498.0</ele><time>2026-04-05T09:28:53.964Z</time></trkpt><trkpt lat="42.627555" lon="13.6972525"><ele>498.0</ele><time>2026-04-05T09:28:57.963Z</time></trkpt><trkpt lat="42.6275433" lon="13.6971418"><ele>500.0</ele><time>2026-04-05T09:29:01.962Z</time></trkpt><trkpt lat="42.6275512" lon="13.6970466"><ele>501.99999999999994</ele><time>2026-04-05T09:29:04.964Z</time></trkpt><trkpt lat="42.6275557" lon="13.6969509"><ele>504.0</ele><time>2026-04-05T09:29:07.964Z</time></trkpt><trkpt lat="42.6275691" lon="13.6968551"><ele>506.0</ele><time>2026-04-05T09:29:10.963Z</time></trkpt><trkpt lat="42.6275797" lon="13.6967555"><ele>507.99999999999994</ele><time>2026-04-05T09:29:13.964Z</time></trkpt><trkpt lat="42.6275907" lon="13.6966323"><ele>510.0</ele><time>2026-04-05T09:29:16.963Z</time></trkpt><trkpt lat="42.6275958" lon="13.6965396"><ele>512.0</ele><time>2026-04-05T09:29:18.962Z</time></trkpt><trkpt lat="42.6276091" lon="13.6964483"><ele>513.0</ele><time>2026-04-05T09:29:20.962Z</time></trkpt><trkpt lat="42.6276147" lon="13.696355"><ele>514.0</ele><time>2026-04-05T09:29:22.964Z</time></trkpt><trkpt lat="42.6276175" lon="13.6962597"><ele>515.0</ele><time>2026-04-05T09:29:24.963Z</time></trkpt><trkpt lat="42.6276144" lon="13.6961613"><ele>516.0</ele><time>2026-04-05T09:29:26.964Z</time></trkpt><trkpt lat="42.6276218" lon="13.6960703"><ele>517.0</ele><time>2026-04-05T09:29:28.964Z</time></trkpt><trkpt lat="42.6276328" lon="13.6959815"><ele>518.0</ele><time>2026-04-05T09:29:30.963Z</time></trkpt><trkpt lat="42.6276459" lon="13.6958922"><ele>519.0</ele><time>2026-04-05T09:29:32.963Z</time></trkpt><trkpt lat="42.6276585" lon="13.6958062"><ele>519.8571428571429</ele><time>2026-04-05T09:29:34.963Z</time></trkpt><trkpt lat="42.6276712" lon="13.6956806"><ele>520.7142857142857</ele><time>2026-04-05T09:29:37.964Z</time></trkpt><trkpt lat="42.6276944" lon="13.6955563"><ele>521.5714285714286</ele><time>2026-04-05T09:29:40.964Z</time></trkpt><trkpt lat="42.6277125" lon="13.6954739"><ele>522.4285714285714</ele><time>2026-04-05T09:29:42.963Z</time></trkpt><trkpt lat="42.6277334" lon="13.6953907"><ele>523.2857142857142</ele><time>2026-04-05T09:29:44.964Z</time></trkpt><trkpt lat="42.627756" lon="13.6953093"><ele>524.1428571428571</ele><time>2026-04-05T09:29:46.962Z</time></trkpt><trkpt lat="42.6277785" lon="13.6952262"><ele>525.0</ele><time>2026-04-05T09:29:48.963Z</time></trkpt><trkpt lat="42.6278059" lon="13.6951344"><ele>526.5</ele><time>2026-04-05T09:29:50.963Z</time></trkpt><trkpt lat="42.627833" lon="13.6950533"><ele>528.0</ele><time>2026-04-05T09:29:52.963Z</time></trkpt><trkpt lat="42.6278628" lon="13.6949345"><ele>529.5</ele><time>2026-04-05T09:29:55.964Z</time></trkpt><trkpt lat="42.627911" lon="13.6948463"><ele>531.0</ele><time>2026-04-05T09:29:58.964Z</time></trkpt><trkpt lat="42.6279684" lon="13.694774"><ele>532.5</ele><time>2026-04-05T09:30:01.963Z</time></trkpt><trkpt lat="42.6280192" lon="13.6947011"><ele>534.0</ele><time>2026-04-05T09:30:04.963Z</time></trkpt><trkpt lat="42.6280643" lon="13.6946322"><ele>534.0</ele><time>2026-04-05T09:30:07.963Z</time></trkpt><trkpt lat="42.6281035" lon="13.6945512"><ele>534.0</ele><time>2026-04-05T09:30:10.964Z</time></trkpt><trkpt lat="42.6281428" lon="13.6944683"><ele>534.0</ele><time>2026-04-05T09:30:13.964Z</time></trkpt><trkpt lat="42.6281725" lon="13.6943751"><ele>534.0</ele><time>2026-04-05T09:30:16.963Z</time></trkpt><trkpt lat="42.6282198" lon="13.6942842"><ele>534.0</ele><time>2026-04-05T09:30:19.963Z</time></trkpt><trkpt lat="42.628263" lon="13.694188"><ele>534.0</ele><time>2026-04-05T09:30:22.964Z</time></trkpt><trkpt lat="42.6283273" lon="13.6941058"><ele>536.1666666666666</ele><time>2026-04-05T09:30:25.963Z</time></trkpt><trkpt lat="42.6283839" lon="13.6940261"><ele>538.3333333333334</ele><time>2026-04-05T09:30:28.963Z</time></trkpt><trkpt lat="42.6284277" lon="13.6939312"><ele>540.5</ele><time>2026-04-05T09:30:31.964Z</time></trkpt><trkpt lat="42.6284419" lon="13.6938267"><ele>542.6666666666667</ele><time>2026-04-05T09:30:34.963Z</time></trkpt><trkpt lat="42.6284468" lon="13.6937085"><ele>544.8333333333334</ele><time>2026-04-05T09:30:37.963Z</time></trkpt><trkpt lat="42.628462" lon="13.6935846"><ele>547.0</ele><time>2026-04-05T09:30:40.963Z</time></trkpt><trkpt lat="42.6284748" lon="13.6934691"><ele>549.0</ele><time>2026-04-05T09:30:43.963Z</time></trkpt><trkpt lat="42.6285015" lon="13.6933599"><ele>551.0</ele><time>2026-04-05T09:30:46.964Z</time></trkpt><trkpt lat="42.6285185" lon="13.6932358"><ele>553.0</ele><time>2026-04-05T09:30:49.962Z</time></trkpt><trkpt lat="42.6285344" lon="13.6931106"><ele>555.0</ele><time>2026-04-05T09:30:52.964Z</time></trkpt><trkpt lat="42.6285417" lon="13.6929858"><ele>557.0</ele><time>2026-04-05T09:30:55.963Z</time></trkpt><trkpt lat="42.6285406" lon="13.6928971"><ele>559.0</ele><time>2026-04-05T09:30:57.962Z</time></trkpt><trkpt lat="42.6285406" lon="13.6927995"><ele>560.6666666666667</ele><time>2026-04-05T09:30:59.963Z</time></trkpt><trkpt lat="42.6285369" lon="13.6926983"><ele>562.3333333333334</ele><time>2026-04-05T09:31:01.962Z</time></trkpt><trkpt lat="42.6285405" lon="13.6925919"><ele>564.0</ele><time>2026-04-05T09:31:03.962Z</time></trkpt><trkpt lat="42.6285557" lon="13.6924874"><ele>565.6666666666666</ele><time>2026-04-05T09:31:05.964Z</time></trkpt><trkpt lat="42.628583" lon="13.6923892"><ele>567.3333333333333</ele><time>2026-04-05T09:31:07.962Z</time></trkpt><trkpt lat="42.628606" lon="13.6922894"><ele>569.0</ele><time>2026-04-05T09:31:09.962Z</time></trkpt><trkpt lat="42.6286284" lon="13.692188"><ele>568.5</ele><time>2026-04-05T09:31:11.963Z</time></trkpt><trkpt lat="42.6286537" lon="13.6920902"><ele>568.0</ele><time>2026-04-05T09:31:13.963Z</time></trkpt><trkpt lat="42.6286846" lon="13.6919908"><ele>567.5</ele><time>2026-04-05T09:31:15.963Z</time></trkpt><trkpt lat="42.6287087" lon="13.6918897"><ele>567.0</ele><time>2026-04-05T09:31:17.962Z</time></trkpt><trkpt lat="42.6287307" lon="13.6917909"><ele>566.5</ele><time>2026-04-05T09:31:19.962Z</time></trkpt><trkpt lat="42.6287526" lon="13.6916944"><ele>566.0</ele><time>2026-04-05T09:31:21.963Z</time></trkpt><trkpt lat="42.6287813" lon="13.6916016"><ele>566.0</ele><time>2026-04-05T09:31:23.961Z</time></trkpt><trkpt lat="42.6288101" lon="13.691513"><ele>566.0</ele><time>2026-04-05T09:31:25.963Z</time></trkpt><trkpt lat="42.6288321" lon="13.6914177"><ele>566.0</ele><time>2026-04-05T09:31:27.962Z</time></trkpt><trkpt lat="42.6288398" lon="13.6913279"><ele>566.0</ele><time>2026-04-05T09:31:29.962Z</time></trkpt><trkpt lat="42.6288508" lon="13.6912112"><ele>566.0</ele><time>2026-04-05T09:31:32.962Z</time></trkpt><trkpt lat="42.6288821" lon="13.6910919"><ele>566.0</ele><time>2026-04-05T09:31:35.961Z</time></trkpt><trkpt lat="42.6289283" lon="13.6910017"><ele>566.6666666666666</ele><time>2026-04-05T09:31:38.961Z</time></trkpt><trkpt lat="42.6290073" lon="13.6909408"><ele>567.3333333333333</ele><time>2026-04-05T09:31:41.962Z</time></trkpt><trkpt lat="42.6290746" lon="13.690913"><ele>568.0</ele><time>2026-04-05T09:31:43.961Z</time></trkpt><trkpt lat="42.629154" lon="13.690912"><ele>568.6666666666666</ele><time>2026-04-05T09:31:45.961Z</time></trkpt><trkpt lat="42.6292399" lon="13.6909129"><ele>569.3333333333334</ele><time>2026-04-05T09:31:47.963Z</time></trkpt><trkpt lat="42.6293286" lon="13.6909128"><ele>570.0</ele><time>2026-04-05T09:31:49.962Z</time></trkpt><trkpt lat="42.6294199" lon="13.6909049"><ele>570.8</ele><time>2026-04-05T09:31:51.963Z</time></trkpt><trkpt lat="42.6295127" lon="13.6909176"><ele>571.6</ele><time>2026-04-05T09:31:53.961Z</time></trkpt><trkpt lat="42.62961" lon="13.6909512"><ele>572.4</ele><time>2026-04-05T09:31:55.962Z</time></trkpt><trkpt lat="42.6297069" lon="13.6909707"><ele>573.2</ele><time>2026-04-05T09:31:57.962Z</time></trkpt><trkpt lat="42.6297973" lon="13.6909809"><ele>574.0</ele><time>2026-04-05T09:31:59.963Z</time></trkpt><trkpt lat="42.6298821" lon="13.6909834"><ele>574.0</ele><time>2026-04-05T09:32:01.963Z</time></trkpt><trkpt lat="42.6299669" lon="13.6909904"><ele>574.0</ele><time>2026-04-05T09:32:03.962Z</time></trkpt><trkpt lat="42.630053" lon="13.6909803"><ele>574.0</ele><time>2026-04-05T09:32:05.963Z</time></trkpt><trkpt lat="42.6301365" lon="13.6909661"><ele>574.0</ele><time>2026-04-05T09:32:07.962Z</time></trkpt><trkpt lat="42.6302181" lon="13.690942"><ele>574.0</ele><time>2026-04-05T09:32:09.962Z</time></trkpt><trkpt lat="42.6302992" lon="13.6909181"><ele>574.0</ele><time>2026-04-05T09:32:11.962Z</time></trkpt><trkpt lat="42.6303812" lon="13.6908965"><ele>575.0</ele><time>2026-04-05T09:32:13.963Z</time></trkpt><trkpt lat="42.6304599" lon="13.6908727"><ele>576.0</ele><time>2026-04-05T09:32:15.963Z</time></trkpt><trkpt lat="42.6305496" lon="13.6908526"><ele>577.0</ele><time>2026-04-05T09:32:17.963Z</time></trkpt><trkpt lat="42.6306327" lon="13.6908334"><ele>578.0</ele><time>2026-04-05T09:32:19.963Z</time></trkpt><trkpt lat="42.6307206" lon="13.6908349"><ele>579.0</ele><time>2026-04-05T09:32:21.963Z</time></trkpt><trkpt lat="42.6308148" lon="13.69084"><ele>580.0</ele><time>2026-04-05T09:32:23.962Z</time></trkpt><trkpt lat="42.6309103" lon="13.6908249"><ele>580.0</ele><time>2026-04-05T09:32:25.962Z</time></trkpt><trkpt lat="42.6310125" lon="13.6908102"><ele>580.0</ele><time>2026-04-05T09:32:27.962Z</time></trkpt><trkpt lat="42.6311178" lon="13.6908059"><ele>580.0</ele><time>2026-04-05T09:32:29.962Z</time></trkpt><trkpt lat="42.6312339" lon="13.6908042"><ele>580.0</ele><time>2026-04-05T09:32:31.962Z</time></trkpt><trkpt lat="42.6313586" lon="13.6907969"><ele>580.0</ele><time>2026-04-05T09:32:33.962Z</time></trkpt><trkpt lat="42.6314909" lon="13.6907931"><ele>579.0</ele><time>2026-04-05T09:32:35.962Z</time></trkpt><trkpt lat="42.631557" lon="13.690799"><ele>578.0</ele><time>2026-04-05T09:32:36.963Z</time></trkpt><trkpt lat="42.631624" lon="13.6907949"><ele>577.0</ele><time>2026-04-05T09:32:37.962Z</time></trkpt><trkpt lat="42.6316879" lon="13.6907974"><ele>576.0</ele><time>2026-04-05T09:32:38.962Z</time></trkpt><trkpt lat="42.6318113" lon="13.690798"><ele>575.0</ele><time>2026-04-05T09:32:40.962Z</time></trkpt><trkpt lat="42.6319288" lon="13.6908216"><ele>574.0</ele><time>2026-04-05T09:32:42.963Z</time></trkpt><trkpt lat="42.6319893" lon="13.6908454"><ele>574.0</ele><time>2026-04-05T09:32:43.963Z</time></trkpt><trkpt lat="42.6321043" lon="13.6909048"><ele>574.0</ele><time>2026-04-05T09:32:45.962Z</time></trkpt><trkpt lat="42.6322264" lon="13.6909474"><ele>574.0</ele><time>2026-04-05T09:32:47.962Z</time></trkpt><trkpt lat="42.6322879" lon="13.6909727"><ele>574.0</ele><time>2026-04-05T09:32:48.963Z</time></trkpt><trkpt lat="42.6323524" lon="13.6909903"><ele>574.0</ele><time>2026-04-05T09:32:49.963Z</time></trkpt><trkpt lat="42.6324152" lon="13.6910039"><ele>574.0</ele><time>2026-04-05T09:32:50.962Z</time></trkpt><trkpt lat="42.6324785" lon="13.6910196"><ele>574.0</ele><time>2026-04-05T09:32:51.962Z</time></trkpt><trkpt lat="42.6325413" lon="13.6910325"><ele>574.0</ele><time>2026-04-05T09:32:52.961Z</time></trkpt><trkpt lat="42.6326049" lon="13.6910355"><ele>574.0</ele><time>2026-04-05T09:32:53.961Z</time></trkpt><trkpt lat="42.6327268" lon="13.6910455"><ele>574.0</ele><time>2026-04-05T09:32:55.961Z</time></trkpt><trkpt lat="42.6328469" lon="13.6910563"><ele>574.0</ele><time>2026-04-05T09:32:57.961Z</time></trkpt><trkpt lat="42.6329702" lon="13.6910785"><ele>573.6</ele><time>2026-04-05T09:32:59.962Z</time></trkpt><trkpt lat="42.6330905" lon="13.6910871"><ele>573.2</ele><time>2026-04-05T09:33:01.963Z</time></trkpt><trkpt lat="42.6332022" lon="13.6911003"><ele>572.8000000000001</ele><time>2026-04-05T09:33:03.962Z</time></trkpt><trkpt lat="42.6333024" lon="13.6911016"><ele>572.4</ele><time>2026-04-05T09:33:05.962Z</time></trkpt><trkpt lat="42.6333829" lon="13.691102"><ele>572.0</ele><time>2026-04-05T09:33:07.961Z</time></trkpt><trkpt lat="42.6334672" lon="13.6911003"><ele>572.0</ele><time>2026-04-05T09:33:09.962Z</time></trkpt><trkpt lat="42.6335599" lon="13.6910845"><ele>572.0</ele><time>2026-04-05T09:33:11.962Z</time></trkpt><trkpt lat="42.633643" lon="13.6910833"><ele>572.0</ele><time>2026-04-05T09:33:13.962Z</time></trkpt><trkpt lat="42.6337277" lon="13.6910807"><ele>572.0</ele><time>2026-04-05T09:33:15.962Z</time></trkpt><trkpt lat="42.6338224" lon="13.6910778"><ele>572.0</ele><time>2026-04-05T09:33:17.962Z</time></trkpt><trkpt lat="42.6339358" lon="13.6910728"><ele>571.5</ele><time>2026-04-05T09:33:19.963Z</time></trkpt><trkpt lat="42.6340589" lon="13.6910661"><ele>571.0</ele><time>2026-04-05T09:33:21.963Z</time></trkpt><trkpt lat="42.6341277" lon="13.6910704"><ele>570.5</ele><time>2026-04-05T09:33:22.963Z</time></trkpt><trkpt lat="42.6341965" lon="13.6910765"><ele>570.0</ele><time>2026-04-05T09:33:23.962Z</time></trkpt><trkpt lat="42.6342643" lon="13.6910734"><ele>569.5</ele><time>2026-04-05T09:33:24.962Z</time></trkpt><trkpt lat="42.6343346" lon="13.6910652"><ele>569.0</ele><time>2026-04-05T09:33:25.963Z</time></trkpt><trkpt lat="42.6344067" lon="13.691056"><ele>566.6666666666666</ele><time>2026-04-05T09:33:26.963Z</time></trkpt><trkpt lat="42.6344802" lon="13.6910446"><ele>564.3333333333333</ele><time>2026-04-05T09:33:27.963Z</time></trkpt><trkpt lat="42.6345561" lon="13.6910316"><ele>562.0</ele><time>2026-04-05T09:33:28.963Z</time></trkpt><trkpt lat="42.6346387" lon="13.6910269"><ele>559.6666666666666</ele><time>2026-04-05T09:33:29.962Z</time></trkpt><trkpt lat="42.6347176" lon="13.6910204"><ele>557.3333333333334</ele><time>2026-04-05T09:33:30.963Z</time></trkpt><trkpt lat="42.6347921" lon="13.6910219"><ele>555.0</ele><time>2026-04-05T09:33:31.963Z</time></trkpt><trkpt lat="42.6348645" lon="13.691025"><ele>555.0</ele><time>2026-04-05T09:33:32.963Z</time></trkpt><trkpt lat="42.6349397" lon="13.6910415"><ele>555.0</ele><time>2026-04-05T09:33:33.962Z</time></trkpt><trkpt lat="42.6350176" lon="13.6910633"><ele>555.0</ele><time>2026-04-05T09:33:34.963Z</time></trkpt><trkpt lat="42.6350966" lon="13.6911006"><ele>555.0</ele><time>2026-04-05T09:33:35.963Z</time></trkpt><trkpt lat="42.6351784" lon="13.6911199"><ele>555.0</ele><time>2026-04-05T09:33:36.962Z</time></trkpt><trkpt lat="42.6352627" lon="13.6911397"><ele>555.0</ele><time>2026-04-05T09:33:37.963Z</time></trkpt><trkpt lat="42.6353491" lon="13.6911554"><ele>552.2</ele><time>2026-04-05T09:33:38.963Z</time></trkpt><trkpt lat="42.635439" lon="13.6911633"><ele>549.4</ele><time>2026-04-05T09:33:39.963Z</time></trkpt><trkpt lat="42.6355282" lon="13.6911669"><ele>546.6</ele><time>2026-04-05T09:33:40.963Z</time></trkpt><trkpt lat="42.6356205" lon="13.6911609"><ele>543.8</ele><time>2026-04-05T09:33:41.961Z</time></trkpt><trkpt lat="42.6357147" lon="13.6911513"><ele>541.0</ele><time>2026-04-05T09:33:42.961Z</time></trkpt><trkpt lat="42.6358064" lon="13.6911439"><ele>541.0</ele><time>2026-04-05T09:33:43.961Z</time></trkpt><trkpt lat="42.6358968" lon="13.6911115"><ele>541.0</ele><time>2026-04-05T09:33:44.961Z</time></trkpt><trkpt lat="42.6359872" lon="13.6910754"><ele>541.0</ele><time>2026-04-05T09:33:45.961Z</time></trkpt><trkpt lat="42.6360745" lon="13.6910465"><ele>541.0</ele><time>2026-04-05T09:33:46.961Z</time></trkpt><trkpt lat="42.636163" lon="13.6910324"><ele>541.0</ele><time>2026-04-05T09:33:47.96Z</time></trkpt><trkpt lat="42.6362454" lon="13.6910135"><ele>542.3333333333334</ele><time>2026-04-05T09:33:48.96Z</time></trkpt><trkpt lat="42.636328" lon="13.6910069"><ele>543.6666666666667</ele><time>2026-04-05T09:33:49.961Z</time></trkpt><trkpt lat="42.6364066" lon="13.6909999"><ele>545.0</ele><time>2026-04-05T09:33:50.961Z</time></trkpt><trkpt lat="42.6364811" lon="13.6909978"><ele>546.3333333333334</ele><time>2026-04-05T09:33:51.96Z</time></trkpt><trkpt lat="42.6365536" lon="13.6910065"><ele>547.6666666666666</ele><time>2026-04-05T09:33:52.96Z</time></trkpt><trkpt lat="42.636621" lon="13.6910241"><ele>549.0</ele><time>2026-04-05T09:33:53.961Z</time></trkpt><trkpt lat="42.636736" lon="13.6910749"><ele>548.8</ele><time>2026-04-05T09:33:55.961Z</time></trkpt><trkpt lat="42.6368409" lon="13.6911326"><ele>548.5999999999999</ele><time>2026-04-05T09:33:57.961Z</time></trkpt><trkpt lat="42.6369381" lon="13.6911923"><ele>548.4</ele><time>2026-04-05T09:33:59.961Z</time></trkpt><trkpt lat="42.6370265" lon="13.6912392"><ele>548.1999999999999</ele><time>2026-04-05T09:34:01.961Z</time></trkpt><trkpt lat="42.6371135" lon="13.6912738"><ele>548.0</ele><time>2026-04-05T09:34:03.961Z</time></trkpt><trkpt lat="42.637203" lon="13.6912933"><ele>548.0</ele><time>2026-04-05T09:34:05.962Z</time></trkpt><trkpt lat="42.6372938" lon="13.6913044"><ele>548.0</ele><time>2026-04-05T09:34:07.961Z</time></trkpt><trkpt lat="42.6373867" lon="13.6913213"><ele>548.0</ele><time>2026-04-05T09:34:09.961Z</time></trkpt><trkpt lat="42.637483" lon="13.6913375"><ele>548.0</ele><time>2026-04-05T09:34:11.96Z</time></trkpt><trkpt lat="42.6375767" lon="13.6913605"><ele>548.0</ele><time>2026-04-05T09:34:13.961Z</time></trkpt><trkpt lat="42.6376696" lon="13.6913911"><ele>548.0</ele><time>2026-04-05T09:34:15.961Z</time></trkpt><trkpt lat="42.6377613" lon="13.6914406"><ele>548.0</ele><time>2026-04-05T09:34:17.962Z</time></trkpt><trkpt lat="42.6378504" lon="13.6914876"><ele>548.0</ele><time>2026-04-05T09:34:19.962Z</time></trkpt><trkpt lat="42.6379359" lon="13.691543"><ele>548.0</ele><time>2026-04-05T09:34:21.96Z</time></trkpt><trkpt lat="42.6380134" lon="13.6916085"><ele>548.0</ele><time>2026-04-05T09:34:23.961Z</time></trkpt><trkpt lat="42.6380909" lon="13.6916767"><ele>549.4</ele><time>2026-04-05T09:34:25.96Z</time></trkpt><trkpt lat="42.6381767" lon="13.6917438"><ele>550.8</ele><time>2026-04-05T09:34:27.962Z</time></trkpt><trkpt lat="42.638261" lon="13.6918273"><ele>552.2</ele><time>2026-04-05T09:34:29.96Z</time></trkpt><trkpt lat="42.6383484" lon="13.6919407"><ele>553.6</ele><time>2026-04-05T09:34:31.962Z</time></trkpt><trkpt lat="42.6383956" lon="13.6920044"><ele>555.0</ele><time>2026-04-05T09:34:32.962Z</time></trkpt><trkpt lat="42.6384446" lon="13.6920689"><ele>551.8333333333334</ele><time>2026-04-05T09:34:33.962Z</time></trkpt><trkpt lat="42.6385048" lon="13.6921178"><ele>548.6666666666666</ele><time>2026-04-05T09:34:34.962Z</time></trkpt><trkpt lat="42.6385732" lon="13.6921565"><ele>545.5</ele><time>2026-04-05T09:34:35.961Z</time></trkpt><trkpt lat="42.6386485" lon="13.6921885"><ele>542.3333333333333</ele><time>2026-04-05T09:34:36.962Z</time></trkpt><trkpt lat="42.6387313" lon="13.692209"><ele>539.1666666666666</ele><time>2026-04-05T09:34:37.962Z</time></trkpt><trkpt lat="42.6388218" lon="13.692219"><ele>536.0</ele><time>2026-04-05T09:34:38.962Z</time></trkpt><trkpt lat="42.6389134" lon="13.692244"><ele>536.0</ele><time>2026-04-05T09:34:39.961Z</time></trkpt><trkpt lat="42.6390048" lon="13.6922793"><ele>536.0</ele><time>2026-04-05T09:34:40.962Z</time></trkpt><trkpt lat="42.6390972" lon="13.6923088"><ele>536.0</ele><time>2026-04-05T09:34:41.96Z</time></trkpt><trkpt lat="42.639193" lon="13.6923276"><ele>536.0</ele><time>2026-04-05T09:34:42.961Z</time></trkpt><trkpt lat="42.6392848" lon="13.6923652"><ele>536.0</ele><time>2026-04-05T09:34:43.961Z</time></trkpt><trkpt lat="42.6393658" lon="13.6924099"><ele>536.0</ele><time>2026-04-05T09:34:44.96Z</time></trkpt><trkpt lat="42.6394409" lon="13.6924574"><ele>536.0</ele><time>2026-04-05T09:34:45.96Z</time></trkpt><trkpt lat="42.6395544" lon="13.6925253"><ele>536.0</ele><time>2026-04-05T09:34:47.96Z</time></trkpt><trkpt lat="42.6396433" lon="13.6925704"><ele>536.0</ele><time>2026-04-05T09:34:49.961Z</time></trkpt><trkpt lat="42.6397291" lon="13.6926045"><ele>536.0</ele><time>2026-04-05T09:34:51.961Z</time></trkpt><trkpt lat="42.6398041" lon="13.6926254"><ele>536.8333333333333</ele><time>2026-04-05T09:34:53.96Z</time></trkpt><trkpt lat="42.6398791" lon="13.6926417"><ele>537.6666666666666</ele><time>2026-04-05T09:34:55.961Z</time></trkpt><trkpt lat="42.639964" lon="13.6926408"><ele>538.5</ele><time>2026-04-05T09:34:57.961Z</time></trkpt><trkpt lat="42.6400536" lon="13.6926475"><ele>539.3333333333334</ele><time>2026-04-05T09:34:59.961Z</time></trkpt><trkpt lat="42.6401668" lon="13.6926997"><ele>540.1666666666667</ele><time>2026-04-05T09:35:01.96Z</time></trkpt><trkpt lat="42.640228" lon="13.6927359"><ele>541.0</ele><time>2026-04-05T09:35:02.961Z</time></trkpt><trkpt lat="42.6402947" lon="13.6927784"><ele>539.5714285714287</ele><time>2026-04-05T09:35:03.961Z</time></trkpt><trkpt lat="42.6403595" lon="13.6928203"><ele>538.1428571428571</ele><time>2026-04-05T09:35:04.962Z</time></trkpt><trkpt lat="42.6404264" lon="13.692858"><ele>536.7142857142858</ele><time>2026-04-05T09:35:05.961Z</time></trkpt><trkpt lat="42.6404857" lon="13.692889"><ele>535.2857142857143</ele><time>2026-04-05T09:35:06.962Z</time></trkpt><trkpt lat="42.6405435" lon="13.6929287"><ele>533.8571428571429</ele><time>2026-04-05T09:35:07.962Z</time></trkpt><trkpt lat="42.6406105" lon="13.6929456"><ele>532.4285714285714</ele><time>2026-04-05T09:35:08.96Z</time></trkpt><trkpt lat="42.6406703" lon="13.6929869"><ele>531.0</ele><time>2026-04-05T09:35:09.961Z</time></trkpt><trkpt lat="42.6407381" lon="13.6930193"><ele>531.0</ele><time>2026-04-05T09:35:10.962Z</time></trkpt><trkpt lat="42.6408047" lon="13.6930416"><ele>531.0</ele><time>2026-04-05T09:35:11.96Z</time></trkpt><trkpt lat="42.640871" lon="13.6930664"><ele>531.0</ele><time>2026-04-05T09:35:12.96Z</time></trkpt><trkpt lat="42.6409688" lon="13.6930402"><ele>531.0</ele><time>2026-04-05T09:35:13.96Z</time></trkpt><trkpt lat="42.6410578" lon="13.6930245"><ele>531.0</ele><time>2026-04-05T09:35:14.961Z</time></trkpt><trkpt lat="42.6411659" lon="13.6930422"><ele>531.0</ele><time>2026-04-05T09:35:15.962Z</time></trkpt><trkpt lat="42.6412623" lon="13.6930565"><ele>532.2</ele><time>2026-04-05T09:35:16.961Z</time></trkpt><trkpt lat="42.6413654" lon="13.693061"><ele>533.4000000000001</ele><time>2026-04-05T09:35:17.961Z</time></trkpt><trkpt lat="42.6414699" lon="13.693104"><ele>534.6</ele><time>2026-04-05T09:35:18.96Z</time></trkpt><trkpt lat="42.6415697" lon="13.6931248"><ele>535.8000000000001</ele><time>2026-04-05T09:35:19.961Z</time></trkpt><trkpt lat="42.6416488" lon="13.6931979"><ele>537.0</ele><time>2026-04-05T09:35:20.96Z</time></trkpt><trkpt lat="42.6417352" lon="13.6932613"><ele>537.0</ele><time>2026-04-05T09:35:21.96Z</time></trkpt><trkpt lat="42.6418053" lon="13.6933544"><ele>537.0</ele><time>2026-04-05T09:35:22.96Z</time></trkpt><trkpt lat="42.6418742" lon="13.6934388"><ele>537.0</ele><time>2026-04-05T09:35:23.96Z</time></trkpt><trkpt lat="42.6419375" lon="13.6935106"><ele>537.0</ele><time>2026-04-05T09:35:24.961Z</time></trkpt><trkpt lat="42.6420059" lon="13.6935877"><ele>537.0</ele><time>2026-04-05T09:35:25.961Z</time></trkpt><trkpt lat="42.6420622" lon="13.6936714"><ele>537.0</ele><time>2026-04-05T09:35:26.961Z</time></trkpt><trkpt lat="42.6421249" lon="13.693751"><ele>534.5</ele><time>2026-04-05T09:35:27.96Z</time></trkpt><trkpt lat="42.6421887" lon="13.6938318"><ele>532.0</ele><time>2026-04-05T09:35:28.961Z</time></trkpt><trkpt lat="42.6422472" lon="13.6939132"><ele>529.5</ele><time>2026-04-05T09:35:29.961Z</time></trkpt><trkpt lat="42.6423075" lon="13.6939916"><ele>527.0</ele><time>2026-04-05T09:35:30.961Z</time></trkpt><trkpt lat="42.6423611" lon="13.6940819"><ele>524.5</ele><time>2026-04-05T09:35:31.962Z</time></trkpt><trkpt lat="42.6424056" lon="13.6941719"><ele>522.0</ele><time>2026-04-05T09:35:32.962Z</time></trkpt><trkpt lat="42.6424418" lon="13.6942602"><ele>522.0</ele><time>2026-04-05T09:35:33.961Z</time></trkpt><trkpt lat="42.6424655" lon="13.6943506"><ele>522.0</ele><time>2026-04-05T09:35:34.962Z</time></trkpt><trkpt lat="42.6424877" lon="13.6944416"><ele>522.0</ele><time>2026-04-05T09:35:35.96Z</time></trkpt><trkpt lat="42.6425304" lon="13.6945894"><ele>522.0</ele><time>2026-04-05T09:35:37.961Z</time></trkpt><trkpt lat="42.6425588" lon="13.6946682"><ele>522.0</ele><time>2026-04-05T09:35:38.962Z</time></trkpt><trkpt lat="42.6426004" lon="13.6947454"><ele>522.0</ele><time>2026-04-05T09:35:39.962Z</time></trkpt><trkpt lat="42.6426579" lon="13.6948238"><ele>520.3333333333334</ele><time>2026-04-05T09:35:40.962Z</time></trkpt><trkpt lat="42.6427166" lon="13.694892"><ele>518.6666666666666</ele><time>2026-04-05T09:35:41.961Z</time></trkpt><trkpt lat="42.6427814" lon="13.6949582"><ele>517.0</ele><time>2026-04-05T09:35:42.962Z</time></trkpt><trkpt lat="42.6428428" lon="13.6950268"><ele>515.3333333333333</ele><time>2026-04-05T09:35:43.961Z</time></trkpt><trkpt lat="42.6429061" lon="13.6950934"><ele>513.6666666666666</ele><time>2026-04-05T09:35:44.962Z</time></trkpt><trkpt lat="42.6429759" lon="13.6951702"><ele>512.0</ele><time>2026-04-05T09:35:45.962Z</time></trkpt><trkpt lat="42.6430472" lon="13.6952524"><ele>509.40000000000003</ele><time>2026-04-05T09:35:46.961Z</time></trkpt><trkpt lat="42.6431195" lon="13.6953433"><ele>506.80000000000007</ele><time>2026-04-05T09:35:47.962Z</time></trkpt><trkpt lat="42.643189" lon="13.6954319"><ele>504.2</ele><time>2026-04-05T09:35:48.961Z</time></trkpt><trkpt lat="42.6432531" lon="13.6955105"><ele>501.6</ele><time>2026-04-05T09:35:49.961Z</time></trkpt><trkpt lat="42.6433074" lon="13.6956049"><ele>499.0</ele><time>2026-04-05T09:35:50.961Z</time></trkpt><trkpt lat="42.6433571" lon="13.6957054"><ele>499.0</ele><time>2026-04-05T09:35:51.961Z</time></trkpt><trkpt lat="42.6433978" lon="13.6958258"><ele>499.0</ele><time>2026-04-05T09:35:52.961Z</time></trkpt><trkpt lat="42.643437" lon="13.6959466"><ele>499.0</ele><time>2026-04-05T09:35:53.961Z</time></trkpt><trkpt lat="42.6434863" lon="13.6960663"><ele>499.0</ele><time>2026-04-05T09:35:54.961Z</time></trkpt><trkpt lat="42.6435447" lon="13.696177"><ele>499.0</ele><time>2026-04-05T09:35:55.961Z</time></trkpt><trkpt lat="42.6436055" lon="13.6962693"><ele>498.1666666666667</ele><time>2026-04-05T09:35:56.96Z</time></trkpt><trkpt lat="42.6436622" lon="13.6963596"><ele>497.33333333333337</ele><time>2026-04-05T09:35:57.96Z</time></trkpt><trkpt lat="42.6437156" lon="13.6964341"><ele>496.5</ele><time>2026-04-05T09:35:58.961Z</time></trkpt><trkpt lat="42.6437645" lon="13.6965089"><ele>495.66666666666663</ele><time>2026-04-05T09:35:59.961Z</time></trkpt><trkpt lat="42.6438104" lon="13.6965747"><ele>494.8333333333333</ele><time>2026-04-05T09:36:00.962Z</time></trkpt><trkpt lat="42.6438922" lon="13.6966871"><ele>494.0</ele><time>2026-04-05T09:36:02.962Z</time></trkpt><trkpt lat="42.6439627" lon="13.696792"><ele>493.99999999999994</ele><time>2026-04-05T09:36:04.962Z</time></trkpt><trkpt lat="42.6440276" lon="13.6968933"><ele>494.0</ele><time>2026-04-05T09:36:06.961Z</time></trkpt><trkpt lat="42.6440842" lon="13.6969845"><ele>494.0</ele><time>2026-04-05T09:36:08.961Z</time></trkpt><trkpt lat="42.644143" lon="13.6970745"><ele>494.0</ele><time>2026-04-05T09:36:10.962Z</time></trkpt><trkpt lat="42.6441985" lon="13.6971571"><ele>493.99999999999994</ele><time>2026-04-05T09:36:12.961Z</time></trkpt><trkpt lat="42.6442543" lon="13.6972462"><ele>494.0</ele><time>2026-04-05T09:36:14.961Z</time></trkpt><trkpt lat="42.6443077" lon="13.6973311"><ele>493.3333333333333</ele><time>2026-04-05T09:36:16.96Z</time></trkpt><trkpt lat="42.6443615" lon="13.6974143"><ele>492.66666666666663</ele><time>2026-04-05T09:36:18.962Z</time></trkpt><trkpt lat="42.6444125" lon="13.6974957"><ele>492.0</ele><time>2026-04-05T09:36:20.962Z</time></trkpt><trkpt lat="42.6444587" lon="13.6975826"><ele>491.33333333333337</ele><time>2026-04-05T09:36:22.96Z</time></trkpt><trkpt lat="42.6444936" lon="13.6976781"><ele>490.6666666666667</ele><time>2026-04-05T09:36:24.961Z</time></trkpt><trkpt lat="42.6445159" lon="13.6977859"><ele>490.0</ele><time>2026-04-05T09:36:26.96Z</time></trkpt><trkpt lat="42.6445363" lon="13.6979039"><ele>492.4</ele><time>2026-04-05T09:36:28.961Z</time></trkpt><trkpt lat="42.6445458" lon="13.6980239"><ele>494.8</ele><time>2026-04-05T09:36:30.961Z</time></trkpt><trkpt lat="42.6445821" lon="13.698153"><ele>497.20000000000005</ele><time>2026-04-05T09:36:32.96Z</time></trkpt><trkpt lat="42.6446375" lon="13.6982806"><ele>499.6</ele><time>2026-04-05T09:36:34.96Z</time></trkpt><trkpt lat="42.6446828" lon="13.6984221"><ele>502.0</ele><time>2026-04-05T09:36:36.96Z</time></trkpt><trkpt lat="42.6447359" lon="13.6985594"><ele>503.0</ele><time>2026-04-05T09:36:38.96Z</time></trkpt><trkpt lat="42.6447886" lon="13.6987037"><ele>504.0</ele><time>2026-04-05T09:36:40.96Z</time></trkpt><trkpt lat="42.644848" lon="13.6988531"><ele>505.0</ele><time>2026-04-05T09:36:42.96Z</time></trkpt><trkpt lat="42.644902" lon="13.6989938"><ele>506.0</ele><time>2026-04-05T09:36:44.961Z</time></trkpt><trkpt lat="42.644945" lon="13.699109"><ele>506.0</ele><time>2026-04-05T09:36:46.961Z</time></trkpt><trkpt lat="42.6449874" lon="13.6992403"><ele>506.0</ele><time>2026-04-05T09:36:48.96Z</time></trkpt><trkpt lat="42.645037" lon="13.6993582"><ele>506.0</ele><time>2026-04-05T09:36:50.96Z</time></trkpt><trkpt lat="42.6450893" lon="13.6994794"><ele>506.0</ele><time>2026-04-05T09:36:52.96Z</time></trkpt><trkpt lat="42.6451397" lon="13.6996065"><ele>506.0</ele><time>2026-04-05T09:36:54.961Z</time></trkpt><trkpt lat="42.645201" lon="13.6997218"><ele>506.66666666666663</ele><time>2026-04-05T09:36:56.96Z</time></trkpt><trkpt lat="42.6452682" lon="13.699819"><ele>507.3333333333333</ele><time>2026-04-05T09:36:58.96Z</time></trkpt><trkpt lat="42.6453282" lon="13.6999132"><ele>508.0</ele><time>2026-04-05T09:37:00.959Z</time></trkpt><trkpt lat="42.6453723" lon="13.6999912"><ele>508.66666666666663</ele><time>2026-04-05T09:37:02.961Z</time></trkpt><trkpt lat="42.6454013" lon="13.7000744"><ele>509.3333333333333</ele><time>2026-04-05T09:37:04.961Z</time></trkpt><trkpt lat="42.6454275" lon="13.7002026"><ele>510.0</ele><time>2026-04-05T09:37:07.96Z</time></trkpt><trkpt lat="42.6454525" lon="13.7002815"><ele>510.1666666666667</ele><time>2026-04-05T09:37:09.961Z</time></trkpt><trkpt lat="42.6454849" lon="13.700391"><ele>510.33333333333337</ele><time>2026-04-05T09:37:12.96Z</time></trkpt><trkpt lat="42.6455149" lon="13.7005019"><ele>510.5</ele><time>2026-04-05T09:37:15.96Z</time></trkpt><trkpt lat="42.6455517" lon="13.7005938"><ele>510.6666666666667</ele><time>2026-04-05T09:37:18.96Z</time></trkpt><trkpt lat="42.6455906" lon="13.7006794"><ele>510.83333333333337</ele><time>2026-04-05T09:37:23.96Z</time></trkpt><trkpt lat="42.6456191" lon="13.7007664"><ele>511.0</ele><time>2026-04-05T09:37:29.96Z</time></trkpt><trkpt lat="42.6456802" lon="13.7008202"><ele>511.0</ele><time>2026-04-05T09:43:44.958Z</time></trkpt><trkpt lat="42.645625" lon="13.7007502"><ele>511.0</ele><time>2026-04-05T09:45:03.957Z</time></trkpt><trkpt lat="42.6455669" lon="13.7006948"><ele>511.0</ele><time>2026-04-05T09:45:09.957Z</time></trkpt><trkpt lat="42.6455454" lon="13.7006113"><ele>511.0</ele><time>2026-04-05T09:45:13.957Z</time></trkpt><trkpt lat="42.6454941" lon="13.7005597"><ele>511.0</ele><time>2026-04-05T09:45:19.957Z</time></trkpt><trkpt lat="42.6454198" lon="13.7005145"><ele>511.0</ele><time>2026-04-05T09:45:24.957Z</time></trkpt><trkpt lat="42.6453567" lon="13.700461"><ele>511.0</ele><time>2026-04-05T09:45:27.956Z</time></trkpt><trkpt lat="42.6452958" lon="13.7004973"><ele>511.00000000000006</ele><time>2026-04-05T09:45:30.957Z</time></trkpt><trkpt lat="42.6453033" lon="13.7005987"><ele>511.0</ele><time>2026-04-05T09:45:33.958Z</time></trkpt><trkpt lat="42.6453058" lon="13.7006946"><ele>511.0</ele><time>2026-04-05T09:45:37.958Z</time></trkpt><trkpt lat="42.6452953" lon="13.7007865"><ele>511.0</ele><time>2026-04-05T09:45:42.956Z</time></trkpt><trkpt lat="42.6452045" lon="13.7007732"><ele>511.00000000000006</ele><time>2026-04-05T09:45:46.957Z</time></trkpt><trkpt lat="42.6451293" lon="13.7008137"><ele>511.0</ele><time>2026-04-05T09:45:48.958Z</time></trkpt><trkpt lat="42.6450359" lon="13.7008109"><ele>510.8</ele><time>2026-04-05T09:45:50.956Z</time></trkpt><trkpt lat="42.6449341" lon="13.7007364"><ele>510.6</ele><time>2026-04-05T09:45:52.956Z</time></trkpt><trkpt lat="42.6448554" lon="13.7006604"><ele>510.4</ele><time>2026-04-05T09:45:54.957Z</time></trkpt><trkpt lat="42.6447914" lon="13.7006704"><ele>510.2</ele><time>2026-04-05T09:45:56.956Z</time></trkpt><trkpt lat="42.644698" lon="13.7007438"><ele>510.0</ele><time>2026-04-05T09:45:58.957Z</time></trkpt><trkpt lat="42.6446356" lon="13.7007773"><ele>510.0</ele><time>2026-04-05T09:45:59.958Z</time></trkpt><trkpt lat="42.644568" lon="13.7008144"><ele>510.0</ele><time>2026-04-05T09:46:00.958Z</time></trkpt><trkpt lat="42.6444981" lon="13.7008678"><ele>510.0</ele><time>2026-04-05T09:46:01.958Z</time></trkpt><trkpt lat="42.6444387" lon="13.7009475"><ele>510.0</ele><time>2026-04-05T09:46:02.957Z</time></trkpt><trkpt lat="42.644399" lon="13.7010417"><ele>510.0</ele><time>2026-04-05T09:46:03.958Z</time></trkpt><trkpt lat="42.644388" lon="13.7011372"><ele>510.0</ele><time>2026-04-05T09:46:04.958Z</time></trkpt><trkpt lat="42.6443826" lon="13.7012622"><ele>507.0</ele><time>2026-04-05T09:46:06.957Z</time></trkpt><trkpt lat="42.6444672" lon="13.7012919"><ele>504.0</ele><time>2026-04-05T09:46:09.958Z</time></trkpt><trkpt lat="42.6445385" lon="13.7012404"><ele>501.0</ele><time>2026-04-05T09:46:11.957Z</time></trkpt><trkpt lat="42.6446282" lon="13.7012008"><ele>498.0</ele><time>2026-04-05T09:46:13.956Z</time></trkpt><trkpt lat="42.6447051" lon="13.7011947"><ele>495.0</ele><time>2026-04-05T09:46:15.956Z</time></trkpt><trkpt lat="42.6447671" lon="13.701236"><ele>492.0</ele><time>2026-04-05T09:46:18.957Z</time></trkpt><trkpt lat="42.6448065" lon="13.7013277"><ele>492.0</ele><time>2026-04-05T09:46:21.957Z</time></trkpt><trkpt lat="42.6448381" lon="13.7014268"><ele>492.0</ele><time>2026-04-05T09:46:24.956Z</time></trkpt><trkpt lat="42.6448489" lon="13.7015129"><ele>492.0</ele><time>2026-04-05T09:46:28.958Z</time></trkpt><trkpt lat="42.6448524" lon="13.7016196"><ele>492.0</ele><time>2026-04-05T09:46:31.956Z</time></trkpt><trkpt lat="42.6448406" lon="13.7017235"><ele>492.0</ele><time>2026-04-05T09:46:34.956Z</time></trkpt><trkpt lat="42.6448663" lon="13.7018658"><ele>492.0</ele><time>2026-04-05T09:46:37.957Z</time></trkpt><trkpt lat="42.6449275" lon="13.7019824"><ele>488.8333333333333</ele><time>2026-04-05T09:46:39.956Z</time></trkpt><trkpt lat="42.6450057" lon="13.7021059"><ele>485.66666666666663</ele><time>2026-04-05T09:46:41.957Z</time></trkpt><trkpt lat="42.6450477" lon="13.7021724"><ele>482.5</ele><time>2026-04-05T09:46:42.957Z</time></trkpt><trkpt lat="42.6451323" lon="13.7022572"><ele>479.3333333333333</ele><time>2026-04-05T09:46:44.956Z</time></trkpt><trkpt lat="42.6451911" lon="13.7023357"><ele>476.16666666666663</ele><time>2026-04-05T09:46:46.957Z</time></trkpt><trkpt lat="42.6452431" lon="13.7024033"><ele>473.0</ele><time>2026-04-05T09:46:48.956Z</time></trkpt><trkpt lat="42.645298" lon="13.7024693"><ele>472.99999999999994</ele><time>2026-04-05T09:46:50.955Z</time></trkpt><trkpt lat="42.6453493" lon="13.7025374"><ele>473.0</ele><time>2026-04-05T09:46:52.955Z</time></trkpt><trkpt lat="42.6453932" lon="13.7025996"><ele>473.0</ele><time>2026-04-05T09:46:54.955Z</time></trkpt><trkpt lat="42.6454596" lon="13.7026871"><ele>473.0</ele><time>2026-04-05T09:46:57.956Z</time></trkpt><trkpt lat="42.6455231" lon="13.7027286"><ele>472.99999999999994</ele><time>2026-04-05T09:47:01.956Z</time></trkpt><trkpt lat="42.6455904" lon="13.702664"><ele>473.0</ele><time>2026-04-05T09:47:06.956Z</time></trkpt><trkpt lat="42.6455322" lon="13.7027338"><ele>471.16666666666663</ele><time>2026-04-05T09:47:22.956Z</time></trkpt><trkpt lat="42.6455426" lon="13.7028339"><ele>469.3333333333333</ele><time>2026-04-05T09:47:25.956Z</time></trkpt><trkpt lat="42.6455854" lon="13.7029017"><ele>467.5</ele><time>2026-04-05T09:47:27.956Z</time></trkpt><trkpt lat="42.6456397" lon="13.702965"><ele>465.66666666666663</ele><time>2026-04-05T09:47:29.957Z</time></trkpt><trkpt lat="42.6456777" lon="13.7030369"><ele>463.8333333333333</ele><time>2026-04-05T09:47:31.956Z</time></trkpt><trkpt lat="42.6456912" lon="13.7031796"><ele>462.0</ele><time>2026-04-05T09:47:33.956Z</time></trkpt><trkpt lat="42.6457394" lon="13.7033152"><ele>462.0</ele><time>2026-04-05T09:47:35.955Z</time></trkpt><trkpt lat="42.6457952" lon="13.7033746"><ele>462.0</ele><time>2026-04-05T09:47:36.955Z</time></trkpt><trkpt lat="42.6458971" lon="13.7034845"><ele>462.0</ele><time>2026-04-05T09:47:38.957Z</time></trkpt><trkpt lat="42.6459275" lon="13.7035736"><ele>462.0</ele><time>2026-04-05T09:47:39.956Z</time></trkpt><trkpt lat="42.6459443" lon="13.7036695"><ele>462.0</ele><time>2026-04-05T09:47:40.956Z</time></trkpt><trkpt lat="42.6459564" lon="13.7037684"><ele>462.0</ele><time>2026-04-05T09:47:41.955Z</time></trkpt><trkpt lat="42.6459694" lon="13.7038834"><ele>460.0</ele><time>2026-04-05T09:47:42.955Z</time></trkpt><trkpt lat="42.6459787" lon="13.7040015"><ele>458.00000000000006</ele><time>2026-04-05T09:47:43.955Z</time></trkpt><trkpt lat="42.6459926" lon="13.7041232"><ele>456.00000000000006</ele><time>2026-04-05T09:47:44.956Z</time></trkpt><trkpt lat="42.6460054" lon="13.7042535"><ele>454.0</ele><time>2026-04-05T09:47:45.956Z</time></trkpt><trkpt lat="42.6460108" lon="13.7043831"><ele>452.0</ele><time>2026-04-05T09:47:46.956Z</time></trkpt><trkpt lat="42.6460167" lon="13.7045055"><ele>451.66666666666663</ele><time>2026-04-05T09:47:47.956Z</time></trkpt><trkpt lat="42.6460308" lon="13.7046301"><ele>451.3333333333333</ele><time>2026-04-05T09:47:48.955Z</time></trkpt><trkpt lat="42.6460439" lon="13.7047481"><ele>451.0</ele><time>2026-04-05T09:47:49.956Z</time></trkpt><trkpt lat="42.6460551" lon="13.7048506"><ele>450.66666666666663</ele><time>2026-04-05T09:47:50.955Z</time></trkpt><trkpt lat="42.6460673" lon="13.70494"><ele>450.3333333333333</ele><time>2026-04-05T09:47:51.956Z</time></trkpt><trkpt lat="42.6460965" lon="13.7050893"><ele>450.0</ele><time>2026-04-05T09:47:53.957Z</time></trkpt><trkpt lat="42.6461089" lon="13.7052295"><ele>448.8</ele><time>2026-04-05T09:47:55.957Z</time></trkpt><trkpt lat="42.6461077" lon="13.705359"><ele>447.6</ele><time>2026-04-05T09:47:57.956Z</time></trkpt><trkpt lat="42.6461171" lon="13.7055029"><ele>446.4</ele><time>2026-04-05T09:47:59.956Z</time></trkpt><trkpt lat="42.6461323" lon="13.7056769"><ele>445.2</ele><time>2026-04-05T09:48:01.956Z</time></trkpt><trkpt lat="42.6461356" lon="13.7057823"><ele>444.0</ele><time>2026-04-05T09:48:02.955Z</time></trkpt><trkpt lat="42.6461427" lon="13.7059086"><ele>443.1666666666667</ele><time>2026-04-05T09:48:03.956Z</time></trkpt><trkpt lat="42.6461529" lon="13.7060258"><ele>442.33333333333337</ele><time>2026-04-05T09:48:04.955Z</time></trkpt><trkpt lat="42.6461696" lon="13.7061457"><ele>441.5</ele><time>2026-04-05T09:48:05.955Z</time></trkpt><trkpt lat="42.6461907" lon="13.7062592"><ele>440.6666666666667</ele><time>2026-04-05T09:48:06.955Z</time></trkpt><trkpt lat="42.6462119" lon="13.7063741"><ele>439.83333333333337</ele><time>2026-04-05T09:48:07.956Z</time></trkpt><trkpt lat="42.646238" lon="13.7064837"><ele>439.0</ele><time>2026-04-05T09:48:08.957Z</time></trkpt><trkpt lat="42.6462553" lon="13.7065754"><ele>439.00000000000006</ele><time>2026-04-05T09:48:09.956Z</time></trkpt><trkpt lat="42.6462607" lon="13.7066684"><ele>439.0</ele><time>2026-04-05T09:48:10.956Z</time></trkpt><trkpt lat="42.6462635" lon="13.7067547"><ele>439.0</ele><time>2026-04-05T09:48:11.956Z</time></trkpt><trkpt lat="42.6462575" lon="13.7068834"><ele>439.0</ele><time>2026-04-05T09:48:13.957Z</time></trkpt><trkpt lat="42.6462245" lon="13.70698"><ele>439.00000000000006</ele><time>2026-04-05T09:48:15.955Z</time></trkpt><trkpt lat="42.6462278" lon="13.7070895"><ele>439.0</ele><time>2026-04-05T09:48:17.955Z</time></trkpt><trkpt lat="42.646231" lon="13.7071871"><ele>438.00000000000006</ele><time>2026-04-05T09:48:19.955Z</time></trkpt><trkpt lat="42.6462636" lon="13.7073044"><ele>437.0</ele><time>2026-04-05T09:48:21.956Z</time></trkpt><trkpt lat="42.6462782" lon="13.7073899"><ele>436.0</ele><time>2026-04-05T09:48:23.957Z</time></trkpt><trkpt lat="42.6462708" lon="13.7074802"><ele>435.0</ele><time>2026-04-05T09:48:25.957Z</time></trkpt><trkpt lat="42.6462838" lon="13.7075874"><ele>434.00000000000006</ele><time>2026-04-05T09:48:28.957Z</time></trkpt><trkpt lat="42.6463082" lon="13.7076964"><ele>433.0</ele><time>2026-04-05T09:48:36.956Z</time></trkpt><trkpt lat="42.6463238" lon="13.7077897"><ele>431.33333333333337</ele><time>2026-04-05T09:48:39.955Z</time></trkpt><trkpt lat="42.6463293" lon="13.7078821"><ele>429.6666666666667</ele><time>2026-04-05T09:48:43.956Z</time></trkpt><trkpt lat="42.6463417" lon="13.707973"><ele>428.0</ele><time>2026-04-05T09:48:54.957Z</time></trkpt><trkpt lat="42.6463461" lon="13.7080598"><ele>426.33333333333337</ele><time>2026-04-05T09:49:06.954Z</time></trkpt><trkpt lat="42.6463628" lon="13.7081698"><ele>424.6666666666667</ele><time>2026-04-05T09:49:14.955Z</time></trkpt><trkpt lat="42.6463822" lon="13.7082561"><ele>423.0</ele><time>2026-04-05T09:49:16.955Z</time></trkpt><trkpt lat="42.6464289" lon="13.7083901"><ele>423.0</ele><time>2026-04-05T09:49:18.956Z</time></trkpt><trkpt lat="42.6464634" lon="13.7084829"><ele>423.0</ele><time>2026-04-05T09:49:19.956Z</time></trkpt><trkpt lat="42.6464958" lon="13.7085882"><ele>423.0</ele><time>2026-04-05T09:49:20.956Z</time></trkpt><trkpt lat="42.646508" lon="13.7086931"><ele>423.0</ele><time>2026-04-05T09:49:21.956Z</time></trkpt><trkpt lat="42.6465197" lon="13.7087959"><ele>423.0</ele><time>2026-04-05T09:49:22.956Z</time></trkpt><trkpt lat="42.6465655" lon="13.7089659"><ele>423.0</ele><time>2026-04-05T09:49:24.956Z</time></trkpt><trkpt lat="42.6465809" lon="13.7090601"><ele>421.1666666666667</ele><time>2026-04-05T09:49:25.955Z</time></trkpt><trkpt lat="42.6465911" lon="13.7091532"><ele>419.33333333333337</ele><time>2026-04-05T09:49:26.956Z</time></trkpt><trkpt lat="42.6465886" lon="13.7092585"><ele>417.5</ele><time>2026-04-05T09:49:27.956Z</time></trkpt><trkpt lat="42.6465648" lon="13.70936"><ele>415.6666666666667</ele><time>2026-04-05T09:49:28.956Z</time></trkpt><trkpt lat="42.6465336" lon="13.7094428"><ele>413.83333333333337</ele><time>2026-04-05T09:49:29.956Z</time></trkpt><trkpt lat="42.6465081" lon="13.7095332"><ele>412.0</ele><time>2026-04-05T09:49:30.955Z</time></trkpt><trkpt lat="42.6464836" lon="13.7096902"><ele>402.0</ele><time>2026-04-05T09:49:32.955Z</time></trkpt><trkpt lat="42.646451" lon="13.7098282"><ele>402.0</ele><time>2026-04-05T09:49:34.954Z</time></trkpt><trkpt lat="42.6464917" lon="13.7099043"><ele>402.0</ele><time>2026-04-05T09:49:36.955Z</time></trkpt><trkpt lat="42.6465553" lon="13.7098918"><ele>402.0</ele><time>2026-04-05T09:51:09.955Z</time></trkpt></trkseg></trk></gpx>